<?xml version="1.0" encoding="UTF-8" standalone="no" ?>
<gpx xmlns="http://www.topografix.com/GPX/1/1" xmlns:xsi="http://www.w3.org/2001/XMLSchema-instance" xsi:schemaLocation="http://www.topografix.com/GPX/1/1 http://www.topografix.com/GPX/1/1/gpx.xsd" version="1.1" creator="VisuGPX - https://www.visugpx.com">
  <metadata>
    <name>1e Rand'ognon</name>
    <desc><![CDATA[Organisé par les Chantalistes]]></desc>
  </metadata>
  <trk>
    <name><![CDATA[2015-01-10 17:56]]></name>
    <desc><![CDATA[]]></desc>
    <trkseg>
      <trkpt lat="47.32153" lon="4.98256">
        <ele>283</ele>
        <time>2015-01-10T16:56:49.331Z</time>
      </trkpt>
      <trkpt lat="47.3216" lon="4.98248">
        <ele>284</ele>
        <time>2015-01-10T16:57:07.369Z</time>
      </trkpt>
      <trkpt lat="47.3216" lon="4.98248">
        <ele>284</ele>
        <time>2015-01-10T16:57:08.264Z</time>
      </trkpt>
      <trkpt lat="47.3216" lon="4.98248">
        <ele>284</ele>
        <time>2015-01-10T16:57:09.285Z</time>
      </trkpt>
      <trkpt lat="47.3216" lon="4.98249">
        <ele>284</ele>
        <time>2015-01-10T16:57:10.274Z</time>
      </trkpt>
      <trkpt lat="47.32161" lon="4.98249">
        <ele>283</ele>
        <time>2015-01-10T16:57:11.261Z</time>
      </trkpt>
      <trkpt lat="47.32161" lon="4.98249">
        <ele>283</ele>
        <time>2015-01-10T16:57:12.265Z</time>
      </trkpt>
      <trkpt lat="47.32161" lon="4.98249">
        <ele>283</ele>
        <time>2015-01-10T16:57:33.279Z</time>
      </trkpt>
      <trkpt lat="47.32162" lon="4.98255">
        <ele>283</ele>
        <time>2015-01-10T16:57:34.280Z</time>
      </trkpt>
      <trkpt lat="47.32162" lon="4.98255">
        <ele>283</ele>
        <time>2015-01-10T16:57:39.300Z</time>
      </trkpt>
      <trkpt lat="47.32162" lon="4.98255">
        <ele>283</ele>
        <time>2015-01-10T16:57:40.294Z</time>
      </trkpt>
      <trkpt lat="47.32162" lon="4.98255">
        <ele>283</ele>
        <time>2015-01-10T16:57:49.282Z</time>
      </trkpt>
      <trkpt lat="47.32157" lon="4.98256">
        <ele>283</ele>
        <time>2015-01-10T16:57:50.306Z</time>
      </trkpt>
      <trkpt lat="47.32158" lon="4.9826">
        <ele>283</ele>
        <time>2015-01-10T16:57:53.278Z</time>
      </trkpt>
      <trkpt lat="47.32159" lon="4.98261">
        <ele>283</ele>
        <time>2015-01-10T16:57:54.292Z</time>
      </trkpt>
      <trkpt lat="47.32158" lon="4.98261">
        <ele>283</ele>
        <time>2015-01-10T16:58:36.293Z</time>
      </trkpt>
      <trkpt lat="47.32159" lon="4.9826">
        <ele>283</ele>
        <time>2015-01-10T16:58:37.303Z</time>
      </trkpt>
      <trkpt lat="47.32158" lon="4.9826">
        <ele>283</ele>
        <time>2015-01-10T16:58:38.300Z</time>
      </trkpt>
      <trkpt lat="47.32157" lon="4.9826">
        <ele>283</ele>
        <time>2015-01-10T16:58:39.289Z</time>
      </trkpt>
      <trkpt lat="47.32158" lon="4.9826">
        <ele>283</ele>
        <time>2015-01-10T16:59:14.289Z</time>
      </trkpt>
      <trkpt lat="47.32158" lon="4.9826">
        <ele>283</ele>
        <time>2015-01-10T16:59:15.294Z</time>
      </trkpt>
      <trkpt lat="47.32158" lon="4.9826">
        <ele>283</ele>
        <time>2015-01-10T17:00:30.294Z</time>
      </trkpt>
      <trkpt lat="47.32152" lon="4.98262">
        <ele>284</ele>
        <time>2015-01-10T17:00:31.294Z</time>
      </trkpt>
      <trkpt lat="47.32152" lon="4.98262">
        <ele>283</ele>
        <time>2015-01-10T17:00:39.288Z</time>
      </trkpt>
      <trkpt lat="47.32152" lon="4.98262">
        <ele>283</ele>
        <time>2015-01-10T17:00:40.296Z</time>
      </trkpt>
      <trkpt lat="47.32152" lon="4.98262">
        <ele>283</ele>
        <time>2015-01-10T17:01:00.262Z</time>
      </trkpt>
      <trkpt lat="47.32153" lon="4.9826">
        <ele>283</ele>
        <time>2015-01-10T17:01:01.288Z</time>
      </trkpt>
      <trkpt lat="47.32151" lon="4.9826">
        <ele>284</ele>
        <time>2015-01-10T17:01:05.298Z</time>
      </trkpt>
      <trkpt lat="47.32151" lon="4.9826">
        <ele>284</ele>
        <time>2015-01-10T17:01:06.297Z</time>
      </trkpt>
      <trkpt lat="47.32151" lon="4.98259">
        <ele>284</ele>
        <time>2015-01-10T17:01:31.283Z</time>
      </trkpt>
      <trkpt lat="47.32151" lon="4.98253">
        <ele>283</ele>
        <time>2015-01-10T17:01:32.301Z</time>
      </trkpt>
      <trkpt lat="47.32144" lon="4.98246">
        <ele>284</ele>
        <time>2015-01-10T17:01:43.295Z</time>
      </trkpt>
      <trkpt lat="47.32143" lon="4.98245">
        <ele>284</ele>
        <time>2015-01-10T17:01:44.304Z</time>
      </trkpt>
      <trkpt lat="47.32138" lon="4.9824">
        <ele>285</ele>
        <time>2015-01-10T17:01:54.299Z</time>
      </trkpt>
      <trkpt lat="47.32138" lon="4.9824">
        <ele>285</ele>
        <time>2015-01-10T17:01:55.311Z</time>
      </trkpt>
      <trkpt lat="47.32138" lon="4.9824">
        <ele>285</ele>
        <time>2015-01-10T17:02:05.285Z</time>
      </trkpt>
      <trkpt lat="47.32133" lon="4.98238">
        <ele>285</ele>
        <time>2015-01-10T17:02:06.286Z</time>
      </trkpt>
      <trkpt lat="47.32132" lon="4.98238">
        <ele>285</ele>
        <time>2015-01-10T17:02:10.303Z</time>
      </trkpt>
      <trkpt lat="47.32132" lon="4.98238">
        <ele>285</ele>
        <time>2015-01-10T17:02:11.296Z</time>
      </trkpt>
      <trkpt lat="47.32132" lon="4.98238">
        <ele>285</ele>
        <time>2015-01-10T17:02:14.296Z</time>
      </trkpt>
      <trkpt lat="47.32132" lon="4.98238">
        <ele>285</ele>
        <time>2015-01-10T17:02:15.302Z</time>
      </trkpt>
      <trkpt lat="47.32132" lon="4.98238">
        <ele>285</ele>
        <time>2015-01-10T17:02:16.263Z</time>
      </trkpt>
      <trkpt lat="47.32128" lon="4.98241">
        <ele>285</ele>
        <time>2015-01-10T17:02:17.296Z</time>
      </trkpt>
      <trkpt lat="47.32122" lon="4.98249">
        <ele>285</ele>
        <time>2015-01-10T17:02:28.304Z</time>
      </trkpt>
      <trkpt lat="47.32121" lon="4.9825">
        <ele>285</ele>
        <time>2015-01-10T17:02:29.293Z</time>
      </trkpt>
      <trkpt lat="47.32114" lon="4.98257">
        <ele>284</ele>
        <time>2015-01-10T17:02:35.285Z</time>
      </trkpt>
      <trkpt lat="47.32113" lon="4.98258">
        <ele>285</ele>
        <time>2015-01-10T17:02:36.285Z</time>
      </trkpt>
      <trkpt lat="47.32107" lon="4.98268">
        <ele>285</ele>
        <time>2015-01-10T17:02:41.295Z</time>
      </trkpt>
      <trkpt lat="47.32106" lon="4.98269">
        <ele>285</ele>
        <time>2015-01-10T17:02:42.296Z</time>
      </trkpt>
      <trkpt lat="47.32098" lon="4.98275">
        <ele>285</ele>
        <time>2015-01-10T17:02:47.293Z</time>
      </trkpt>
      <trkpt lat="47.32097" lon="4.98275">
        <ele>285</ele>
        <time>2015-01-10T17:02:48.296Z</time>
      </trkpt>
      <trkpt lat="47.32089" lon="4.98273">
        <ele>285</ele>
        <time>2015-01-10T17:02:53.286Z</time>
      </trkpt>
      <trkpt lat="47.32087" lon="4.98272">
        <ele>285</ele>
        <time>2015-01-10T17:02:54.292Z</time>
      </trkpt>
      <trkpt lat="47.32079" lon="4.98268">
        <ele>290</ele>
        <time>2015-01-10T17:03:02.293Z</time>
      </trkpt>
      <trkpt lat="47.32078" lon="4.98268">
        <ele>290</ele>
        <time>2015-01-10T17:03:03.282Z</time>
      </trkpt>
      <trkpt lat="47.3207" lon="4.98271">
        <ele>290</ele>
        <time>2015-01-10T17:03:13.283Z</time>
      </trkpt>
      <trkpt lat="47.32069" lon="4.98271">
        <ele>291</ele>
        <time>2015-01-10T17:03:14.289Z</time>
      </trkpt>
      <trkpt lat="47.3206" lon="4.9827">
        <ele>291</ele>
        <time>2015-01-10T17:03:20.299Z</time>
      </trkpt>
      <trkpt lat="47.32058" lon="4.9827">
        <ele>291</ele>
        <time>2015-01-10T17:03:21.293Z</time>
      </trkpt>
      <trkpt lat="47.3205" lon="4.98267">
        <ele>292</ele>
        <time>2015-01-10T17:03:27.285Z</time>
      </trkpt>
      <trkpt lat="47.32049" lon="4.98267">
        <ele>293</ele>
        <time>2015-01-10T17:03:28.293Z</time>
      </trkpt>
      <trkpt lat="47.32041" lon="4.98264">
        <ele>293</ele>
        <time>2015-01-10T17:03:34.281Z</time>
      </trkpt>
      <trkpt lat="47.3204" lon="4.98264">
        <ele>294</ele>
        <time>2015-01-10T17:03:35.295Z</time>
      </trkpt>
      <trkpt lat="47.32032" lon="4.98262">
        <ele>295</ele>
        <time>2015-01-10T17:03:43.285Z</time>
      </trkpt>
      <trkpt lat="47.32031" lon="4.98262">
        <ele>295</ele>
        <time>2015-01-10T17:03:44.299Z</time>
      </trkpt>
      <trkpt lat="47.32023" lon="4.9826">
        <ele>296</ele>
        <time>2015-01-10T17:03:50.303Z</time>
      </trkpt>
      <trkpt lat="47.32022" lon="4.98259">
        <ele>296</ele>
        <time>2015-01-10T17:03:51.271Z</time>
      </trkpt>
      <trkpt lat="47.32013" lon="4.98254">
        <ele>298</ele>
        <time>2015-01-10T17:04:00.272Z</time>
      </trkpt>
      <trkpt lat="47.32013" lon="4.98254">
        <ele>298</ele>
        <time>2015-01-10T17:04:01.298Z</time>
      </trkpt>
      <trkpt lat="47.32005" lon="4.98251">
        <ele>300</ele>
        <time>2015-01-10T17:04:09.295Z</time>
      </trkpt>
      <trkpt lat="47.32004" lon="4.9825">
        <ele>300</ele>
        <time>2015-01-10T17:04:10.349Z</time>
      </trkpt>
      <trkpt lat="47.31996" lon="4.98244">
        <ele>304</ele>
        <time>2015-01-10T17:04:18.298Z</time>
      </trkpt>
      <trkpt lat="47.31995" lon="4.98243">
        <ele>304</ele>
        <time>2015-01-10T17:04:19.307Z</time>
      </trkpt>
      <trkpt lat="47.31987" lon="4.98237">
        <ele>307</ele>
        <time>2015-01-10T17:04:28.268Z</time>
      </trkpt>
      <trkpt lat="47.31986" lon="4.98237">
        <ele>307</ele>
        <time>2015-01-10T17:04:29.303Z</time>
      </trkpt>
      <trkpt lat="47.31979" lon="4.9823">
        <ele>309</ele>
        <time>2015-01-10T17:04:38.300Z</time>
      </trkpt>
      <trkpt lat="47.31978" lon="4.98229">
        <ele>309</ele>
        <time>2015-01-10T17:04:39.284Z</time>
      </trkpt>
      <trkpt lat="47.31971" lon="4.98227">
        <ele>310</ele>
        <time>2015-01-10T17:04:47.306Z</time>
      </trkpt>
      <trkpt lat="47.31971" lon="4.98227">
        <ele>310</ele>
        <time>2015-01-10T17:04:48.305Z</time>
      </trkpt>
      <trkpt lat="47.31971" lon="4.98227">
        <ele>310</ele>
        <time>2015-01-10T17:04:49.306Z</time>
      </trkpt>
      <trkpt lat="47.31971" lon="4.98227">
        <ele>310</ele>
        <time>2015-01-10T17:04:50.313Z</time>
      </trkpt>
      <trkpt lat="47.31963" lon="4.98226">
        <ele>312</ele>
        <time>2015-01-10T17:04:57.302Z</time>
      </trkpt>
      <trkpt lat="47.31962" lon="4.98226">
        <ele>312</ele>
        <time>2015-01-10T17:04:58.300Z</time>
      </trkpt>
      <trkpt lat="47.31953" lon="4.98228">
        <ele>314</ele>
        <time>2015-01-10T17:05:07.292Z</time>
      </trkpt>
      <trkpt lat="47.31953" lon="4.98229">
        <ele>314</ele>
        <time>2015-01-10T17:05:08.310Z</time>
      </trkpt>
      <trkpt lat="47.31944" lon="4.98225">
        <ele>315</ele>
        <time>2015-01-10T17:05:20.307Z</time>
      </trkpt>
      <trkpt lat="47.31943" lon="4.98225">
        <ele>315</ele>
        <time>2015-01-10T17:05:21.305Z</time>
      </trkpt>
      <trkpt lat="47.31937" lon="4.98215">
        <ele>316</ele>
        <time>2015-01-10T17:05:30.300Z</time>
      </trkpt>
      <trkpt lat="47.31937" lon="4.98214">
        <ele>316</ele>
        <time>2015-01-10T17:05:31.315Z</time>
      </trkpt>
      <trkpt lat="47.3193" lon="4.98207">
        <ele>316</ele>
        <time>2015-01-10T17:05:40.298Z</time>
      </trkpt>
      <trkpt lat="47.31929" lon="4.98207">
        <ele>316</ele>
        <time>2015-01-10T17:05:41.297Z</time>
      </trkpt>
      <trkpt lat="47.31921" lon="4.98202">
        <ele>317</ele>
        <time>2015-01-10T17:05:50.313Z</time>
      </trkpt>
      <trkpt lat="47.3192" lon="4.98202">
        <ele>317</ele>
        <time>2015-01-10T17:05:51.295Z</time>
      </trkpt>
      <trkpt lat="47.31912" lon="4.98204">
        <ele>330</ele>
        <time>2015-01-10T17:06:03.296Z</time>
      </trkpt>
      <trkpt lat="47.31911" lon="4.98204">
        <ele>330</ele>
        <time>2015-01-10T17:06:04.294Z</time>
      </trkpt>
      <trkpt lat="47.31908" lon="4.98205">
        <ele>330</ele>
        <time>2015-01-10T17:06:08.304Z</time>
      </trkpt>
      <trkpt lat="47.31908" lon="4.98205">
        <ele>330</ele>
        <time>2015-01-10T17:06:09.289Z</time>
      </trkpt>
      <trkpt lat="47.31908" lon="4.98205">
        <ele>330</ele>
        <time>2015-01-10T17:06:10.309Z</time>
      </trkpt>
      <trkpt lat="47.31905" lon="4.98217">
        <ele>331</ele>
        <time>2015-01-10T17:06:17.307Z</time>
      </trkpt>
      <trkpt lat="47.31905" lon="4.98219">
        <ele>331</ele>
        <time>2015-01-10T17:06:18.304Z</time>
      </trkpt>
      <trkpt lat="47.31905" lon="4.98232">
        <ele>330</ele>
        <time>2015-01-10T17:06:24.303Z</time>
      </trkpt>
      <trkpt lat="47.31905" lon="4.98234">
        <ele>330</ele>
        <time>2015-01-10T17:06:25.303Z</time>
      </trkpt>
      <trkpt lat="47.31905" lon="4.98245">
        <ele>329</ele>
        <time>2015-01-10T17:06:31.277Z</time>
      </trkpt>
      <trkpt lat="47.31905" lon="4.98247">
        <ele>329</ele>
        <time>2015-01-10T17:06:32.298Z</time>
      </trkpt>
      <trkpt lat="47.31903" lon="4.98259">
        <ele>330</ele>
        <time>2015-01-10T17:06:38.294Z</time>
      </trkpt>
      <trkpt lat="47.31904" lon="4.98262">
        <ele>330</ele>
        <time>2015-01-10T17:06:39.296Z</time>
      </trkpt>
      <trkpt lat="47.31905" lon="4.98274">
        <ele>331</ele>
        <time>2015-01-10T17:06:46.304Z</time>
      </trkpt>
      <trkpt lat="47.31906" lon="4.98276">
        <ele>331</ele>
        <time>2015-01-10T17:06:47.306Z</time>
      </trkpt>
      <trkpt lat="47.31906" lon="4.98288">
        <ele>332</ele>
        <time>2015-01-10T17:06:53.284Z</time>
      </trkpt>
      <trkpt lat="47.31906" lon="4.9829">
        <ele>332</ele>
        <time>2015-01-10T17:06:54.294Z</time>
      </trkpt>
      <trkpt lat="47.31907" lon="4.98302">
        <ele>331</ele>
        <time>2015-01-10T17:07:01.298Z</time>
      </trkpt>
      <trkpt lat="47.31907" lon="4.98304">
        <ele>331</ele>
        <time>2015-01-10T17:07:02.309Z</time>
      </trkpt>
      <trkpt lat="47.31906" lon="4.98316">
        <ele>330</ele>
        <time>2015-01-10T17:07:08.300Z</time>
      </trkpt>
      <trkpt lat="47.31906" lon="4.98318">
        <ele>330</ele>
        <time>2015-01-10T17:07:09.297Z</time>
      </trkpt>
      <trkpt lat="47.31906" lon="4.98331">
        <ele>328</ele>
        <time>2015-01-10T17:07:15.307Z</time>
      </trkpt>
      <trkpt lat="47.31906" lon="4.98333">
        <ele>328</ele>
        <time>2015-01-10T17:07:16.311Z</time>
      </trkpt>
      <trkpt lat="47.31907" lon="4.98346">
        <ele>329</ele>
        <time>2015-01-10T17:07:22.306Z</time>
      </trkpt>
      <trkpt lat="47.31907" lon="4.98348">
        <ele>330</ele>
        <time>2015-01-10T17:07:23.307Z</time>
      </trkpt>
      <trkpt lat="47.31908" lon="4.98359">
        <ele>331</ele>
        <time>2015-01-10T17:07:28.294Z</time>
      </trkpt>
      <trkpt lat="47.31908" lon="4.98361">
        <ele>331</ele>
        <time>2015-01-10T17:07:29.307Z</time>
      </trkpt>
      <trkpt lat="47.31908" lon="4.98374">
        <ele>331</ele>
        <time>2015-01-10T17:07:35.287Z</time>
      </trkpt>
      <trkpt lat="47.31908" lon="4.98377">
        <ele>331</ele>
        <time>2015-01-10T17:07:36.298Z</time>
      </trkpt>
      <trkpt lat="47.31909" lon="4.98389">
        <ele>331</ele>
        <time>2015-01-10T17:07:41.266Z</time>
      </trkpt>
      <trkpt lat="47.3191" lon="4.98391">
        <ele>331</ele>
        <time>2015-01-10T17:07:42.307Z</time>
      </trkpt>
      <trkpt lat="47.3191" lon="4.98402">
        <ele>329</ele>
        <time>2015-01-10T17:07:47.308Z</time>
      </trkpt>
      <trkpt lat="47.3191" lon="4.98405">
        <ele>329</ele>
        <time>2015-01-10T17:07:48.294Z</time>
      </trkpt>
      <trkpt lat="47.3191" lon="4.98415">
        <ele>327</ele>
        <time>2015-01-10T17:07:52.305Z</time>
      </trkpt>
      <trkpt lat="47.31911" lon="4.98418">
        <ele>327</ele>
        <time>2015-01-10T17:07:53.307Z</time>
      </trkpt>
      <trkpt lat="47.31911" lon="4.9843">
        <ele>329</ele>
        <time>2015-01-10T17:07:57.306Z</time>
      </trkpt>
      <trkpt lat="47.31911" lon="4.98432">
        <ele>330</ele>
        <time>2015-01-10T17:07:58.306Z</time>
      </trkpt>
      <trkpt lat="47.3191" lon="4.98443">
        <ele>331</ele>
        <time>2015-01-10T17:08:02.316Z</time>
      </trkpt>
      <trkpt lat="47.3191" lon="4.98445">
        <ele>331</ele>
        <time>2015-01-10T17:08:03.304Z</time>
      </trkpt>
      <trkpt lat="47.3191" lon="4.98456">
        <ele>332</ele>
        <time>2015-01-10T17:08:07.301Z</time>
      </trkpt>
      <trkpt lat="47.31909" lon="4.98459">
        <ele>332</ele>
        <time>2015-01-10T17:08:08.296Z</time>
      </trkpt>
      <trkpt lat="47.31909" lon="4.9847">
        <ele>332</ele>
        <time>2015-01-10T17:08:12.301Z</time>
      </trkpt>
      <trkpt lat="47.31909" lon="4.98472">
        <ele>332</ele>
        <time>2015-01-10T17:08:13.311Z</time>
      </trkpt>
      <trkpt lat="47.31909" lon="4.98484">
        <ele>331</ele>
        <time>2015-01-10T17:08:18.303Z</time>
      </trkpt>
      <trkpt lat="47.31909" lon="4.98487">
        <ele>330</ele>
        <time>2015-01-10T17:08:19.307Z</time>
      </trkpt>
      <trkpt lat="47.31908" lon="4.98499">
        <ele>329</ele>
        <time>2015-01-10T17:08:25.309Z</time>
      </trkpt>
      <trkpt lat="47.31907" lon="4.98501">
        <ele>329</ele>
        <time>2015-01-10T17:08:26.313Z</time>
      </trkpt>
      <trkpt lat="47.31905" lon="4.98513">
        <ele>331</ele>
        <time>2015-01-10T17:08:31.286Z</time>
      </trkpt>
      <trkpt lat="47.31904" lon="4.98515">
        <ele>331</ele>
        <time>2015-01-10T17:08:32.305Z</time>
      </trkpt>
      <trkpt lat="47.31903" lon="4.98527">
        <ele>332</ele>
        <time>2015-01-10T17:08:37.300Z</time>
      </trkpt>
      <trkpt lat="47.31903" lon="4.9853">
        <ele>332</ele>
        <time>2015-01-10T17:08:38.304Z</time>
      </trkpt>
      <trkpt lat="47.31902" lon="4.98542">
        <ele>332</ele>
        <time>2015-01-10T17:08:42.300Z</time>
      </trkpt>
      <trkpt lat="47.31902" lon="4.98544">
        <ele>332</ele>
        <time>2015-01-10T17:08:43.298Z</time>
      </trkpt>
      <trkpt lat="47.31901" lon="4.98557">
        <ele>332</ele>
        <time>2015-01-10T17:08:48.307Z</time>
      </trkpt>
      <trkpt lat="47.31901" lon="4.98559">
        <ele>331</ele>
        <time>2015-01-10T17:08:49.331Z</time>
      </trkpt>
      <trkpt lat="47.31901" lon="4.98572">
        <ele>331</ele>
        <time>2015-01-10T17:08:55.308Z</time>
      </trkpt>
      <trkpt lat="47.31901" lon="4.98574">
        <ele>330</ele>
        <time>2015-01-10T17:08:56.309Z</time>
      </trkpt>
      <trkpt lat="47.31901" lon="4.98586">
        <ele>330</ele>
        <time>2015-01-10T17:09:01.300Z</time>
      </trkpt>
      <trkpt lat="47.31901" lon="4.98588">
        <ele>330</ele>
        <time>2015-01-10T17:09:02.310Z</time>
      </trkpt>
      <trkpt lat="47.31903" lon="4.986">
        <ele>331</ele>
        <time>2015-01-10T17:09:07.292Z</time>
      </trkpt>
      <trkpt lat="47.31903" lon="4.98602">
        <ele>331</ele>
        <time>2015-01-10T17:09:08.289Z</time>
      </trkpt>
      <trkpt lat="47.31904" lon="4.98615">
        <ele>332</ele>
        <time>2015-01-10T17:09:13.299Z</time>
      </trkpt>
      <trkpt lat="47.31904" lon="4.98618">
        <ele>332</ele>
        <time>2015-01-10T17:09:14.308Z</time>
      </trkpt>
      <trkpt lat="47.31903" lon="4.9863">
        <ele>332</ele>
        <time>2015-01-10T17:09:19.305Z</time>
      </trkpt>
      <trkpt lat="47.31903" lon="4.98633">
        <ele>332</ele>
        <time>2015-01-10T17:09:20.360Z</time>
      </trkpt>
      <trkpt lat="47.31901" lon="4.98645">
        <ele>332</ele>
        <time>2015-01-10T17:09:25.309Z</time>
      </trkpt>
      <trkpt lat="47.31901" lon="4.98648">
        <ele>332</ele>
        <time>2015-01-10T17:09:26.295Z</time>
      </trkpt>
      <trkpt lat="47.319" lon="4.98659">
        <ele>331</ele>
        <time>2015-01-10T17:09:30.278Z</time>
      </trkpt>
      <trkpt lat="47.319" lon="4.98662">
        <ele>331</ele>
        <time>2015-01-10T17:09:31.301Z</time>
      </trkpt>
      <trkpt lat="47.31901" lon="4.98673">
        <ele>332</ele>
        <time>2015-01-10T17:09:35.300Z</time>
      </trkpt>
      <trkpt lat="47.31901" lon="4.98675">
        <ele>332</ele>
        <time>2015-01-10T17:09:36.300Z</time>
      </trkpt>
      <trkpt lat="47.31902" lon="4.98686">
        <ele>333</ele>
        <time>2015-01-10T17:09:41.299Z</time>
      </trkpt>
      <trkpt lat="47.31901" lon="4.98688">
        <ele>333</ele>
        <time>2015-01-10T17:09:42.297Z</time>
      </trkpt>
      <trkpt lat="47.31901" lon="4.98701">
        <ele>334</ele>
        <time>2015-01-10T17:09:47.308Z</time>
      </trkpt>
      <trkpt lat="47.31901" lon="4.98704">
        <ele>334</ele>
        <time>2015-01-10T17:09:48.309Z</time>
      </trkpt>
      <trkpt lat="47.319" lon="4.98715">
        <ele>334</ele>
        <time>2015-01-10T17:09:52.276Z</time>
      </trkpt>
      <trkpt lat="47.319" lon="4.98718">
        <ele>334</ele>
        <time>2015-01-10T17:09:53.304Z</time>
      </trkpt>
      <trkpt lat="47.319" lon="4.9873">
        <ele>333</ele>
        <time>2015-01-10T17:09:57.309Z</time>
      </trkpt>
      <trkpt lat="47.31899" lon="4.98733">
        <ele>333</ele>
        <time>2015-01-10T17:09:58.304Z</time>
      </trkpt>
      <trkpt lat="47.31893" lon="4.98739">
        <ele>334</ele>
        <time>2015-01-10T17:10:04.315Z</time>
      </trkpt>
      <trkpt lat="47.31891" lon="4.98739">
        <ele>334</ele>
        <time>2015-01-10T17:10:05.309Z</time>
      </trkpt>
      <trkpt lat="47.31884" lon="4.98746">
        <ele>335</ele>
        <time>2015-01-10T17:10:12.308Z</time>
      </trkpt>
      <trkpt lat="47.31882" lon="4.98746">
        <ele>335</ele>
        <time>2015-01-10T17:10:13.300Z</time>
      </trkpt>
      <trkpt lat="47.31874" lon="4.98745">
        <ele>336</ele>
        <time>2015-01-10T17:10:17.318Z</time>
      </trkpt>
      <trkpt lat="47.31872" lon="4.98744">
        <ele>337</ele>
        <time>2015-01-10T17:10:18.310Z</time>
      </trkpt>
      <trkpt lat="47.31865" lon="4.98744">
        <ele>338</ele>
        <time>2015-01-10T17:10:22.311Z</time>
      </trkpt>
      <trkpt lat="47.31863" lon="4.98744">
        <ele>338</ele>
        <time>2015-01-10T17:10:23.309Z</time>
      </trkpt>
      <trkpt lat="47.31855" lon="4.98743">
        <ele>339</ele>
        <time>2015-01-10T17:10:27.310Z</time>
      </trkpt>
      <trkpt lat="47.31853" lon="4.98743">
        <ele>339</ele>
        <time>2015-01-10T17:10:28.284Z</time>
      </trkpt>
      <trkpt lat="47.31845" lon="4.98744">
        <ele>341</ele>
        <time>2015-01-10T17:10:32.307Z</time>
      </trkpt>
      <trkpt lat="47.31843" lon="4.98744">
        <ele>341</ele>
        <time>2015-01-10T17:10:33.301Z</time>
      </trkpt>
      <trkpt lat="47.31835" lon="4.98744">
        <ele>342</ele>
        <time>2015-01-10T17:10:38.316Z</time>
      </trkpt>
      <trkpt lat="47.31833" lon="4.98744">
        <ele>342</ele>
        <time>2015-01-10T17:10:39.288Z</time>
      </trkpt>
      <trkpt lat="47.31836" lon="4.98754">
        <ele>343</ele>
        <time>2015-01-10T17:10:44.306Z</time>
      </trkpt>
      <trkpt lat="47.31835" lon="4.98758">
        <ele>342</ele>
        <time>2015-01-10T17:10:45.309Z</time>
      </trkpt>
      <trkpt lat="47.31829" lon="4.98767">
        <ele>348</ele>
        <time>2015-01-10T17:10:50.284Z</time>
      </trkpt>
      <trkpt lat="47.31827" lon="4.98769">
        <ele>348</ele>
        <time>2015-01-10T17:10:51.308Z</time>
      </trkpt>
      <trkpt lat="47.3182" lon="4.98774">
        <ele>349</ele>
        <time>2015-01-10T17:10:56.306Z</time>
      </trkpt>
      <trkpt lat="47.31818" lon="4.98775">
        <ele>349</ele>
        <time>2015-01-10T17:10:57.308Z</time>
      </trkpt>
      <trkpt lat="47.3181" lon="4.98777">
        <ele>350</ele>
        <time>2015-01-10T17:11:02.303Z</time>
      </trkpt>
      <trkpt lat="47.31808" lon="4.98777">
        <ele>350</ele>
        <time>2015-01-10T17:11:03.300Z</time>
      </trkpt>
      <trkpt lat="47.31799" lon="4.98776">
        <ele>351</ele>
        <time>2015-01-10T17:11:08.318Z</time>
      </trkpt>
      <trkpt lat="47.31797" lon="4.98776">
        <ele>351</ele>
        <time>2015-01-10T17:11:09.301Z</time>
      </trkpt>
      <trkpt lat="47.3179" lon="4.98776">
        <ele>352</ele>
        <time>2015-01-10T17:11:14.307Z</time>
      </trkpt>
      <trkpt lat="47.31788" lon="4.98776">
        <ele>352</ele>
        <time>2015-01-10T17:11:15.299Z</time>
      </trkpt>
      <trkpt lat="47.3178" lon="4.98774">
        <ele>353</ele>
        <time>2015-01-10T17:11:22.318Z</time>
      </trkpt>
      <trkpt lat="47.31778" lon="4.98774">
        <ele>353</ele>
        <time>2015-01-10T17:11:23.304Z</time>
      </trkpt>
      <trkpt lat="47.3177" lon="4.9877">
        <ele>354</ele>
        <time>2015-01-10T17:11:30.272Z</time>
      </trkpt>
      <trkpt lat="47.31769" lon="4.9877">
        <ele>355</ele>
        <time>2015-01-10T17:11:31.302Z</time>
      </trkpt>
      <trkpt lat="47.3176" lon="4.98769">
        <ele>355</ele>
        <time>2015-01-10T17:11:37.288Z</time>
      </trkpt>
      <trkpt lat="47.31759" lon="4.9877">
        <ele>356</ele>
        <time>2015-01-10T17:11:38.302Z</time>
      </trkpt>
      <trkpt lat="47.31755" lon="4.98782">
        <ele>355</ele>
        <time>2015-01-10T17:11:44.291Z</time>
      </trkpt>
      <trkpt lat="47.31754" lon="4.98784">
        <ele>355</ele>
        <time>2015-01-10T17:11:45.300Z</time>
      </trkpt>
      <trkpt lat="47.3175" lon="4.98794">
        <ele>355</ele>
        <time>2015-01-10T17:11:50.333Z</time>
      </trkpt>
      <trkpt lat="47.3175" lon="4.98796">
        <ele>364</ele>
        <time>2015-01-10T17:11:51.299Z</time>
      </trkpt>
      <trkpt lat="47.31744" lon="4.98806">
        <ele>363</ele>
        <time>2015-01-10T17:11:57.308Z</time>
      </trkpt>
      <trkpt lat="47.31743" lon="4.98808">
        <ele>363</ele>
        <time>2015-01-10T17:11:58.307Z</time>
      </trkpt>
      <trkpt lat="47.31738" lon="4.98817">
        <ele>363</ele>
        <time>2015-01-10T17:12:04.299Z</time>
      </trkpt>
      <trkpt lat="47.31737" lon="4.98818">
        <ele>363</ele>
        <time>2015-01-10T17:12:05.301Z</time>
      </trkpt>
      <trkpt lat="47.31733" lon="4.98827">
        <ele>363</ele>
        <time>2015-01-10T17:12:10.297Z</time>
      </trkpt>
      <trkpt lat="47.31732" lon="4.98829">
        <ele>363</ele>
        <time>2015-01-10T17:12:11.300Z</time>
      </trkpt>
      <trkpt lat="47.31726" lon="4.98839">
        <ele>363</ele>
        <time>2015-01-10T17:12:16.306Z</time>
      </trkpt>
      <trkpt lat="47.31724" lon="4.9884">
        <ele>363</ele>
        <time>2015-01-10T17:12:17.309Z</time>
      </trkpt>
      <trkpt lat="47.31717" lon="4.98848">
        <ele>364</ele>
        <time>2015-01-10T17:12:23.308Z</time>
      </trkpt>
      <trkpt lat="47.31716" lon="4.98849">
        <ele>364</ele>
        <time>2015-01-10T17:12:24.310Z</time>
      </trkpt>
      <trkpt lat="47.31708" lon="4.98855">
        <ele>365</ele>
        <time>2015-01-10T17:12:30.306Z</time>
      </trkpt>
      <trkpt lat="47.31707" lon="4.98855">
        <ele>365</ele>
        <time>2015-01-10T17:12:31.302Z</time>
      </trkpt>
      <trkpt lat="47.31699" lon="4.98852">
        <ele>365</ele>
        <time>2015-01-10T17:12:36.278Z</time>
      </trkpt>
      <trkpt lat="47.31698" lon="4.98851">
        <ele>366</ele>
        <time>2015-01-10T17:12:37.283Z</time>
      </trkpt>
      <trkpt lat="47.3169" lon="4.98846">
        <ele>366</ele>
        <time>2015-01-10T17:12:42.300Z</time>
      </trkpt>
      <trkpt lat="47.31689" lon="4.98845">
        <ele>367</ele>
        <time>2015-01-10T17:12:43.306Z</time>
      </trkpt>
      <trkpt lat="47.31681" lon="4.98841">
        <ele>368</ele>
        <time>2015-01-10T17:12:49.308Z</time>
      </trkpt>
      <trkpt lat="47.3168" lon="4.9884">
        <ele>368</ele>
        <time>2015-01-10T17:12:50.317Z</time>
      </trkpt>
      <trkpt lat="47.31673" lon="4.98834">
        <ele>370</ele>
        <time>2015-01-10T17:12:55.309Z</time>
      </trkpt>
      <trkpt lat="47.31671" lon="4.98833">
        <ele>370</ele>
        <time>2015-01-10T17:12:56.311Z</time>
      </trkpt>
      <trkpt lat="47.31664" lon="4.98828">
        <ele>372</ele>
        <time>2015-01-10T17:13:01.313Z</time>
      </trkpt>
      <trkpt lat="47.31662" lon="4.98827">
        <ele>373</ele>
        <time>2015-01-10T17:13:02.309Z</time>
      </trkpt>
      <trkpt lat="47.31654" lon="4.98822">
        <ele>374</ele>
        <time>2015-01-10T17:13:07.303Z</time>
      </trkpt>
      <trkpt lat="47.31653" lon="4.98821">
        <ele>374</ele>
        <time>2015-01-10T17:13:08.308Z</time>
      </trkpt>
      <trkpt lat="47.31646" lon="4.98815">
        <ele>375</ele>
        <time>2015-01-10T17:13:13.299Z</time>
      </trkpt>
      <trkpt lat="47.31645" lon="4.98814">
        <ele>375</ele>
        <time>2015-01-10T17:13:14.310Z</time>
      </trkpt>
      <trkpt lat="47.31639" lon="4.98806">
        <ele>376</ele>
        <time>2015-01-10T17:13:19.312Z</time>
      </trkpt>
      <trkpt lat="47.31638" lon="4.98805">
        <ele>376</ele>
        <time>2015-01-10T17:13:20.314Z</time>
      </trkpt>
      <trkpt lat="47.31631" lon="4.98797">
        <ele>377</ele>
        <time>2015-01-10T17:13:26.322Z</time>
      </trkpt>
      <trkpt lat="47.3163" lon="4.98796">
        <ele>377</ele>
        <time>2015-01-10T17:13:27.286Z</time>
      </trkpt>
      <trkpt lat="47.31628" lon="4.98785">
        <ele>377</ele>
        <time>2015-01-10T17:13:33.308Z</time>
      </trkpt>
      <trkpt lat="47.31627" lon="4.98783">
        <ele>377</ele>
        <time>2015-01-10T17:13:34.281Z</time>
      </trkpt>
      <trkpt lat="47.31623" lon="4.98772">
        <ele>378</ele>
        <time>2015-01-10T17:13:41.310Z</time>
      </trkpt>
      <trkpt lat="47.31622" lon="4.98771">
        <ele>378</ele>
        <time>2015-01-10T17:13:42.271Z</time>
      </trkpt>
      <trkpt lat="47.31616" lon="4.98761">
        <ele>379</ele>
        <time>2015-01-10T17:13:50.313Z</time>
      </trkpt>
      <trkpt lat="47.31616" lon="4.9876">
        <ele>379</ele>
        <time>2015-01-10T17:13:51.308Z</time>
      </trkpt>
      <trkpt lat="47.31609" lon="4.98752">
        <ele>380</ele>
        <time>2015-01-10T17:14:00.276Z</time>
      </trkpt>
      <trkpt lat="47.31608" lon="4.9875">
        <ele>380</ele>
        <time>2015-01-10T17:14:01.302Z</time>
      </trkpt>
      <trkpt lat="47.31607" lon="4.98739">
        <ele>383</ele>
        <time>2015-01-10T17:14:08.310Z</time>
      </trkpt>
      <trkpt lat="47.31606" lon="4.98737">
        <ele>383</ele>
        <time>2015-01-10T17:14:09.301Z</time>
      </trkpt>
      <trkpt lat="47.31603" lon="4.98725">
        <ele>383</ele>
        <time>2015-01-10T17:14:18.298Z</time>
      </trkpt>
      <trkpt lat="47.31603" lon="4.98723">
        <ele>383</ele>
        <time>2015-01-10T17:14:19.307Z</time>
      </trkpt>
      <trkpt lat="47.31602" lon="4.98711">
        <ele>383</ele>
        <time>2015-01-10T17:14:30.311Z</time>
      </trkpt>
      <trkpt lat="47.31602" lon="4.9871">
        <ele>383</ele>
        <time>2015-01-10T17:14:31.293Z</time>
      </trkpt>
      <trkpt lat="47.31599" lon="4.98698">
        <ele>384</ele>
        <time>2015-01-10T17:14:40.273Z</time>
      </trkpt>
      <trkpt lat="47.31599" lon="4.98697">
        <ele>384</ele>
        <time>2015-01-10T17:14:41.303Z</time>
      </trkpt>
      <trkpt lat="47.31594" lon="4.98685">
        <ele>386</ele>
        <time>2015-01-10T17:14:51.288Z</time>
      </trkpt>
      <trkpt lat="47.31594" lon="4.98685">
        <ele>386</ele>
        <time>2015-01-10T17:14:52.313Z</time>
      </trkpt>
      <trkpt lat="47.31596" lon="4.98672">
        <ele>387</ele>
        <time>2015-01-10T17:15:01.305Z</time>
      </trkpt>
      <trkpt lat="47.31597" lon="4.98671">
        <ele>387</ele>
        <time>2015-01-10T17:15:02.305Z</time>
      </trkpt>
      <trkpt lat="47.31606" lon="4.98667">
        <ele>386</ele>
        <time>2015-01-10T17:15:08.322Z</time>
      </trkpt>
      <trkpt lat="47.31607" lon="4.98667">
        <ele>385</ele>
        <time>2015-01-10T17:15:09.318Z</time>
      </trkpt>
      <trkpt lat="47.31615" lon="4.98662">
        <ele>386</ele>
        <time>2015-01-10T17:15:14.304Z</time>
      </trkpt>
      <trkpt lat="47.31616" lon="4.9866">
        <ele>385</ele>
        <time>2015-01-10T17:15:15.303Z</time>
      </trkpt>
      <trkpt lat="47.31619" lon="4.98648">
        <ele>385</ele>
        <time>2015-01-10T17:15:20.335Z</time>
      </trkpt>
      <trkpt lat="47.31619" lon="4.98646">
        <ele>385</ele>
        <time>2015-01-10T17:15:21.303Z</time>
      </trkpt>
      <trkpt lat="47.31618" lon="4.98634">
        <ele>385</ele>
        <time>2015-01-10T17:15:26.313Z</time>
      </trkpt>
      <trkpt lat="47.31618" lon="4.98632">
        <ele>385</ele>
        <time>2015-01-10T17:15:27.315Z</time>
      </trkpt>
      <trkpt lat="47.31616" lon="4.9862">
        <ele>385</ele>
        <time>2015-01-10T17:15:32.325Z</time>
      </trkpt>
      <trkpt lat="47.31616" lon="4.98618">
        <ele>385</ele>
        <time>2015-01-10T17:15:33.304Z</time>
      </trkpt>
      <trkpt lat="47.31614" lon="4.98605">
        <ele>386</ele>
        <time>2015-01-10T17:15:38.309Z</time>
      </trkpt>
      <trkpt lat="47.31614" lon="4.98603">
        <ele>386</ele>
        <time>2015-01-10T17:15:39.299Z</time>
      </trkpt>
      <trkpt lat="47.31611" lon="4.98591">
        <ele>387</ele>
        <time>2015-01-10T17:15:44.304Z</time>
      </trkpt>
      <trkpt lat="47.31611" lon="4.98588">
        <ele>387</ele>
        <time>2015-01-10T17:15:45.313Z</time>
      </trkpt>
      <trkpt lat="47.31608" lon="4.98577">
        <ele>389</ele>
        <time>2015-01-10T17:15:49.315Z</time>
      </trkpt>
      <trkpt lat="47.31607" lon="4.98574">
        <ele>389</ele>
        <time>2015-01-10T17:15:50.288Z</time>
      </trkpt>
      <trkpt lat="47.31604" lon="4.98563">
        <ele>389</ele>
        <time>2015-01-10T17:15:54.312Z</time>
      </trkpt>
      <trkpt lat="47.31603" lon="4.9856">
        <ele>389</ele>
        <time>2015-01-10T17:15:55.303Z</time>
      </trkpt>
      <trkpt lat="47.316" lon="4.98551">
        <ele>389</ele>
        <time>2015-01-10T17:15:59.312Z</time>
      </trkpt>
      <trkpt lat="47.316" lon="4.98548">
        <ele>389</ele>
        <time>2015-01-10T17:16:00.291Z</time>
      </trkpt>
      <trkpt lat="47.31598" lon="4.98535">
        <ele>390</ele>
        <time>2015-01-10T17:16:04.291Z</time>
      </trkpt>
      <trkpt lat="47.31598" lon="4.98532">
        <ele>390</ele>
        <time>2015-01-10T17:16:05.294Z</time>
      </trkpt>
      <trkpt lat="47.31596" lon="4.9852">
        <ele>392</ele>
        <time>2015-01-10T17:16:10.305Z</time>
      </trkpt>
      <trkpt lat="47.31596" lon="4.98518">
        <ele>392</ele>
        <time>2015-01-10T17:16:11.314Z</time>
      </trkpt>
      <trkpt lat="47.31596" lon="4.98507">
        <ele>394</ele>
        <time>2015-01-10T17:16:15.302Z</time>
      </trkpt>
      <trkpt lat="47.31596" lon="4.98505">
        <ele>394</ele>
        <time>2015-01-10T17:16:16.315Z</time>
      </trkpt>
      <trkpt lat="47.31596" lon="4.98492">
        <ele>394</ele>
        <time>2015-01-10T17:16:21.311Z</time>
      </trkpt>
      <trkpt lat="47.31596" lon="4.9849">
        <ele>394</ele>
        <time>2015-01-10T17:16:22.302Z</time>
      </trkpt>
      <trkpt lat="47.31595" lon="4.98477">
        <ele>392</ele>
        <time>2015-01-10T17:16:28.313Z</time>
      </trkpt>
      <trkpt lat="47.31595" lon="4.98475">
        <ele>392</ele>
        <time>2015-01-10T17:16:29.298Z</time>
      </trkpt>
      <trkpt lat="47.31593" lon="4.98464">
        <ele>391</ele>
        <time>2015-01-10T17:16:34.293Z</time>
      </trkpt>
      <trkpt lat="47.31592" lon="4.98461">
        <ele>391</ele>
        <time>2015-01-10T17:16:35.339Z</time>
      </trkpt>
      <trkpt lat="47.31591" lon="4.98449">
        <ele>391</ele>
        <time>2015-01-10T17:16:41.271Z</time>
      </trkpt>
      <trkpt lat="47.31591" lon="4.98447">
        <ele>392</ele>
        <time>2015-01-10T17:16:42.315Z</time>
      </trkpt>
      <trkpt lat="47.31593" lon="4.98435">
        <ele>393</ele>
        <time>2015-01-10T17:16:49.302Z</time>
      </trkpt>
      <trkpt lat="47.31592" lon="4.98434">
        <ele>393</ele>
        <time>2015-01-10T17:16:50.324Z</time>
      </trkpt>
      <trkpt lat="47.31588" lon="4.98423">
        <ele>396</ele>
        <time>2015-01-10T17:16:56.312Z</time>
      </trkpt>
      <trkpt lat="47.31587" lon="4.98421">
        <ele>396</ele>
        <time>2015-01-10T17:16:57.315Z</time>
      </trkpt>
      <trkpt lat="47.31581" lon="4.98415">
        <ele>399</ele>
        <time>2015-01-10T17:17:02.314Z</time>
      </trkpt>
      <trkpt lat="47.31579" lon="4.98414">
        <ele>400</ele>
        <time>2015-01-10T17:17:03.296Z</time>
      </trkpt>
      <trkpt lat="47.31571" lon="4.9841">
        <ele>400</ele>
        <time>2015-01-10T17:17:08.317Z</time>
      </trkpt>
      <trkpt lat="47.31569" lon="4.98409">
        <ele>401</ele>
        <time>2015-01-10T17:17:09.324Z</time>
      </trkpt>
      <trkpt lat="47.31561" lon="4.98404">
        <ele>401</ele>
        <time>2015-01-10T17:17:14.294Z</time>
      </trkpt>
      <trkpt lat="47.3156" lon="4.98402">
        <ele>401</ele>
        <time>2015-01-10T17:17:15.296Z</time>
      </trkpt>
      <trkpt lat="47.31555" lon="4.98393">
        <ele>402</ele>
        <time>2015-01-10T17:17:20.290Z</time>
      </trkpt>
      <trkpt lat="47.31554" lon="4.98391">
        <ele>402</ele>
        <time>2015-01-10T17:17:21.281Z</time>
      </trkpt>
      <trkpt lat="47.3155" lon="4.98381">
        <ele>402</ele>
        <time>2015-01-10T17:17:25.295Z</time>
      </trkpt>
      <trkpt lat="47.31548" lon="4.98379">
        <ele>402</ele>
        <time>2015-01-10T17:17:26.379Z</time>
      </trkpt>
      <trkpt lat="47.31541" lon="4.98372">
        <ele>402</ele>
        <time>2015-01-10T17:17:30.306Z</time>
      </trkpt>
      <trkpt lat="47.31539" lon="4.98371">
        <ele>402</ele>
        <time>2015-01-10T17:17:31.294Z</time>
      </trkpt>
      <trkpt lat="47.3153" lon="4.98372">
        <ele>403</ele>
        <time>2015-01-10T17:17:36.288Z</time>
      </trkpt>
      <trkpt lat="47.31528" lon="4.98373">
        <ele>403</ele>
        <time>2015-01-10T17:17:37.300Z</time>
      </trkpt>
      <trkpt lat="47.31521" lon="4.98379">
        <ele>404</ele>
        <time>2015-01-10T17:17:44.323Z</time>
      </trkpt>
      <trkpt lat="47.3152" lon="4.9838">
        <ele>404</ele>
        <time>2015-01-10T17:17:45.305Z</time>
      </trkpt>
      <trkpt lat="47.31514" lon="4.98387">
        <ele>404</ele>
        <time>2015-01-10T17:17:49.275Z</time>
      </trkpt>
      <trkpt lat="47.31513" lon="4.98389">
        <ele>405</ele>
        <time>2015-01-10T17:17:50.300Z</time>
      </trkpt>
      <trkpt lat="47.31505" lon="4.98395">
        <ele>405</ele>
        <time>2015-01-10T17:17:55.307Z</time>
      </trkpt>
      <trkpt lat="47.31504" lon="4.98396">
        <ele>405</ele>
        <time>2015-01-10T17:17:56.282Z</time>
      </trkpt>
      <trkpt lat="47.31495" lon="4.98395">
        <ele>406</ele>
        <time>2015-01-10T17:18:01.309Z</time>
      </trkpt>
      <trkpt lat="47.31493" lon="4.98394">
        <ele>406</ele>
        <time>2015-01-10T17:18:02.307Z</time>
      </trkpt>
      <trkpt lat="47.31486" lon="4.98391">
        <ele>406</ele>
        <time>2015-01-10T17:18:06.295Z</time>
      </trkpt>
      <trkpt lat="47.31484" lon="4.9839">
        <ele>406</ele>
        <time>2015-01-10T17:18:07.307Z</time>
      </trkpt>
      <trkpt lat="47.31477" lon="4.9839">
        <ele>405</ele>
        <time>2015-01-10T17:18:10.297Z</time>
      </trkpt>
      <trkpt lat="47.31474" lon="4.98391">
        <ele>405</ele>
        <time>2015-01-10T17:18:11.313Z</time>
      </trkpt>
      <trkpt lat="47.31468" lon="4.98393">
        <ele>405</ele>
        <time>2015-01-10T17:18:14.313Z</time>
      </trkpt>
      <trkpt lat="47.31465" lon="4.98394">
        <ele>405</ele>
        <time>2015-01-10T17:18:15.315Z</time>
      </trkpt>
      <trkpt lat="47.31456" lon="4.98396">
        <ele>404</ele>
        <time>2015-01-10T17:18:19.303Z</time>
      </trkpt>
      <trkpt lat="47.31455" lon="4.98397">
        <ele>404</ele>
        <time>2015-01-10T17:18:20.315Z</time>
      </trkpt>
      <trkpt lat="47.31447" lon="4.984">
        <ele>403</ele>
        <time>2015-01-10T17:18:25.314Z</time>
      </trkpt>
      <trkpt lat="47.31446" lon="4.98401">
        <ele>403</ele>
        <time>2015-01-10T17:18:26.301Z</time>
      </trkpt>
      <trkpt lat="47.3144" lon="4.98409">
        <ele>403</ele>
        <time>2015-01-10T17:18:31.294Z</time>
      </trkpt>
      <trkpt lat="47.31438" lon="4.98411">
        <ele>402</ele>
        <time>2015-01-10T17:18:32.305Z</time>
      </trkpt>
      <trkpt lat="47.3143" lon="4.98415">
        <ele>401</ele>
        <time>2015-01-10T17:18:37.284Z</time>
      </trkpt>
      <trkpt lat="47.31428" lon="4.98415">
        <ele>401</ele>
        <time>2015-01-10T17:18:38.336Z</time>
      </trkpt>
      <trkpt lat="47.3142" lon="4.98413">
        <ele>400</ele>
        <time>2015-01-10T17:18:43.294Z</time>
      </trkpt>
      <trkpt lat="47.31418" lon="4.98412">
        <ele>400</ele>
        <time>2015-01-10T17:18:44.291Z</time>
      </trkpt>
      <trkpt lat="47.31411" lon="4.98406">
        <ele>396</ele>
        <time>2015-01-10T17:18:49.302Z</time>
      </trkpt>
      <trkpt lat="47.31409" lon="4.98405">
        <ele>395</ele>
        <time>2015-01-10T17:18:50.321Z</time>
      </trkpt>
      <trkpt lat="47.31401" lon="4.98399">
        <ele>394</ele>
        <time>2015-01-10T17:18:56.311Z</time>
      </trkpt>
      <trkpt lat="47.314" lon="4.98398">
        <ele>394</ele>
        <time>2015-01-10T17:18:57.297Z</time>
      </trkpt>
      <trkpt lat="47.31396" lon="4.98389">
        <ele>393</ele>
        <time>2015-01-10T17:19:02.316Z</time>
      </trkpt>
      <trkpt lat="47.31395" lon="4.98386">
        <ele>393</ele>
        <time>2015-01-10T17:19:03.295Z</time>
      </trkpt>
      <trkpt lat="47.3139" lon="4.98376">
        <ele>392</ele>
        <time>2015-01-10T17:19:08.307Z</time>
      </trkpt>
      <trkpt lat="47.31389" lon="4.98374">
        <ele>392</ele>
        <time>2015-01-10T17:19:09.291Z</time>
      </trkpt>
      <trkpt lat="47.31384" lon="4.98363">
        <ele>392</ele>
        <time>2015-01-10T17:19:16.334Z</time>
      </trkpt>
      <trkpt lat="47.31383" lon="4.98361">
        <ele>392</ele>
        <time>2015-01-10T17:19:17.278Z</time>
      </trkpt>
      <trkpt lat="47.31379" lon="4.98353">
        <ele>392</ele>
        <time>2015-01-10T17:19:21.288Z</time>
      </trkpt>
      <trkpt lat="47.31377" lon="4.98351">
        <ele>391</ele>
        <time>2015-01-10T17:19:22.301Z</time>
      </trkpt>
      <trkpt lat="47.3137" lon="4.98343">
        <ele>391</ele>
        <time>2015-01-10T17:19:27.296Z</time>
      </trkpt>
      <trkpt lat="47.31367" lon="4.9834">
        <ele>390</ele>
        <time>2015-01-10T17:19:28.303Z</time>
      </trkpt>
      <trkpt lat="47.31361" lon="4.98331">
        <ele>392</ele>
        <time>2015-01-10T17:19:35.294Z</time>
      </trkpt>
      <trkpt lat="47.3136" lon="4.98329">
        <ele>392</ele>
        <time>2015-01-10T17:19:36.273Z</time>
      </trkpt>
      <trkpt lat="47.31355" lon="4.98322">
        <ele>391</ele>
        <time>2015-01-10T17:19:39.290Z</time>
      </trkpt>
      <trkpt lat="47.31353" lon="4.98319">
        <ele>391</ele>
        <time>2015-01-10T17:19:40.291Z</time>
      </trkpt>
      <trkpt lat="47.31349" lon="4.98311">
        <ele>391</ele>
        <time>2015-01-10T17:19:43.267Z</time>
      </trkpt>
      <trkpt lat="47.31347" lon="4.98308">
        <ele>392</ele>
        <time>2015-01-10T17:19:44.295Z</time>
      </trkpt>
      <trkpt lat="47.31342" lon="4.983">
        <ele>392</ele>
        <time>2015-01-10T17:19:48.301Z</time>
      </trkpt>
      <trkpt lat="47.31341" lon="4.98299">
        <ele>392</ele>
        <time>2015-01-10T17:19:49.299Z</time>
      </trkpt>
      <trkpt lat="47.31336" lon="4.98289">
        <ele>393</ele>
        <time>2015-01-10T17:19:53.305Z</time>
      </trkpt>
      <trkpt lat="47.31335" lon="4.98286">
        <ele>393</ele>
        <time>2015-01-10T17:19:54.313Z</time>
      </trkpt>
      <trkpt lat="47.31332" lon="4.98276">
        <ele>384</ele>
        <time>2015-01-10T17:19:57.295Z</time>
      </trkpt>
      <trkpt lat="47.31331" lon="4.98273">
        <ele>385</ele>
        <time>2015-01-10T17:19:58.298Z</time>
      </trkpt>
      <trkpt lat="47.31327" lon="4.98263">
        <ele>387</ele>
        <time>2015-01-10T17:20:01.298Z</time>
      </trkpt>
      <trkpt lat="47.31327" lon="4.9826">
        <ele>387</ele>
        <time>2015-01-10T17:20:02.315Z</time>
      </trkpt>
      <trkpt lat="47.31323" lon="4.98248">
        <ele>390</ele>
        <time>2015-01-10T17:20:07.271Z</time>
      </trkpt>
      <trkpt lat="47.31322" lon="4.98246">
        <ele>390</ele>
        <time>2015-01-10T17:20:08.271Z</time>
      </trkpt>
      <trkpt lat="47.31317" lon="4.98237">
        <ele>389</ele>
        <time>2015-01-10T17:20:12.292Z</time>
      </trkpt>
      <trkpt lat="47.31315" lon="4.98235">
        <ele>389</ele>
        <time>2015-01-10T17:20:13.267Z</time>
      </trkpt>
      <trkpt lat="47.31309" lon="4.98226">
        <ele>388</ele>
        <time>2015-01-10T17:20:16.288Z</time>
      </trkpt>
      <trkpt lat="47.31308" lon="4.98223">
        <ele>388</ele>
        <time>2015-01-10T17:20:17.288Z</time>
      </trkpt>
      <trkpt lat="47.31303" lon="4.98216">
        <ele>388</ele>
        <time>2015-01-10T17:20:20.306Z</time>
      </trkpt>
      <trkpt lat="47.31301" lon="4.98213">
        <ele>388</ele>
        <time>2015-01-10T17:20:21.281Z</time>
      </trkpt>
      <trkpt lat="47.31295" lon="4.98205">
        <ele>387</ele>
        <time>2015-01-10T17:20:25.295Z</time>
      </trkpt>
      <trkpt lat="47.31294" lon="4.98205">
        <ele>387</ele>
        <time>2015-01-10T17:20:26.294Z</time>
      </trkpt>
      <trkpt lat="47.31291" lon="4.98215">
        <ele>387</ele>
        <time>2015-01-10T17:20:31.293Z</time>
      </trkpt>
      <trkpt lat="47.3129" lon="4.98217">
        <ele>386</ele>
        <time>2015-01-10T17:20:32.284Z</time>
      </trkpt>
      <trkpt lat="47.31282" lon="4.98224">
        <ele>385</ele>
        <time>2015-01-10T17:20:40.296Z</time>
      </trkpt>
      <trkpt lat="47.31281" lon="4.98225">
        <ele>385</ele>
        <time>2015-01-10T17:20:41.286Z</time>
      </trkpt>
      <trkpt lat="47.31274" lon="4.9823">
        <ele>384</ele>
        <time>2015-01-10T17:20:47.293Z</time>
      </trkpt>
      <trkpt lat="47.31272" lon="4.9823">
        <ele>383</ele>
        <time>2015-01-10T17:20:48.316Z</time>
      </trkpt>
      <trkpt lat="47.31264" lon="4.98233">
        <ele>382</ele>
        <time>2015-01-10T17:20:54.308Z</time>
      </trkpt>
      <trkpt lat="47.31263" lon="4.98234">
        <ele>381</ele>
        <time>2015-01-10T17:20:55.304Z</time>
      </trkpt>
      <trkpt lat="47.31259" lon="4.98245">
        <ele>379</ele>
        <time>2015-01-10T17:21:02.294Z</time>
      </trkpt>
      <trkpt lat="47.31259" lon="4.98247">
        <ele>378</ele>
        <time>2015-01-10T17:21:03.288Z</time>
      </trkpt>
      <trkpt lat="47.31255" lon="4.98257">
        <ele>376</ele>
        <time>2015-01-10T17:21:11.296Z</time>
      </trkpt>
      <trkpt lat="47.31253" lon="4.98258">
        <ele>376</ele>
        <time>2015-01-10T17:21:12.277Z</time>
      </trkpt>
      <trkpt lat="47.31244" lon="4.98259">
        <ele>371</ele>
        <time>2015-01-10T17:21:18.307Z</time>
      </trkpt>
      <trkpt lat="47.31242" lon="4.9826">
        <ele>371</ele>
        <time>2015-01-10T17:21:19.301Z</time>
      </trkpt>
      <trkpt lat="47.31234" lon="4.98263">
        <ele>370</ele>
        <time>2015-01-10T17:21:23.295Z</time>
      </trkpt>
      <trkpt lat="47.31232" lon="4.98264">
        <ele>370</ele>
        <time>2015-01-10T17:21:24.290Z</time>
      </trkpt>
      <trkpt lat="47.31224" lon="4.98266">
        <ele>369</ele>
        <time>2015-01-10T17:21:28.296Z</time>
      </trkpt>
      <trkpt lat="47.31222" lon="4.98267">
        <ele>369</ele>
        <time>2015-01-10T17:21:29.293Z</time>
      </trkpt>
      <trkpt lat="47.31216" lon="4.98272">
        <ele>368</ele>
        <time>2015-01-10T17:21:32.297Z</time>
      </trkpt>
      <trkpt lat="47.31214" lon="4.98274">
        <ele>368</ele>
        <time>2015-01-10T17:21:33.288Z</time>
      </trkpt>
      <trkpt lat="47.31208" lon="4.9828">
        <ele>367</ele>
        <time>2015-01-10T17:21:36.284Z</time>
      </trkpt>
      <trkpt lat="47.31206" lon="4.98282">
        <ele>367</ele>
        <time>2015-01-10T17:21:37.286Z</time>
      </trkpt>
      <trkpt lat="47.312" lon="4.98289">
        <ele>366</ele>
        <time>2015-01-10T17:21:40.287Z</time>
      </trkpt>
      <trkpt lat="47.31198" lon="4.98291">
        <ele>366</ele>
        <time>2015-01-10T17:21:41.286Z</time>
      </trkpt>
      <trkpt lat="47.31192" lon="4.98299">
        <ele>366</ele>
        <time>2015-01-10T17:21:46.297Z</time>
      </trkpt>
      <trkpt lat="47.31191" lon="4.983">
        <ele>366</ele>
        <time>2015-01-10T17:21:47.291Z</time>
      </trkpt>
      <trkpt lat="47.31186" lon="4.9831">
        <ele>365</ele>
        <time>2015-01-10T17:21:54.300Z</time>
      </trkpt>
      <trkpt lat="47.31186" lon="4.98311">
        <ele>365</ele>
        <time>2015-01-10T17:21:55.296Z</time>
      </trkpt>
      <trkpt lat="47.31185" lon="4.98324">
        <ele>364</ele>
        <time>2015-01-10T17:22:00.280Z</time>
      </trkpt>
      <trkpt lat="47.31186" lon="4.98327">
        <ele>364</ele>
        <time>2015-01-10T17:22:01.273Z</time>
      </trkpt>
      <trkpt lat="47.31189" lon="4.98336">
        <ele>362</ele>
        <time>2015-01-10T17:22:04.269Z</time>
      </trkpt>
      <trkpt lat="47.3119" lon="4.98339">
        <ele>362</ele>
        <time>2015-01-10T17:22:05.285Z</time>
      </trkpt>
      <trkpt lat="47.31191" lon="4.98349">
        <ele>362</ele>
        <time>2015-01-10T17:22:08.297Z</time>
      </trkpt>
      <trkpt lat="47.31192" lon="4.98352">
        <ele>362</ele>
        <time>2015-01-10T17:22:09.278Z</time>
      </trkpt>
      <trkpt lat="47.31193" lon="4.98362">
        <ele>362</ele>
        <time>2015-01-10T17:22:12.276Z</time>
      </trkpt>
      <trkpt lat="47.31193" lon="4.98365">
        <ele>362</ele>
        <time>2015-01-10T17:22:13.288Z</time>
      </trkpt>
      <trkpt lat="47.31195" lon="4.98377">
        <ele>362</ele>
        <time>2015-01-10T17:22:17.300Z</time>
      </trkpt>
      <trkpt lat="47.31195" lon="4.98379">
        <ele>362</ele>
        <time>2015-01-10T17:22:18.292Z</time>
      </trkpt>
      <trkpt lat="47.31189" lon="4.98388">
        <ele>362</ele>
        <time>2015-01-10T17:22:22.297Z</time>
      </trkpt>
      <trkpt lat="47.31187" lon="4.98391">
        <ele>361</ele>
        <time>2015-01-10T17:22:23.295Z</time>
      </trkpt>
      <trkpt lat="47.31181" lon="4.984">
        <ele>361</ele>
        <time>2015-01-10T17:22:27.300Z</time>
      </trkpt>
      <trkpt lat="47.3118" lon="4.98402">
        <ele>361</ele>
        <time>2015-01-10T17:22:28.298Z</time>
      </trkpt>
      <trkpt lat="47.31174" lon="4.98406">
        <ele>360</ele>
        <time>2015-01-10T17:22:32.304Z</time>
      </trkpt>
      <trkpt lat="47.31171" lon="4.98408">
        <ele>360</ele>
        <time>2015-01-10T17:22:33.295Z</time>
      </trkpt>
      <trkpt lat="47.31166" lon="4.98417">
        <ele>359</ele>
        <time>2015-01-10T17:22:37.301Z</time>
      </trkpt>
      <trkpt lat="47.31164" lon="4.9842">
        <ele>359</ele>
        <time>2015-01-10T17:22:38.300Z</time>
      </trkpt>
      <trkpt lat="47.3116" lon="4.98428">
        <ele>358</ele>
        <time>2015-01-10T17:22:42.292Z</time>
      </trkpt>
      <trkpt lat="47.31159" lon="4.9843">
        <ele>358</ele>
        <time>2015-01-10T17:22:43.293Z</time>
      </trkpt>
      <trkpt lat="47.31156" lon="4.9844">
        <ele>357</ele>
        <time>2015-01-10T17:22:47.279Z</time>
      </trkpt>
      <trkpt lat="47.31155" lon="4.98443">
        <ele>357</ele>
        <time>2015-01-10T17:22:48.290Z</time>
      </trkpt>
      <trkpt lat="47.31152" lon="4.98455">
        <ele>357</ele>
        <time>2015-01-10T17:22:53.296Z</time>
      </trkpt>
      <trkpt lat="47.31151" lon="4.98457">
        <ele>356</ele>
        <time>2015-01-10T17:22:54.305Z</time>
      </trkpt>
      <trkpt lat="47.31149" lon="4.98469">
        <ele>356</ele>
        <time>2015-01-10T17:23:00.293Z</time>
      </trkpt>
      <trkpt lat="47.31149" lon="4.98471">
        <ele>356</ele>
        <time>2015-01-10T17:23:01.294Z</time>
      </trkpt>
      <trkpt lat="47.31147" lon="4.98482">
        <ele>356</ele>
        <time>2015-01-10T17:23:06.299Z</time>
      </trkpt>
      <trkpt lat="47.31147" lon="4.98485">
        <ele>356</ele>
        <time>2015-01-10T17:23:07.304Z</time>
      </trkpt>
      <trkpt lat="47.31144" lon="4.98496">
        <ele>356</ele>
        <time>2015-01-10T17:23:12.297Z</time>
      </trkpt>
      <trkpt lat="47.31143" lon="4.98499">
        <ele>356</ele>
        <time>2015-01-10T17:23:13.275Z</time>
      </trkpt>
      <trkpt lat="47.3114" lon="4.9851">
        <ele>354</ele>
        <time>2015-01-10T17:23:18.298Z</time>
      </trkpt>
      <trkpt lat="47.3114" lon="4.98512">
        <ele>354</ele>
        <time>2015-01-10T17:23:19.302Z</time>
      </trkpt>
      <trkpt lat="47.31137" lon="4.98523">
        <ele>354</ele>
        <time>2015-01-10T17:23:23.302Z</time>
      </trkpt>
      <trkpt lat="47.31136" lon="4.98526">
        <ele>353</ele>
        <time>2015-01-10T17:23:24.305Z</time>
      </trkpt>
      <trkpt lat="47.31134" lon="4.98537">
        <ele>353</ele>
        <time>2015-01-10T17:23:28.305Z</time>
      </trkpt>
      <trkpt lat="47.31134" lon="4.9854">
        <ele>353</ele>
        <time>2015-01-10T17:23:29.308Z</time>
      </trkpt>
      <trkpt lat="47.31132" lon="4.98551">
        <ele>353</ele>
        <time>2015-01-10T17:23:33.294Z</time>
      </trkpt>
      <trkpt lat="47.31132" lon="4.98554">
        <ele>353</ele>
        <time>2015-01-10T17:23:34.299Z</time>
      </trkpt>
      <trkpt lat="47.31131" lon="4.98567">
        <ele>353</ele>
        <time>2015-01-10T17:23:39.291Z</time>
      </trkpt>
      <trkpt lat="47.31131" lon="4.98569">
        <ele>353</ele>
        <time>2015-01-10T17:23:40.299Z</time>
      </trkpt>
      <trkpt lat="47.31132" lon="4.98581">
        <ele>353</ele>
        <time>2015-01-10T17:23:46.335Z</time>
      </trkpt>
      <trkpt lat="47.31132" lon="4.98583">
        <ele>352</ele>
        <time>2015-01-10T17:23:47.309Z</time>
      </trkpt>
      <trkpt lat="47.31133" lon="4.98595">
        <ele>351</ele>
        <time>2015-01-10T17:23:52.303Z</time>
      </trkpt>
      <trkpt lat="47.31133" lon="4.98598">
        <ele>351</ele>
        <time>2015-01-10T17:23:53.298Z</time>
      </trkpt>
      <trkpt lat="47.31131" lon="4.98608">
        <ele>351</ele>
        <time>2015-01-10T17:23:57.293Z</time>
      </trkpt>
      <trkpt lat="47.3113" lon="4.98611">
        <ele>350</ele>
        <time>2015-01-10T17:23:58.296Z</time>
      </trkpt>
      <trkpt lat="47.31128" lon="4.98623">
        <ele>350</ele>
        <time>2015-01-10T17:24:03.293Z</time>
      </trkpt>
      <trkpt lat="47.31128" lon="4.98625">
        <ele>350</ele>
        <time>2015-01-10T17:24:04.312Z</time>
      </trkpt>
      <trkpt lat="47.31126" lon="4.98631">
        <ele>350</ele>
        <time>2015-01-10T17:24:07.294Z</time>
      </trkpt>
      <trkpt lat="47.31127" lon="4.98627">
        <ele>350</ele>
        <time>2015-01-10T17:24:08.309Z</time>
      </trkpt>
      <trkpt lat="47.31127" lon="4.98625">
        <ele>350</ele>
        <time>2015-01-10T17:24:09.294Z</time>
      </trkpt>
      <trkpt lat="47.31127" lon="4.98624">
        <ele>350</ele>
        <time>2015-01-10T17:24:10.300Z</time>
      </trkpt>
      <trkpt lat="47.31119" lon="4.98624">
        <ele>350</ele>
        <time>2015-01-10T17:24:18.303Z</time>
      </trkpt>
      <trkpt lat="47.31118" lon="4.98625">
        <ele>350</ele>
        <time>2015-01-10T17:24:19.307Z</time>
      </trkpt>
      <trkpt lat="47.31112" lon="4.98633">
        <ele>350</ele>
        <time>2015-01-10T17:24:25.305Z</time>
      </trkpt>
      <trkpt lat="47.31111" lon="4.98635">
        <ele>350</ele>
        <time>2015-01-10T17:24:26.305Z</time>
      </trkpt>
      <trkpt lat="47.31108" lon="4.98646">
        <ele>350</ele>
        <time>2015-01-10T17:24:31.310Z</time>
      </trkpt>
      <trkpt lat="47.31107" lon="4.98648">
        <ele>350</ele>
        <time>2015-01-10T17:24:32.305Z</time>
      </trkpt>
      <trkpt lat="47.31105" lon="4.98658">
        <ele>350</ele>
        <time>2015-01-10T17:24:36.285Z</time>
      </trkpt>
      <trkpt lat="47.31104" lon="4.98661">
        <ele>350</ele>
        <time>2015-01-10T17:24:37.305Z</time>
      </trkpt>
      <trkpt lat="47.31097" lon="4.98667">
        <ele>349</ele>
        <time>2015-01-10T17:24:42.300Z</time>
      </trkpt>
      <trkpt lat="47.31095" lon="4.98666">
        <ele>349</ele>
        <time>2015-01-10T17:24:43.301Z</time>
      </trkpt>
      <trkpt lat="47.31088" lon="4.98661">
        <ele>349</ele>
        <time>2015-01-10T17:24:47.305Z</time>
      </trkpt>
      <trkpt lat="47.31086" lon="4.9866">
        <ele>349</ele>
        <time>2015-01-10T17:24:48.302Z</time>
      </trkpt>
      <trkpt lat="47.31079" lon="4.98652">
        <ele>350</ele>
        <time>2015-01-10T17:24:52.339Z</time>
      </trkpt>
      <trkpt lat="47.31077" lon="4.9865">
        <ele>350</ele>
        <time>2015-01-10T17:24:53.294Z</time>
      </trkpt>
      <trkpt lat="47.3107" lon="4.98644">
        <ele>350</ele>
        <time>2015-01-10T17:24:57.298Z</time>
      </trkpt>
      <trkpt lat="47.31069" lon="4.98643">
        <ele>350</ele>
        <time>2015-01-10T17:24:58.457Z</time>
      </trkpt>
      <trkpt lat="47.31063" lon="4.98635">
        <ele>350</ele>
        <time>2015-01-10T17:25:02.311Z</time>
      </trkpt>
      <trkpt lat="47.31062" lon="4.98632">
        <ele>350</ele>
        <time>2015-01-10T17:25:03.292Z</time>
      </trkpt>
      <trkpt lat="47.31061" lon="4.9863">
        <ele>350</ele>
        <time>2015-01-10T17:25:04.288Z</time>
      </trkpt>
      <trkpt lat="47.31052" lon="4.98633">
        <ele>350</ele>
        <time>2015-01-10T17:25:05.294Z</time>
      </trkpt>
      <trkpt lat="47.31045" lon="4.98628">
        <ele>350</ele>
        <time>2015-01-10T17:25:08.300Z</time>
      </trkpt>
      <trkpt lat="47.31043" lon="4.98627">
        <ele>350</ele>
        <time>2015-01-10T17:25:09.394Z</time>
      </trkpt>
      <trkpt lat="47.31037" lon="4.9862">
        <ele>350</ele>
        <time>2015-01-10T17:25:12.288Z</time>
      </trkpt>
      <trkpt lat="47.31035" lon="4.98618">
        <ele>350</ele>
        <time>2015-01-10T17:25:13.268Z</time>
      </trkpt>
      <trkpt lat="47.3103" lon="4.98609">
        <ele>350</ele>
        <time>2015-01-10T17:25:17.290Z</time>
      </trkpt>
      <trkpt lat="47.31028" lon="4.98606">
        <ele>350</ele>
        <time>2015-01-10T17:25:18.306Z</time>
      </trkpt>
      <trkpt lat="47.31023" lon="4.98599">
        <ele>351</ele>
        <time>2015-01-10T17:25:21.296Z</time>
      </trkpt>
      <trkpt lat="47.31021" lon="4.98597">
        <ele>351</ele>
        <time>2015-01-10T17:25:22.294Z</time>
      </trkpt>
      <trkpt lat="47.31015" lon="4.98588">
        <ele>351</ele>
        <time>2015-01-10T17:25:26.300Z</time>
      </trkpt>
      <trkpt lat="47.31012" lon="4.98586">
        <ele>351</ele>
        <time>2015-01-10T17:25:27.299Z</time>
      </trkpt>
      <trkpt lat="47.31006" lon="4.98581">
        <ele>351</ele>
        <time>2015-01-10T17:25:30.292Z</time>
      </trkpt>
      <trkpt lat="47.31003" lon="4.98579">
        <ele>351</ele>
        <time>2015-01-10T17:25:31.356Z</time>
      </trkpt>
      <trkpt lat="47.30997" lon="4.98574">
        <ele>352</ele>
        <time>2015-01-10T17:25:34.296Z</time>
      </trkpt>
      <trkpt lat="47.30995" lon="4.98573">
        <ele>352</ele>
        <time>2015-01-10T17:25:35.268Z</time>
      </trkpt>
      <trkpt lat="47.30988" lon="4.98569">
        <ele>352</ele>
        <time>2015-01-10T17:25:39.300Z</time>
      </trkpt>
      <trkpt lat="47.30986" lon="4.98568">
        <ele>352</ele>
        <time>2015-01-10T17:25:40.293Z</time>
      </trkpt>
      <trkpt lat="47.3098" lon="4.98563">
        <ele>353</ele>
        <time>2015-01-10T17:25:43.291Z</time>
      </trkpt>
      <trkpt lat="47.30978" lon="4.98561">
        <ele>353</ele>
        <time>2015-01-10T17:25:44.304Z</time>
      </trkpt>
      <trkpt lat="47.3097" lon="4.98556">
        <ele>353</ele>
        <time>2015-01-10T17:25:48.297Z</time>
      </trkpt>
      <trkpt lat="47.30969" lon="4.98555">
        <ele>353</ele>
        <time>2015-01-10T17:25:49.303Z</time>
      </trkpt>
      <trkpt lat="47.30962" lon="4.9855">
        <ele>353</ele>
        <time>2015-01-10T17:25:53.301Z</time>
      </trkpt>
      <trkpt lat="47.3096" lon="4.98548">
        <ele>353</ele>
        <time>2015-01-10T17:25:54.331Z</time>
      </trkpt>
      <trkpt lat="47.30953" lon="4.98544">
        <ele>353</ele>
        <time>2015-01-10T17:25:58.296Z</time>
      </trkpt>
      <trkpt lat="47.30951" lon="4.98543">
        <ele>353</ele>
        <time>2015-01-10T17:25:59.294Z</time>
      </trkpt>
      <trkpt lat="47.30944" lon="4.98539">
        <ele>353</ele>
        <time>2015-01-10T17:26:03.296Z</time>
      </trkpt>
      <trkpt lat="47.30942" lon="4.98539">
        <ele>354</ele>
        <time>2015-01-10T17:26:04.299Z</time>
      </trkpt>
      <trkpt lat="47.30935" lon="4.98538">
        <ele>354</ele>
        <time>2015-01-10T17:26:08.304Z</time>
      </trkpt>
      <trkpt lat="47.30933" lon="4.98537">
        <ele>354</ele>
        <time>2015-01-10T17:26:09.298Z</time>
      </trkpt>
      <trkpt lat="47.30925" lon="4.98534">
        <ele>354</ele>
        <time>2015-01-10T17:26:13.294Z</time>
      </trkpt>
      <trkpt lat="47.30923" lon="4.98533">
        <ele>354</ele>
        <time>2015-01-10T17:26:14.304Z</time>
      </trkpt>
      <trkpt lat="47.30916" lon="4.98527">
        <ele>355</ele>
        <time>2015-01-10T17:26:19.310Z</time>
      </trkpt>
      <trkpt lat="47.30914" lon="4.98525">
        <ele>355</ele>
        <time>2015-01-10T17:26:20.300Z</time>
      </trkpt>
      <trkpt lat="47.30907" lon="4.98519">
        <ele>355</ele>
        <time>2015-01-10T17:26:24.299Z</time>
      </trkpt>
      <trkpt lat="47.30905" lon="4.98517">
        <ele>355</ele>
        <time>2015-01-10T17:26:25.295Z</time>
      </trkpt>
      <trkpt lat="47.309" lon="4.98512">
        <ele>355</ele>
        <time>2015-01-10T17:26:28.298Z</time>
      </trkpt>
      <trkpt lat="47.30898" lon="4.9851">
        <ele>355</ele>
        <time>2015-01-10T17:26:29.296Z</time>
      </trkpt>
      <trkpt lat="47.30892" lon="4.98504">
        <ele>355</ele>
        <time>2015-01-10T17:26:32.291Z</time>
      </trkpt>
      <trkpt lat="47.3089" lon="4.98503">
        <ele>355</ele>
        <time>2015-01-10T17:26:33.292Z</time>
      </trkpt>
      <trkpt lat="47.30884" lon="4.98497">
        <ele>355</ele>
        <time>2015-01-10T17:26:36.294Z</time>
      </trkpt>
      <trkpt lat="47.30882" lon="4.98496">
        <ele>355</ele>
        <time>2015-01-10T17:26:37.298Z</time>
      </trkpt>
      <trkpt lat="47.30874" lon="4.98493">
        <ele>356</ele>
        <time>2015-01-10T17:26:41.318Z</time>
      </trkpt>
      <trkpt lat="47.30872" lon="4.98493">
        <ele>356</ele>
        <time>2015-01-10T17:26:42.299Z</time>
      </trkpt>
      <trkpt lat="47.30863" lon="4.9849">
        <ele>356</ele>
        <time>2015-01-10T17:26:47.298Z</time>
      </trkpt>
      <trkpt lat="47.30861" lon="4.9849">
        <ele>356</ele>
        <time>2015-01-10T17:26:48.333Z</time>
      </trkpt>
      <trkpt lat="47.30854" lon="4.98488">
        <ele>356</ele>
        <time>2015-01-10T17:26:52.297Z</time>
      </trkpt>
      <trkpt lat="47.30852" lon="4.98488">
        <ele>356</ele>
        <time>2015-01-10T17:26:53.296Z</time>
      </trkpt>
      <trkpt lat="47.30844" lon="4.98483">
        <ele>356</ele>
        <time>2015-01-10T17:26:58.289Z</time>
      </trkpt>
      <trkpt lat="47.30843" lon="4.98482">
        <ele>356</ele>
        <time>2015-01-10T17:26:59.300Z</time>
      </trkpt>
      <trkpt lat="47.30836" lon="4.98474">
        <ele>356</ele>
        <time>2015-01-10T17:27:04.295Z</time>
      </trkpt>
      <trkpt lat="47.30835" lon="4.98472">
        <ele>356</ele>
        <time>2015-01-10T17:27:05.294Z</time>
      </trkpt>
      <trkpt lat="47.30828" lon="4.98463">
        <ele>356</ele>
        <time>2015-01-10T17:27:09.295Z</time>
      </trkpt>
      <trkpt lat="47.30826" lon="4.98461">
        <ele>356</ele>
        <time>2015-01-10T17:27:10.412Z</time>
      </trkpt>
      <trkpt lat="47.3082" lon="4.98454">
        <ele>356</ele>
        <time>2015-01-10T17:27:14.293Z</time>
      </trkpt>
      <trkpt lat="47.30819" lon="4.98452">
        <ele>356</ele>
        <time>2015-01-10T17:27:15.297Z</time>
      </trkpt>
      <trkpt lat="47.30812" lon="4.98446">
        <ele>356</ele>
        <time>2015-01-10T17:27:19.312Z</time>
      </trkpt>
      <trkpt lat="47.3081" lon="4.98444">
        <ele>356</ele>
        <time>2015-01-10T17:27:20.300Z</time>
      </trkpt>
      <trkpt lat="47.30803" lon="4.98438">
        <ele>356</ele>
        <time>2015-01-10T17:27:24.295Z</time>
      </trkpt>
      <trkpt lat="47.30801" lon="4.98437">
        <ele>356</ele>
        <time>2015-01-10T17:27:25.286Z</time>
      </trkpt>
      <trkpt lat="47.30794" lon="4.98431">
        <ele>356</ele>
        <time>2015-01-10T17:27:29.278Z</time>
      </trkpt>
      <trkpt lat="47.30792" lon="4.9843">
        <ele>356</ele>
        <time>2015-01-10T17:27:30.287Z</time>
      </trkpt>
      <trkpt lat="47.30784" lon="4.98425">
        <ele>356</ele>
        <time>2015-01-10T17:27:34.287Z</time>
      </trkpt>
      <trkpt lat="47.30782" lon="4.98424">
        <ele>356</ele>
        <time>2015-01-10T17:27:35.296Z</time>
      </trkpt>
      <trkpt lat="47.30776" lon="4.9842">
        <ele>356</ele>
        <time>2015-01-10T17:27:38.295Z</time>
      </trkpt>
      <trkpt lat="47.30774" lon="4.98419">
        <ele>355</ele>
        <time>2015-01-10T17:27:39.291Z</time>
      </trkpt>
      <trkpt lat="47.30767" lon="4.98415">
        <ele>356</ele>
        <time>2015-01-10T17:27:42.289Z</time>
      </trkpt>
      <trkpt lat="47.30765" lon="4.98413">
        <ele>356</ele>
        <time>2015-01-10T17:27:43.280Z</time>
      </trkpt>
      <trkpt lat="47.30759" lon="4.98409">
        <ele>356</ele>
        <time>2015-01-10T17:27:46.289Z</time>
      </trkpt>
      <trkpt lat="47.30756" lon="4.98407">
        <ele>356</ele>
        <time>2015-01-10T17:27:47.287Z</time>
      </trkpt>
      <trkpt lat="47.3075" lon="4.98403">
        <ele>356</ele>
        <time>2015-01-10T17:27:50.305Z</time>
      </trkpt>
      <trkpt lat="47.30748" lon="4.98402">
        <ele>354</ele>
        <time>2015-01-10T17:27:51.296Z</time>
      </trkpt>
      <trkpt lat="47.3074" lon="4.98398">
        <ele>354</ele>
        <time>2015-01-10T17:27:55.291Z</time>
      </trkpt>
      <trkpt lat="47.30738" lon="4.98397">
        <ele>354</ele>
        <time>2015-01-10T17:27:56.295Z</time>
      </trkpt>
      <trkpt lat="47.30732" lon="4.98389">
        <ele>354</ele>
        <time>2015-01-10T17:28:00.277Z</time>
      </trkpt>
      <trkpt lat="47.3073" lon="4.98387">
        <ele>354</ele>
        <time>2015-01-10T17:28:01.273Z</time>
      </trkpt>
      <trkpt lat="47.30725" lon="4.98377">
        <ele>354</ele>
        <time>2015-01-10T17:28:06.291Z</time>
      </trkpt>
      <trkpt lat="47.30724" lon="4.98374">
        <ele>354</ele>
        <time>2015-01-10T17:28:07.289Z</time>
      </trkpt>
      <trkpt lat="47.30721" lon="4.98364">
        <ele>354</ele>
        <time>2015-01-10T17:28:11.290Z</time>
      </trkpt>
      <trkpt lat="47.3072" lon="4.98362">
        <ele>354</ele>
        <time>2015-01-10T17:28:12.289Z</time>
      </trkpt>
      <trkpt lat="47.30715" lon="4.98354">
        <ele>354</ele>
        <time>2015-01-10T17:28:16.290Z</time>
      </trkpt>
      <trkpt lat="47.30714" lon="4.98352">
        <ele>354</ele>
        <time>2015-01-10T17:28:17.286Z</time>
      </trkpt>
      <trkpt lat="47.30709" lon="4.98343">
        <ele>354</ele>
        <time>2015-01-10T17:28:21.291Z</time>
      </trkpt>
      <trkpt lat="47.30707" lon="4.98341">
        <ele>354</ele>
        <time>2015-01-10T17:28:22.282Z</time>
      </trkpt>
      <trkpt lat="47.30703" lon="4.98332">
        <ele>356</ele>
        <time>2015-01-10T17:28:26.282Z</time>
      </trkpt>
      <trkpt lat="47.30702" lon="4.9833">
        <ele>356</ele>
        <time>2015-01-10T17:28:27.350Z</time>
      </trkpt>
      <trkpt lat="47.30697" lon="4.98322">
        <ele>356</ele>
        <time>2015-01-10T17:28:31.288Z</time>
      </trkpt>
      <trkpt lat="47.30696" lon="4.9832">
        <ele>356</ele>
        <time>2015-01-10T17:28:32.299Z</time>
      </trkpt>
      <trkpt lat="47.3069" lon="4.98311">
        <ele>356</ele>
        <time>2015-01-10T17:28:37.294Z</time>
      </trkpt>
      <trkpt lat="47.30688" lon="4.98309">
        <ele>356</ele>
        <time>2015-01-10T17:28:38.278Z</time>
      </trkpt>
      <trkpt lat="47.30683" lon="4.983">
        <ele>356</ele>
        <time>2015-01-10T17:28:42.293Z</time>
      </trkpt>
      <trkpt lat="47.30681" lon="4.98299">
        <ele>356</ele>
        <time>2015-01-10T17:28:43.297Z</time>
      </trkpt>
      <trkpt lat="47.30675" lon="4.98291">
        <ele>357</ele>
        <time>2015-01-10T17:28:47.306Z</time>
      </trkpt>
      <trkpt lat="47.30673" lon="4.98289">
        <ele>357</ele>
        <time>2015-01-10T17:28:48.307Z</time>
      </trkpt>
      <trkpt lat="47.30668" lon="4.98281">
        <ele>357</ele>
        <time>2015-01-10T17:28:52.301Z</time>
      </trkpt>
      <trkpt lat="47.30667" lon="4.98279">
        <ele>357</ele>
        <time>2015-01-10T17:28:53.297Z</time>
      </trkpt>
      <trkpt lat="47.30661" lon="4.98272">
        <ele>356</ele>
        <time>2015-01-10T17:28:57.305Z</time>
      </trkpt>
      <trkpt lat="47.30659" lon="4.9827">
        <ele>357</ele>
        <time>2015-01-10T17:28:58.291Z</time>
      </trkpt>
      <trkpt lat="47.30653" lon="4.98262">
        <ele>357</ele>
        <time>2015-01-10T17:29:02.319Z</time>
      </trkpt>
      <trkpt lat="47.30653" lon="4.9826">
        <ele>357</ele>
        <time>2015-01-10T17:29:03.294Z</time>
      </trkpt>
      <trkpt lat="47.30654" lon="4.9825">
        <ele>358</ele>
        <time>2015-01-10T17:29:07.282Z</time>
      </trkpt>
      <trkpt lat="47.30655" lon="4.98247">
        <ele>358</ele>
        <time>2015-01-10T17:29:08.303Z</time>
      </trkpt>
      <trkpt lat="47.30659" lon="4.98238">
        <ele>358</ele>
        <time>2015-01-10T17:29:12.285Z</time>
      </trkpt>
      <trkpt lat="47.3066" lon="4.98236">
        <ele>358</ele>
        <time>2015-01-10T17:29:13.294Z</time>
      </trkpt>
      <trkpt lat="47.30666" lon="4.98226">
        <ele>358</ele>
        <time>2015-01-10T17:29:18.297Z</time>
      </trkpt>
      <trkpt lat="47.30667" lon="4.98224">
        <ele>358</ele>
        <time>2015-01-10T17:29:19.298Z</time>
      </trkpt>
      <trkpt lat="47.30672" lon="4.98216">
        <ele>358</ele>
        <time>2015-01-10T17:29:23.299Z</time>
      </trkpt>
      <trkpt lat="47.30673" lon="4.98213">
        <ele>358</ele>
        <time>2015-01-10T17:29:24.299Z</time>
      </trkpt>
      <trkpt lat="47.30678" lon="4.98205">
        <ele>359</ele>
        <time>2015-01-10T17:29:28.321Z</time>
      </trkpt>
      <trkpt lat="47.30679" lon="4.98203">
        <ele>359</ele>
        <time>2015-01-10T17:29:29.314Z</time>
      </trkpt>
      <trkpt lat="47.30684" lon="4.98194">
        <ele>359</ele>
        <time>2015-01-10T17:29:33.300Z</time>
      </trkpt>
      <trkpt lat="47.30685" lon="4.98192">
        <ele>359</ele>
        <time>2015-01-10T17:29:34.304Z</time>
      </trkpt>
      <trkpt lat="47.30689" lon="4.98183">
        <ele>359</ele>
        <time>2015-01-10T17:29:38.313Z</time>
      </trkpt>
      <trkpt lat="47.3069" lon="4.98181">
        <ele>359</ele>
        <time>2015-01-10T17:29:39.303Z</time>
      </trkpt>
      <trkpt lat="47.30695" lon="4.98172">
        <ele>359</ele>
        <time>2015-01-10T17:29:43.278Z</time>
      </trkpt>
      <trkpt lat="47.30696" lon="4.9817">
        <ele>359</ele>
        <time>2015-01-10T17:29:44.290Z</time>
      </trkpt>
      <trkpt lat="47.30701" lon="4.98159">
        <ele>360</ele>
        <time>2015-01-10T17:29:49.280Z</time>
      </trkpt>
      <trkpt lat="47.30702" lon="4.98157">
        <ele>360</ele>
        <time>2015-01-10T17:29:50.311Z</time>
      </trkpt>
      <trkpt lat="47.30707" lon="4.98149">
        <ele>360</ele>
        <time>2015-01-10T17:29:54.301Z</time>
      </trkpt>
      <trkpt lat="47.30708" lon="4.98147">
        <ele>360</ele>
        <time>2015-01-10T17:29:55.289Z</time>
      </trkpt>
      <trkpt lat="47.30713" lon="4.98136">
        <ele>360</ele>
        <time>2015-01-10T17:30:00.288Z</time>
      </trkpt>
      <trkpt lat="47.30713" lon="4.98136">
        <ele>360</ele>
        <time>2015-01-10T17:30:01.293Z</time>
      </trkpt>
      <trkpt lat="47.30713" lon="4.98136">
        <ele>360</ele>
        <time>2015-01-10T17:30:02.309Z</time>
      </trkpt>
      <trkpt lat="47.30718" lon="4.98127">
        <ele>360</ele>
        <time>2015-01-10T17:30:08.315Z</time>
      </trkpt>
      <trkpt lat="47.3072" lon="4.98125">
        <ele>360</ele>
        <time>2015-01-10T17:30:09.294Z</time>
      </trkpt>
      <trkpt lat="47.30724" lon="4.98116">
        <ele>361</ele>
        <time>2015-01-10T17:30:14.310Z</time>
      </trkpt>
      <trkpt lat="47.30725" lon="4.98114">
        <ele>361</ele>
        <time>2015-01-10T17:30:15.299Z</time>
      </trkpt>
      <trkpt lat="47.30731" lon="4.98105">
        <ele>361</ele>
        <time>2015-01-10T17:30:20.310Z</time>
      </trkpt>
      <trkpt lat="47.30732" lon="4.98103">
        <ele>361</ele>
        <time>2015-01-10T17:30:21.315Z</time>
      </trkpt>
      <trkpt lat="47.30736" lon="4.98094">
        <ele>361</ele>
        <time>2015-01-10T17:30:25.291Z</time>
      </trkpt>
      <trkpt lat="47.30737" lon="4.98092">
        <ele>361</ele>
        <time>2015-01-10T17:30:26.313Z</time>
      </trkpt>
      <trkpt lat="47.30744" lon="4.98083">
        <ele>362</ele>
        <time>2015-01-10T17:30:31.303Z</time>
      </trkpt>
      <trkpt lat="47.30745" lon="4.98081">
        <ele>362</ele>
        <time>2015-01-10T17:30:32.312Z</time>
      </trkpt>
      <trkpt lat="47.3075" lon="4.98072">
        <ele>362</ele>
        <time>2015-01-10T17:30:36.301Z</time>
      </trkpt>
      <trkpt lat="47.30751" lon="4.9807">
        <ele>362</ele>
        <time>2015-01-10T17:30:37.304Z</time>
      </trkpt>
      <trkpt lat="47.30756" lon="4.9806">
        <ele>362</ele>
        <time>2015-01-10T17:30:41.304Z</time>
      </trkpt>
      <trkpt lat="47.30757" lon="4.98058">
        <ele>362</ele>
        <time>2015-01-10T17:30:42.296Z</time>
      </trkpt>
      <trkpt lat="47.30762" lon="4.98049">
        <ele>363</ele>
        <time>2015-01-10T17:30:46.304Z</time>
      </trkpt>
      <trkpt lat="47.30763" lon="4.98047">
        <ele>363</ele>
        <time>2015-01-10T17:30:47.287Z</time>
      </trkpt>
      <trkpt lat="47.30768" lon="4.98038">
        <ele>363</ele>
        <time>2015-01-10T17:30:51.307Z</time>
      </trkpt>
      <trkpt lat="47.30769" lon="4.98035">
        <ele>363</ele>
        <time>2015-01-10T17:30:52.298Z</time>
      </trkpt>
      <trkpt lat="47.30774" lon="4.98027">
        <ele>363</ele>
        <time>2015-01-10T17:30:56.317Z</time>
      </trkpt>
      <trkpt lat="47.30775" lon="4.98025">
        <ele>363</ele>
        <time>2015-01-10T17:30:57.307Z</time>
      </trkpt>
      <trkpt lat="47.3078" lon="4.98016">
        <ele>363</ele>
        <time>2015-01-10T17:31:01.301Z</time>
      </trkpt>
      <trkpt lat="47.30781" lon="4.98013">
        <ele>363</ele>
        <time>2015-01-10T17:31:02.319Z</time>
      </trkpt>
      <trkpt lat="47.30785" lon="4.98005">
        <ele>363</ele>
        <time>2015-01-10T17:31:06.300Z</time>
      </trkpt>
      <trkpt lat="47.30786" lon="4.98003">
        <ele>363</ele>
        <time>2015-01-10T17:31:07.298Z</time>
      </trkpt>
      <trkpt lat="47.3079" lon="4.98001">
        <ele>363</ele>
        <time>2015-01-10T17:31:14.312Z</time>
      </trkpt>
      <trkpt lat="47.3079" lon="4.98001">
        <ele>363</ele>
        <time>2015-01-10T17:31:15.310Z</time>
      </trkpt>
      <trkpt lat="47.3079" lon="4.98001">
        <ele>363</ele>
        <time>2015-01-10T17:31:16.317Z</time>
      </trkpt>
      <trkpt lat="47.30795" lon="4.9799">
        <ele>364</ele>
        <time>2015-01-10T17:31:26.313Z</time>
      </trkpt>
      <trkpt lat="47.30795" lon="4.97991">
        <ele>364</ele>
        <time>2015-01-10T17:31:27.304Z</time>
      </trkpt>
      <trkpt lat="47.3079" lon="4.97995">
        <ele>364</ele>
        <time>2015-01-10T17:32:35.274Z</time>
      </trkpt>
      <trkpt lat="47.3079" lon="4.97995">
        <ele>364</ele>
        <time>2015-01-10T17:32:36.313Z</time>
      </trkpt>
      <trkpt lat="47.30794" lon="4.97986">
        <ele>364</ele>
        <time>2015-01-10T17:32:43.298Z</time>
      </trkpt>
      <trkpt lat="47.30796" lon="4.97984">
        <ele>364</ele>
        <time>2015-01-10T17:32:44.321Z</time>
      </trkpt>
      <trkpt lat="47.30801" lon="4.97975">
        <ele>364</ele>
        <time>2015-01-10T17:32:48.306Z</time>
      </trkpt>
      <trkpt lat="47.30802" lon="4.97973">
        <ele>364</ele>
        <time>2015-01-10T17:32:49.314Z</time>
      </trkpt>
      <trkpt lat="47.30808" lon="4.97965">
        <ele>364</ele>
        <time>2015-01-10T17:32:53.307Z</time>
      </trkpt>
      <trkpt lat="47.30809" lon="4.97963">
        <ele>364</ele>
        <time>2015-01-10T17:32:54.311Z</time>
      </trkpt>
      <trkpt lat="47.30814" lon="4.97954">
        <ele>364</ele>
        <time>2015-01-10T17:32:58.313Z</time>
      </trkpt>
      <trkpt lat="47.30815" lon="4.97952">
        <ele>364</ele>
        <time>2015-01-10T17:32:59.308Z</time>
      </trkpt>
      <trkpt lat="47.30819" lon="4.97941">
        <ele>364</ele>
        <time>2015-01-10T17:33:04.305Z</time>
      </trkpt>
      <trkpt lat="47.30819" lon="4.97938">
        <ele>364</ele>
        <time>2015-01-10T17:33:05.310Z</time>
      </trkpt>
      <trkpt lat="47.30813" lon="4.97929">
        <ele>364</ele>
        <time>2015-01-10T17:33:10.299Z</time>
      </trkpt>
      <trkpt lat="47.30811" lon="4.97927">
        <ele>364</ele>
        <time>2015-01-10T17:33:11.301Z</time>
      </trkpt>
      <trkpt lat="47.30804" lon="4.97921">
        <ele>364</ele>
        <time>2015-01-10T17:33:15.306Z</time>
      </trkpt>
      <trkpt lat="47.30803" lon="4.9792">
        <ele>364</ele>
        <time>2015-01-10T17:33:16.304Z</time>
      </trkpt>
      <trkpt lat="47.30796" lon="4.97914">
        <ele>364</ele>
        <time>2015-01-10T17:33:20.309Z</time>
      </trkpt>
      <trkpt lat="47.30794" lon="4.97913">
        <ele>364</ele>
        <time>2015-01-10T17:33:21.309Z</time>
      </trkpt>
      <trkpt lat="47.30787" lon="4.97906">
        <ele>364</ele>
        <time>2015-01-10T17:33:26.312Z</time>
      </trkpt>
      <trkpt lat="47.30786" lon="4.97905">
        <ele>364</ele>
        <time>2015-01-10T17:33:27.321Z</time>
      </trkpt>
      <trkpt lat="47.30779" lon="4.97899">
        <ele>364</ele>
        <time>2015-01-10T17:33:32.292Z</time>
      </trkpt>
      <trkpt lat="47.30777" lon="4.97897">
        <ele>364</ele>
        <time>2015-01-10T17:33:33.306Z</time>
      </trkpt>
      <trkpt lat="47.30771" lon="4.97891">
        <ele>364</ele>
        <time>2015-01-10T17:33:37.300Z</time>
      </trkpt>
      <trkpt lat="47.30769" lon="4.97889">
        <ele>364</ele>
        <time>2015-01-10T17:33:38.279Z</time>
      </trkpt>
      <trkpt lat="47.30763" lon="4.97883">
        <ele>365</ele>
        <time>2015-01-10T17:33:42.305Z</time>
      </trkpt>
      <trkpt lat="47.30762" lon="4.97881">
        <ele>365</ele>
        <time>2015-01-10T17:33:43.291Z</time>
      </trkpt>
      <trkpt lat="47.30756" lon="4.97873">
        <ele>365</ele>
        <time>2015-01-10T17:33:47.314Z</time>
      </trkpt>
      <trkpt lat="47.30754" lon="4.97871">
        <ele>365</ele>
        <time>2015-01-10T17:33:48.326Z</time>
      </trkpt>
      <trkpt lat="47.3075" lon="4.97861">
        <ele>365</ele>
        <time>2015-01-10T17:33:52.308Z</time>
      </trkpt>
      <trkpt lat="47.30749" lon="4.97858">
        <ele>365</ele>
        <time>2015-01-10T17:33:53.312Z</time>
      </trkpt>
      <trkpt lat="47.30747" lon="4.97847">
        <ele>366</ele>
        <time>2015-01-10T17:33:57.304Z</time>
      </trkpt>
      <trkpt lat="47.30746" lon="4.97844">
        <ele>366</ele>
        <time>2015-01-10T17:33:58.312Z</time>
      </trkpt>
      <trkpt lat="47.30745" lon="4.97832">
        <ele>366</ele>
        <time>2015-01-10T17:34:02.306Z</time>
      </trkpt>
      <trkpt lat="47.30745" lon="4.97829">
        <ele>366</ele>
        <time>2015-01-10T17:34:03.315Z</time>
      </trkpt>
      <trkpt lat="47.30746" lon="4.97818">
        <ele>366</ele>
        <time>2015-01-10T17:34:07.297Z</time>
      </trkpt>
      <trkpt lat="47.30747" lon="4.97816">
        <ele>366</ele>
        <time>2015-01-10T17:34:08.294Z</time>
      </trkpt>
      <trkpt lat="47.30748" lon="4.97804">
        <ele>365</ele>
        <time>2015-01-10T17:34:12.305Z</time>
      </trkpt>
      <trkpt lat="47.30749" lon="4.97801">
        <ele>365</ele>
        <time>2015-01-10T17:34:13.302Z</time>
      </trkpt>
      <trkpt lat="47.30752" lon="4.97791">
        <ele>365</ele>
        <time>2015-01-10T17:34:17.307Z</time>
      </trkpt>
      <trkpt lat="47.30753" lon="4.97788">
        <ele>365</ele>
        <time>2015-01-10T17:34:18.308Z</time>
      </trkpt>
      <trkpt lat="47.30756" lon="4.97777">
        <ele>365</ele>
        <time>2015-01-10T17:34:22.315Z</time>
      </trkpt>
      <trkpt lat="47.30756" lon="4.97775">
        <ele>365</ele>
        <time>2015-01-10T17:34:23.314Z</time>
      </trkpt>
      <trkpt lat="47.30759" lon="4.97764">
        <ele>365</ele>
        <time>2015-01-10T17:34:27.283Z</time>
      </trkpt>
      <trkpt lat="47.3076" lon="4.97761">
        <ele>365</ele>
        <time>2015-01-10T17:34:28.322Z</time>
      </trkpt>
      <trkpt lat="47.30763" lon="4.9775">
        <ele>365</ele>
        <time>2015-01-10T17:34:32.308Z</time>
      </trkpt>
      <trkpt lat="47.30764" lon="4.97747">
        <ele>365</ele>
        <time>2015-01-10T17:34:33.301Z</time>
      </trkpt>
      <trkpt lat="47.30767" lon="4.97736">
        <ele>365</ele>
        <time>2015-01-10T17:34:37.305Z</time>
      </trkpt>
      <trkpt lat="47.30768" lon="4.97734">
        <ele>365</ele>
        <time>2015-01-10T17:34:38.290Z</time>
      </trkpt>
      <trkpt lat="47.30771" lon="4.97722">
        <ele>365</ele>
        <time>2015-01-10T17:34:42.282Z</time>
      </trkpt>
      <trkpt lat="47.30772" lon="4.9772">
        <ele>365</ele>
        <time>2015-01-10T17:34:43.303Z</time>
      </trkpt>
      <trkpt lat="47.30775" lon="4.97709">
        <ele>365</ele>
        <time>2015-01-10T17:34:47.361Z</time>
      </trkpt>
      <trkpt lat="47.30776" lon="4.97707">
        <ele>365</ele>
        <time>2015-01-10T17:34:48.310Z</time>
      </trkpt>
      <trkpt lat="47.30779" lon="4.97697">
        <ele>365</ele>
        <time>2015-01-10T17:34:52.305Z</time>
      </trkpt>
      <trkpt lat="47.3078" lon="4.97694">
        <ele>365</ele>
        <time>2015-01-10T17:34:53.313Z</time>
      </trkpt>
      <trkpt lat="47.30786" lon="4.97687">
        <ele>365</ele>
        <time>2015-01-10T17:34:57.304Z</time>
      </trkpt>
      <trkpt lat="47.30787" lon="4.97685">
        <ele>365</ele>
        <time>2015-01-10T17:34:58.308Z</time>
      </trkpt>
      <trkpt lat="47.30791" lon="4.97676">
        <ele>365</ele>
        <time>2015-01-10T17:35:01.308Z</time>
      </trkpt>
      <trkpt lat="47.30793" lon="4.97674">
        <ele>365</ele>
        <time>2015-01-10T17:35:02.324Z</time>
      </trkpt>
      <trkpt lat="47.30797" lon="4.97664">
        <ele>364</ele>
        <time>2015-01-10T17:35:05.302Z</time>
      </trkpt>
      <trkpt lat="47.30798" lon="4.97662">
        <ele>364</ele>
        <time>2015-01-10T17:35:06.276Z</time>
      </trkpt>
      <trkpt lat="47.30803" lon="4.97652">
        <ele>364</ele>
        <time>2015-01-10T17:35:10.298Z</time>
      </trkpt>
      <trkpt lat="47.30804" lon="4.97649">
        <ele>364</ele>
        <time>2015-01-10T17:35:11.313Z</time>
      </trkpt>
      <trkpt lat="47.30806" lon="4.97637">
        <ele>364</ele>
        <time>2015-01-10T17:35:16.323Z</time>
      </trkpt>
      <trkpt lat="47.30807" lon="4.97635">
        <ele>364</ele>
        <time>2015-01-10T17:35:17.305Z</time>
      </trkpt>
      <trkpt lat="47.3081" lon="4.97625">
        <ele>364</ele>
        <time>2015-01-10T17:35:21.320Z</time>
      </trkpt>
      <trkpt lat="47.30811" lon="4.97622">
        <ele>364</ele>
        <time>2015-01-10T17:35:22.317Z</time>
      </trkpt>
      <trkpt lat="47.30813" lon="4.97611">
        <ele>364</ele>
        <time>2015-01-10T17:35:26.326Z</time>
      </trkpt>
      <trkpt lat="47.30813" lon="4.97608">
        <ele>364</ele>
        <time>2015-01-10T17:35:27.359Z</time>
      </trkpt>
      <trkpt lat="47.30816" lon="4.97596">
        <ele>364</ele>
        <time>2015-01-10T17:35:31.315Z</time>
      </trkpt>
      <trkpt lat="47.30817" lon="4.97593">
        <ele>365</ele>
        <time>2015-01-10T17:35:32.345Z</time>
      </trkpt>
      <trkpt lat="47.30821" lon="4.97582">
        <ele>364</ele>
        <time>2015-01-10T17:35:36.282Z</time>
      </trkpt>
      <trkpt lat="47.30822" lon="4.97579">
        <ele>364</ele>
        <time>2015-01-10T17:35:37.282Z</time>
      </trkpt>
      <trkpt lat="47.30825" lon="4.97568">
        <ele>364</ele>
        <time>2015-01-10T17:35:41.273Z</time>
      </trkpt>
      <trkpt lat="47.30825" lon="4.97565">
        <ele>364</ele>
        <time>2015-01-10T17:35:42.304Z</time>
      </trkpt>
      <trkpt lat="47.30828" lon="4.97556">
        <ele>364</ele>
        <time>2015-01-10T17:35:45.312Z</time>
      </trkpt>
      <trkpt lat="47.30829" lon="4.97553">
        <ele>364</ele>
        <time>2015-01-10T17:35:46.296Z</time>
      </trkpt>
      <trkpt lat="47.30832" lon="4.97542">
        <ele>364</ele>
        <time>2015-01-10T17:35:50.307Z</time>
      </trkpt>
      <trkpt lat="47.30832" lon="4.97539">
        <ele>364</ele>
        <time>2015-01-10T17:35:51.306Z</time>
      </trkpt>
      <trkpt lat="47.30835" lon="4.97528">
        <ele>364</ele>
        <time>2015-01-10T17:35:55.314Z</time>
      </trkpt>
      <trkpt lat="47.30836" lon="4.97526">
        <ele>364</ele>
        <time>2015-01-10T17:35:56.279Z</time>
      </trkpt>
      <trkpt lat="47.30835" lon="4.97513">
        <ele>364</ele>
        <time>2015-01-10T17:36:01.283Z</time>
      </trkpt>
      <trkpt lat="47.30835" lon="4.9751">
        <ele>364</ele>
        <time>2015-01-10T17:36:02.293Z</time>
      </trkpt>
      <trkpt lat="47.30837" lon="4.975">
        <ele>363</ele>
        <time>2015-01-10T17:36:06.306Z</time>
      </trkpt>
      <trkpt lat="47.30838" lon="4.97496">
        <ele>363</ele>
        <time>2015-01-10T17:36:07.320Z</time>
      </trkpt>
      <trkpt lat="47.30842" lon="4.97484">
        <ele>363</ele>
        <time>2015-01-10T17:36:11.306Z</time>
      </trkpt>
      <trkpt lat="47.30843" lon="4.97482">
        <ele>363</ele>
        <time>2015-01-10T17:36:12.304Z</time>
      </trkpt>
      <trkpt lat="47.30847" lon="4.97471">
        <ele>363</ele>
        <time>2015-01-10T17:36:16.309Z</time>
      </trkpt>
      <trkpt lat="47.30849" lon="4.97469">
        <ele>363</ele>
        <time>2015-01-10T17:36:17.314Z</time>
      </trkpt>
      <trkpt lat="47.30855" lon="4.9746">
        <ele>363</ele>
        <time>2015-01-10T17:36:22.307Z</time>
      </trkpt>
      <trkpt lat="47.30856" lon="4.97459">
        <ele>363</ele>
        <time>2015-01-10T17:36:23.313Z</time>
      </trkpt>
      <trkpt lat="47.30863" lon="4.97453">
        <ele>363</ele>
        <time>2015-01-10T17:36:28.310Z</time>
      </trkpt>
      <trkpt lat="47.30865" lon="4.97452">
        <ele>363</ele>
        <time>2015-01-10T17:36:29.294Z</time>
      </trkpt>
      <trkpt lat="47.30871" lon="4.97445">
        <ele>363</ele>
        <time>2015-01-10T17:36:33.305Z</time>
      </trkpt>
      <trkpt lat="47.30873" lon="4.97443">
        <ele>363</ele>
        <time>2015-01-10T17:36:34.302Z</time>
      </trkpt>
      <trkpt lat="47.30876" lon="4.97434">
        <ele>363</ele>
        <time>2015-01-10T17:36:39.309Z</time>
      </trkpt>
      <trkpt lat="47.30878" lon="4.97432">
        <ele>363</ele>
        <time>2015-01-10T17:36:40.308Z</time>
      </trkpt>
      <trkpt lat="47.30884" lon="4.97423">
        <ele>363</ele>
        <time>2015-01-10T17:36:47.294Z</time>
      </trkpt>
      <trkpt lat="47.30885" lon="4.97422">
        <ele>363</ele>
        <time>2015-01-10T17:36:48.306Z</time>
      </trkpt>
      <trkpt lat="47.30893" lon="4.97415">
        <ele>363</ele>
        <time>2015-01-10T17:36:54.276Z</time>
      </trkpt>
      <trkpt lat="47.30894" lon="4.97414">
        <ele>363</ele>
        <time>2015-01-10T17:36:55.334Z</time>
      </trkpt>
      <trkpt lat="47.30899" lon="4.97404">
        <ele>363</ele>
        <time>2015-01-10T17:37:00.271Z</time>
      </trkpt>
      <trkpt lat="47.30899" lon="4.97402">
        <ele>363</ele>
        <time>2015-01-10T17:37:01.297Z</time>
      </trkpt>
      <trkpt lat="47.30904" lon="4.97393">
        <ele>363</ele>
        <time>2015-01-10T17:37:06.305Z</time>
      </trkpt>
      <trkpt lat="47.30904" lon="4.97391">
        <ele>363</ele>
        <time>2015-01-10T17:37:07.298Z</time>
      </trkpt>
      <trkpt lat="47.30907" lon="4.9738">
        <ele>363</ele>
        <time>2015-01-10T17:37:14.304Z</time>
      </trkpt>
      <trkpt lat="47.30907" lon="4.97378">
        <ele>363</ele>
        <time>2015-01-10T17:37:15.305Z</time>
      </trkpt>
      <trkpt lat="47.30912" lon="4.97369">
        <ele>363</ele>
        <time>2015-01-10T17:37:21.317Z</time>
      </trkpt>
      <trkpt lat="47.30914" lon="4.97367">
        <ele>363</ele>
        <time>2015-01-10T17:37:22.307Z</time>
      </trkpt>
      <trkpt lat="47.30918" lon="4.97356">
        <ele>364</ele>
        <time>2015-01-10T17:37:27.294Z</time>
      </trkpt>
      <trkpt lat="47.30919" lon="4.97354">
        <ele>364</ele>
        <time>2015-01-10T17:37:28.310Z</time>
      </trkpt>
      <trkpt lat="47.3092" lon="4.97343">
        <ele>363</ele>
        <time>2015-01-10T17:37:33.286Z</time>
      </trkpt>
      <trkpt lat="47.30921" lon="4.97341">
        <ele>363</ele>
        <time>2015-01-10T17:37:34.274Z</time>
      </trkpt>
      <trkpt lat="47.30924" lon="4.97328">
        <ele>362</ele>
        <time>2015-01-10T17:37:39.312Z</time>
      </trkpt>
      <trkpt lat="47.30924" lon="4.97326">
        <ele>362</ele>
        <time>2015-01-10T17:37:40.290Z</time>
      </trkpt>
      <trkpt lat="47.30928" lon="4.97317">
        <ele>362</ele>
        <time>2015-01-10T17:37:44.298Z</time>
      </trkpt>
      <trkpt lat="47.30929" lon="4.97315">
        <ele>362</ele>
        <time>2015-01-10T17:37:45.317Z</time>
      </trkpt>
      <trkpt lat="47.30932" lon="4.97302">
        <ele>361</ele>
        <time>2015-01-10T17:37:49.335Z</time>
      </trkpt>
      <trkpt lat="47.30932" lon="4.97299">
        <ele>361</ele>
        <time>2015-01-10T17:37:50.335Z</time>
      </trkpt>
      <trkpt lat="47.30933" lon="4.97288">
        <ele>361</ele>
        <time>2015-01-10T17:37:54.300Z</time>
      </trkpt>
      <trkpt lat="47.30932" lon="4.97285">
        <ele>360</ele>
        <time>2015-01-10T17:37:55.301Z</time>
      </trkpt>
      <trkpt lat="47.30935" lon="4.97274">
        <ele>360</ele>
        <time>2015-01-10T17:37:59.285Z</time>
      </trkpt>
      <trkpt lat="47.30936" lon="4.97271">
        <ele>360</ele>
        <time>2015-01-10T17:38:00.278Z</time>
      </trkpt>
      <trkpt lat="47.30937" lon="4.97261">
        <ele>359</ele>
        <time>2015-01-10T17:38:03.285Z</time>
      </trkpt>
      <trkpt lat="47.30938" lon="4.97258">
        <ele>359</ele>
        <time>2015-01-10T17:38:04.267Z</time>
      </trkpt>
      <trkpt lat="47.30938" lon="4.97245">
        <ele>356</ele>
        <time>2015-01-10T17:38:09.289Z</time>
      </trkpt>
      <trkpt lat="47.30938" lon="4.97243">
        <ele>356</ele>
        <time>2015-01-10T17:38:10.288Z</time>
      </trkpt>
      <trkpt lat="47.30941" lon="4.97231">
        <ele>356</ele>
        <time>2015-01-10T17:38:16.298Z</time>
      </trkpt>
      <trkpt lat="47.30941" lon="4.97229">
        <ele>356</ele>
        <time>2015-01-10T17:38:17.313Z</time>
      </trkpt>
      <trkpt lat="47.30945" lon="4.97218">
        <ele>356</ele>
        <time>2015-01-10T17:38:25.308Z</time>
      </trkpt>
      <trkpt lat="47.30946" lon="4.97217">
        <ele>356</ele>
        <time>2015-01-10T17:38:26.275Z</time>
      </trkpt>
      <trkpt lat="47.30951" lon="4.97208">
        <ele>356</ele>
        <time>2015-01-10T17:38:33.301Z</time>
      </trkpt>
      <trkpt lat="47.30952" lon="4.97207">
        <ele>356</ele>
        <time>2015-01-10T17:38:34.298Z</time>
      </trkpt>
      <trkpt lat="47.30956" lon="4.97195">
        <ele>356</ele>
        <time>2015-01-10T17:38:43.303Z</time>
      </trkpt>
      <trkpt lat="47.30957" lon="4.97194">
        <ele>356</ele>
        <time>2015-01-10T17:38:44.314Z</time>
      </trkpt>
      <trkpt lat="47.30957" lon="4.97192">
        <ele>356</ele>
        <time>2015-01-10T17:38:47.306Z</time>
      </trkpt>
      <trkpt lat="47.30957" lon="4.97192">
        <ele>356</ele>
        <time>2015-01-10T17:38:48.312Z</time>
      </trkpt>
      <trkpt lat="47.30957" lon="4.97192">
        <ele>356</ele>
        <time>2015-01-10T17:38:49.308Z</time>
      </trkpt>
      <trkpt lat="47.30958" lon="4.97188">
        <ele>356</ele>
        <time>2015-01-10T17:38:50.315Z</time>
      </trkpt>
      <trkpt lat="47.30966" lon="4.97183">
        <ele>356</ele>
        <time>2015-01-10T17:38:56.305Z</time>
      </trkpt>
      <trkpt lat="47.30967" lon="4.97183">
        <ele>357</ele>
        <time>2015-01-10T17:38:57.298Z</time>
      </trkpt>
      <trkpt lat="47.30973" lon="4.97172">
        <ele>357</ele>
        <time>2015-01-10T17:39:06.284Z</time>
      </trkpt>
      <trkpt lat="47.30973" lon="4.97171">
        <ele>357</ele>
        <time>2015-01-10T17:39:07.290Z</time>
      </trkpt>
      <trkpt lat="47.30977" lon="4.97159">
        <ele>353</ele>
        <time>2015-01-10T17:39:15.293Z</time>
      </trkpt>
      <trkpt lat="47.30977" lon="4.97158">
        <ele>353</ele>
        <time>2015-01-10T17:39:16.303Z</time>
      </trkpt>
      <trkpt lat="47.30979" lon="4.97146">
        <ele>352</ele>
        <time>2015-01-10T17:39:24.296Z</time>
      </trkpt>
      <trkpt lat="47.3098" lon="4.97145">
        <ele>352</ele>
        <time>2015-01-10T17:39:25.297Z</time>
      </trkpt>
      <trkpt lat="47.30986" lon="4.97137">
        <ele>351</ele>
        <time>2015-01-10T17:39:32.289Z</time>
      </trkpt>
      <trkpt lat="47.30987" lon="4.97136">
        <ele>351</ele>
        <time>2015-01-10T17:39:33.291Z</time>
      </trkpt>
      <trkpt lat="47.30989" lon="4.97134">
        <ele>351</ele>
        <time>2015-01-10T17:39:35.296Z</time>
      </trkpt>
      <trkpt lat="47.3099" lon="4.97134">
        <ele>351</ele>
        <time>2015-01-10T17:39:36.295Z</time>
      </trkpt>
      <trkpt lat="47.30991" lon="4.97133">
        <ele>351</ele>
        <time>2015-01-10T17:39:37.287Z</time>
      </trkpt>
      <trkpt lat="47.30994" lon="4.97135">
        <ele>352</ele>
        <time>2015-01-10T17:39:50.318Z</time>
      </trkpt>
      <trkpt lat="47.30993" lon="4.97135">
        <ele>352</ele>
        <time>2015-01-10T17:39:51.313Z</time>
      </trkpt>
      <trkpt lat="47.30993" lon="4.97136">
        <ele>352</ele>
        <time>2015-01-10T17:39:57.298Z</time>
      </trkpt>
      <trkpt lat="47.30991" lon="4.9712">
        <ele>350</ele>
        <time>2015-01-10T17:39:59.275Z</time>
      </trkpt>
      <trkpt lat="47.30991" lon="4.9712">
        <ele>350</ele>
        <time>2015-01-10T17:40:08.279Z</time>
      </trkpt>
      <trkpt lat="47.30993" lon="4.97113">
        <ele>349</ele>
        <time>2015-01-10T17:40:09.269Z</time>
      </trkpt>
      <trkpt lat="47.30993" lon="4.97108">
        <ele>348</ele>
        <time>2015-01-10T17:40:16.287Z</time>
      </trkpt>
      <trkpt lat="47.3099" lon="4.97098">
        <ele>348</ele>
        <time>2015-01-10T17:40:17.284Z</time>
      </trkpt>
      <trkpt lat="47.30992" lon="4.97094">
        <ele>347</ele>
        <time>2015-01-10T17:40:20.262Z</time>
      </trkpt>
      <trkpt lat="47.30992" lon="4.97094">
        <ele>347</ele>
        <time>2015-01-10T17:40:21.251Z</time>
      </trkpt>
      <trkpt lat="47.30992" lon="4.97094">
        <ele>347</ele>
        <time>2015-01-10T17:40:22.269Z</time>
      </trkpt>
      <trkpt lat="47.30992" lon="4.97094">
        <ele>347</ele>
        <time>2015-01-10T17:40:23.251Z</time>
      </trkpt>
      <trkpt lat="47.30993" lon="4.97088">
        <ele>347</ele>
        <time>2015-01-10T17:40:26.307Z</time>
      </trkpt>
      <trkpt lat="47.30993" lon="4.97087">
        <ele>347</ele>
        <time>2015-01-10T17:40:27.274Z</time>
      </trkpt>
      <trkpt lat="47.30993" lon="4.97086">
        <ele>347</ele>
        <time>2015-01-10T17:40:28.254Z</time>
      </trkpt>
      <trkpt lat="47.30993" lon="4.97086">
        <ele>347</ele>
        <time>2015-01-10T17:40:29.257Z</time>
      </trkpt>
      <trkpt lat="47.30993" lon="4.97086">
        <ele>347</ele>
        <time>2015-01-10T17:40:30.269Z</time>
      </trkpt>
      <trkpt lat="47.30992" lon="4.97086">
        <ele>347</ele>
        <time>2015-01-10T17:40:31.287Z</time>
      </trkpt>
      <trkpt lat="47.30986" lon="4.97077">
        <ele>345</ele>
        <time>2015-01-10T17:40:38.277Z</time>
      </trkpt>
      <trkpt lat="47.30986" lon="4.97075">
        <ele>345</ele>
        <time>2015-01-10T17:40:39.255Z</time>
      </trkpt>
      <trkpt lat="47.30984" lon="4.97063">
        <ele>345</ele>
        <time>2015-01-10T17:40:45.266Z</time>
      </trkpt>
      <trkpt lat="47.30984" lon="4.9706">
        <ele>345</ele>
        <time>2015-01-10T17:40:46.263Z</time>
      </trkpt>
      <trkpt lat="47.30985" lon="4.97053">
        <ele>344</ele>
        <time>2015-01-10T17:40:50.260Z</time>
      </trkpt>
      <trkpt lat="47.30985" lon="4.97053">
        <ele>344</ele>
        <time>2015-01-10T17:40:51.267Z</time>
      </trkpt>
      <trkpt lat="47.30985" lon="4.97053">
        <ele>344</ele>
        <time>2015-01-10T17:40:52.259Z</time>
      </trkpt>
      <trkpt lat="47.30985" lon="4.97053">
        <ele>344</ele>
        <time>2015-01-10T17:40:53.276Z</time>
      </trkpt>
      <trkpt lat="47.30986" lon="4.97047">
        <ele>344</ele>
        <time>2015-01-10T17:40:58.260Z</time>
      </trkpt>
      <trkpt lat="47.30986" lon="4.97047">
        <ele>344</ele>
        <time>2015-01-10T17:40:59.262Z</time>
      </trkpt>
      <trkpt lat="47.30986" lon="4.97047">
        <ele>344</ele>
        <time>2015-01-10T17:41:00.254Z</time>
      </trkpt>
      <trkpt lat="47.30986" lon="4.97047">
        <ele>344</ele>
        <time>2015-01-10T17:41:01.250Z</time>
      </trkpt>
      <trkpt lat="47.30986" lon="4.97047">
        <ele>344</ele>
        <time>2015-01-10T17:41:02.278Z</time>
      </trkpt>
      <trkpt lat="47.30986" lon="4.97047">
        <ele>344</ele>
        <time>2015-01-10T17:41:03.264Z</time>
      </trkpt>
      <trkpt lat="47.30986" lon="4.97047">
        <ele>344</ele>
        <time>2015-01-10T17:41:04.263Z</time>
      </trkpt>
      <trkpt lat="47.30986" lon="4.97047">
        <ele>344</ele>
        <time>2015-01-10T17:41:05.267Z</time>
      </trkpt>
      <trkpt lat="47.30986" lon="4.97047">
        <ele>344</ele>
        <time>2015-01-10T17:41:06.267Z</time>
      </trkpt>
      <trkpt lat="47.30986" lon="4.97047">
        <ele>344</ele>
        <time>2015-01-10T17:41:07.267Z</time>
      </trkpt>
      <trkpt lat="47.3098" lon="4.9704">
        <ele>344</ele>
        <time>2015-01-10T17:41:14.288Z</time>
      </trkpt>
      <trkpt lat="47.3098" lon="4.9704">
        <ele>344</ele>
        <time>2015-01-10T17:41:15.264Z</time>
      </trkpt>
      <trkpt lat="47.3098" lon="4.9704">
        <ele>344</ele>
        <time>2015-01-10T17:41:17.263Z</time>
      </trkpt>
      <trkpt lat="47.3098" lon="4.9704">
        <ele>344</ele>
        <time>2015-01-10T17:41:18.262Z</time>
      </trkpt>
      <trkpt lat="47.3098" lon="4.9704">
        <ele>344</ele>
        <time>2015-01-10T17:41:19.263Z</time>
      </trkpt>
      <trkpt lat="47.3098" lon="4.9704">
        <ele>344</ele>
        <time>2015-01-10T17:41:24.267Z</time>
      </trkpt>
      <trkpt lat="47.3098" lon="4.97033">
        <ele>344</ele>
        <time>2015-01-10T17:41:25.263Z</time>
      </trkpt>
      <trkpt lat="47.3098" lon="4.97031">
        <ele>343</ele>
        <time>2015-01-10T17:41:27.283Z</time>
      </trkpt>
      <trkpt lat="47.3098" lon="4.9703">
        <ele>343</ele>
        <time>2015-01-10T17:41:28.281Z</time>
      </trkpt>
      <trkpt lat="47.3098" lon="4.9703">
        <ele>343</ele>
        <time>2015-01-10T17:41:29.269Z</time>
      </trkpt>
      <trkpt lat="47.3098" lon="4.9703">
        <ele>343</ele>
        <time>2015-01-10T17:41:30.268Z</time>
      </trkpt>
      <trkpt lat="47.30982" lon="4.97025">
        <ele>343</ele>
        <time>2015-01-10T17:41:36.268Z</time>
      </trkpt>
      <trkpt lat="47.30982" lon="4.97025">
        <ele>343</ele>
        <time>2015-01-10T17:41:37.275Z</time>
      </trkpt>
      <trkpt lat="47.30982" lon="4.97025">
        <ele>343</ele>
        <time>2015-01-10T17:41:39.279Z</time>
      </trkpt>
      <trkpt lat="47.30982" lon="4.97025">
        <ele>343</ele>
        <time>2015-01-10T17:41:40.258Z</time>
      </trkpt>
      <trkpt lat="47.30982" lon="4.97025">
        <ele>343</ele>
        <time>2015-01-10T17:41:42.269Z</time>
      </trkpt>
      <trkpt lat="47.30982" lon="4.97025">
        <ele>343</ele>
        <time>2015-01-10T17:41:43.263Z</time>
      </trkpt>
      <trkpt lat="47.30979" lon="4.97023">
        <ele>343</ele>
        <time>2015-01-10T17:41:44.266Z</time>
      </trkpt>
      <trkpt lat="47.30978" lon="4.97023">
        <ele>343</ele>
        <time>2015-01-10T17:41:48.287Z</time>
      </trkpt>
      <trkpt lat="47.30978" lon="4.97023">
        <ele>343</ele>
        <time>2015-01-10T17:41:49.278Z</time>
      </trkpt>
      <trkpt lat="47.30978" lon="4.97023">
        <ele>343</ele>
        <time>2015-01-10T17:41:54.274Z</time>
      </trkpt>
      <trkpt lat="47.30978" lon="4.97023">
        <ele>343</ele>
        <time>2015-01-10T17:41:55.267Z</time>
      </trkpt>
      <trkpt lat="47.30978" lon="4.97023">
        <ele>343</ele>
        <time>2015-01-10T17:42:00.241Z</time>
      </trkpt>
      <trkpt lat="47.30978" lon="4.97023">
        <ele>343</ele>
        <time>2015-01-10T17:42:01.279Z</time>
      </trkpt>
      <trkpt lat="47.30978" lon="4.97023">
        <ele>343</ele>
        <time>2015-01-10T17:42:05.286Z</time>
      </trkpt>
      <trkpt lat="47.30978" lon="4.97024">
        <ele>343</ele>
        <time>2015-01-10T17:42:06.245Z</time>
      </trkpt>
      <trkpt lat="47.30978" lon="4.97021">
        <ele>343</ele>
        <time>2015-01-10T17:42:08.281Z</time>
      </trkpt>
      <trkpt lat="47.30978" lon="4.97019">
        <ele>343</ele>
        <time>2015-01-10T17:42:09.269Z</time>
      </trkpt>
      <trkpt lat="47.30978" lon="4.97019">
        <ele>343</ele>
        <time>2015-01-10T17:42:10.269Z</time>
      </trkpt>
      <trkpt lat="47.30978" lon="4.97019">
        <ele>343</ele>
        <time>2015-01-10T17:42:11.267Z</time>
      </trkpt>
      <trkpt lat="47.30978" lon="4.97019">
        <ele>343</ele>
        <time>2015-01-10T17:42:13.285Z</time>
      </trkpt>
      <trkpt lat="47.30978" lon="4.97019">
        <ele>343</ele>
        <time>2015-01-10T17:42:14.271Z</time>
      </trkpt>
      <trkpt lat="47.30978" lon="4.97019">
        <ele>343</ele>
        <time>2015-01-10T17:42:16.270Z</time>
      </trkpt>
      <trkpt lat="47.30979" lon="4.97013">
        <ele>343</ele>
        <time>2015-01-10T17:42:17.261Z</time>
      </trkpt>
      <trkpt lat="47.30979" lon="4.97008">
        <ele>342</ele>
        <time>2015-01-10T17:42:27.264Z</time>
      </trkpt>
      <trkpt lat="47.30979" lon="4.97009">
        <ele>342</ele>
        <time>2015-01-10T17:42:28.275Z</time>
      </trkpt>
      <trkpt lat="47.3098" lon="4.97008">
        <ele>342</ele>
        <time>2015-01-10T17:42:29.268Z</time>
      </trkpt>
      <trkpt lat="47.3098" lon="4.97009">
        <ele>342</ele>
        <time>2015-01-10T17:42:30.267Z</time>
      </trkpt>
      <trkpt lat="47.30971" lon="4.97006">
        <ele>343</ele>
        <time>2015-01-10T17:42:41.277Z</time>
      </trkpt>
      <trkpt lat="47.3097" lon="4.97006">
        <ele>343</ele>
        <time>2015-01-10T17:42:42.277Z</time>
      </trkpt>
      <trkpt lat="47.30961" lon="4.97004">
        <ele>345</ele>
        <time>2015-01-10T17:42:50.293Z</time>
      </trkpt>
      <trkpt lat="47.30961" lon="4.97004">
        <ele>345</ele>
        <time>2015-01-10T17:42:51.274Z</time>
      </trkpt>
      <trkpt lat="47.30953" lon="4.97005">
        <ele>346</ele>
        <time>2015-01-10T17:42:58.257Z</time>
      </trkpt>
      <trkpt lat="47.30952" lon="4.97006">
        <ele>346</ele>
        <time>2015-01-10T17:42:59.269Z</time>
      </trkpt>
      <trkpt lat="47.30943" lon="4.97003">
        <ele>347</ele>
        <time>2015-01-10T17:43:08.273Z</time>
      </trkpt>
      <trkpt lat="47.30942" lon="4.97002">
        <ele>347</ele>
        <time>2015-01-10T17:43:09.271Z</time>
      </trkpt>
      <trkpt lat="47.30936" lon="4.96995">
        <ele>352</ele>
        <time>2015-01-10T17:43:16.260Z</time>
      </trkpt>
      <trkpt lat="47.30934" lon="4.96994">
        <ele>352</ele>
        <time>2015-01-10T17:43:17.265Z</time>
      </trkpt>
      <trkpt lat="47.30926" lon="4.96991">
        <ele>353</ele>
        <time>2015-01-10T17:43:22.291Z</time>
      </trkpt>
      <trkpt lat="47.30925" lon="4.9699">
        <ele>353</ele>
        <time>2015-01-10T17:43:23.277Z</time>
      </trkpt>
      <trkpt lat="47.30917" lon="4.96988">
        <ele>358</ele>
        <time>2015-01-10T17:43:28.272Z</time>
      </trkpt>
      <trkpt lat="47.30915" lon="4.96987">
        <ele>358</ele>
        <time>2015-01-10T17:43:29.300Z</time>
      </trkpt>
      <trkpt lat="47.30908" lon="4.96983">
        <ele>359</ele>
        <time>2015-01-10T17:43:33.270Z</time>
      </trkpt>
      <trkpt lat="47.30906" lon="4.96981">
        <ele>360</ele>
        <time>2015-01-10T17:43:34.246Z</time>
      </trkpt>
      <trkpt lat="47.30897" lon="4.96978">
        <ele>361</ele>
        <time>2015-01-10T17:43:38.272Z</time>
      </trkpt>
      <trkpt lat="47.30896" lon="4.96978">
        <ele>361</ele>
        <time>2015-01-10T17:43:39.269Z</time>
      </trkpt>
      <trkpt lat="47.30887" lon="4.96977">
        <ele>362</ele>
        <time>2015-01-10T17:43:45.269Z</time>
      </trkpt>
      <trkpt lat="47.30885" lon="4.96977">
        <ele>362</ele>
        <time>2015-01-10T17:43:46.271Z</time>
      </trkpt>
      <trkpt lat="47.30877" lon="4.96976">
        <ele>362</ele>
        <time>2015-01-10T17:43:50.280Z</time>
      </trkpt>
      <trkpt lat="47.30876" lon="4.96974">
        <ele>363</ele>
        <time>2015-01-10T17:43:51.271Z</time>
      </trkpt>
      <trkpt lat="47.30868" lon="4.96968">
        <ele>363</ele>
        <time>2015-01-10T17:43:55.273Z</time>
      </trkpt>
      <trkpt lat="47.30866" lon="4.96968">
        <ele>363</ele>
        <time>2015-01-10T17:43:56.282Z</time>
      </trkpt>
      <trkpt lat="47.30858" lon="4.96966">
        <ele>364</ele>
        <time>2015-01-10T17:44:00.271Z</time>
      </trkpt>
      <trkpt lat="47.30856" lon="4.96964">
        <ele>364</ele>
        <time>2015-01-10T17:44:01.281Z</time>
      </trkpt>
      <trkpt lat="47.30851" lon="4.96956">
        <ele>365</ele>
        <time>2015-01-10T17:44:04.285Z</time>
      </trkpt>
      <trkpt lat="47.30849" lon="4.96955">
        <ele>365</ele>
        <time>2015-01-10T17:44:05.277Z</time>
      </trkpt>
      <trkpt lat="47.3084" lon="4.96951">
        <ele>366</ele>
        <time>2015-01-10T17:44:08.287Z</time>
      </trkpt>
      <trkpt lat="47.30838" lon="4.96949">
        <ele>366</ele>
        <time>2015-01-10T17:44:09.280Z</time>
      </trkpt>
      <trkpt lat="47.3083" lon="4.96945">
        <ele>370</ele>
        <time>2015-01-10T17:44:12.276Z</time>
      </trkpt>
      <trkpt lat="47.30828" lon="4.96944">
        <ele>370</ele>
        <time>2015-01-10T17:44:13.282Z</time>
      </trkpt>
      <trkpt lat="47.30822" lon="4.96942">
        <ele>370</ele>
        <time>2015-01-10T17:44:16.291Z</time>
      </trkpt>
      <trkpt lat="47.30819" lon="4.96941">
        <ele>370</ele>
        <time>2015-01-10T17:44:17.289Z</time>
      </trkpt>
      <trkpt lat="47.30813" lon="4.96938">
        <ele>370</ele>
        <time>2015-01-10T17:44:20.290Z</time>
      </trkpt>
      <trkpt lat="47.30811" lon="4.96938">
        <ele>370</ele>
        <time>2015-01-10T17:44:21.299Z</time>
      </trkpt>
      <trkpt lat="47.30804" lon="4.96936">
        <ele>370</ele>
        <time>2015-01-10T17:44:24.290Z</time>
      </trkpt>
      <trkpt lat="47.30802" lon="4.96936">
        <ele>370</ele>
        <time>2015-01-10T17:44:25.363Z</time>
      </trkpt>
      <trkpt lat="47.30793" lon="4.96932">
        <ele>370</ele>
        <time>2015-01-10T17:44:29.301Z</time>
      </trkpt>
      <trkpt lat="47.30791" lon="4.96931">
        <ele>371</ele>
        <time>2015-01-10T17:44:30.285Z</time>
      </trkpt>
      <trkpt lat="47.30783" lon="4.96926">
        <ele>371</ele>
        <time>2015-01-10T17:44:35.285Z</time>
      </trkpt>
      <trkpt lat="47.30781" lon="4.96925">
        <ele>371</ele>
        <time>2015-01-10T17:44:36.285Z</time>
      </trkpt>
      <trkpt lat="47.30773" lon="4.96922">
        <ele>372</ele>
        <time>2015-01-10T17:44:40.306Z</time>
      </trkpt>
      <trkpt lat="47.30771" lon="4.96922">
        <ele>372</ele>
        <time>2015-01-10T17:44:41.280Z</time>
      </trkpt>
      <trkpt lat="47.30763" lon="4.96919">
        <ele>373</ele>
        <time>2015-01-10T17:44:46.292Z</time>
      </trkpt>
      <trkpt lat="47.30761" lon="4.96918">
        <ele>373</ele>
        <time>2015-01-10T17:44:47.291Z</time>
      </trkpt>
      <trkpt lat="47.30753" lon="4.96917">
        <ele>375</ele>
        <time>2015-01-10T17:44:52.289Z</time>
      </trkpt>
      <trkpt lat="47.30752" lon="4.96916">
        <ele>376</ele>
        <time>2015-01-10T17:44:53.291Z</time>
      </trkpt>
      <trkpt lat="47.30744" lon="4.96912">
        <ele>377</ele>
        <time>2015-01-10T17:44:57.291Z</time>
      </trkpt>
      <trkpt lat="47.30743" lon="4.9691">
        <ele>377</ele>
        <time>2015-01-10T17:44:58.289Z</time>
      </trkpt>
      <trkpt lat="47.30736" lon="4.96906">
        <ele>378</ele>
        <time>2015-01-10T17:45:02.311Z</time>
      </trkpt>
      <trkpt lat="47.30734" lon="4.96904">
        <ele>378</ele>
        <time>2015-01-10T17:45:03.282Z</time>
      </trkpt>
      <trkpt lat="47.30727" lon="4.96899">
        <ele>379</ele>
        <time>2015-01-10T17:45:07.290Z</time>
      </trkpt>
      <trkpt lat="47.30725" lon="4.96898">
        <ele>379</ele>
        <time>2015-01-10T17:45:08.292Z</time>
      </trkpt>
      <trkpt lat="47.30718" lon="4.96893">
        <ele>379</ele>
        <time>2015-01-10T17:45:12.285Z</time>
      </trkpt>
      <trkpt lat="47.30716" lon="4.96892">
        <ele>380</ele>
        <time>2015-01-10T17:45:13.268Z</time>
      </trkpt>
      <trkpt lat="47.3071" lon="4.96885">
        <ele>380</ele>
        <time>2015-01-10T17:45:18.293Z</time>
      </trkpt>
      <trkpt lat="47.30709" lon="4.96884">
        <ele>380</ele>
        <time>2015-01-10T17:45:19.312Z</time>
      </trkpt>
      <trkpt lat="47.30704" lon="4.96875">
        <ele>380</ele>
        <time>2015-01-10T17:45:24.302Z</time>
      </trkpt>
      <trkpt lat="47.30703" lon="4.96874">
        <ele>381</ele>
        <time>2015-01-10T17:45:25.318Z</time>
      </trkpt>
      <trkpt lat="47.30697" lon="4.96865">
        <ele>381</ele>
        <time>2015-01-10T17:45:31.308Z</time>
      </trkpt>
      <trkpt lat="47.30696" lon="4.96863">
        <ele>381</ele>
        <time>2015-01-10T17:45:32.299Z</time>
      </trkpt>
      <trkpt lat="47.3069" lon="4.96856">
        <ele>382</ele>
        <time>2015-01-10T17:45:36.284Z</time>
      </trkpt>
      <trkpt lat="47.30688" lon="4.96854">
        <ele>382</ele>
        <time>2015-01-10T17:45:37.295Z</time>
      </trkpt>
      <trkpt lat="47.30681" lon="4.96847">
        <ele>383</ele>
        <time>2015-01-10T17:45:41.288Z</time>
      </trkpt>
      <trkpt lat="47.30679" lon="4.96845">
        <ele>383</ele>
        <time>2015-01-10T17:45:42.298Z</time>
      </trkpt>
      <trkpt lat="47.30673" lon="4.96838">
        <ele>384</ele>
        <time>2015-01-10T17:45:46.292Z</time>
      </trkpt>
      <trkpt lat="47.30671" lon="4.96836">
        <ele>385</ele>
        <time>2015-01-10T17:45:47.292Z</time>
      </trkpt>
      <trkpt lat="47.30664" lon="4.9683">
        <ele>387</ele>
        <time>2015-01-10T17:45:51.303Z</time>
      </trkpt>
      <trkpt lat="47.30662" lon="4.96828">
        <ele>388</ele>
        <time>2015-01-10T17:45:52.319Z</time>
      </trkpt>
      <trkpt lat="47.30654" lon="4.96823">
        <ele>389</ele>
        <time>2015-01-10T17:45:57.292Z</time>
      </trkpt>
      <trkpt lat="47.30653" lon="4.96822">
        <ele>390</ele>
        <time>2015-01-10T17:45:58.301Z</time>
      </trkpt>
      <trkpt lat="47.30645" lon="4.96816">
        <ele>391</ele>
        <time>2015-01-10T17:46:03.285Z</time>
      </trkpt>
      <trkpt lat="47.30644" lon="4.96815">
        <ele>391</ele>
        <time>2015-01-10T17:46:04.369Z</time>
      </trkpt>
      <trkpt lat="47.30636" lon="4.96809">
        <ele>392</ele>
        <time>2015-01-10T17:46:10.282Z</time>
      </trkpt>
      <trkpt lat="47.30635" lon="4.96808">
        <ele>392</ele>
        <time>2015-01-10T17:46:11.288Z</time>
      </trkpt>
      <trkpt lat="47.30628" lon="4.96803">
        <ele>393</ele>
        <time>2015-01-10T17:46:16.302Z</time>
      </trkpt>
      <trkpt lat="47.30626" lon="4.96802">
        <ele>393</ele>
        <time>2015-01-10T17:46:17.281Z</time>
      </trkpt>
      <trkpt lat="47.30619" lon="4.96797">
        <ele>393</ele>
        <time>2015-01-10T17:46:23.290Z</time>
      </trkpt>
      <trkpt lat="47.30618" lon="4.96796">
        <ele>393</ele>
        <time>2015-01-10T17:46:24.296Z</time>
      </trkpt>
      <trkpt lat="47.30611" lon="4.96789">
        <ele>394</ele>
        <time>2015-01-10T17:46:30.290Z</time>
      </trkpt>
      <trkpt lat="47.3061" lon="4.96788">
        <ele>394</ele>
        <time>2015-01-10T17:46:31.274Z</time>
      </trkpt>
      <trkpt lat="47.30602" lon="4.96783">
        <ele>395</ele>
        <time>2015-01-10T17:46:37.287Z</time>
      </trkpt>
      <trkpt lat="47.30601" lon="4.96782">
        <ele>395</ele>
        <time>2015-01-10T17:46:38.301Z</time>
      </trkpt>
      <trkpt lat="47.30594" lon="4.96775">
        <ele>396</ele>
        <time>2015-01-10T17:46:43.289Z</time>
      </trkpt>
      <trkpt lat="47.30593" lon="4.96773">
        <ele>396</ele>
        <time>2015-01-10T17:46:44.294Z</time>
      </trkpt>
      <trkpt lat="47.30588" lon="4.96766">
        <ele>398</ele>
        <time>2015-01-10T17:46:48.317Z</time>
      </trkpt>
      <trkpt lat="47.30586" lon="4.96764">
        <ele>398</ele>
        <time>2015-01-10T17:46:49.301Z</time>
      </trkpt>
      <trkpt lat="47.30581" lon="4.96755">
        <ele>402</ele>
        <time>2015-01-10T17:46:53.293Z</time>
      </trkpt>
      <trkpt lat="47.3058" lon="4.96752">
        <ele>402</ele>
        <time>2015-01-10T17:46:54.298Z</time>
      </trkpt>
      <trkpt lat="47.30575" lon="4.96743">
        <ele>403</ele>
        <time>2015-01-10T17:46:58.299Z</time>
      </trkpt>
      <trkpt lat="47.30574" lon="4.96741">
        <ele>403</ele>
        <time>2015-01-10T17:46:59.296Z</time>
      </trkpt>
      <trkpt lat="47.30568" lon="4.96734">
        <ele>404</ele>
        <time>2015-01-10T17:47:03.292Z</time>
      </trkpt>
      <trkpt lat="47.30567" lon="4.96732">
        <ele>404</ele>
        <time>2015-01-10T17:47:04.314Z</time>
      </trkpt>
      <trkpt lat="47.3056" lon="4.96724">
        <ele>405</ele>
        <time>2015-01-10T17:47:08.309Z</time>
      </trkpt>
      <trkpt lat="47.30559" lon="4.96722">
        <ele>405</ele>
        <time>2015-01-10T17:47:09.290Z</time>
      </trkpt>
      <trkpt lat="47.30551" lon="4.96716">
        <ele>405</ele>
        <time>2015-01-10T17:47:15.300Z</time>
      </trkpt>
      <trkpt lat="47.3055" lon="4.96715">
        <ele>405</ele>
        <time>2015-01-10T17:47:16.304Z</time>
      </trkpt>
      <trkpt lat="47.30543" lon="4.96709">
        <ele>405</ele>
        <time>2015-01-10T17:47:21.297Z</time>
      </trkpt>
      <trkpt lat="47.30542" lon="4.96707">
        <ele>406</ele>
        <time>2015-01-10T17:47:22.293Z</time>
      </trkpt>
      <trkpt lat="47.30535" lon="4.96701">
        <ele>406</ele>
        <time>2015-01-10T17:47:26.296Z</time>
      </trkpt>
      <trkpt lat="47.30533" lon="4.96699">
        <ele>406</ele>
        <time>2015-01-10T17:47:27.290Z</time>
      </trkpt>
      <trkpt lat="47.30528" lon="4.96692">
        <ele>406</ele>
        <time>2015-01-10T17:47:30.290Z</time>
      </trkpt>
      <trkpt lat="47.30526" lon="4.96691">
        <ele>406</ele>
        <time>2015-01-10T17:47:31.284Z</time>
      </trkpt>
      <trkpt lat="47.30519" lon="4.96682">
        <ele>407</ele>
        <time>2015-01-10T17:47:36.285Z</time>
      </trkpt>
      <trkpt lat="47.30518" lon="4.9668">
        <ele>407</ele>
        <time>2015-01-10T17:47:37.277Z</time>
      </trkpt>
      <trkpt lat="47.30512" lon="4.96674">
        <ele>408</ele>
        <time>2015-01-10T17:47:41.284Z</time>
      </trkpt>
      <trkpt lat="47.3051" lon="4.96672">
        <ele>408</ele>
        <time>2015-01-10T17:47:42.276Z</time>
      </trkpt>
      <trkpt lat="47.30504" lon="4.96664">
        <ele>410</ele>
        <time>2015-01-10T17:47:47.288Z</time>
      </trkpt>
      <trkpt lat="47.30502" lon="4.96663">
        <ele>410</ele>
        <time>2015-01-10T17:47:48.298Z</time>
      </trkpt>
      <trkpt lat="47.30496" lon="4.96653">
        <ele>411</ele>
        <time>2015-01-10T17:47:53.297Z</time>
      </trkpt>
      <trkpt lat="47.30495" lon="4.96652">
        <ele>411</ele>
        <time>2015-01-10T17:47:54.303Z</time>
      </trkpt>
      <trkpt lat="47.30489" lon="4.96644">
        <ele>412</ele>
        <time>2015-01-10T17:47:59.299Z</time>
      </trkpt>
      <trkpt lat="47.30488" lon="4.96642">
        <ele>412</ele>
        <time>2015-01-10T17:48:00.300Z</time>
      </trkpt>
      <trkpt lat="47.30482" lon="4.96636">
        <ele>412</ele>
        <time>2015-01-10T17:48:05.294Z</time>
      </trkpt>
      <trkpt lat="47.3048" lon="4.96635">
        <ele>412</ele>
        <time>2015-01-10T17:48:06.292Z</time>
      </trkpt>
      <trkpt lat="47.30474" lon="4.96625">
        <ele>413</ele>
        <time>2015-01-10T17:48:12.292Z</time>
      </trkpt>
      <trkpt lat="47.30473" lon="4.96623">
        <ele>413</ele>
        <time>2015-01-10T17:48:13.288Z</time>
      </trkpt>
      <trkpt lat="47.30468" lon="4.96614">
        <ele>413</ele>
        <time>2015-01-10T17:48:18.300Z</time>
      </trkpt>
      <trkpt lat="47.30467" lon="4.96612">
        <ele>413</ele>
        <time>2015-01-10T17:48:19.303Z</time>
      </trkpt>
      <trkpt lat="47.30462" lon="4.96603">
        <ele>413</ele>
        <time>2015-01-10T17:48:24.310Z</time>
      </trkpt>
      <trkpt lat="47.30461" lon="4.96601">
        <ele>413</ele>
        <time>2015-01-10T17:48:25.302Z</time>
      </trkpt>
      <trkpt lat="47.30457" lon="4.96591">
        <ele>413</ele>
        <time>2015-01-10T17:48:30.303Z</time>
      </trkpt>
      <trkpt lat="47.30456" lon="4.96589">
        <ele>413</ele>
        <time>2015-01-10T17:48:31.267Z</time>
      </trkpt>
      <trkpt lat="47.3045" lon="4.96578">
        <ele>415</ele>
        <time>2015-01-10T17:48:37.295Z</time>
      </trkpt>
      <trkpt lat="47.3045" lon="4.96577">
        <ele>415</ele>
        <time>2015-01-10T17:48:38.293Z</time>
      </trkpt>
      <trkpt lat="47.30445" lon="4.96567">
        <ele>416</ele>
        <time>2015-01-10T17:48:44.314Z</time>
      </trkpt>
      <trkpt lat="47.30444" lon="4.96565">
        <ele>416</ele>
        <time>2015-01-10T17:48:45.294Z</time>
      </trkpt>
      <trkpt lat="47.30438" lon="4.96555">
        <ele>416</ele>
        <time>2015-01-10T17:48:50.327Z</time>
      </trkpt>
      <trkpt lat="47.30437" lon="4.96553">
        <ele>416</ele>
        <time>2015-01-10T17:48:51.294Z</time>
      </trkpt>
      <trkpt lat="47.30432" lon="4.96544">
        <ele>416</ele>
        <time>2015-01-10T17:48:55.296Z</time>
      </trkpt>
      <trkpt lat="47.3043" lon="4.96541">
        <ele>416</ele>
        <time>2015-01-10T17:48:56.328Z</time>
      </trkpt>
      <trkpt lat="47.30426" lon="4.96532">
        <ele>417</ele>
        <time>2015-01-10T17:49:00.290Z</time>
      </trkpt>
      <trkpt lat="47.30425" lon="4.9653">
        <ele>417</ele>
        <time>2015-01-10T17:49:01.288Z</time>
      </trkpt>
      <trkpt lat="47.3042" lon="4.96521">
        <ele>417</ele>
        <time>2015-01-10T17:49:05.291Z</time>
      </trkpt>
      <trkpt lat="47.3042" lon="4.96519">
        <ele>417</ele>
        <time>2015-01-10T17:49:06.293Z</time>
      </trkpt>
      <trkpt lat="47.30414" lon="4.96509">
        <ele>419</ele>
        <time>2015-01-10T17:49:11.285Z</time>
      </trkpt>
      <trkpt lat="47.30413" lon="4.96507">
        <ele>419</ele>
        <time>2015-01-10T17:49:12.288Z</time>
      </trkpt>
      <trkpt lat="47.30409" lon="4.96496">
        <ele>419</ele>
        <time>2015-01-10T17:49:17.292Z</time>
      </trkpt>
      <trkpt lat="47.30408" lon="4.96494">
        <ele>419</ele>
        <time>2015-01-10T17:49:18.293Z</time>
      </trkpt>
      <trkpt lat="47.30404" lon="4.96482">
        <ele>419</ele>
        <time>2015-01-10T17:49:23.292Z</time>
      </trkpt>
      <trkpt lat="47.30404" lon="4.9648">
        <ele>419</ele>
        <time>2015-01-10T17:49:24.296Z</time>
      </trkpt>
      <trkpt lat="47.30401" lon="4.96468">
        <ele>419</ele>
        <time>2015-01-10T17:49:29.339Z</time>
      </trkpt>
      <trkpt lat="47.30401" lon="4.96466">
        <ele>419</ele>
        <time>2015-01-10T17:49:30.285Z</time>
      </trkpt>
      <trkpt lat="47.30407" lon="4.96457">
        <ele>419</ele>
        <time>2015-01-10T17:49:35.293Z</time>
      </trkpt>
      <trkpt lat="47.30408" lon="4.96456">
        <ele>419</ele>
        <time>2015-01-10T17:49:36.300Z</time>
      </trkpt>
      <trkpt lat="47.30414" lon="4.96449">
        <ele>419</ele>
        <time>2015-01-10T17:49:41.292Z</time>
      </trkpt>
      <trkpt lat="47.30415" lon="4.96447">
        <ele>419</ele>
        <time>2015-01-10T17:49:42.295Z</time>
      </trkpt>
      <trkpt lat="47.30419" lon="4.96437">
        <ele>419</ele>
        <time>2015-01-10T17:49:47.292Z</time>
      </trkpt>
      <trkpt lat="47.3042" lon="4.96435">
        <ele>419</ele>
        <time>2015-01-10T17:49:48.311Z</time>
      </trkpt>
      <trkpt lat="47.30426" lon="4.96425">
        <ele>419</ele>
        <time>2015-01-10T17:49:54.303Z</time>
      </trkpt>
      <trkpt lat="47.30427" lon="4.96424">
        <ele>419</ele>
        <time>2015-01-10T17:49:55.312Z</time>
      </trkpt>
      <trkpt lat="47.30435" lon="4.96421">
        <ele>419</ele>
        <time>2015-01-10T17:50:01.295Z</time>
      </trkpt>
      <trkpt lat="47.30436" lon="4.96421">
        <ele>419</ele>
        <time>2015-01-10T17:50:02.293Z</time>
      </trkpt>
      <trkpt lat="47.30444" lon="4.96424">
        <ele>419</ele>
        <time>2015-01-10T17:50:09.271Z</time>
      </trkpt>
      <trkpt lat="47.30445" lon="4.96424">
        <ele>419</ele>
        <time>2015-01-10T17:50:10.272Z</time>
      </trkpt>
      <trkpt lat="47.30453" lon="4.96429">
        <ele>419</ele>
        <time>2015-01-10T17:50:17.307Z</time>
      </trkpt>
      <trkpt lat="47.30454" lon="4.9643">
        <ele>419</ele>
        <time>2015-01-10T17:50:18.280Z</time>
      </trkpt>
      <trkpt lat="47.30463" lon="4.96431">
        <ele>419</ele>
        <time>2015-01-10T17:50:29.292Z</time>
      </trkpt>
      <trkpt lat="47.30464" lon="4.96431">
        <ele>419</ele>
        <time>2015-01-10T17:50:30.288Z</time>
      </trkpt>
      <trkpt lat="47.30472" lon="4.96428">
        <ele>419</ele>
        <time>2015-01-10T17:50:37.289Z</time>
      </trkpt>
      <trkpt lat="47.30474" lon="4.96428">
        <ele>419</ele>
        <time>2015-01-10T17:50:38.298Z</time>
      </trkpt>
      <trkpt lat="47.30481" lon="4.96426">
        <ele>419</ele>
        <time>2015-01-10T17:50:43.304Z</time>
      </trkpt>
      <trkpt lat="47.30483" lon="4.96426">
        <ele>419</ele>
        <time>2015-01-10T17:50:44.294Z</time>
      </trkpt>
      <trkpt lat="47.30491" lon="4.96431">
        <ele>419</ele>
        <time>2015-01-10T17:50:51.304Z</time>
      </trkpt>
      <trkpt lat="47.30492" lon="4.96431">
        <ele>419</ele>
        <time>2015-01-10T17:50:52.271Z</time>
      </trkpt>
      <trkpt lat="47.30492" lon="4.96431">
        <ele>419</ele>
        <time>2015-01-10T17:50:53.352Z</time>
      </trkpt>
      <trkpt lat="47.30497" lon="4.96431">
        <ele>419</ele>
        <time>2015-01-10T17:50:59.312Z</time>
      </trkpt>
      <trkpt lat="47.30499" lon="4.9643">
        <ele>419</ele>
        <time>2015-01-10T17:51:00.286Z</time>
      </trkpt>
      <trkpt lat="47.30499" lon="4.96423">
        <ele>419</ele>
        <time>2015-01-10T17:51:12.292Z</time>
      </trkpt>
      <trkpt lat="47.30499" lon="4.96423">
        <ele>419</ele>
        <time>2015-01-10T17:51:13.303Z</time>
      </trkpt>
      <trkpt lat="47.30498" lon="4.96422">
        <ele>419</ele>
        <time>2015-01-10T17:51:14.305Z</time>
      </trkpt>
      <trkpt lat="47.3049" lon="4.96419">
        <ele>419</ele>
        <time>2015-01-10T17:51:21.301Z</time>
      </trkpt>
      <trkpt lat="47.30489" lon="4.96418">
        <ele>419</ele>
        <time>2015-01-10T17:51:22.306Z</time>
      </trkpt>
      <trkpt lat="47.3048" lon="4.96419">
        <ele>419</ele>
        <time>2015-01-10T17:51:28.294Z</time>
      </trkpt>
      <trkpt lat="47.30479" lon="4.96419">
        <ele>419</ele>
        <time>2015-01-10T17:51:29.304Z</time>
      </trkpt>
      <trkpt lat="47.3047" lon="4.96421">
        <ele>419</ele>
        <time>2015-01-10T17:51:35.297Z</time>
      </trkpt>
      <trkpt lat="47.30469" lon="4.96421">
        <ele>419</ele>
        <time>2015-01-10T17:51:36.348Z</time>
      </trkpt>
      <trkpt lat="47.30464" lon="4.96421">
        <ele>419</ele>
        <time>2015-01-10T17:51:43.299Z</time>
      </trkpt>
      <trkpt lat="47.30464" lon="4.96421">
        <ele>419</ele>
        <time>2015-01-10T17:51:44.313Z</time>
      </trkpt>
      <trkpt lat="47.30465" lon="4.96421">
        <ele>419</ele>
        <time>2015-01-10T17:51:45.294Z</time>
      </trkpt>
      <trkpt lat="47.3047" lon="4.9643">
        <ele>419</ele>
        <time>2015-01-10T17:51:52.300Z</time>
      </trkpt>
      <trkpt lat="47.30471" lon="4.96431">
        <ele>419</ele>
        <time>2015-01-10T17:51:53.325Z</time>
      </trkpt>
      <trkpt lat="47.30477" lon="4.96439">
        <ele>418</ele>
        <time>2015-01-10T17:51:59.304Z</time>
      </trkpt>
      <trkpt lat="47.30478" lon="4.96441">
        <ele>418</ele>
        <time>2015-01-10T17:52:00.294Z</time>
      </trkpt>
      <trkpt lat="47.30487" lon="4.96445">
        <ele>418</ele>
        <time>2015-01-10T17:52:09.296Z</time>
      </trkpt>
      <trkpt lat="47.30488" lon="4.96445">
        <ele>418</ele>
        <time>2015-01-10T17:52:10.295Z</time>
      </trkpt>
      <trkpt lat="47.30493" lon="4.96454">
        <ele>418</ele>
        <time>2015-01-10T17:52:19.300Z</time>
      </trkpt>
      <trkpt lat="47.30494" lon="4.96455">
        <ele>418</ele>
        <time>2015-01-10T17:52:20.302Z</time>
      </trkpt>
      <trkpt lat="47.30501" lon="4.96456">
        <ele>416</ele>
        <time>2015-01-10T17:52:29.334Z</time>
      </trkpt>
      <trkpt lat="47.30501" lon="4.96456">
        <ele>416</ele>
        <time>2015-01-10T17:52:30.300Z</time>
      </trkpt>
      <trkpt lat="47.30501" lon="4.96456">
        <ele>416</ele>
        <time>2015-01-10T17:52:35.305Z</time>
      </trkpt>
      <trkpt lat="47.30501" lon="4.96456">
        <ele>416</ele>
        <time>2015-01-10T17:52:36.291Z</time>
      </trkpt>
      <trkpt lat="47.30501" lon="4.96456">
        <ele>416</ele>
        <time>2015-01-10T17:52:43.304Z</time>
      </trkpt>
      <trkpt lat="47.30501" lon="4.96456">
        <ele>416</ele>
        <time>2015-01-10T17:52:44.304Z</time>
      </trkpt>
      <trkpt lat="47.30501" lon="4.96456">
        <ele>416</ele>
        <time>2015-01-10T17:52:45.326Z</time>
      </trkpt>
      <trkpt lat="47.30509" lon="4.96459">
        <ele>415</ele>
        <time>2015-01-10T17:52:49.304Z</time>
      </trkpt>
      <trkpt lat="47.3051" lon="4.9646">
        <ele>415</ele>
        <time>2015-01-10T17:52:50.276Z</time>
      </trkpt>
      <trkpt lat="47.30519" lon="4.96463">
        <ele>415</ele>
        <time>2015-01-10T17:52:58.314Z</time>
      </trkpt>
      <trkpt lat="47.3052" lon="4.96464">
        <ele>415</ele>
        <time>2015-01-10T17:52:59.296Z</time>
      </trkpt>
      <trkpt lat="47.30528" lon="4.96467">
        <ele>415</ele>
        <time>2015-01-10T17:53:07.322Z</time>
      </trkpt>
      <trkpt lat="47.30529" lon="4.96468">
        <ele>415</ele>
        <time>2015-01-10T17:53:08.438Z</time>
      </trkpt>
      <trkpt lat="47.30537" lon="4.96469">
        <ele>415</ele>
        <time>2015-01-10T17:53:17.285Z</time>
      </trkpt>
      <trkpt lat="47.30538" lon="4.96469">
        <ele>415</ele>
        <time>2015-01-10T17:53:18.308Z</time>
      </trkpt>
      <trkpt lat="47.30545" lon="4.96462">
        <ele>415</ele>
        <time>2015-01-10T17:53:25.305Z</time>
      </trkpt>
      <trkpt lat="47.30546" lon="4.96461">
        <ele>415</ele>
        <time>2015-01-10T17:53:26.305Z</time>
      </trkpt>
      <trkpt lat="47.30553" lon="4.96452">
        <ele>415</ele>
        <time>2015-01-10T17:53:32.298Z</time>
      </trkpt>
      <trkpt lat="47.30553" lon="4.96449">
        <ele>415</ele>
        <time>2015-01-10T17:53:33.290Z</time>
      </trkpt>
      <trkpt lat="47.30556" lon="4.96438">
        <ele>415</ele>
        <time>2015-01-10T17:53:39.291Z</time>
      </trkpt>
      <trkpt lat="47.30556" lon="4.96436">
        <ele>415</ele>
        <time>2015-01-10T17:53:40.307Z</time>
      </trkpt>
      <trkpt lat="47.30559" lon="4.96424">
        <ele>415</ele>
        <time>2015-01-10T17:53:49.315Z</time>
      </trkpt>
      <trkpt lat="47.30559" lon="4.96424">
        <ele>415</ele>
        <time>2015-01-10T17:53:50.302Z</time>
      </trkpt>
      <trkpt lat="47.30559" lon="4.96422">
        <ele>415</ele>
        <time>2015-01-10T17:53:51.290Z</time>
      </trkpt>
      <trkpt lat="47.30558" lon="4.9641">
        <ele>415</ele>
        <time>2015-01-10T17:54:00.276Z</time>
      </trkpt>
      <trkpt lat="47.30559" lon="4.96409">
        <ele>415</ele>
        <time>2015-01-10T17:54:01.306Z</time>
      </trkpt>
      <trkpt lat="47.30559" lon="4.96406">
        <ele>415</ele>
        <time>2015-01-10T17:54:03.309Z</time>
      </trkpt>
      <trkpt lat="47.30559" lon="4.96406">
        <ele>415</ele>
        <time>2015-01-10T17:54:04.296Z</time>
      </trkpt>
      <trkpt lat="47.30559" lon="4.96406">
        <ele>415</ele>
        <time>2015-01-10T17:54:17.317Z</time>
      </trkpt>
      <trkpt lat="47.30556" lon="4.96401">
        <ele>415</ele>
        <time>2015-01-10T17:54:18.330Z</time>
      </trkpt>
      <trkpt lat="47.30556" lon="4.96397">
        <ele>415</ele>
        <time>2015-01-10T17:54:21.298Z</time>
      </trkpt>
      <trkpt lat="47.30556" lon="4.96397">
        <ele>415</ele>
        <time>2015-01-10T17:54:22.308Z</time>
      </trkpt>
      <trkpt lat="47.30556" lon="4.96397">
        <ele>415</ele>
        <time>2015-01-10T17:54:23.316Z</time>
      </trkpt>
      <trkpt lat="47.30556" lon="4.96397">
        <ele>415</ele>
        <time>2015-01-10T17:54:24.333Z</time>
      </trkpt>
      <trkpt lat="47.30556" lon="4.96397">
        <ele>415</ele>
        <time>2015-01-10T17:54:25.319Z</time>
      </trkpt>
      <trkpt lat="47.30556" lon="4.96397">
        <ele>415</ele>
        <time>2015-01-10T17:54:26.311Z</time>
      </trkpt>
      <trkpt lat="47.30556" lon="4.96392">
        <ele>415</ele>
        <time>2015-01-10T17:54:27.297Z</time>
      </trkpt>
      <trkpt lat="47.30547" lon="4.96393">
        <ele>415</ele>
        <time>2015-01-10T17:54:45.338Z</time>
      </trkpt>
      <trkpt lat="47.30546" lon="4.96393">
        <ele>415</ele>
        <time>2015-01-10T17:54:46.305Z</time>
      </trkpt>
      <trkpt lat="47.30538" lon="4.96395">
        <ele>416</ele>
        <time>2015-01-10T17:54:55.297Z</time>
      </trkpt>
      <trkpt lat="47.30537" lon="4.96396">
        <ele>416</ele>
        <time>2015-01-10T17:54:56.294Z</time>
      </trkpt>
      <trkpt lat="47.30541" lon="4.96384">
        <ele>415</ele>
        <time>2015-01-10T17:55:04.308Z</time>
      </trkpt>
      <trkpt lat="47.30542" lon="4.96381">
        <ele>415</ele>
        <time>2015-01-10T17:55:05.296Z</time>
      </trkpt>
      <trkpt lat="47.30546" lon="4.96369">
        <ele>415</ele>
        <time>2015-01-10T17:55:09.291Z</time>
      </trkpt>
      <trkpt lat="47.30546" lon="4.96366">
        <ele>415</ele>
        <time>2015-01-10T17:55:10.295Z</time>
      </trkpt>
      <trkpt lat="47.30549" lon="4.96354">
        <ele>415</ele>
        <time>2015-01-10T17:55:14.278Z</time>
      </trkpt>
      <trkpt lat="47.30549" lon="4.96352">
        <ele>414</ele>
        <time>2015-01-10T17:55:15.296Z</time>
      </trkpt>
      <trkpt lat="47.30552" lon="4.96341">
        <ele>414</ele>
        <time>2015-01-10T17:55:19.290Z</time>
      </trkpt>
      <trkpt lat="47.30552" lon="4.96339">
        <ele>414</ele>
        <time>2015-01-10T17:55:20.303Z</time>
      </trkpt>
      <trkpt lat="47.30556" lon="4.96329">
        <ele>410</ele>
        <time>2015-01-10T17:55:24.294Z</time>
      </trkpt>
      <trkpt lat="47.30558" lon="4.96328">
        <ele>410</ele>
        <time>2015-01-10T17:55:25.280Z</time>
      </trkpt>
      <trkpt lat="47.30566" lon="4.96326">
        <ele>410</ele>
        <time>2015-01-10T17:55:29.296Z</time>
      </trkpt>
      <trkpt lat="47.30568" lon="4.96325">
        <ele>410</ele>
        <time>2015-01-10T17:55:30.290Z</time>
      </trkpt>
      <trkpt lat="47.30576" lon="4.96325">
        <ele>410</ele>
        <time>2015-01-10T17:55:34.292Z</time>
      </trkpt>
      <trkpt lat="47.30578" lon="4.96326">
        <ele>410</ele>
        <time>2015-01-10T17:55:35.289Z</time>
      </trkpt>
      <trkpt lat="47.30586" lon="4.96324">
        <ele>406</ele>
        <time>2015-01-10T17:55:41.266Z</time>
      </trkpt>
      <trkpt lat="47.30587" lon="4.96325">
        <ele>406</ele>
        <time>2015-01-10T17:55:42.279Z</time>
      </trkpt>
      <trkpt lat="47.30592" lon="4.96334">
        <ele>409</ele>
        <time>2015-01-10T17:55:50.305Z</time>
      </trkpt>
      <trkpt lat="47.30593" lon="4.96336">
        <ele>409</ele>
        <time>2015-01-10T17:55:51.296Z</time>
      </trkpt>
      <trkpt lat="47.30593" lon="4.96324">
        <ele>404</ele>
        <time>2015-01-10T17:56:07.287Z</time>
      </trkpt>
      <trkpt lat="47.30593" lon="4.96322">
        <ele>404</ele>
        <time>2015-01-10T17:56:08.309Z</time>
      </trkpt>
      <trkpt lat="47.30596" lon="4.9631">
        <ele>401</ele>
        <time>2015-01-10T17:56:16.702Z</time>
      </trkpt>
      <trkpt lat="47.30596" lon="4.96309">
        <ele>400</ele>
        <time>2015-01-10T17:56:17.692Z</time>
      </trkpt>
      <trkpt lat="47.30598" lon="4.96297">
        <ele>398</ele>
        <time>2015-01-10T17:56:23.717Z</time>
      </trkpt>
      <trkpt lat="47.30598" lon="4.96295">
        <ele>398</ele>
        <time>2015-01-10T17:56:24.718Z</time>
      </trkpt>
      <trkpt lat="47.30599" lon="4.96292">
        <ele>398</ele>
        <time>2015-01-10T17:56:27.712Z</time>
      </trkpt>
      <trkpt lat="47.30599" lon="4.96292">
        <ele>398</ele>
        <time>2015-01-10T17:56:28.713Z</time>
      </trkpt>
      <trkpt lat="47.30599" lon="4.96292">
        <ele>398</ele>
        <time>2015-01-10T17:56:29.735Z</time>
      </trkpt>
      <trkpt lat="47.30599" lon="4.96293">
        <ele>398</ele>
        <time>2015-01-10T17:56:30.707Z</time>
      </trkpt>
      <trkpt lat="47.30598" lon="4.96306">
        <ele>400</ele>
        <time>2015-01-10T17:56:40.724Z</time>
      </trkpt>
      <trkpt lat="47.30598" lon="4.96307">
        <ele>400</ele>
        <time>2015-01-10T17:56:41.692Z</time>
      </trkpt>
      <trkpt lat="47.30602" lon="4.96319">
        <ele>401</ele>
        <time>2015-01-10T17:56:53.718Z</time>
      </trkpt>
      <trkpt lat="47.30602" lon="4.96321">
        <ele>402</ele>
        <time>2015-01-10T17:56:54.716Z</time>
      </trkpt>
      <trkpt lat="47.30607" lon="4.96331">
        <ele>401</ele>
        <time>2015-01-10T17:57:05.743Z</time>
      </trkpt>
      <trkpt lat="47.30608" lon="4.9633">
        <ele>401</ele>
        <time>2015-01-10T17:57:06.745Z</time>
      </trkpt>
      <trkpt lat="47.3061" lon="4.96323">
        <ele>400</ele>
        <time>2015-01-10T17:57:16.748Z</time>
      </trkpt>
      <trkpt lat="47.3061" lon="4.96323">
        <ele>400</ele>
        <time>2015-01-10T17:57:17.742Z</time>
      </trkpt>
      <trkpt lat="47.30605" lon="4.96314">
        <ele>400</ele>
        <time>2015-01-10T17:57:23.758Z</time>
      </trkpt>
      <trkpt lat="47.30604" lon="4.96313">
        <ele>400</ele>
        <time>2015-01-10T17:57:24.750Z</time>
      </trkpt>
      <trkpt lat="47.30602" lon="4.963">
        <ele>398</ele>
        <time>2015-01-10T17:57:31.751Z</time>
      </trkpt>
      <trkpt lat="47.30601" lon="4.96298">
        <ele>398</ele>
        <time>2015-01-10T17:57:32.748Z</time>
      </trkpt>
      <trkpt lat="47.30595" lon="4.96291">
        <ele>398</ele>
        <time>2015-01-10T17:57:39.751Z</time>
      </trkpt>
      <trkpt lat="47.30594" lon="4.9629">
        <ele>398</ele>
        <time>2015-01-10T17:57:40.748Z</time>
      </trkpt>
      <trkpt lat="47.30589" lon="4.96289">
        <ele>398</ele>
        <time>2015-01-10T17:57:46.742Z</time>
      </trkpt>
      <trkpt lat="47.30589" lon="4.96289">
        <ele>398</ele>
        <time>2015-01-10T17:57:47.743Z</time>
      </trkpt>
      <trkpt lat="47.30589" lon="4.96289">
        <ele>398</ele>
        <time>2015-01-10T17:57:51.751Z</time>
      </trkpt>
      <trkpt lat="47.30589" lon="4.96289">
        <ele>398</ele>
        <time>2015-01-10T17:57:52.747Z</time>
      </trkpt>
      <trkpt lat="47.30589" lon="4.96289">
        <ele>398</ele>
        <time>2015-01-10T17:57:54.746Z</time>
      </trkpt>
      <trkpt lat="47.30589" lon="4.96289">
        <ele>398</ele>
        <time>2015-01-10T17:57:55.749Z</time>
      </trkpt>
      <trkpt lat="47.30589" lon="4.96289">
        <ele>398</ele>
        <time>2015-01-10T17:57:56.754Z</time>
      </trkpt>
      <trkpt lat="47.30589" lon="4.96289">
        <ele>398</ele>
        <time>2015-01-10T17:57:57.740Z</time>
      </trkpt>
      <trkpt lat="47.30583" lon="4.96295">
        <ele>407</ele>
        <time>2015-01-10T17:58:02.759Z</time>
      </trkpt>
      <trkpt lat="47.30582" lon="4.96296">
        <ele>407</ele>
        <time>2015-01-10T17:58:03.740Z</time>
      </trkpt>
      <trkpt lat="47.30575" lon="4.96303">
        <ele>408</ele>
        <time>2015-01-10T17:58:09.749Z</time>
      </trkpt>
      <trkpt lat="47.30574" lon="4.96305">
        <ele>408</ele>
        <time>2015-01-10T17:58:10.766Z</time>
      </trkpt>
      <trkpt lat="47.30568" lon="4.96315">
        <ele>409</ele>
        <time>2015-01-10T17:58:17.754Z</time>
      </trkpt>
      <trkpt lat="47.30568" lon="4.96317">
        <ele>409</ele>
        <time>2015-01-10T17:58:18.739Z</time>
      </trkpt>
      <trkpt lat="47.30563" lon="4.96327">
        <ele>410</ele>
        <time>2015-01-10T17:58:25.741Z</time>
      </trkpt>
      <trkpt lat="47.30563" lon="4.96328">
        <ele>410</ele>
        <time>2015-01-10T17:58:26.751Z</time>
      </trkpt>
      <trkpt lat="47.30562" lon="4.96329">
        <ele>410</ele>
        <time>2015-01-10T17:58:28.749Z</time>
      </trkpt>
      <trkpt lat="47.30562" lon="4.96329">
        <ele>410</ele>
        <time>2015-01-10T17:58:29.751Z</time>
      </trkpt>
      <trkpt lat="47.30561" lon="4.9633">
        <ele>410</ele>
        <time>2015-01-10T17:58:30.746Z</time>
      </trkpt>
      <trkpt lat="47.30557" lon="4.96327">
        <ele>410</ele>
        <time>2015-01-10T17:58:37.744Z</time>
      </trkpt>
      <trkpt lat="47.30557" lon="4.96327">
        <ele>410</ele>
        <time>2015-01-10T17:58:38.746Z</time>
      </trkpt>
      <trkpt lat="47.30557" lon="4.96327">
        <ele>410</ele>
        <time>2015-01-10T17:58:47.730Z</time>
      </trkpt>
      <trkpt lat="47.30557" lon="4.96327">
        <ele>410</ele>
        <time>2015-01-10T17:58:48.739Z</time>
      </trkpt>
      <trkpt lat="47.30557" lon="4.96327">
        <ele>410</ele>
        <time>2015-01-10T17:58:49.760Z</time>
      </trkpt>
      <trkpt lat="47.30557" lon="4.96327">
        <ele>410</ele>
        <time>2015-01-10T17:58:50.744Z</time>
      </trkpt>
      <trkpt lat="47.3056" lon="4.9632">
        <ele>409</ele>
        <time>2015-01-10T17:58:56.746Z</time>
      </trkpt>
      <trkpt lat="47.3056" lon="4.9632">
        <ele>409</ele>
        <time>2015-01-10T17:58:57.746Z</time>
      </trkpt>
      <trkpt lat="47.3056" lon="4.9632">
        <ele>409</ele>
        <time>2015-01-10T17:58:59.738Z</time>
      </trkpt>
      <trkpt lat="47.30562" lon="4.96312">
        <ele>409</ele>
        <time>2015-01-10T17:59:00.744Z</time>
      </trkpt>
      <trkpt lat="47.3056" lon="4.963">
        <ele>408</ele>
        <time>2015-01-10T17:59:09.726Z</time>
      </trkpt>
      <trkpt lat="47.3056" lon="4.963">
        <ele>408</ele>
        <time>2015-01-10T17:59:10.752Z</time>
      </trkpt>
      <trkpt lat="47.3056" lon="4.96299">
        <ele>408</ele>
        <time>2015-01-10T17:59:12.772Z</time>
      </trkpt>
      <trkpt lat="47.3056" lon="4.96299">
        <ele>408</ele>
        <time>2015-01-10T17:59:13.744Z</time>
      </trkpt>
      <trkpt lat="47.3056" lon="4.96299">
        <ele>408</ele>
        <time>2015-01-10T17:59:14.753Z</time>
      </trkpt>
      <trkpt lat="47.3056" lon="4.96299">
        <ele>408</ele>
        <time>2015-01-10T17:59:19.754Z</time>
      </trkpt>
      <trkpt lat="47.30559" lon="4.96293">
        <ele>407</ele>
        <time>2015-01-10T17:59:20.739Z</time>
      </trkpt>
      <trkpt lat="47.30559" lon="4.9629">
        <ele>407</ele>
        <time>2015-01-10T17:59:23.749Z</time>
      </trkpt>
      <trkpt lat="47.30559" lon="4.9629">
        <ele>407</ele>
        <time>2015-01-10T17:59:24.750Z</time>
      </trkpt>
      <trkpt lat="47.30559" lon="4.9629">
        <ele>407</ele>
        <time>2015-01-10T17:59:33.743Z</time>
      </trkpt>
      <trkpt lat="47.30556" lon="4.96284">
        <ele>407</ele>
        <time>2015-01-10T17:59:34.746Z</time>
      </trkpt>
      <trkpt lat="47.30551" lon="4.96282">
        <ele>407</ele>
        <time>2015-01-10T17:59:39.745Z</time>
      </trkpt>
      <trkpt lat="47.30551" lon="4.96282">
        <ele>407</ele>
        <time>2015-01-10T17:59:40.743Z</time>
      </trkpt>
      <trkpt lat="47.3055" lon="4.96282">
        <ele>407</ele>
        <time>2015-01-10T17:59:41.744Z</time>
      </trkpt>
      <trkpt lat="47.30543" lon="4.96279">
        <ele>407</ele>
        <time>2015-01-10T17:59:47.749Z</time>
      </trkpt>
      <trkpt lat="47.30541" lon="4.9628">
        <ele>408</ele>
        <time>2015-01-10T17:59:48.743Z</time>
      </trkpt>
      <trkpt lat="47.30532" lon="4.96281">
        <ele>408</ele>
        <time>2015-01-10T17:59:54.744Z</time>
      </trkpt>
      <trkpt lat="47.30531" lon="4.96281">
        <ele>408</ele>
        <time>2015-01-10T17:59:55.744Z</time>
      </trkpt>
      <trkpt lat="47.30523" lon="4.96277">
        <ele>409</ele>
        <time>2015-01-10T18:00:02.744Z</time>
      </trkpt>
      <trkpt lat="47.30522" lon="4.96277">
        <ele>409</ele>
        <time>2015-01-10T18:00:03.766Z</time>
      </trkpt>
      <trkpt lat="47.30518" lon="4.96277">
        <ele>409</ele>
        <time>2015-01-10T18:00:06.748Z</time>
      </trkpt>
      <trkpt lat="47.30518" lon="4.96277">
        <ele>409</ele>
        <time>2015-01-10T18:00:07.742Z</time>
      </trkpt>
      <trkpt lat="47.30518" lon="4.96277">
        <ele>409</ele>
        <time>2015-01-10T18:00:12.743Z</time>
      </trkpt>
      <trkpt lat="47.30513" lon="4.96275">
        <ele>409</ele>
        <time>2015-01-10T18:00:13.745Z</time>
      </trkpt>
      <trkpt lat="47.30505" lon="4.96271">
        <ele>410</ele>
        <time>2015-01-10T18:00:20.745Z</time>
      </trkpt>
      <trkpt lat="47.30504" lon="4.9627">
        <ele>410</ele>
        <time>2015-01-10T18:00:21.745Z</time>
      </trkpt>
      <trkpt lat="47.30496" lon="4.96266">
        <ele>413</ele>
        <time>2015-01-10T18:00:28.745Z</time>
      </trkpt>
      <trkpt lat="47.30495" lon="4.96266">
        <ele>413</ele>
        <time>2015-01-10T18:00:29.741Z</time>
      </trkpt>
      <trkpt lat="47.30495" lon="4.96265">
        <ele>413</ele>
        <time>2015-01-10T18:00:30.755Z</time>
      </trkpt>
      <trkpt lat="47.30495" lon="4.96265">
        <ele>413</ele>
        <time>2015-01-10T18:00:32.808Z</time>
      </trkpt>
      <trkpt lat="47.30495" lon="4.96265">
        <ele>413</ele>
        <time>2015-01-10T18:00:33.735Z</time>
      </trkpt>
      <trkpt lat="47.30488" lon="4.96263">
        <ele>413</ele>
        <time>2015-01-10T18:00:38.743Z</time>
      </trkpt>
      <trkpt lat="47.30488" lon="4.96263">
        <ele>413</ele>
        <time>2015-01-10T18:00:39.750Z</time>
      </trkpt>
      <trkpt lat="47.30488" lon="4.96263">
        <ele>413</ele>
        <time>2015-01-10T18:00:40.713Z</time>
      </trkpt>
      <trkpt lat="47.30483" lon="4.96264">
        <ele>414</ele>
        <time>2015-01-10T18:00:41.754Z</time>
      </trkpt>
      <trkpt lat="47.30476" lon="4.96263">
        <ele>414</ele>
        <time>2015-01-10T18:00:46.743Z</time>
      </trkpt>
      <trkpt lat="47.30474" lon="4.96263">
        <ele>414</ele>
        <time>2015-01-10T18:00:47.743Z</time>
      </trkpt>
      <trkpt lat="47.30467" lon="4.96256">
        <ele>415</ele>
        <time>2015-01-10T18:00:54.745Z</time>
      </trkpt>
      <trkpt lat="47.30466" lon="4.96255">
        <ele>415</ele>
        <time>2015-01-10T18:00:55.731Z</time>
      </trkpt>
      <trkpt lat="47.3046" lon="4.96249">
        <ele>414</ele>
        <time>2015-01-10T18:01:01.746Z</time>
      </trkpt>
      <trkpt lat="47.30458" lon="4.96247">
        <ele>414</ele>
        <time>2015-01-10T18:01:02.739Z</time>
      </trkpt>
      <trkpt lat="47.3045" lon="4.96242">
        <ele>415</ele>
        <time>2015-01-10T18:01:10.743Z</time>
      </trkpt>
      <trkpt lat="47.30448" lon="4.96241">
        <ele>415</ele>
        <time>2015-01-10T18:01:11.749Z</time>
      </trkpt>
      <trkpt lat="47.30441" lon="4.96235">
        <ele>415</ele>
        <time>2015-01-10T18:01:17.745Z</time>
      </trkpt>
      <trkpt lat="47.3044" lon="4.96233">
        <ele>415</ele>
        <time>2015-01-10T18:01:18.745Z</time>
      </trkpt>
      <trkpt lat="47.30432" lon="4.96227">
        <ele>415</ele>
        <time>2015-01-10T18:01:23.745Z</time>
      </trkpt>
      <trkpt lat="47.3043" lon="4.96227">
        <ele>415</ele>
        <time>2015-01-10T18:01:24.723Z</time>
      </trkpt>
      <trkpt lat="47.30424" lon="4.96221">
        <ele>415</ele>
        <time>2015-01-10T18:01:29.743Z</time>
      </trkpt>
      <trkpt lat="47.30423" lon="4.96219">
        <ele>415</ele>
        <time>2015-01-10T18:01:30.745Z</time>
      </trkpt>
      <trkpt lat="47.30418" lon="4.96208">
        <ele>415</ele>
        <time>2015-01-10T18:01:39.732Z</time>
      </trkpt>
      <trkpt lat="47.30419" lon="4.96207">
        <ele>415</ele>
        <time>2015-01-10T18:01:40.747Z</time>
      </trkpt>
      <trkpt lat="47.30425" lon="4.96198">
        <ele>416</ele>
        <time>2015-01-10T18:01:48.741Z</time>
      </trkpt>
      <trkpt lat="47.30425" lon="4.96197">
        <ele>416</ele>
        <time>2015-01-10T18:01:49.751Z</time>
      </trkpt>
      <trkpt lat="47.30427" lon="4.96196">
        <ele>416</ele>
        <time>2015-01-10T18:01:52.745Z</time>
      </trkpt>
      <trkpt lat="47.30427" lon="4.96196">
        <ele>416</ele>
        <time>2015-01-10T18:01:53.730Z</time>
      </trkpt>
      <trkpt lat="47.30427" lon="4.96196">
        <ele>416</ele>
        <time>2015-01-10T18:02:01.735Z</time>
      </trkpt>
      <trkpt lat="47.30427" lon="4.96196">
        <ele>416</ele>
        <time>2015-01-10T18:02:02.738Z</time>
      </trkpt>
      <trkpt lat="47.30427" lon="4.96196">
        <ele>416</ele>
        <time>2015-01-10T18:02:03.736Z</time>
      </trkpt>
      <trkpt lat="47.30429" lon="4.96189">
        <ele>416</ele>
        <time>2015-01-10T18:02:04.730Z</time>
      </trkpt>
      <trkpt lat="47.30429" lon="4.96189">
        <ele>416</ele>
        <time>2015-01-10T18:02:05.744Z</time>
      </trkpt>
      <trkpt lat="47.30434" lon="4.96187">
        <ele>416</ele>
        <time>2015-01-10T18:02:12.745Z</time>
      </trkpt>
      <trkpt lat="47.30434" lon="4.96187">
        <ele>416</ele>
        <time>2015-01-10T18:02:13.744Z</time>
      </trkpt>
      <trkpt lat="47.30434" lon="4.96187">
        <ele>416</ele>
        <time>2015-01-10T18:02:22.738Z</time>
      </trkpt>
      <trkpt lat="47.30434" lon="4.96187">
        <ele>416</ele>
        <time>2015-01-10T18:02:23.738Z</time>
      </trkpt>
      <trkpt lat="47.30434" lon="4.96187">
        <ele>416</ele>
        <time>2015-01-10T18:02:24.741Z</time>
      </trkpt>
      <trkpt lat="47.30436" lon="4.96181">
        <ele>416</ele>
        <time>2015-01-10T18:02:25.742Z</time>
      </trkpt>
      <trkpt lat="47.30436" lon="4.9618">
        <ele>416</ele>
        <time>2015-01-10T18:02:26.735Z</time>
      </trkpt>
      <trkpt lat="47.30438" lon="4.96179">
        <ele>416</ele>
        <time>2015-01-10T18:02:29.714Z</time>
      </trkpt>
      <trkpt lat="47.30438" lon="4.96179">
        <ele>416</ele>
        <time>2015-01-10T18:02:30.722Z</time>
      </trkpt>
      <trkpt lat="47.30438" lon="4.96179">
        <ele>416</ele>
        <time>2015-01-10T18:02:34.750Z</time>
      </trkpt>
      <trkpt lat="47.30438" lon="4.96179">
        <ele>416</ele>
        <time>2015-01-10T18:02:35.722Z</time>
      </trkpt>
      <trkpt lat="47.30438" lon="4.96179">
        <ele>416</ele>
        <time>2015-01-10T18:02:36.725Z</time>
      </trkpt>
      <trkpt lat="47.30438" lon="4.96179">
        <ele>416</ele>
        <time>2015-01-10T18:02:37.739Z</time>
      </trkpt>
      <trkpt lat="47.30439" lon="4.96172">
        <ele>416</ele>
        <time>2015-01-10T18:02:38.736Z</time>
      </trkpt>
      <trkpt lat="47.30437" lon="4.96159">
        <ele>414</ele>
        <time>2015-01-10T18:02:47.818Z</time>
      </trkpt>
      <trkpt lat="47.30438" lon="4.96157">
        <ele>414</ele>
        <time>2015-01-10T18:02:48.725Z</time>
      </trkpt>
      <trkpt lat="47.30438" lon="4.96145">
        <ele>414</ele>
        <time>2015-01-10T18:02:53.739Z</time>
      </trkpt>
      <trkpt lat="47.30438" lon="4.96142">
        <ele>414</ele>
        <time>2015-01-10T18:02:54.741Z</time>
      </trkpt>
      <trkpt lat="47.30439" lon="4.9613">
        <ele>413</ele>
        <time>2015-01-10T18:02:59.764Z</time>
      </trkpt>
      <trkpt lat="47.30439" lon="4.96128">
        <ele>413</ele>
        <time>2015-01-10T18:03:00.730Z</time>
      </trkpt>
      <trkpt lat="47.30439" lon="4.96115">
        <ele>413</ele>
        <time>2015-01-10T18:03:05.208Z</time>
      </trkpt>
      <trkpt lat="47.30439" lon="4.96112">
        <ele>413</ele>
        <time>2015-01-10T18:03:06.195Z</time>
      </trkpt>
      <trkpt lat="47.3044" lon="4.961">
        <ele>412</ele>
        <time>2015-01-10T18:03:13.199Z</time>
      </trkpt>
      <trkpt lat="47.3044" lon="4.96098">
        <ele>412</ele>
        <time>2015-01-10T18:03:14.201Z</time>
      </trkpt>
      <trkpt lat="47.30438" lon="4.96095">
        <ele>412</ele>
        <time>2015-01-10T18:03:17.207Z</time>
      </trkpt>
      <trkpt lat="47.30438" lon="4.96095">
        <ele>412</ele>
        <time>2015-01-10T18:03:18.195Z</time>
      </trkpt>
      <trkpt lat="47.30438" lon="4.96095">
        <ele>412</ele>
        <time>2015-01-10T18:03:19.194Z</time>
      </trkpt>
      <trkpt lat="47.30436" lon="4.96092">
        <ele>413</ele>
        <time>2015-01-10T18:03:20.197Z</time>
      </trkpt>
      <trkpt lat="47.30432" lon="4.96082">
        <ele>410</ele>
        <time>2015-01-10T18:03:26.199Z</time>
      </trkpt>
      <trkpt lat="47.30432" lon="4.96079">
        <ele>410</ele>
        <time>2015-01-10T18:03:27.191Z</time>
      </trkpt>
      <trkpt lat="47.30429" lon="4.96067">
        <ele>409</ele>
        <time>2015-01-10T18:03:31.208Z</time>
      </trkpt>
      <trkpt lat="47.30429" lon="4.96065">
        <ele>409</ele>
        <time>2015-01-10T18:03:32.219Z</time>
      </trkpt>
      <trkpt lat="47.30424" lon="4.96053">
        <ele>408</ele>
        <time>2015-01-10T18:03:37.202Z</time>
      </trkpt>
      <trkpt lat="47.30423" lon="4.96051">
        <ele>408</ele>
        <time>2015-01-10T18:03:38.189Z</time>
      </trkpt>
      <trkpt lat="47.30419" lon="4.9604">
        <ele>407</ele>
        <time>2015-01-10T18:03:43.199Z</time>
      </trkpt>
      <trkpt lat="47.30417" lon="4.96038">
        <ele>407</ele>
        <time>2015-01-10T18:03:44.198Z</time>
      </trkpt>
      <trkpt lat="47.30415" lon="4.96028">
        <ele>412</ele>
        <time>2015-01-10T18:03:48.186Z</time>
      </trkpt>
      <trkpt lat="47.30414" lon="4.96025">
        <ele>411</ele>
        <time>2015-01-10T18:03:49.196Z</time>
      </trkpt>
      <trkpt lat="47.30411" lon="4.96014">
        <ele>410</ele>
        <time>2015-01-10T18:03:52.234Z</time>
      </trkpt>
      <trkpt lat="47.3041" lon="4.96011">
        <ele>410</ele>
        <time>2015-01-10T18:03:53.217Z</time>
      </trkpt>
      <trkpt lat="47.30405" lon="4.96">
        <ele>407</ele>
        <time>2015-01-10T18:03:57.208Z</time>
      </trkpt>
      <trkpt lat="47.30404" lon="4.95997">
        <ele>407</ele>
        <time>2015-01-10T18:03:58.210Z</time>
      </trkpt>
      <trkpt lat="47.304" lon="4.95987">
        <ele>407</ele>
        <time>2015-01-10T18:04:02.066Z</time>
      </trkpt>
      <trkpt lat="47.30399" lon="4.95985">
        <ele>407</ele>
        <time>2015-01-10T18:04:03.036Z</time>
      </trkpt>
      <trkpt lat="47.30394" lon="4.95974">
        <ele>407</ele>
        <time>2015-01-10T18:04:07.027Z</time>
      </trkpt>
      <trkpt lat="47.30393" lon="4.95971">
        <ele>407</ele>
        <time>2015-01-10T18:04:08.058Z</time>
      </trkpt>
      <trkpt lat="47.30388" lon="4.95959">
        <ele>406</ele>
        <time>2015-01-10T18:04:12.050Z</time>
      </trkpt>
      <trkpt lat="47.30387" lon="4.95957">
        <ele>406</ele>
        <time>2015-01-10T18:04:13.055Z</time>
      </trkpt>
      <trkpt lat="47.30383" lon="4.95946">
        <ele>406</ele>
        <time>2015-01-10T18:04:17.037Z</time>
      </trkpt>
      <trkpt lat="47.30383" lon="4.95943">
        <ele>406</ele>
        <time>2015-01-10T18:04:18.064Z</time>
      </trkpt>
      <trkpt lat="47.30379" lon="4.95934">
        <ele>406</ele>
        <time>2015-01-10T18:04:21.050Z</time>
      </trkpt>
      <trkpt lat="47.30377" lon="4.95932">
        <ele>406</ele>
        <time>2015-01-10T18:04:22.051Z</time>
      </trkpt>
      <trkpt lat="47.30373" lon="4.95922">
        <ele>406</ele>
        <time>2015-01-10T18:04:26.044Z</time>
      </trkpt>
      <trkpt lat="47.30373" lon="4.9592">
        <ele>406</ele>
        <time>2015-01-10T18:04:27.050Z</time>
      </trkpt>
      <trkpt lat="47.30369" lon="4.9591">
        <ele>400</ele>
        <time>2015-01-10T18:04:31.054Z</time>
      </trkpt>
      <trkpt lat="47.30368" lon="4.95908">
        <ele>400</ele>
        <time>2015-01-10T18:04:32.057Z</time>
      </trkpt>
      <trkpt lat="47.30365" lon="4.95898">
        <ele>400</ele>
        <time>2015-01-10T18:04:36.059Z</time>
      </trkpt>
      <trkpt lat="47.30364" lon="4.95895">
        <ele>400</ele>
        <time>2015-01-10T18:04:37.051Z</time>
      </trkpt>
      <trkpt lat="47.30361" lon="4.95884">
        <ele>400</ele>
        <time>2015-01-10T18:04:41.062Z</time>
      </trkpt>
      <trkpt lat="47.3036" lon="4.95881">
        <ele>399</ele>
        <time>2015-01-10T18:04:42.051Z</time>
      </trkpt>
      <trkpt lat="47.30358" lon="4.9587">
        <ele>399</ele>
        <time>2015-01-10T18:04:46.021Z</time>
      </trkpt>
      <trkpt lat="47.30357" lon="4.95868">
        <ele>399</ele>
        <time>2015-01-10T18:04:47.040Z</time>
      </trkpt>
      <trkpt lat="47.30353" lon="4.95859">
        <ele>398</ele>
        <time>2015-01-10T18:04:51.038Z</time>
      </trkpt>
      <trkpt lat="47.30352" lon="4.95857">
        <ele>398</ele>
        <time>2015-01-10T18:04:52.027Z</time>
      </trkpt>
      <trkpt lat="47.30349" lon="4.95846">
        <ele>398</ele>
        <time>2015-01-10T18:04:56.049Z</time>
      </trkpt>
      <trkpt lat="47.30349" lon="4.95843">
        <ele>398</ele>
        <time>2015-01-10T18:04:57.044Z</time>
      </trkpt>
      <trkpt lat="47.30346" lon="4.95832">
        <ele>394</ele>
        <time>2015-01-10T18:05:01.069Z</time>
      </trkpt>
      <trkpt lat="47.30345" lon="4.95829">
        <ele>394</ele>
        <time>2015-01-10T18:05:02.030Z</time>
      </trkpt>
      <trkpt lat="47.30342" lon="4.95818">
        <ele>393</ele>
        <time>2015-01-10T18:05:06.027Z</time>
      </trkpt>
      <trkpt lat="47.30341" lon="4.95815">
        <ele>393</ele>
        <time>2015-01-10T18:05:07.047Z</time>
      </trkpt>
      <trkpt lat="47.30338" lon="4.95803">
        <ele>392</ele>
        <time>2015-01-10T18:05:12.048Z</time>
      </trkpt>
      <trkpt lat="47.30338" lon="4.95801">
        <ele>392</ele>
        <time>2015-01-10T18:05:13.037Z</time>
      </trkpt>
      <trkpt lat="47.30335" lon="4.9579">
        <ele>391</ele>
        <time>2015-01-10T18:05:18.044Z</time>
      </trkpt>
      <trkpt lat="47.30334" lon="4.95788">
        <ele>391</ele>
        <time>2015-01-10T18:05:19.062Z</time>
      </trkpt>
      <trkpt lat="47.30332" lon="4.95778">
        <ele>397</ele>
        <time>2015-01-10T18:05:23.051Z</time>
      </trkpt>
      <trkpt lat="47.30331" lon="4.95775">
        <ele>397</ele>
        <time>2015-01-10T18:05:24.050Z</time>
      </trkpt>
      <trkpt lat="47.30328" lon="4.95764">
        <ele>395</ele>
        <time>2015-01-10T18:05:29.049Z</time>
      </trkpt>
      <trkpt lat="47.30327" lon="4.95761">
        <ele>395</ele>
        <time>2015-01-10T18:05:30.038Z</time>
      </trkpt>
      <trkpt lat="47.30324" lon="4.9575">
        <ele>394</ele>
        <time>2015-01-10T18:05:35.045Z</time>
      </trkpt>
      <trkpt lat="47.30323" lon="4.95747">
        <ele>392</ele>
        <time>2015-01-10T18:05:36.048Z</time>
      </trkpt>
      <trkpt lat="47.3032" lon="4.95737">
        <ele>392</ele>
        <time>2015-01-10T18:05:40.051Z</time>
      </trkpt>
      <trkpt lat="47.30319" lon="4.95734">
        <ele>392</ele>
        <time>2015-01-10T18:05:41.049Z</time>
      </trkpt>
      <trkpt lat="47.30316" lon="4.95724">
        <ele>392</ele>
        <time>2015-01-10T18:05:45.040Z</time>
      </trkpt>
      <trkpt lat="47.30314" lon="4.95722">
        <ele>392</ele>
        <time>2015-01-10T18:05:46.039Z</time>
      </trkpt>
      <trkpt lat="47.3031" lon="4.95711">
        <ele>392</ele>
        <time>2015-01-10T18:05:50.099Z</time>
      </trkpt>
      <trkpt lat="47.30309" lon="4.95708">
        <ele>392</ele>
        <time>2015-01-10T18:05:51.018Z</time>
      </trkpt>
      <trkpt lat="47.30306" lon="4.95696">
        <ele>392</ele>
        <time>2015-01-10T18:05:55.034Z</time>
      </trkpt>
      <trkpt lat="47.30305" lon="4.95694">
        <ele>392</ele>
        <time>2015-01-10T18:05:56.024Z</time>
      </trkpt>
      <trkpt lat="47.30301" lon="4.95682">
        <ele>391</ele>
        <time>2015-01-10T18:06:01.039Z</time>
      </trkpt>
      <trkpt lat="47.303" lon="4.9568">
        <ele>391</ele>
        <time>2015-01-10T18:06:02.048Z</time>
      </trkpt>
      <trkpt lat="47.30298" lon="4.95667">
        <ele>391</ele>
        <time>2015-01-10T18:06:08.020Z</time>
      </trkpt>
      <trkpt lat="47.30297" lon="4.95665">
        <ele>389</ele>
        <time>2015-01-10T18:06:09.045Z</time>
      </trkpt>
      <trkpt lat="47.30293" lon="4.95656">
        <ele>389</ele>
        <time>2015-01-10T18:06:14.043Z</time>
      </trkpt>
      <trkpt lat="47.30292" lon="4.95653">
        <ele>389</ele>
        <time>2015-01-10T18:06:15.040Z</time>
      </trkpt>
      <trkpt lat="47.30291" lon="4.95642">
        <ele>389</ele>
        <time>2015-01-10T18:06:19.048Z</time>
      </trkpt>
      <trkpt lat="47.30291" lon="4.9564">
        <ele>389</ele>
        <time>2015-01-10T18:06:20.051Z</time>
      </trkpt>
      <trkpt lat="47.30289" lon="4.9563">
        <ele>389</ele>
        <time>2015-01-10T18:06:24.050Z</time>
      </trkpt>
      <trkpt lat="47.30288" lon="4.95627">
        <ele>389</ele>
        <time>2015-01-10T18:06:25.051Z</time>
      </trkpt>
      <trkpt lat="47.30285" lon="4.95615">
        <ele>389</ele>
        <time>2015-01-10T18:06:30.038Z</time>
      </trkpt>
      <trkpt lat="47.30284" lon="4.95612">
        <ele>389</ele>
        <time>2015-01-10T18:06:31.059Z</time>
      </trkpt>
      <trkpt lat="47.3028" lon="4.95603">
        <ele>390</ele>
        <time>2015-01-10T18:06:36.047Z</time>
      </trkpt>
      <trkpt lat="47.30279" lon="4.956">
        <ele>390</ele>
        <time>2015-01-10T18:06:37.057Z</time>
      </trkpt>
      <trkpt lat="47.30276" lon="4.95589">
        <ele>391</ele>
        <time>2015-01-10T18:06:42.043Z</time>
      </trkpt>
      <trkpt lat="47.30276" lon="4.95586">
        <ele>391</ele>
        <time>2015-01-10T18:06:43.050Z</time>
      </trkpt>
      <trkpt lat="47.30275" lon="4.95575">
        <ele>390</ele>
        <time>2015-01-10T18:06:47.029Z</time>
      </trkpt>
      <trkpt lat="47.30275" lon="4.95572">
        <ele>390</ele>
        <time>2015-01-10T18:06:48.062Z</time>
      </trkpt>
      <trkpt lat="47.30274" lon="4.95559">
        <ele>389</ele>
        <time>2015-01-10T18:06:53.041Z</time>
      </trkpt>
      <trkpt lat="47.30274" lon="4.95557">
        <ele>389</ele>
        <time>2015-01-10T18:06:54.050Z</time>
      </trkpt>
      <trkpt lat="47.30274" lon="4.95553">
        <ele>389</ele>
        <time>2015-01-10T18:06:56.055Z</time>
      </trkpt>
      <trkpt lat="47.30273" lon="4.95552">
        <ele>389</ele>
        <time>2015-01-10T18:06:57.053Z</time>
      </trkpt>
      <trkpt lat="47.30273" lon="4.95552">
        <ele>389</ele>
        <time>2015-01-10T18:07:03.027Z</time>
      </trkpt>
      <trkpt lat="47.30271" lon="4.95545">
        <ele>389</ele>
        <time>2015-01-10T18:07:04.043Z</time>
      </trkpt>
      <trkpt lat="47.30269" lon="4.95533">
        <ele>389</ele>
        <time>2015-01-10T18:07:11.041Z</time>
      </trkpt>
      <trkpt lat="47.30268" lon="4.95531">
        <ele>389</ele>
        <time>2015-01-10T18:07:12.050Z</time>
      </trkpt>
      <trkpt lat="47.30265" lon="4.9552">
        <ele>390</ele>
        <time>2015-01-10T18:07:17.051Z</time>
      </trkpt>
      <trkpt lat="47.30264" lon="4.95519">
        <ele>390</ele>
        <time>2015-01-10T18:07:18.041Z</time>
      </trkpt>
      <trkpt lat="47.30261" lon="4.95507">
        <ele>391</ele>
        <time>2015-01-10T18:07:23.043Z</time>
      </trkpt>
      <trkpt lat="47.30261" lon="4.95505">
        <ele>392</ele>
        <time>2015-01-10T18:07:24.051Z</time>
      </trkpt>
      <trkpt lat="47.3026" lon="4.95499">
        <ele>392</ele>
        <time>2015-01-10T18:07:27.056Z</time>
      </trkpt>
      <trkpt lat="47.3026" lon="4.95499">
        <ele>392</ele>
        <time>2015-01-10T18:07:28.040Z</time>
      </trkpt>
      <trkpt lat="47.3026" lon="4.95488">
        <ele>392</ele>
        <time>2015-01-10T18:07:41.052Z</time>
      </trkpt>
      <trkpt lat="47.30262" lon="4.95482">
        <ele>391</ele>
        <time>2015-01-10T18:07:42.036Z</time>
      </trkpt>
      <trkpt lat="47.30263" lon="4.9547">
        <ele>391</ele>
        <time>2015-01-10T18:07:48.061Z</time>
      </trkpt>
      <trkpt lat="47.30263" lon="4.95468">
        <ele>391</ele>
        <time>2015-01-10T18:07:49.054Z</time>
      </trkpt>
      <trkpt lat="47.30262" lon="4.95465">
        <ele>390</ele>
        <time>2015-01-10T18:07:51.041Z</time>
      </trkpt>
      <trkpt lat="47.30262" lon="4.95465">
        <ele>390</ele>
        <time>2015-01-10T18:07:52.042Z</time>
      </trkpt>
      <trkpt lat="47.30262" lon="4.95465">
        <ele>390</ele>
        <time>2015-01-10T18:07:56.044Z</time>
      </trkpt>
      <trkpt lat="47.30262" lon="4.95457">
        <ele>390</ele>
        <time>2015-01-10T18:07:57.067Z</time>
      </trkpt>
      <trkpt lat="47.30262" lon="4.95456">
        <ele>390</ele>
        <time>2015-01-10T18:07:58.053Z</time>
      </trkpt>
      <trkpt lat="47.30262" lon="4.95455">
        <ele>390</ele>
        <time>2015-01-10T18:07:59.042Z</time>
      </trkpt>
      <trkpt lat="47.30262" lon="4.95453">
        <ele>390</ele>
        <time>2015-01-10T18:08:02.040Z</time>
      </trkpt>
      <trkpt lat="47.30262" lon="4.95453">
        <ele>390</ele>
        <time>2015-01-10T18:08:03.041Z</time>
      </trkpt>
      <trkpt lat="47.30262" lon="4.95453">
        <ele>390</ele>
        <time>2015-01-10T18:08:04.040Z</time>
      </trkpt>
      <trkpt lat="47.30262" lon="4.95453">
        <ele>390</ele>
        <time>2015-01-10T18:08:05.047Z</time>
      </trkpt>
      <trkpt lat="47.30262" lon="4.95453">
        <ele>390</ele>
        <time>2015-01-10T18:08:06.032Z</time>
      </trkpt>
      <trkpt lat="47.30259" lon="4.95448">
        <ele>391</ele>
        <time>2015-01-10T18:08:07.029Z</time>
      </trkpt>
      <trkpt lat="47.30258" lon="4.95437">
        <ele>391</ele>
        <time>2015-01-10T18:08:13.043Z</time>
      </trkpt>
      <trkpt lat="47.30258" lon="4.95435">
        <ele>391</ele>
        <time>2015-01-10T18:08:14.176Z</time>
      </trkpt>
      <trkpt lat="47.30255" lon="4.95424">
        <ele>391</ele>
        <time>2015-01-10T18:08:21.037Z</time>
      </trkpt>
      <trkpt lat="47.30254" lon="4.95422">
        <ele>391</ele>
        <time>2015-01-10T18:08:22.061Z</time>
      </trkpt>
      <trkpt lat="47.30251" lon="4.9541">
        <ele>392</ele>
        <time>2015-01-10T18:08:28.034Z</time>
      </trkpt>
      <trkpt lat="47.30251" lon="4.95409">
        <ele>393</ele>
        <time>2015-01-10T18:08:29.058Z</time>
      </trkpt>
      <trkpt lat="47.30247" lon="4.95399">
        <ele>394</ele>
        <time>2015-01-10T18:08:35.049Z</time>
      </trkpt>
      <trkpt lat="47.30246" lon="4.95398">
        <ele>394</ele>
        <time>2015-01-10T18:08:36.041Z</time>
      </trkpt>
      <trkpt lat="47.30241" lon="4.95388">
        <ele>395</ele>
        <time>2015-01-10T18:08:43.044Z</time>
      </trkpt>
      <trkpt lat="47.30241" lon="4.95386">
        <ele>395</ele>
        <time>2015-01-10T18:08:44.039Z</time>
      </trkpt>
      <trkpt lat="47.30236" lon="4.95376">
        <ele>396</ele>
        <time>2015-01-10T18:08:50.044Z</time>
      </trkpt>
      <trkpt lat="47.30235" lon="4.95374">
        <ele>396</ele>
        <time>2015-01-10T18:08:51.016Z</time>
      </trkpt>
      <trkpt lat="47.30229" lon="4.95366">
        <ele>396</ele>
        <time>2015-01-10T18:08:57.046Z</time>
      </trkpt>
      <trkpt lat="47.30228" lon="4.95365">
        <ele>396</ele>
        <time>2015-01-10T18:08:58.046Z</time>
      </trkpt>
      <trkpt lat="47.30222" lon="4.95357">
        <ele>396</ele>
        <time>2015-01-10T18:09:04.049Z</time>
      </trkpt>
      <trkpt lat="47.30221" lon="4.95356">
        <ele>396</ele>
        <time>2015-01-10T18:09:05.033Z</time>
      </trkpt>
      <trkpt lat="47.30215" lon="4.95346">
        <ele>396</ele>
        <time>2015-01-10T18:09:13.038Z</time>
      </trkpt>
      <trkpt lat="47.30214" lon="4.95345">
        <ele>396</ele>
        <time>2015-01-10T18:09:14.044Z</time>
      </trkpt>
      <trkpt lat="47.30208" lon="4.95337">
        <ele>397</ele>
        <time>2015-01-10T18:09:20.043Z</time>
      </trkpt>
      <trkpt lat="47.30206" lon="4.95336">
        <ele>397</ele>
        <time>2015-01-10T18:09:21.018Z</time>
      </trkpt>
      <trkpt lat="47.302" lon="4.95327">
        <ele>398</ele>
        <time>2015-01-10T18:09:27.042Z</time>
      </trkpt>
      <trkpt lat="47.302" lon="4.95325">
        <ele>398</ele>
        <time>2015-01-10T18:09:28.041Z</time>
      </trkpt>
      <trkpt lat="47.30196" lon="4.95313">
        <ele>398</ele>
        <time>2015-01-10T18:09:32.040Z</time>
      </trkpt>
      <trkpt lat="47.30195" lon="4.95312">
        <ele>398</ele>
        <time>2015-01-10T18:09:33.033Z</time>
      </trkpt>
      <trkpt lat="47.30191" lon="4.95302">
        <ele>399</ele>
        <time>2015-01-10T18:09:36.029Z</time>
      </trkpt>
      <trkpt lat="47.30191" lon="4.95301">
        <ele>399</ele>
        <time>2015-01-10T18:09:37.041Z</time>
      </trkpt>
      <trkpt lat="47.30191" lon="4.953">
        <ele>399</ele>
        <time>2015-01-10T18:09:38.050Z</time>
      </trkpt>
      <trkpt lat="47.30187" lon="4.95294">
        <ele>399</ele>
        <time>2015-01-10T18:09:41.033Z</time>
      </trkpt>
      <trkpt lat="47.30186" lon="4.9529">
        <ele>399</ele>
        <time>2015-01-10T18:09:42.049Z</time>
      </trkpt>
      <trkpt lat="47.30187" lon="4.95289">
        <ele>399</ele>
        <time>2015-01-10T18:09:46.044Z</time>
      </trkpt>
      <trkpt lat="47.30187" lon="4.95289">
        <ele>399</ele>
        <time>2015-01-10T18:09:47.037Z</time>
      </trkpt>
      <trkpt lat="47.30187" lon="4.95289">
        <ele>399</ele>
        <time>2015-01-10T18:09:48.032Z</time>
      </trkpt>
      <trkpt lat="47.30187" lon="4.95289">
        <ele>399</ele>
        <time>2015-01-10T18:09:49.039Z</time>
      </trkpt>
      <trkpt lat="47.30182" lon="4.95286">
        <ele>399</ele>
        <time>2015-01-10T18:09:50.055Z</time>
      </trkpt>
      <trkpt lat="47.30179" lon="4.95276">
        <ele>399</ele>
        <time>2015-01-10T18:09:57.062Z</time>
      </trkpt>
      <trkpt lat="47.30178" lon="4.95273">
        <ele>399</ele>
        <time>2015-01-10T18:09:58.040Z</time>
      </trkpt>
      <trkpt lat="47.30173" lon="4.95265">
        <ele>400</ele>
        <time>2015-01-10T18:10:05.033Z</time>
      </trkpt>
      <trkpt lat="47.30172" lon="4.95263">
        <ele>400</ele>
        <time>2015-01-10T18:10:06.033Z</time>
      </trkpt>
      <trkpt lat="47.30168" lon="4.95252">
        <ele>401</ele>
        <time>2015-01-10T18:10:12.035Z</time>
      </trkpt>
      <trkpt lat="47.30168" lon="4.9525">
        <ele>401</ele>
        <time>2015-01-10T18:10:13.035Z</time>
      </trkpt>
      <trkpt lat="47.30163" lon="4.95241">
        <ele>402</ele>
        <time>2015-01-10T18:10:20.053Z</time>
      </trkpt>
      <trkpt lat="47.30162" lon="4.9524">
        <ele>402</ele>
        <time>2015-01-10T18:10:21.041Z</time>
      </trkpt>
      <trkpt lat="47.30156" lon="4.95232">
        <ele>402</ele>
        <time>2015-01-10T18:10:29.033Z</time>
      </trkpt>
      <trkpt lat="47.30155" lon="4.9523">
        <ele>403</ele>
        <time>2015-01-10T18:10:30.039Z</time>
      </trkpt>
      <trkpt lat="47.3015" lon="4.95222">
        <ele>403</ele>
        <time>2015-01-10T18:10:37.042Z</time>
      </trkpt>
      <trkpt lat="47.3015" lon="4.95222">
        <ele>403</ele>
        <time>2015-01-10T18:10:38.061Z</time>
      </trkpt>
      <trkpt lat="47.3015" lon="4.95222">
        <ele>403</ele>
        <time>2015-01-10T18:10:42.039Z</time>
      </trkpt>
      <trkpt lat="47.3015" lon="4.95222">
        <ele>403</ele>
        <time>2015-01-10T18:10:43.038Z</time>
      </trkpt>
      <trkpt lat="47.3015" lon="4.95222">
        <ele>403</ele>
        <time>2015-01-10T18:10:44.034Z</time>
      </trkpt>
      <trkpt lat="47.3015" lon="4.95222">
        <ele>403</ele>
        <time>2015-01-10T18:10:45.032Z</time>
      </trkpt>
      <trkpt lat="47.30148" lon="4.95209">
        <ele>403</ele>
        <time>2015-01-10T18:10:46.015Z</time>
      </trkpt>
      <trkpt lat="47.30154" lon="4.95198">
        <ele>402</ele>
        <time>2015-01-10T18:10:54.037Z</time>
      </trkpt>
      <trkpt lat="47.30154" lon="4.95197">
        <ele>402</ele>
        <time>2015-01-10T18:10:55.041Z</time>
      </trkpt>
      <trkpt lat="47.30158" lon="4.95188">
        <ele>402</ele>
        <time>2015-01-10T18:11:02.034Z</time>
      </trkpt>
      <trkpt lat="47.30159" lon="4.95186">
        <ele>402</ele>
        <time>2015-01-10T18:11:03.034Z</time>
      </trkpt>
      <trkpt lat="47.30164" lon="4.95175">
        <ele>400</ele>
        <time>2015-01-10T18:11:15.044Z</time>
      </trkpt>
      <trkpt lat="47.30164" lon="4.95175">
        <ele>400</ele>
        <time>2015-01-10T18:11:16.031Z</time>
      </trkpt>
      <trkpt lat="47.30164" lon="4.95175">
        <ele>400</ele>
        <time>2015-01-10T18:11:17.034Z</time>
      </trkpt>
      <trkpt lat="47.30164" lon="4.95175">
        <ele>400</ele>
        <time>2015-01-10T18:11:18.034Z</time>
      </trkpt>
      <trkpt lat="47.30162" lon="4.95169">
        <ele>400</ele>
        <time>2015-01-10T18:11:19.037Z</time>
      </trkpt>
      <trkpt lat="47.30163" lon="4.95168">
        <ele>400</ele>
        <time>2015-01-10T18:11:20.034Z</time>
      </trkpt>
      <trkpt lat="47.30163" lon="4.95167">
        <ele>400</ele>
        <time>2015-01-10T18:11:22.030Z</time>
      </trkpt>
      <trkpt lat="47.30163" lon="4.95167">
        <ele>400</ele>
        <time>2015-01-10T18:11:23.033Z</time>
      </trkpt>
      <trkpt lat="47.30171" lon="4.95171">
        <ele>399</ele>
        <time>2015-01-10T18:11:44.039Z</time>
      </trkpt>
      <trkpt lat="47.30172" lon="4.9517">
        <ele>399</ele>
        <time>2015-01-10T18:11:45.039Z</time>
      </trkpt>
      <trkpt lat="47.3018" lon="4.95172">
        <ele>400</ele>
        <time>2015-01-10T18:11:51.043Z</time>
      </trkpt>
      <trkpt lat="47.30181" lon="4.95173">
        <ele>400</ele>
        <time>2015-01-10T18:11:52.039Z</time>
      </trkpt>
      <trkpt lat="47.30186" lon="4.95182">
        <ele>400</ele>
        <time>2015-01-10T18:12:06.027Z</time>
      </trkpt>
      <trkpt lat="47.30186" lon="4.95183">
        <ele>400</ele>
        <time>2015-01-10T18:12:07.040Z</time>
      </trkpt>
      <trkpt lat="47.30186" lon="4.95184">
        <ele>400</ele>
        <time>2015-01-10T18:12:10.044Z</time>
      </trkpt>
      <trkpt lat="47.30186" lon="4.95184">
        <ele>400</ele>
        <time>2015-01-10T18:12:11.046Z</time>
      </trkpt>
      <trkpt lat="47.30188" lon="4.95195">
        <ele>400</ele>
        <time>2015-01-10T18:12:24.104Z</time>
      </trkpt>
      <trkpt lat="47.30188" lon="4.95197">
        <ele>400</ele>
        <time>2015-01-10T18:12:25.060Z</time>
      </trkpt>
      <trkpt lat="47.30189" lon="4.95208">
        <ele>400</ele>
        <time>2015-01-10T18:12:32.060Z</time>
      </trkpt>
      <trkpt lat="47.30189" lon="4.95211">
        <ele>400</ele>
        <time>2015-01-10T18:12:33.055Z</time>
      </trkpt>
      <trkpt lat="47.3019" lon="4.95219">
        <ele>400</ele>
        <time>2015-01-10T18:12:37.064Z</time>
      </trkpt>
      <trkpt lat="47.30189" lon="4.95217">
        <ele>400</ele>
        <time>2015-01-10T18:12:38.062Z</time>
      </trkpt>
      <trkpt lat="47.30189" lon="4.95218">
        <ele>400</ele>
        <time>2015-01-10T18:12:39.054Z</time>
      </trkpt>
      <trkpt lat="47.30191" lon="4.95231">
        <ele>400</ele>
        <time>2015-01-10T18:12:51.056Z</time>
      </trkpt>
      <trkpt lat="47.30192" lon="4.95232">
        <ele>400</ele>
        <time>2015-01-10T18:12:52.056Z</time>
      </trkpt>
      <trkpt lat="47.30198" lon="4.95241">
        <ele>400</ele>
        <time>2015-01-10T18:13:01.027Z</time>
      </trkpt>
      <trkpt lat="47.30199" lon="4.95242">
        <ele>400</ele>
        <time>2015-01-10T18:13:02.056Z</time>
      </trkpt>
      <trkpt lat="47.30202" lon="4.95254">
        <ele>398</ele>
        <time>2015-01-10T18:13:14.054Z</time>
      </trkpt>
      <trkpt lat="47.30202" lon="4.95255">
        <ele>398</ele>
        <time>2015-01-10T18:13:15.040Z</time>
      </trkpt>
      <trkpt lat="47.30203" lon="4.95266">
        <ele>398</ele>
        <time>2015-01-10T18:13:22.038Z</time>
      </trkpt>
      <trkpt lat="47.30203" lon="4.95268">
        <ele>398</ele>
        <time>2015-01-10T18:13:23.047Z</time>
      </trkpt>
      <trkpt lat="47.30203" lon="4.9528">
        <ele>398</ele>
        <time>2015-01-10T18:13:33.050Z</time>
      </trkpt>
      <trkpt lat="47.30205" lon="4.95281">
        <ele>398</ele>
        <time>2015-01-10T18:13:34.052Z</time>
      </trkpt>
      <trkpt lat="47.30203" lon="4.95293">
        <ele>398</ele>
        <time>2015-01-10T18:13:42.063Z</time>
      </trkpt>
      <trkpt lat="47.30203" lon="4.95295">
        <ele>398</ele>
        <time>2015-01-10T18:13:43.058Z</time>
      </trkpt>
      <trkpt lat="47.30207" lon="4.953">
        <ele>398</ele>
        <time>2015-01-10T18:13:48.060Z</time>
      </trkpt>
      <trkpt lat="47.30208" lon="4.953">
        <ele>398</ele>
        <time>2015-01-10T18:13:49.060Z</time>
      </trkpt>
      <trkpt lat="47.30209" lon="4.95299">
        <ele>398</ele>
        <time>2015-01-10T18:13:50.076Z</time>
      </trkpt>
      <trkpt lat="47.30215" lon="4.95293">
        <ele>397</ele>
        <time>2015-01-10T18:13:57.054Z</time>
      </trkpt>
      <trkpt lat="47.30217" lon="4.95291">
        <ele>397</ele>
        <time>2015-01-10T18:13:58.049Z</time>
      </trkpt>
      <trkpt lat="47.30223" lon="4.95283">
        <ele>397</ele>
        <time>2015-01-10T18:14:04.055Z</time>
      </trkpt>
      <trkpt lat="47.30225" lon="4.95281">
        <ele>397</ele>
        <time>2015-01-10T18:14:05.075Z</time>
      </trkpt>
      <trkpt lat="47.30229" lon="4.9527">
        <ele>397</ele>
        <time>2015-01-10T18:14:08.055Z</time>
      </trkpt>
      <trkpt lat="47.30231" lon="4.95269">
        <ele>397</ele>
        <time>2015-01-10T18:14:09.048Z</time>
      </trkpt>
      <trkpt lat="47.30238" lon="4.95264">
        <ele>397</ele>
        <time>2015-01-10T18:14:13.054Z</time>
      </trkpt>
      <trkpt lat="47.30239" lon="4.95263">
        <ele>397</ele>
        <time>2015-01-10T18:14:14.057Z</time>
      </trkpt>
      <trkpt lat="47.30247" lon="4.95259">
        <ele>396</ele>
        <time>2015-01-10T18:14:19.055Z</time>
      </trkpt>
      <trkpt lat="47.30249" lon="4.95259">
        <ele>396</ele>
        <time>2015-01-10T18:14:20.112Z</time>
      </trkpt>
      <trkpt lat="47.30256" lon="4.95265">
        <ele>398</ele>
        <time>2015-01-10T18:14:29.088Z</time>
      </trkpt>
      <trkpt lat="47.30257" lon="4.95266">
        <ele>398</ele>
        <time>2015-01-10T18:14:30.065Z</time>
      </trkpt>
      <trkpt lat="47.30266" lon="4.95269">
        <ele>399</ele>
        <time>2015-01-10T18:14:34.066Z</time>
      </trkpt>
      <trkpt lat="47.30266" lon="4.95271">
        <ele>399</ele>
        <time>2015-01-10T18:14:35.068Z</time>
      </trkpt>
      <trkpt lat="47.30272" lon="4.95277">
        <ele>400</ele>
        <time>2015-01-10T18:14:39.065Z</time>
      </trkpt>
      <trkpt lat="47.30273" lon="4.95279">
        <ele>400</ele>
        <time>2015-01-10T18:14:40.065Z</time>
      </trkpt>
      <trkpt lat="47.3028" lon="4.95287">
        <ele>400</ele>
        <time>2015-01-10T18:14:46.041Z</time>
      </trkpt>
      <trkpt lat="47.30281" lon="4.95289">
        <ele>400</ele>
        <time>2015-01-10T18:14:47.066Z</time>
      </trkpt>
      <trkpt lat="47.30288" lon="4.95296">
        <ele>400</ele>
        <time>2015-01-10T18:14:52.063Z</time>
      </trkpt>
      <trkpt lat="47.30289" lon="4.95298">
        <ele>400</ele>
        <time>2015-01-10T18:14:53.071Z</time>
      </trkpt>
      <trkpt lat="47.30295" lon="4.95305">
        <ele>401</ele>
        <time>2015-01-10T18:14:58.064Z</time>
      </trkpt>
      <trkpt lat="47.30297" lon="4.95306">
        <ele>401</ele>
        <time>2015-01-10T18:14:59.067Z</time>
      </trkpt>
      <trkpt lat="47.30299" lon="4.95308">
        <ele>401</ele>
        <time>2015-01-10T18:15:02.043Z</time>
      </trkpt>
      <trkpt lat="47.303" lon="4.95309">
        <ele>401</ele>
        <time>2015-01-10T18:15:03.067Z</time>
      </trkpt>
      <trkpt lat="47.303" lon="4.95309">
        <ele>401</ele>
        <time>2015-01-10T18:15:10.062Z</time>
      </trkpt>
      <trkpt lat="47.303" lon="4.95309">
        <ele>401</ele>
        <time>2015-01-10T18:15:11.058Z</time>
      </trkpt>
      <trkpt lat="47.30308" lon="4.9531">
        <ele>401</ele>
        <time>2015-01-10T18:15:16.062Z</time>
      </trkpt>
      <trkpt lat="47.30309" lon="4.95311">
        <ele>402</ele>
        <time>2015-01-10T18:15:17.069Z</time>
      </trkpt>
      <trkpt lat="47.30316" lon="4.95315">
        <ele>402</ele>
        <time>2015-01-10T18:15:23.055Z</time>
      </trkpt>
      <trkpt lat="47.30319" lon="4.95316">
        <ele>402</ele>
        <time>2015-01-10T18:15:24.048Z</time>
      </trkpt>
      <trkpt lat="47.30325" lon="4.95324">
        <ele>403</ele>
        <time>2015-01-10T18:15:29.064Z</time>
      </trkpt>
      <trkpt lat="47.30327" lon="4.95325">
        <ele>403</ele>
        <time>2015-01-10T18:15:30.062Z</time>
      </trkpt>
      <trkpt lat="47.30333" lon="4.95334">
        <ele>404</ele>
        <time>2015-01-10T18:15:35.068Z</time>
      </trkpt>
      <trkpt lat="47.30333" lon="4.95335">
        <ele>403</ele>
        <time>2015-01-10T18:15:36.053Z</time>
      </trkpt>
      <trkpt lat="47.30337" lon="4.95346">
        <ele>404</ele>
        <time>2015-01-10T18:15:41.057Z</time>
      </trkpt>
      <trkpt lat="47.30338" lon="4.95348">
        <ele>404</ele>
        <time>2015-01-10T18:15:42.057Z</time>
      </trkpt>
      <trkpt lat="47.30342" lon="4.95359">
        <ele>403</ele>
        <time>2015-01-10T18:15:51.051Z</time>
      </trkpt>
      <trkpt lat="47.30342" lon="4.9536">
        <ele>403</ele>
        <time>2015-01-10T18:15:52.059Z</time>
      </trkpt>
      <trkpt lat="47.30348" lon="4.95369">
        <ele>403</ele>
        <time>2015-01-10T18:16:00.128Z</time>
      </trkpt>
      <trkpt lat="47.30348" lon="4.9537">
        <ele>402</ele>
        <time>2015-01-10T18:16:01.049Z</time>
      </trkpt>
      <trkpt lat="47.30354" lon="4.9538">
        <ele>402</ele>
        <time>2015-01-10T18:16:11.048Z</time>
      </trkpt>
      <trkpt lat="47.30354" lon="4.9538">
        <ele>402</ele>
        <time>2015-01-10T18:16:12.047Z</time>
      </trkpt>
      <trkpt lat="47.30354" lon="4.9538">
        <ele>402</ele>
        <time>2015-01-10T18:16:14.033Z</time>
      </trkpt>
      <trkpt lat="47.30354" lon="4.9538">
        <ele>402</ele>
        <time>2015-01-10T18:16:15.056Z</time>
      </trkpt>
      <trkpt lat="47.30359" lon="4.95378">
        <ele>402</ele>
        <time>2015-01-10T18:16:19.058Z</time>
      </trkpt>
      <trkpt lat="47.30359" lon="4.95378">
        <ele>402</ele>
        <time>2015-01-10T18:16:20.050Z</time>
      </trkpt>
      <trkpt lat="47.30359" lon="4.95378">
        <ele>402</ele>
        <time>2015-01-10T18:16:22.053Z</time>
      </trkpt>
      <trkpt lat="47.3036" lon="4.9538">
        <ele>402</ele>
        <time>2015-01-10T18:16:23.049Z</time>
      </trkpt>
      <trkpt lat="47.30364" lon="4.95381">
        <ele>403</ele>
        <time>2015-01-10T18:16:27.048Z</time>
      </trkpt>
      <trkpt lat="47.30364" lon="4.95381">
        <ele>403</ele>
        <time>2015-01-10T18:16:28.048Z</time>
      </trkpt>
      <trkpt lat="47.30364" lon="4.95381">
        <ele>403</ele>
        <time>2015-01-10T18:16:32.049Z</time>
      </trkpt>
      <trkpt lat="47.30364" lon="4.95381">
        <ele>403</ele>
        <time>2015-01-10T18:16:33.057Z</time>
      </trkpt>
      <trkpt lat="47.30372" lon="4.95379">
        <ele>403</ele>
        <time>2015-01-10T18:16:37.062Z</time>
      </trkpt>
      <trkpt lat="47.30373" lon="4.9538">
        <ele>404</ele>
        <time>2015-01-10T18:16:38.055Z</time>
      </trkpt>
      <trkpt lat="47.30382" lon="4.95382">
        <ele>404</ele>
        <time>2015-01-10T18:16:42.048Z</time>
      </trkpt>
      <trkpt lat="47.30383" lon="4.95382">
        <ele>404</ele>
        <time>2015-01-10T18:16:43.117Z</time>
      </trkpt>
      <trkpt lat="47.30389" lon="4.9538">
        <ele>405</ele>
        <time>2015-01-10T18:16:48.052Z</time>
      </trkpt>
      <trkpt lat="47.30392" lon="4.95379">
        <ele>405</ele>
        <time>2015-01-10T18:16:49.057Z</time>
      </trkpt>
      <trkpt lat="47.30399" lon="4.95374">
        <ele>406</ele>
        <time>2015-01-10T18:16:53.047Z</time>
      </trkpt>
      <trkpt lat="47.304" lon="4.95373">
        <ele>406</ele>
        <time>2015-01-10T18:16:54.055Z</time>
      </trkpt>
      <trkpt lat="47.30407" lon="4.95367">
        <ele>407</ele>
        <time>2015-01-10T18:16:59.029Z</time>
      </trkpt>
      <trkpt lat="47.30409" lon="4.95366">
        <ele>407</ele>
        <time>2015-01-10T18:17:00.095Z</time>
      </trkpt>
      <trkpt lat="47.30415" lon="4.95359">
        <ele>408</ele>
        <time>2015-01-10T18:17:05.047Z</time>
      </trkpt>
      <trkpt lat="47.30417" lon="4.95357">
        <ele>414</ele>
        <time>2015-01-10T18:17:06.037Z</time>
      </trkpt>
      <trkpt lat="47.30424" lon="4.95352">
        <ele>414</ele>
        <time>2015-01-10T18:17:10.046Z</time>
      </trkpt>
      <trkpt lat="47.30426" lon="4.95353">
        <ele>414</ele>
        <time>2015-01-10T18:17:11.039Z</time>
      </trkpt>
      <trkpt lat="47.30432" lon="4.95344">
        <ele>415</ele>
        <time>2015-01-10T18:17:17.044Z</time>
      </trkpt>
      <trkpt lat="47.30434" lon="4.95342">
        <ele>415</ele>
        <time>2015-01-10T18:17:18.045Z</time>
      </trkpt>
      <trkpt lat="47.30438" lon="4.95331">
        <ele>418</ele>
        <time>2015-01-10T18:17:22.050Z</time>
      </trkpt>
      <trkpt lat="47.30439" lon="4.95328">
        <ele>418</ele>
        <time>2015-01-10T18:17:23.058Z</time>
      </trkpt>
      <trkpt lat="47.30443" lon="4.9532">
        <ele>418</ele>
        <time>2015-01-10T18:17:26.037Z</time>
      </trkpt>
      <trkpt lat="47.30445" lon="4.95317">
        <ele>419</ele>
        <time>2015-01-10T18:17:27.049Z</time>
      </trkpt>
      <trkpt lat="47.30451" lon="4.9531">
        <ele>419</ele>
        <time>2015-01-10T18:17:30.048Z</time>
      </trkpt>
      <trkpt lat="47.30452" lon="4.95309">
        <ele>419</ele>
        <time>2015-01-10T18:17:31.023Z</time>
      </trkpt>
      <trkpt lat="47.30459" lon="4.95301">
        <ele>420</ele>
        <time>2015-01-10T18:17:35.055Z</time>
      </trkpt>
      <trkpt lat="47.30461" lon="4.95299">
        <ele>420</ele>
        <time>2015-01-10T18:17:36.039Z</time>
      </trkpt>
      <trkpt lat="47.30466" lon="4.95291">
        <ele>421</ele>
        <time>2015-01-10T18:17:39.055Z</time>
      </trkpt>
      <trkpt lat="47.30467" lon="4.95288">
        <ele>421</ele>
        <time>2015-01-10T18:17:40.046Z</time>
      </trkpt>
      <trkpt lat="47.30473" lon="4.95281">
        <ele>421</ele>
        <time>2015-01-10T18:17:43.056Z</time>
      </trkpt>
      <trkpt lat="47.30475" lon="4.95277">
        <ele>421</ele>
        <time>2015-01-10T18:17:44.048Z</time>
      </trkpt>
      <trkpt lat="47.3048" lon="4.95267">
        <ele>422</ele>
        <time>2015-01-10T18:17:48.050Z</time>
      </trkpt>
      <trkpt lat="47.30481" lon="4.95264">
        <ele>422</ele>
        <time>2015-01-10T18:17:49.212Z</time>
      </trkpt>
      <trkpt lat="47.30485" lon="4.95252">
        <ele>423</ele>
        <time>2015-01-10T18:17:53.057Z</time>
      </trkpt>
      <trkpt lat="47.30485" lon="4.95249">
        <ele>425</ele>
        <time>2015-01-10T18:17:54.052Z</time>
      </trkpt>
      <trkpt lat="47.30489" lon="4.95239">
        <ele>425</ele>
        <time>2015-01-10T18:17:58.049Z</time>
      </trkpt>
      <trkpt lat="47.3049" lon="4.95238">
        <ele>425</ele>
        <time>2015-01-10T18:17:59.057Z</time>
      </trkpt>
      <trkpt lat="47.30494" lon="4.95227">
        <ele>425</ele>
        <time>2015-01-10T18:18:04.047Z</time>
      </trkpt>
      <trkpt lat="47.30495" lon="4.95225">
        <ele>425</ele>
        <time>2015-01-10T18:18:05.043Z</time>
      </trkpt>
      <trkpt lat="47.305" lon="4.95215">
        <ele>425</ele>
        <time>2015-01-10T18:18:10.043Z</time>
      </trkpt>
      <trkpt lat="47.30501" lon="4.95213">
        <ele>426</ele>
        <time>2015-01-10T18:18:11.056Z</time>
      </trkpt>
      <trkpt lat="47.30506" lon="4.95201">
        <ele>426</ele>
        <time>2015-01-10T18:18:16.046Z</time>
      </trkpt>
      <trkpt lat="47.30507" lon="4.95199">
        <ele>426</ele>
        <time>2015-01-10T18:18:17.029Z</time>
      </trkpt>
      <trkpt lat="47.3051" lon="4.95189">
        <ele>427</ele>
        <time>2015-01-10T18:18:24.040Z</time>
      </trkpt>
      <trkpt lat="47.3051" lon="4.95187">
        <ele>427</ele>
        <time>2015-01-10T18:18:25.043Z</time>
      </trkpt>
      <trkpt lat="47.30516" lon="4.95177">
        <ele>427</ele>
        <time>2015-01-10T18:18:30.048Z</time>
      </trkpt>
      <trkpt lat="47.30516" lon="4.95177">
        <ele>427</ele>
        <time>2015-01-10T18:18:31.058Z</time>
      </trkpt>
      <trkpt lat="47.3052" lon="4.95165">
        <ele>427</ele>
        <time>2015-01-10T18:18:38.039Z</time>
      </trkpt>
      <trkpt lat="47.30521" lon="4.95163">
        <ele>427</ele>
        <time>2015-01-10T18:18:39.039Z</time>
      </trkpt>
      <trkpt lat="47.30526" lon="4.95154">
        <ele>427</ele>
        <time>2015-01-10T18:18:45.041Z</time>
      </trkpt>
      <trkpt lat="47.30527" lon="4.95153">
        <ele>427</ele>
        <time>2015-01-10T18:18:46.029Z</time>
      </trkpt>
      <trkpt lat="47.30532" lon="4.95142">
        <ele>427</ele>
        <time>2015-01-10T18:18:53.049Z</time>
      </trkpt>
      <trkpt lat="47.30533" lon="4.9514">
        <ele>427</ele>
        <time>2015-01-10T18:18:54.051Z</time>
      </trkpt>
      <trkpt lat="47.30534" lon="4.95128">
        <ele>427</ele>
        <time>2015-01-10T18:19:01.054Z</time>
      </trkpt>
      <trkpt lat="47.30535" lon="4.95126">
        <ele>427</ele>
        <time>2015-01-10T18:19:02.048Z</time>
      </trkpt>
      <trkpt lat="47.30539" lon="4.9512">
        <ele>427</ele>
        <time>2015-01-10T18:19:09.054Z</time>
      </trkpt>
      <trkpt lat="47.30539" lon="4.9512">
        <ele>427</ele>
        <time>2015-01-10T18:19:10.041Z</time>
      </trkpt>
      <trkpt lat="47.30539" lon="4.9512">
        <ele>427</ele>
        <time>2015-01-10T18:19:11.049Z</time>
      </trkpt>
      <trkpt lat="47.30545" lon="4.95113">
        <ele>427</ele>
        <time>2015-01-10T18:19:13.043Z</time>
      </trkpt>
      <trkpt lat="47.30547" lon="4.95111">
        <ele>427</ele>
        <time>2015-01-10T18:19:14.053Z</time>
      </trkpt>
      <trkpt lat="47.30554" lon="4.95105">
        <ele>427</ele>
        <time>2015-01-10T18:19:17.057Z</time>
      </trkpt>
      <trkpt lat="47.30556" lon="4.95104">
        <ele>427</ele>
        <time>2015-01-10T18:19:18.061Z</time>
      </trkpt>
      <trkpt lat="47.30564" lon="4.95102">
        <ele>427</ele>
        <time>2015-01-10T18:19:23.023Z</time>
      </trkpt>
      <trkpt lat="47.30565" lon="4.95101">
        <ele>427</ele>
        <time>2015-01-10T18:19:24.054Z</time>
      </trkpt>
      <trkpt lat="47.30572" lon="4.95096">
        <ele>427</ele>
        <time>2015-01-10T18:19:29.050Z</time>
      </trkpt>
      <trkpt lat="47.30573" lon="4.95094">
        <ele>427</ele>
        <time>2015-01-10T18:19:30.079Z</time>
      </trkpt>
      <trkpt lat="47.30574" lon="4.95082">
        <ele>427</ele>
        <time>2015-01-10T18:19:37.054Z</time>
      </trkpt>
      <trkpt lat="47.30575" lon="4.9508">
        <ele>427</ele>
        <time>2015-01-10T18:19:38.030Z</time>
      </trkpt>
      <trkpt lat="47.30575" lon="4.95078">
        <ele>427</ele>
        <time>2015-01-10T18:19:39.057Z</time>
      </trkpt>
      <trkpt lat="47.30578" lon="4.95066">
        <ele>428</ele>
        <time>2015-01-10T18:19:40.047Z</time>
      </trkpt>
      <trkpt lat="47.30582" lon="4.95057">
        <ele>428</ele>
        <time>2015-01-10T18:19:43.070Z</time>
      </trkpt>
      <trkpt lat="47.30584" lon="4.95055">
        <ele>428</ele>
        <time>2015-01-10T18:19:44.056Z</time>
      </trkpt>
      <trkpt lat="47.30584" lon="4.95055">
        <ele>428</ele>
        <time>2015-01-10T18:19:46.054Z</time>
      </trkpt>
      <trkpt lat="47.30584" lon="4.95055">
        <ele>428</ele>
        <time>2015-01-10T18:19:47.045Z</time>
      </trkpt>
      <trkpt lat="47.30584" lon="4.95055">
        <ele>428</ele>
        <time>2015-01-10T18:19:49.038Z</time>
      </trkpt>
      <trkpt lat="47.30584" lon="4.95055">
        <ele>428</ele>
        <time>2015-01-10T18:19:50.054Z</time>
      </trkpt>
      <trkpt lat="47.3059" lon="4.95054">
        <ele>428</ele>
        <time>2015-01-10T18:19:53.050Z</time>
      </trkpt>
      <trkpt lat="47.3059" lon="4.95053">
        <ele>428</ele>
        <time>2015-01-10T18:19:54.056Z</time>
      </trkpt>
      <trkpt lat="47.3059" lon="4.95053">
        <ele>428</ele>
        <time>2015-01-10T18:19:55.060Z</time>
      </trkpt>
      <trkpt lat="47.3059" lon="4.95053">
        <ele>428</ele>
        <time>2015-01-10T18:19:56.049Z</time>
      </trkpt>
      <trkpt lat="47.3059" lon="4.95053">
        <ele>428</ele>
        <time>2015-01-10T18:19:59.053Z</time>
      </trkpt>
      <trkpt lat="47.3059" lon="4.95053">
        <ele>428</ele>
        <time>2015-01-10T18:20:00.108Z</time>
      </trkpt>
      <trkpt lat="47.3059" lon="4.95053">
        <ele>428</ele>
        <time>2015-01-10T18:20:01.060Z</time>
      </trkpt>
      <trkpt lat="47.30599" lon="4.95057">
        <ele>428</ele>
        <time>2015-01-10T18:20:03.051Z</time>
      </trkpt>
      <trkpt lat="47.306" lon="4.95057">
        <ele>428</ele>
        <time>2015-01-10T18:20:04.068Z</time>
      </trkpt>
      <trkpt lat="47.30607" lon="4.95063">
        <ele>428</ele>
        <time>2015-01-10T18:20:15.600Z</time>
      </trkpt>
      <trkpt lat="47.30607" lon="4.95064">
        <ele>428</ele>
        <time>2015-01-10T18:20:16.190Z</time>
      </trkpt>
      <trkpt lat="47.30608" lon="4.95077">
        <ele>428</ele>
        <time>2015-01-10T18:20:26.201Z</time>
      </trkpt>
      <trkpt lat="47.30607" lon="4.95079">
        <ele>428</ele>
        <time>2015-01-10T18:20:27.630Z</time>
      </trkpt>
      <trkpt lat="47.30607" lon="4.9509">
        <ele>428</ele>
        <time>2015-01-10T18:20:34.054Z</time>
      </trkpt>
      <trkpt lat="47.30608" lon="4.95092">
        <ele>428</ele>
        <time>2015-01-10T18:20:35.052Z</time>
      </trkpt>
      <trkpt lat="47.3061" lon="4.95104">
        <ele>428</ele>
        <time>2015-01-10T18:20:45.048Z</time>
      </trkpt>
      <trkpt lat="47.30614" lon="4.95105">
        <ele>428</ele>
        <time>2015-01-10T18:20:46.057Z</time>
      </trkpt>
      <trkpt lat="47.30615" lon="4.95117">
        <ele>428</ele>
        <time>2015-01-10T18:20:52.044Z</time>
      </trkpt>
      <trkpt lat="47.30615" lon="4.95119">
        <ele>428</ele>
        <time>2015-01-10T18:20:53.057Z</time>
      </trkpt>
      <trkpt lat="47.3062" lon="4.95129">
        <ele>428</ele>
        <time>2015-01-10T18:20:59.066Z</time>
      </trkpt>
      <trkpt lat="47.30621" lon="4.95131">
        <ele>428</ele>
        <time>2015-01-10T18:21:00.095Z</time>
      </trkpt>
      <trkpt lat="47.30626" lon="4.95135">
        <ele>428</ele>
        <time>2015-01-10T18:21:08.063Z</time>
      </trkpt>
      <trkpt lat="47.30626" lon="4.95135">
        <ele>428</ele>
        <time>2015-01-10T18:21:09.057Z</time>
      </trkpt>
      <trkpt lat="47.30626" lon="4.95135">
        <ele>428</ele>
        <time>2015-01-10T18:21:16.061Z</time>
      </trkpt>
      <trkpt lat="47.30631" lon="4.95136">
        <ele>428</ele>
        <time>2015-01-10T18:21:17.060Z</time>
      </trkpt>
      <trkpt lat="47.30633" lon="4.95137">
        <ele>428</ele>
        <time>2015-01-10T18:21:19.048Z</time>
      </trkpt>
      <trkpt lat="47.30633" lon="4.95137">
        <ele>428</ele>
        <time>2015-01-10T18:21:20.051Z</time>
      </trkpt>
      <trkpt lat="47.30633" lon="4.95137">
        <ele>428</ele>
        <time>2015-01-10T18:21:21.034Z</time>
      </trkpt>
      <trkpt lat="47.30633" lon="4.95137">
        <ele>428</ele>
        <time>2015-01-10T18:21:22.043Z</time>
      </trkpt>
      <trkpt lat="47.30633" lon="4.95137">
        <ele>428</ele>
        <time>2015-01-10T18:21:23.044Z</time>
      </trkpt>
      <trkpt lat="47.30633" lon="4.95137">
        <ele>428</ele>
        <time>2015-01-10T18:21:24.042Z</time>
      </trkpt>
      <trkpt lat="47.30633" lon="4.95137">
        <ele>428</ele>
        <time>2015-01-10T18:21:26.041Z</time>
      </trkpt>
      <trkpt lat="47.30633" lon="4.95137">
        <ele>428</ele>
        <time>2015-01-10T18:21:27.042Z</time>
      </trkpt>
      <trkpt lat="47.30641" lon="4.95135">
        <ele>428</ele>
        <time>2015-01-10T18:21:31.045Z</time>
      </trkpt>
      <trkpt lat="47.30643" lon="4.95134">
        <ele>428</ele>
        <time>2015-01-10T18:21:32.037Z</time>
      </trkpt>
      <trkpt lat="47.3065" lon="4.95126">
        <ele>428</ele>
        <time>2015-01-10T18:21:42.041Z</time>
      </trkpt>
      <trkpt lat="47.3065" lon="4.95125">
        <ele>428</ele>
        <time>2015-01-10T18:21:43.040Z</time>
      </trkpt>
      <trkpt lat="47.30654" lon="4.95114">
        <ele>428</ele>
        <time>2015-01-10T18:21:50.072Z</time>
      </trkpt>
      <trkpt lat="47.30655" lon="4.95112">
        <ele>428</ele>
        <time>2015-01-10T18:21:51.052Z</time>
      </trkpt>
      <trkpt lat="47.30659" lon="4.95103">
        <ele>428</ele>
        <time>2015-01-10T18:21:57.035Z</time>
      </trkpt>
      <trkpt lat="47.30661" lon="4.95101">
        <ele>428</ele>
        <time>2015-01-10T18:21:58.053Z</time>
      </trkpt>
      <trkpt lat="47.30667" lon="4.95092">
        <ele>428</ele>
        <time>2015-01-10T18:22:03.048Z</time>
      </trkpt>
      <trkpt lat="47.30667" lon="4.9509">
        <ele>428</ele>
        <time>2015-01-10T18:22:04.049Z</time>
      </trkpt>
      <trkpt lat="47.30674" lon="4.95081">
        <ele>428</ele>
        <time>2015-01-10T18:22:11.041Z</time>
      </trkpt>
      <trkpt lat="47.30674" lon="4.9508">
        <ele>428</ele>
        <time>2015-01-10T18:22:12.037Z</time>
      </trkpt>
      <trkpt lat="47.30677" lon="4.95077">
        <ele>428</ele>
        <time>2015-01-10T18:22:14.020Z</time>
      </trkpt>
      <trkpt lat="47.30677" lon="4.95076">
        <ele>428</ele>
        <time>2015-01-10T18:22:15.052Z</time>
      </trkpt>
      <trkpt lat="47.30678" lon="4.95075">
        <ele>428</ele>
        <time>2015-01-10T18:22:17.050Z</time>
      </trkpt>
      <trkpt lat="47.30678" lon="4.95075">
        <ele>428</ele>
        <time>2015-01-10T18:22:18.045Z</time>
      </trkpt>
      <trkpt lat="47.30686" lon="4.95074">
        <ele>428</ele>
        <time>2015-01-10T18:22:38.611Z</time>
      </trkpt>
      <trkpt lat="47.30687" lon="4.95074">
        <ele>428</ele>
        <time>2015-01-10T18:22:39.619Z</time>
      </trkpt>
      <trkpt lat="47.3069" lon="4.95086">
        <ele>427</ele>
        <time>2015-01-10T18:22:54.052Z</time>
      </trkpt>
      <trkpt lat="47.3069" lon="4.95086">
        <ele>427</ele>
        <time>2015-01-10T18:22:55.114Z</time>
      </trkpt>
      <trkpt lat="47.30696" lon="4.95095">
        <ele>427</ele>
        <time>2015-01-10T18:23:06.049Z</time>
      </trkpt>
      <trkpt lat="47.30697" lon="4.95098">
        <ele>427</ele>
        <time>2015-01-10T18:23:07.051Z</time>
      </trkpt>
      <trkpt lat="47.30703" lon="4.95104">
        <ele>426</ele>
        <time>2015-01-10T18:23:11.046Z</time>
      </trkpt>
      <trkpt lat="47.30704" lon="4.95105">
        <ele>426</ele>
        <time>2015-01-10T18:23:12.048Z</time>
      </trkpt>
      <trkpt lat="47.30712" lon="4.9511">
        <ele>426</ele>
        <time>2015-01-10T18:23:17.047Z</time>
      </trkpt>
      <trkpt lat="47.30713" lon="4.95112">
        <ele>426</ele>
        <time>2015-01-10T18:23:18.040Z</time>
      </trkpt>
      <trkpt lat="47.30712" lon="4.95124">
        <ele>426</ele>
        <time>2015-01-10T18:23:24.044Z</time>
      </trkpt>
      <trkpt lat="47.30711" lon="4.95126">
        <ele>426</ele>
        <time>2015-01-10T18:23:25.048Z</time>
      </trkpt>
      <trkpt lat="47.30707" lon="4.95136">
        <ele>426</ele>
        <time>2015-01-10T18:23:30.034Z</time>
      </trkpt>
      <trkpt lat="47.30706" lon="4.95137">
        <ele>426</ele>
        <time>2015-01-10T18:23:31.043Z</time>
      </trkpt>
      <trkpt lat="47.307" lon="4.95147">
        <ele>426</ele>
        <time>2015-01-10T18:23:35.036Z</time>
      </trkpt>
      <trkpt lat="47.30698" lon="4.95148">
        <ele>426</ele>
        <time>2015-01-10T18:23:36.041Z</time>
      </trkpt>
      <trkpt lat="47.30696" lon="4.9516">
        <ele>426</ele>
        <time>2015-01-10T18:23:42.048Z</time>
      </trkpt>
      <trkpt lat="47.30697" lon="4.95162">
        <ele>426</ele>
        <time>2015-01-10T18:23:43.048Z</time>
      </trkpt>
      <trkpt lat="47.307" lon="4.95173">
        <ele>425</ele>
        <time>2015-01-10T18:23:53.052Z</time>
      </trkpt>
      <trkpt lat="47.30701" lon="4.95175">
        <ele>425</ele>
        <time>2015-01-10T18:23:54.043Z</time>
      </trkpt>
      <trkpt lat="47.30706" lon="4.9518">
        <ele>425</ele>
        <time>2015-01-10T18:23:59.045Z</time>
      </trkpt>
      <trkpt lat="47.30708" lon="4.95184">
        <ele>425</ele>
        <time>2015-01-10T18:24:00.073Z</time>
      </trkpt>
      <trkpt lat="47.30709" lon="4.95187">
        <ele>425</ele>
        <time>2015-01-10T18:24:02.051Z</time>
      </trkpt>
      <trkpt lat="47.30709" lon="4.95187">
        <ele>425</ele>
        <time>2015-01-10T18:24:03.051Z</time>
      </trkpt>
      <trkpt lat="47.3071" lon="4.95187">
        <ele>425</ele>
        <time>2015-01-10T18:24:07.051Z</time>
      </trkpt>
      <trkpt lat="47.3071" lon="4.95187">
        <ele>425</ele>
        <time>2015-01-10T18:24:08.038Z</time>
      </trkpt>
      <trkpt lat="47.30708" lon="4.95198">
        <ele>425</ele>
        <time>2015-01-10T18:24:13.062Z</time>
      </trkpt>
      <trkpt lat="47.30706" lon="4.952">
        <ele>425</ele>
        <time>2015-01-10T18:24:14.061Z</time>
      </trkpt>
      <trkpt lat="47.30706" lon="4.95213">
        <ele>425</ele>
        <time>2015-01-10T18:24:16.062Z</time>
      </trkpt>
      <trkpt lat="47.30705" lon="4.95215">
        <ele>425</ele>
        <time>2015-01-10T18:24:17.054Z</time>
      </trkpt>
      <trkpt lat="47.30705" lon="4.95227">
        <ele>425</ele>
        <time>2015-01-10T18:24:23.052Z</time>
      </trkpt>
      <trkpt lat="47.30704" lon="4.95229">
        <ele>425</ele>
        <time>2015-01-10T18:24:24.053Z</time>
      </trkpt>
      <trkpt lat="47.30701" lon="4.95241">
        <ele>425</ele>
        <time>2015-01-10T18:24:29.058Z</time>
      </trkpt>
      <trkpt lat="47.30701" lon="4.95244">
        <ele>425</ele>
        <time>2015-01-10T18:24:30.052Z</time>
      </trkpt>
      <trkpt lat="47.30704" lon="4.95252">
        <ele>423</ele>
        <time>2015-01-10T18:24:34.044Z</time>
      </trkpt>
      <trkpt lat="47.30703" lon="4.95263">
        <ele>423</ele>
        <time>2015-01-10T18:24:35.048Z</time>
      </trkpt>
      <trkpt lat="47.30706" lon="4.95274">
        <ele>423</ele>
        <time>2015-01-10T18:24:39.046Z</time>
      </trkpt>
      <trkpt lat="47.30707" lon="4.95277">
        <ele>423</ele>
        <time>2015-01-10T18:24:40.039Z</time>
      </trkpt>
      <trkpt lat="47.30714" lon="4.95283">
        <ele>422</ele>
        <time>2015-01-10T18:24:46.047Z</time>
      </trkpt>
      <trkpt lat="47.30715" lon="4.95284">
        <ele>422</ele>
        <time>2015-01-10T18:24:47.038Z</time>
      </trkpt>
      <trkpt lat="47.30718" lon="4.95287">
        <ele>422</ele>
        <time>2015-01-10T18:24:49.057Z</time>
      </trkpt>
      <trkpt lat="47.30718" lon="4.95297">
        <ele>422</ele>
        <time>2015-01-10T18:24:50.053Z</time>
      </trkpt>
      <trkpt lat="47.30722" lon="4.95307">
        <ele>421</ele>
        <time>2015-01-10T18:24:57.060Z</time>
      </trkpt>
      <trkpt lat="47.30722" lon="4.95309">
        <ele>421</ele>
        <time>2015-01-10T18:24:58.055Z</time>
      </trkpt>
      <trkpt lat="47.30721" lon="4.9532">
        <ele>421</ele>
        <time>2015-01-10T18:25:03.053Z</time>
      </trkpt>
      <trkpt lat="47.30721" lon="4.95322">
        <ele>421</ele>
        <time>2015-01-10T18:25:04.053Z</time>
      </trkpt>
      <trkpt lat="47.30718" lon="4.95332">
        <ele>421</ele>
        <time>2015-01-10T18:25:10.054Z</time>
      </trkpt>
      <trkpt lat="47.30718" lon="4.95345">
        <ele>419</ele>
        <time>2015-01-10T18:25:11.054Z</time>
      </trkpt>
      <trkpt lat="47.30725" lon="4.95349">
        <ele>419</ele>
        <time>2015-01-10T18:25:15.053Z</time>
      </trkpt>
      <trkpt lat="47.30726" lon="4.9535">
        <ele>419</ele>
        <time>2015-01-10T18:25:16.068Z</time>
      </trkpt>
      <trkpt lat="47.30733" lon="4.95358">
        <ele>419</ele>
        <time>2015-01-10T18:25:22.059Z</time>
      </trkpt>
      <trkpt lat="47.30735" lon="4.95359">
        <ele>419</ele>
        <time>2015-01-10T18:25:23.059Z</time>
      </trkpt>
      <trkpt lat="47.30742" lon="4.95363">
        <ele>419</ele>
        <time>2015-01-10T18:25:26.060Z</time>
      </trkpt>
      <trkpt lat="47.30745" lon="4.95363">
        <ele>419</ele>
        <time>2015-01-10T18:25:27.058Z</time>
      </trkpt>
      <trkpt lat="47.30752" lon="4.95369">
        <ele>413</ele>
        <time>2015-01-10T18:25:32.050Z</time>
      </trkpt>
      <trkpt lat="47.30753" lon="4.9537">
        <ele>413</ele>
        <time>2015-01-10T18:25:33.047Z</time>
      </trkpt>
      <trkpt lat="47.30757" lon="4.95381">
        <ele>413</ele>
        <time>2015-01-10T18:25:39.044Z</time>
      </trkpt>
      <trkpt lat="47.30758" lon="4.95383">
        <ele>413</ele>
        <time>2015-01-10T18:25:40.045Z</time>
      </trkpt>
      <trkpt lat="47.30764" lon="4.95391">
        <ele>413</ele>
        <time>2015-01-10T18:25:45.054Z</time>
      </trkpt>
      <trkpt lat="47.30765" lon="4.95392">
        <ele>413</ele>
        <time>2015-01-10T18:25:46.062Z</time>
      </trkpt>
      <trkpt lat="47.30772" lon="4.95398">
        <ele>412</ele>
        <time>2015-01-10T18:25:51.051Z</time>
      </trkpt>
      <trkpt lat="47.30774" lon="4.954">
        <ele>412</ele>
        <time>2015-01-10T18:25:52.058Z</time>
      </trkpt>
      <trkpt lat="47.30779" lon="4.95406">
        <ele>412</ele>
        <time>2015-01-10T18:25:55.062Z</time>
      </trkpt>
      <trkpt lat="47.30781" lon="4.95409">
        <ele>412</ele>
        <time>2015-01-10T18:25:56.053Z</time>
      </trkpt>
      <trkpt lat="47.30788" lon="4.95415">
        <ele>411</ele>
        <time>2015-01-10T18:26:00.073Z</time>
      </trkpt>
      <trkpt lat="47.30789" lon="4.95417">
        <ele>411</ele>
        <time>2015-01-10T18:26:01.052Z</time>
      </trkpt>
      <trkpt lat="47.30794" lon="4.95428">
        <ele>410</ele>
        <time>2015-01-10T18:26:07.055Z</time>
      </trkpt>
      <trkpt lat="47.30794" lon="4.9543">
        <ele>410</ele>
        <time>2015-01-10T18:26:08.063Z</time>
      </trkpt>
      <trkpt lat="47.30795" lon="4.95441">
        <ele>410</ele>
        <time>2015-01-10T18:26:13.058Z</time>
      </trkpt>
      <trkpt lat="47.30795" lon="4.95444">
        <ele>410</ele>
        <time>2015-01-10T18:26:14.055Z</time>
      </trkpt>
      <trkpt lat="47.30794" lon="4.95457">
        <ele>410</ele>
        <time>2015-01-10T18:26:19.048Z</time>
      </trkpt>
      <trkpt lat="47.30794" lon="4.9546">
        <ele>410</ele>
        <time>2015-01-10T18:26:20.048Z</time>
      </trkpt>
      <trkpt lat="47.30795" lon="4.9547">
        <ele>410</ele>
        <time>2015-01-10T18:26:24.050Z</time>
      </trkpt>
      <trkpt lat="47.30795" lon="4.95473">
        <ele>410</ele>
        <time>2015-01-10T18:26:25.061Z</time>
      </trkpt>
      <trkpt lat="47.308" lon="4.95479">
        <ele>410</ele>
        <time>2015-01-10T18:26:28.047Z</time>
      </trkpt>
      <trkpt lat="47.30803" lon="4.95481">
        <ele>409</ele>
        <time>2015-01-10T18:26:29.033Z</time>
      </trkpt>
      <trkpt lat="47.3081" lon="4.95489">
        <ele>409</ele>
        <time>2015-01-10T18:26:33.027Z</time>
      </trkpt>
      <trkpt lat="47.30811" lon="4.95491">
        <ele>408</ele>
        <time>2015-01-10T18:26:34.057Z</time>
      </trkpt>
      <trkpt lat="47.30816" lon="4.95499">
        <ele>408</ele>
        <time>2015-01-10T18:26:39.063Z</time>
      </trkpt>
      <trkpt lat="47.30817" lon="4.95501">
        <ele>407</ele>
        <time>2015-01-10T18:26:40.043Z</time>
      </trkpt>
      <trkpt lat="47.30823" lon="4.9551">
        <ele>407</ele>
        <time>2015-01-10T18:26:44.035Z</time>
      </trkpt>
      <trkpt lat="47.30824" lon="4.95513">
        <ele>407</ele>
        <time>2015-01-10T18:26:45.057Z</time>
      </trkpt>
      <trkpt lat="47.30828" lon="4.95522">
        <ele>408</ele>
        <time>2015-01-10T18:26:50.061Z</time>
      </trkpt>
      <trkpt lat="47.30829" lon="4.95524">
        <ele>408</ele>
        <time>2015-01-10T18:26:51.066Z</time>
      </trkpt>
      <trkpt lat="47.30836" lon="4.9553">
        <ele>400</ele>
        <time>2015-01-10T18:26:55.061Z</time>
      </trkpt>
      <trkpt lat="47.30838" lon="4.95532">
        <ele>400</ele>
        <time>2015-01-10T18:26:56.049Z</time>
      </trkpt>
      <trkpt lat="47.30846" lon="4.95535">
        <ele>399</ele>
        <time>2015-01-10T18:27:00.093Z</time>
      </trkpt>
      <trkpt lat="47.30847" lon="4.95535">
        <ele>399</ele>
        <time>2015-01-10T18:27:01.063Z</time>
      </trkpt>
      <trkpt lat="47.30854" lon="4.95531">
        <ele>399</ele>
        <time>2015-01-10T18:27:07.061Z</time>
      </trkpt>
      <trkpt lat="47.30856" lon="4.95531">
        <ele>398</ele>
        <time>2015-01-10T18:27:08.078Z</time>
      </trkpt>
      <trkpt lat="47.30851" lon="4.95522">
        <ele>399</ele>
        <time>2015-01-10T18:27:20.056Z</time>
      </trkpt>
      <trkpt lat="47.3085" lon="4.95521">
        <ele>399</ele>
        <time>2015-01-10T18:27:21.033Z</time>
      </trkpt>
      <trkpt lat="47.30849" lon="4.95519">
        <ele>400</ele>
        <time>2015-01-10T18:27:24.048Z</time>
      </trkpt>
      <trkpt lat="47.30849" lon="4.95519">
        <ele>400</ele>
        <time>2015-01-10T18:27:25.035Z</time>
      </trkpt>
      <trkpt lat="47.30849" lon="4.95519">
        <ele>400</ele>
        <time>2015-01-10T18:27:31.024Z</time>
      </trkpt>
      <trkpt lat="47.30849" lon="4.95519">
        <ele>400</ele>
        <time>2015-01-10T18:27:32.021Z</time>
      </trkpt>
      <trkpt lat="47.30854" lon="4.95528">
        <ele>399</ele>
        <time>2015-01-10T18:27:38.047Z</time>
      </trkpt>
      <trkpt lat="47.30854" lon="4.9553">
        <ele>399</ele>
        <time>2015-01-10T18:27:39.051Z</time>
      </trkpt>
      <trkpt lat="47.30856" lon="4.95541">
        <ele>398</ele>
        <time>2015-01-10T18:27:46.183Z</time>
      </trkpt>
      <trkpt lat="47.30857" lon="4.95543">
        <ele>398</ele>
        <time>2015-01-10T18:27:47.046Z</time>
      </trkpt>
      <trkpt lat="47.30854" lon="4.95555">
        <ele>399</ele>
        <time>2015-01-10T18:27:57.728Z</time>
      </trkpt>
      <trkpt lat="47.30853" lon="4.95557">
        <ele>399</ele>
        <time>2015-01-10T18:27:58.745Z</time>
      </trkpt>
      <trkpt lat="47.30852" lon="4.95568">
        <ele>400</ele>
        <time>2015-01-10T18:28:04.727Z</time>
      </trkpt>
      <trkpt lat="47.30852" lon="4.9557">
        <ele>400</ele>
        <time>2015-01-10T18:28:05.720Z</time>
      </trkpt>
      <trkpt lat="47.30854" lon="4.95582">
        <ele>401</ele>
        <time>2015-01-10T18:28:11.728Z</time>
      </trkpt>
      <trkpt lat="47.30854" lon="4.95584">
        <ele>402</ele>
        <time>2015-01-10T18:28:12.727Z</time>
      </trkpt>
      <trkpt lat="47.30858" lon="4.95593">
        <ele>401</ele>
        <time>2015-01-10T18:28:17.733Z</time>
      </trkpt>
      <trkpt lat="47.3086" lon="4.95595">
        <ele>401</ele>
        <time>2015-01-10T18:28:18.737Z</time>
      </trkpt>
      <trkpt lat="47.30867" lon="4.95603">
        <ele>399</ele>
        <time>2015-01-10T18:28:23.789Z</time>
      </trkpt>
      <trkpt lat="47.30867" lon="4.95604">
        <ele>399</ele>
        <time>2015-01-10T18:28:24.735Z</time>
      </trkpt>
      <trkpt lat="47.30875" lon="4.95611">
        <ele>398</ele>
        <time>2015-01-10T18:28:29.738Z</time>
      </trkpt>
      <trkpt lat="47.30876" lon="4.95612">
        <ele>398</ele>
        <time>2015-01-10T18:28:30.729Z</time>
      </trkpt>
      <trkpt lat="47.30882" lon="4.9562">
        <ele>398</ele>
        <time>2015-01-10T18:28:37.729Z</time>
      </trkpt>
      <trkpt lat="47.30883" lon="4.95622">
        <ele>398</ele>
        <time>2015-01-10T18:28:38.709Z</time>
      </trkpt>
      <trkpt lat="47.30887" lon="4.95633">
        <ele>397</ele>
        <time>2015-01-10T18:28:43.724Z</time>
      </trkpt>
      <trkpt lat="47.30888" lon="4.95634">
        <ele>397</ele>
        <time>2015-01-10T18:28:44.719Z</time>
      </trkpt>
      <trkpt lat="47.30889" lon="4.95635">
        <ele>397</ele>
        <time>2015-01-10T18:28:47.722Z</time>
      </trkpt>
      <trkpt lat="47.30889" lon="4.95635">
        <ele>397</ele>
        <time>2015-01-10T18:28:48.721Z</time>
      </trkpt>
      <trkpt lat="47.30889" lon="4.95635">
        <ele>397</ele>
        <time>2015-01-10T18:28:52.744Z</time>
      </trkpt>
      <trkpt lat="47.30889" lon="4.95635">
        <ele>397</ele>
        <time>2015-01-10T18:28:53.731Z</time>
      </trkpt>
      <trkpt lat="47.30891" lon="4.95643">
        <ele>397</ele>
        <time>2015-01-10T18:28:58.710Z</time>
      </trkpt>
      <trkpt lat="47.30891" lon="4.95645">
        <ele>397</ele>
        <time>2015-01-10T18:28:59.726Z</time>
      </trkpt>
      <trkpt lat="47.30891" lon="4.95645">
        <ele>397</ele>
        <time>2015-01-10T18:29:00.706Z</time>
      </trkpt>
      <trkpt lat="47.30898" lon="4.95653">
        <ele>396</ele>
        <time>2015-01-10T18:29:06.720Z</time>
      </trkpt>
      <trkpt lat="47.30898" lon="4.95655">
        <ele>396</ele>
        <time>2015-01-10T18:29:07.722Z</time>
      </trkpt>
      <trkpt lat="47.30902" lon="4.95665">
        <ele>394</ele>
        <time>2015-01-10T18:29:13.720Z</time>
      </trkpt>
      <trkpt lat="47.30903" lon="4.95666">
        <ele>394</ele>
        <time>2015-01-10T18:29:14.713Z</time>
      </trkpt>
      <trkpt lat="47.30908" lon="4.95674">
        <ele>393</ele>
        <time>2015-01-10T18:29:19.740Z</time>
      </trkpt>
      <trkpt lat="47.30909" lon="4.95676">
        <ele>394</ele>
        <time>2015-01-10T18:29:20.713Z</time>
      </trkpt>
      <trkpt lat="47.30909" lon="4.95678">
        <ele>394</ele>
        <time>2015-01-10T18:29:21.715Z</time>
      </trkpt>
      <trkpt lat="47.3091" lon="4.9568">
        <ele>394</ele>
        <time>2015-01-10T18:29:22.713Z</time>
      </trkpt>
      <trkpt lat="47.3091" lon="4.95682">
        <ele>394</ele>
        <time>2015-01-10T18:29:23.713Z</time>
      </trkpt>
      <trkpt lat="47.30914" lon="4.95689">
        <ele>395</ele>
        <time>2015-01-10T18:29:30.712Z</time>
      </trkpt>
      <trkpt lat="47.30914" lon="4.95689">
        <ele>395</ele>
        <time>2015-01-10T18:29:31.733Z</time>
      </trkpt>
      <trkpt lat="47.30914" lon="4.95689">
        <ele>395</ele>
        <time>2015-01-10T18:29:32.702Z</time>
      </trkpt>
      <trkpt lat="47.30914" lon="4.95689">
        <ele>395</ele>
        <time>2015-01-10T18:29:33.736Z</time>
      </trkpt>
      <trkpt lat="47.30914" lon="4.95689">
        <ele>395</ele>
        <time>2015-01-10T18:29:34.706Z</time>
      </trkpt>
      <trkpt lat="47.30919" lon="4.95679">
        <ele>386</ele>
        <time>2015-01-10T18:29:50.715Z</time>
      </trkpt>
      <trkpt lat="47.30921" lon="4.95677">
        <ele>386</ele>
        <time>2015-01-10T18:29:51.727Z</time>
      </trkpt>
      <trkpt lat="47.30926" lon="4.95666">
        <ele>387</ele>
        <time>2015-01-10T18:30:07.706Z</time>
      </trkpt>
      <trkpt lat="47.30926" lon="4.95665">
        <ele>387</ele>
        <time>2015-01-10T18:30:08.713Z</time>
      </trkpt>
      <trkpt lat="47.30919" lon="4.95656">
        <ele>387</ele>
        <time>2015-01-10T18:30:15.715Z</time>
      </trkpt>
      <trkpt lat="47.30919" lon="4.95655">
        <ele>386</ele>
        <time>2015-01-10T18:30:16.714Z</time>
      </trkpt>
      <trkpt lat="47.30921" lon="4.95654">
        <ele>386</ele>
        <time>2015-01-10T18:30:32.707Z</time>
      </trkpt>
      <trkpt lat="47.30921" lon="4.95655">
        <ele>386</ele>
        <time>2015-01-10T18:30:33.702Z</time>
      </trkpt>
      <trkpt lat="47.30922" lon="4.95656">
        <ele>386</ele>
        <time>2015-01-10T18:30:34.712Z</time>
      </trkpt>
      <trkpt lat="47.30922" lon="4.95656">
        <ele>386</ele>
        <time>2015-01-10T18:30:35.701Z</time>
      </trkpt>
      <trkpt lat="47.30922" lon="4.95657">
        <ele>386</ele>
        <time>2015-01-10T18:30:36.709Z</time>
      </trkpt>
      <trkpt lat="47.3093" lon="4.95657">
        <ele>385</ele>
        <time>2015-01-10T18:30:54.171Z</time>
      </trkpt>
      <trkpt lat="47.30931" lon="4.95657">
        <ele>384</ele>
        <time>2015-01-10T18:30:55.183Z</time>
      </trkpt>
      <trkpt lat="47.30939" lon="4.95661">
        <ele>383</ele>
        <time>2015-01-10T18:31:03.196Z</time>
      </trkpt>
      <trkpt lat="47.30942" lon="4.95666">
        <ele>382</ele>
        <time>2015-01-10T18:31:04.186Z</time>
      </trkpt>
      <trkpt lat="47.30948" lon="4.95673">
        <ele>380</ele>
        <time>2015-01-10T18:31:08.202Z</time>
      </trkpt>
      <trkpt lat="47.3095" lon="4.95675">
        <ele>379</ele>
        <time>2015-01-10T18:31:09.211Z</time>
      </trkpt>
      <trkpt lat="47.30955" lon="4.95684">
        <ele>378</ele>
        <time>2015-01-10T18:31:12.205Z</time>
      </trkpt>
      <trkpt lat="47.30957" lon="4.95689">
        <ele>377</ele>
        <time>2015-01-10T18:31:13.220Z</time>
      </trkpt>
      <trkpt lat="47.30964" lon="4.95696">
        <ele>376</ele>
        <time>2015-01-10T18:31:17.226Z</time>
      </trkpt>
      <trkpt lat="47.30965" lon="4.95697">
        <ele>376</ele>
        <time>2015-01-10T18:31:18.220Z</time>
      </trkpt>
      <trkpt lat="47.30971" lon="4.95705">
        <ele>375</ele>
        <time>2015-01-10T18:31:23.223Z</time>
      </trkpt>
      <trkpt lat="47.30972" lon="4.95706">
        <ele>375</ele>
        <time>2015-01-10T18:31:24.231Z</time>
      </trkpt>
      <trkpt lat="47.30974" lon="4.95716">
        <ele>374</ele>
        <time>2015-01-10T18:31:31.234Z</time>
      </trkpt>
      <trkpt lat="47.30975" lon="4.95719">
        <ele>374</ele>
        <time>2015-01-10T18:31:32.231Z</time>
      </trkpt>
      <trkpt lat="47.30978" lon="4.95728">
        <ele>372</ele>
        <time>2015-01-10T18:31:38.228Z</time>
      </trkpt>
      <trkpt lat="47.30979" lon="4.95731">
        <ele>372</ele>
        <time>2015-01-10T18:31:39.217Z</time>
      </trkpt>
      <trkpt lat="47.30983" lon="4.95741">
        <ele>370</ele>
        <time>2015-01-10T18:31:46.224Z</time>
      </trkpt>
      <trkpt lat="47.30984" lon="4.95742">
        <ele>369</ele>
        <time>2015-01-10T18:31:47.228Z</time>
      </trkpt>
      <trkpt lat="47.30989" lon="4.95748">
        <ele>367</ele>
        <time>2015-01-10T18:31:54.241Z</time>
      </trkpt>
      <trkpt lat="47.3099" lon="4.95748">
        <ele>367</ele>
        <time>2015-01-10T18:31:55.241Z</time>
      </trkpt>
      <trkpt lat="47.30989" lon="4.95748">
        <ele>367</ele>
        <time>2015-01-10T18:31:56.242Z</time>
      </trkpt>
      <trkpt lat="47.30989" lon="4.95748">
        <ele>367</ele>
        <time>2015-01-10T18:31:57.224Z</time>
      </trkpt>
      <trkpt lat="47.30989" lon="4.95748">
        <ele>367</ele>
        <time>2015-01-10T18:31:58.228Z</time>
      </trkpt>
      <trkpt lat="47.30989" lon="4.95746">
        <ele>367</ele>
        <time>2015-01-10T18:31:59.231Z</time>
      </trkpt>
      <trkpt lat="47.30991" lon="4.95749">
        <ele>366</ele>
        <time>2015-01-10T18:32:03.222Z</time>
      </trkpt>
      <trkpt lat="47.30991" lon="4.95749">
        <ele>366</ele>
        <time>2015-01-10T18:32:04.225Z</time>
      </trkpt>
      <trkpt lat="47.30991" lon="4.95749">
        <ele>366</ele>
        <time>2015-01-10T18:32:07.233Z</time>
      </trkpt>
      <trkpt lat="47.30991" lon="4.95749">
        <ele>366</ele>
        <time>2015-01-10T18:32:08.222Z</time>
      </trkpt>
      <trkpt lat="47.30991" lon="4.95749">
        <ele>366</ele>
        <time>2015-01-10T18:32:09.222Z</time>
      </trkpt>
      <trkpt lat="47.30991" lon="4.95749">
        <ele>366</ele>
        <time>2015-01-10T18:32:10.218Z</time>
      </trkpt>
      <trkpt lat="47.30991" lon="4.95749">
        <ele>366</ele>
        <time>2015-01-10T18:32:12.223Z</time>
      </trkpt>
      <trkpt lat="47.30991" lon="4.95749">
        <ele>366</ele>
        <time>2015-01-10T18:32:13.223Z</time>
      </trkpt>
      <trkpt lat="47.30996" lon="4.95759">
        <ele>366</ele>
        <time>2015-01-10T18:32:19.233Z</time>
      </trkpt>
      <trkpt lat="47.30997" lon="4.95762">
        <ele>367</ele>
        <time>2015-01-10T18:32:20.232Z</time>
      </trkpt>
      <trkpt lat="47.31002" lon="4.95771">
        <ele>362</ele>
        <time>2015-01-10T18:32:25.226Z</time>
      </trkpt>
      <trkpt lat="47.31003" lon="4.95774">
        <ele>362</ele>
        <time>2015-01-10T18:32:26.229Z</time>
      </trkpt>
      <trkpt lat="47.31005" lon="4.95784">
        <ele>362</ele>
        <time>2015-01-10T18:32:30.212Z</time>
      </trkpt>
      <trkpt lat="47.31005" lon="4.95784">
        <ele>362</ele>
        <time>2015-01-10T18:32:31.218Z</time>
      </trkpt>
      <trkpt lat="47.31006" lon="4.95792">
        <ele>363</ele>
        <time>2015-01-10T18:32:32.215Z</time>
      </trkpt>
      <trkpt lat="47.31007" lon="4.95799">
        <ele>363</ele>
        <time>2015-01-10T18:32:37.221Z</time>
      </trkpt>
      <trkpt lat="47.31007" lon="4.95806">
        <ele>363</ele>
        <time>2015-01-10T18:32:38.213Z</time>
      </trkpt>
      <trkpt lat="47.31008" lon="4.95807">
        <ele>363</ele>
        <time>2015-01-10T18:32:39.219Z</time>
      </trkpt>
      <trkpt lat="47.31008" lon="4.95809">
        <ele>363</ele>
        <time>2015-01-10T18:32:40.208Z</time>
      </trkpt>
      <trkpt lat="47.31008" lon="4.95811">
        <ele>363</ele>
        <time>2015-01-10T18:32:44.215Z</time>
      </trkpt>
      <trkpt lat="47.31005" lon="4.9582">
        <ele>364</ele>
        <time>2015-01-10T18:32:45.223Z</time>
      </trkpt>
      <trkpt lat="47.31008" lon="4.95833">
        <ele>364</ele>
        <time>2015-01-10T18:32:51.233Z</time>
      </trkpt>
      <trkpt lat="47.31009" lon="4.95836">
        <ele>364</ele>
        <time>2015-01-10T18:32:52.227Z</time>
      </trkpt>
      <trkpt lat="47.31011" lon="4.95848">
        <ele>364</ele>
        <time>2015-01-10T18:32:55.227Z</time>
      </trkpt>
      <trkpt lat="47.31012" lon="4.95851">
        <ele>364</ele>
        <time>2015-01-10T18:32:56.229Z</time>
      </trkpt>
      <trkpt lat="47.31018" lon="4.9586">
        <ele>363</ele>
        <time>2015-01-10T18:33:02.216Z</time>
      </trkpt>
      <trkpt lat="47.31019" lon="4.95862">
        <ele>363</ele>
        <time>2015-01-10T18:33:03.216Z</time>
      </trkpt>
      <trkpt lat="47.31023" lon="4.95871">
        <ele>363</ele>
        <time>2015-01-10T18:33:07.220Z</time>
      </trkpt>
      <trkpt lat="47.31024" lon="4.95873">
        <ele>363</ele>
        <time>2015-01-10T18:33:08.218Z</time>
      </trkpt>
      <trkpt lat="47.31029" lon="4.95883">
        <ele>363</ele>
        <time>2015-01-10T18:33:12.208Z</time>
      </trkpt>
      <trkpt lat="47.31031" lon="4.95884">
        <ele>363</ele>
        <time>2015-01-10T18:33:13.223Z</time>
      </trkpt>
      <trkpt lat="47.31037" lon="4.95884">
        <ele>363</ele>
        <time>2015-01-10T18:33:16.225Z</time>
      </trkpt>
      <trkpt lat="47.31043" lon="4.95885">
        <ele>362</ele>
        <time>2015-01-10T18:33:17.229Z</time>
      </trkpt>
      <trkpt lat="47.31047" lon="4.95887">
        <ele>362</ele>
        <time>2015-01-10T18:33:19.251Z</time>
      </trkpt>
      <trkpt lat="47.31052" lon="4.95888">
        <ele>361</ele>
        <time>2015-01-10T18:33:20.234Z</time>
      </trkpt>
      <trkpt lat="47.31057" lon="4.95889">
        <ele>361</ele>
        <time>2015-01-10T18:33:24.233Z</time>
      </trkpt>
      <trkpt lat="47.31061" lon="4.95889">
        <ele>361</ele>
        <time>2015-01-10T18:33:25.234Z</time>
      </trkpt>
      <trkpt lat="47.31068" lon="4.95894">
        <ele>360</ele>
        <time>2015-01-10T18:33:31.225Z</time>
      </trkpt>
      <trkpt lat="47.31069" lon="4.95895">
        <ele>360</ele>
        <time>2015-01-10T18:33:32.230Z</time>
      </trkpt>
      <trkpt lat="47.31074" lon="4.95894">
        <ele>359</ele>
        <time>2015-01-10T18:33:35.215Z</time>
      </trkpt>
      <trkpt lat="47.31079" lon="4.95893">
        <ele>359</ele>
        <time>2015-01-10T18:33:36.232Z</time>
      </trkpt>
      <trkpt lat="47.31085" lon="4.95895">
        <ele>363</ele>
        <time>2015-01-10T18:33:39.200Z</time>
      </trkpt>
      <trkpt lat="47.31085" lon="4.95895">
        <ele>363</ele>
        <time>2015-01-10T18:33:40.225Z</time>
      </trkpt>
      <trkpt lat="47.31085" lon="4.95895">
        <ele>363</ele>
        <time>2015-01-10T18:33:41.226Z</time>
      </trkpt>
      <trkpt lat="47.31085" lon="4.95895">
        <ele>363</ele>
        <time>2015-01-10T18:33:42.223Z</time>
      </trkpt>
      <trkpt lat="47.31085" lon="4.95895">
        <ele>363</ele>
        <time>2015-01-10T18:33:43.226Z</time>
      </trkpt>
      <trkpt lat="47.31085" lon="4.95895">
        <ele>363</ele>
        <time>2015-01-10T18:33:44.267Z</time>
      </trkpt>
      <trkpt lat="47.31088" lon="4.95904">
        <ele>361</ele>
        <time>2015-01-10T18:33:50.244Z</time>
      </trkpt>
      <trkpt lat="47.31093" lon="4.95907">
        <ele>362</ele>
        <time>2015-01-10T18:33:51.245Z</time>
      </trkpt>
      <trkpt lat="47.31101" lon="4.95913">
        <ele>363</ele>
        <time>2015-01-10T18:33:59.237Z</time>
      </trkpt>
      <trkpt lat="47.31101" lon="4.95913">
        <ele>363</ele>
        <time>2015-01-10T18:34:00.239Z</time>
      </trkpt>
      <trkpt lat="47.31099" lon="4.95925">
        <ele>360</ele>
        <time>2015-01-10T18:34:08.231Z</time>
      </trkpt>
      <trkpt lat="47.31099" lon="4.95927">
        <ele>361</ele>
        <time>2015-01-10T18:34:09.225Z</time>
      </trkpt>
      <trkpt lat="47.31105" lon="4.95937">
        <ele>363</ele>
        <time>2015-01-10T18:34:17.234Z</time>
      </trkpt>
      <trkpt lat="47.31105" lon="4.95938">
        <ele>363</ele>
        <time>2015-01-10T18:34:18.229Z</time>
      </trkpt>
      <trkpt lat="47.31107" lon="4.95951">
        <ele>363</ele>
        <time>2015-01-10T18:34:27.234Z</time>
      </trkpt>
      <trkpt lat="47.31107" lon="4.95952">
        <ele>363</ele>
        <time>2015-01-10T18:34:28.228Z</time>
      </trkpt>
      <trkpt lat="47.31112" lon="4.95962">
        <ele>364</ele>
        <time>2015-01-10T18:34:37.237Z</time>
      </trkpt>
      <trkpt lat="47.31113" lon="4.95964">
        <ele>364</ele>
        <time>2015-01-10T18:34:38.229Z</time>
      </trkpt>
      <trkpt lat="47.31119" lon="4.95971">
        <ele>365</ele>
        <time>2015-01-10T18:34:47.234Z</time>
      </trkpt>
      <trkpt lat="47.3112" lon="4.95972">
        <ele>365</ele>
        <time>2015-01-10T18:34:48.265Z</time>
      </trkpt>
      <trkpt lat="47.31127" lon="4.95976">
        <ele>366</ele>
        <time>2015-01-10T18:35:00.201Z</time>
      </trkpt>
      <trkpt lat="47.31131" lon="4.9598">
        <ele>367</ele>
        <time>2015-01-10T18:35:01.226Z</time>
      </trkpt>
      <trkpt lat="47.31138" lon="4.95985">
        <ele>368</ele>
        <time>2015-01-10T18:35:09.231Z</time>
      </trkpt>
      <trkpt lat="47.31139" lon="4.95986">
        <ele>368</ele>
        <time>2015-01-10T18:35:10.241Z</time>
      </trkpt>
      <trkpt lat="47.31146" lon="4.95992">
        <ele>370</ele>
        <time>2015-01-10T18:35:16.233Z</time>
      </trkpt>
      <trkpt lat="47.31148" lon="4.95992">
        <ele>371</ele>
        <time>2015-01-10T18:35:17.236Z</time>
      </trkpt>
      <trkpt lat="47.31155" lon="4.95996">
        <ele>373</ele>
        <time>2015-01-10T18:35:22.230Z</time>
      </trkpt>
      <trkpt lat="47.31156" lon="4.95997">
        <ele>373</ele>
        <time>2015-01-10T18:35:23.234Z</time>
      </trkpt>
      <trkpt lat="47.31164" lon="4.96004">
        <ele>374</ele>
        <time>2015-01-10T18:35:29.234Z</time>
      </trkpt>
      <trkpt lat="47.31165" lon="4.96005">
        <ele>374</ele>
        <time>2015-01-10T18:35:30.223Z</time>
      </trkpt>
      <trkpt lat="47.3117" lon="4.96007">
        <ele>379</ele>
        <time>2015-01-10T18:35:38.217Z</time>
      </trkpt>
      <trkpt lat="47.3117" lon="4.96007">
        <ele>379</ele>
        <time>2015-01-10T18:35:39.224Z</time>
      </trkpt>
      <trkpt lat="47.3117" lon="4.96007">
        <ele>379</ele>
        <time>2015-01-10T18:35:40.220Z</time>
      </trkpt>
      <trkpt lat="47.31172" lon="4.96005">
        <ele>379</ele>
        <time>2015-01-10T18:35:41.220Z</time>
      </trkpt>
      <trkpt lat="47.31178" lon="4.95996">
        <ele>383</ele>
        <time>2015-01-10T18:35:50.230Z</time>
      </trkpt>
      <trkpt lat="47.31179" lon="4.95996">
        <ele>383</ele>
        <time>2015-01-10T18:35:51.231Z</time>
      </trkpt>
      <trkpt lat="47.3118" lon="4.95991">
        <ele>384</ele>
        <time>2015-01-10T18:35:58.200Z</time>
      </trkpt>
      <trkpt lat="47.3118" lon="4.95991">
        <ele>384</ele>
        <time>2015-01-10T18:35:59.235Z</time>
      </trkpt>
      <trkpt lat="47.3118" lon="4.95991">
        <ele>384</ele>
        <time>2015-01-10T18:36:00.225Z</time>
      </trkpt>
      <trkpt lat="47.3118" lon="4.95991">
        <ele>384</ele>
        <time>2015-01-10T18:36:01.217Z</time>
      </trkpt>
      <trkpt lat="47.3118" lon="4.95991">
        <ele>384</ele>
        <time>2015-01-10T18:36:02.215Z</time>
      </trkpt>
      <trkpt lat="47.3118" lon="4.95991">
        <ele>384</ele>
        <time>2015-01-10T18:36:03.242Z</time>
      </trkpt>
      <trkpt lat="47.3118" lon="4.95991">
        <ele>384</ele>
        <time>2015-01-10T18:36:04.223Z</time>
      </trkpt>
      <trkpt lat="47.3118" lon="4.95991">
        <ele>384</ele>
        <time>2015-01-10T18:36:05.227Z</time>
      </trkpt>
      <trkpt lat="47.3118" lon="4.95978">
        <ele>387</ele>
        <time>2015-01-10T18:36:13.198Z</time>
      </trkpt>
      <trkpt lat="47.31181" lon="4.95978">
        <ele>387</ele>
        <time>2015-01-10T18:36:14.223Z</time>
      </trkpt>
      <trkpt lat="47.31186" lon="4.95967">
        <ele>389</ele>
        <time>2015-01-10T18:36:23.236Z</time>
      </trkpt>
      <trkpt lat="47.31186" lon="4.95965">
        <ele>389</ele>
        <time>2015-01-10T18:36:24.252Z</time>
      </trkpt>
      <trkpt lat="47.31193" lon="4.95959">
        <ele>390</ele>
        <time>2015-01-10T18:36:29.239Z</time>
      </trkpt>
      <trkpt lat="47.31194" lon="4.95958">
        <ele>391</ele>
        <time>2015-01-10T18:36:30.221Z</time>
      </trkpt>
      <trkpt lat="47.31196" lon="4.9597">
        <ele>390</ele>
        <time>2015-01-10T18:36:39.250Z</time>
      </trkpt>
      <trkpt lat="47.31196" lon="4.95971">
        <ele>390</ele>
        <time>2015-01-10T18:36:40.226Z</time>
      </trkpt>
      <trkpt lat="47.31205" lon="4.95971">
        <ele>391</ele>
        <time>2015-01-10T18:36:52.235Z</time>
      </trkpt>
      <trkpt lat="47.31206" lon="4.95972">
        <ele>392</ele>
        <time>2015-01-10T18:36:53.231Z</time>
      </trkpt>
      <trkpt lat="47.3121" lon="4.95982">
        <ele>392</ele>
        <time>2015-01-10T18:37:07.235Z</time>
      </trkpt>
      <trkpt lat="47.31211" lon="4.95983">
        <ele>392</ele>
        <time>2015-01-10T18:37:08.226Z</time>
      </trkpt>
      <trkpt lat="47.31217" lon="4.95992">
        <ele>393</ele>
        <time>2015-01-10T18:37:14.237Z</time>
      </trkpt>
      <trkpt lat="47.31219" lon="4.95992">
        <ele>393</ele>
        <time>2015-01-10T18:37:15.239Z</time>
      </trkpt>
      <trkpt lat="47.31224" lon="4.96">
        <ele>391</ele>
        <time>2015-01-10T18:37:20.247Z</time>
      </trkpt>
      <trkpt lat="47.31225" lon="4.96002">
        <ele>391</ele>
        <time>2015-01-10T18:37:21.236Z</time>
      </trkpt>
      <trkpt lat="47.31233" lon="4.96008">
        <ele>393</ele>
        <time>2015-01-10T18:37:27.211Z</time>
      </trkpt>
      <trkpt lat="47.31234" lon="4.96009">
        <ele>393</ele>
        <time>2015-01-10T18:37:28.242Z</time>
      </trkpt>
      <trkpt lat="47.3124" lon="4.96015">
        <ele>393</ele>
        <time>2015-01-10T18:37:34.225Z</time>
      </trkpt>
      <trkpt lat="47.31242" lon="4.96016">
        <ele>393</ele>
        <time>2015-01-10T18:37:35.229Z</time>
      </trkpt>
      <trkpt lat="47.31249" lon="4.9602">
        <ele>393</ele>
        <time>2015-01-10T18:37:41.217Z</time>
      </trkpt>
      <trkpt lat="47.3125" lon="4.96021">
        <ele>402</ele>
        <time>2015-01-10T18:37:42.221Z</time>
      </trkpt>
      <trkpt lat="47.31257" lon="4.96027">
        <ele>403</ele>
        <time>2015-01-10T18:37:47.224Z</time>
      </trkpt>
      <trkpt lat="47.31259" lon="4.96029">
        <ele>403</ele>
        <time>2015-01-10T18:37:48.228Z</time>
      </trkpt>
      <trkpt lat="47.31267" lon="4.96033">
        <ele>403</ele>
        <time>2015-01-10T18:37:54.228Z</time>
      </trkpt>
      <trkpt lat="47.31267" lon="4.96034">
        <ele>403</ele>
        <time>2015-01-10T18:37:55.251Z</time>
      </trkpt>
      <trkpt lat="47.31275" lon="4.9604">
        <ele>403</ele>
        <time>2015-01-10T18:38:02.226Z</time>
      </trkpt>
      <trkpt lat="47.31276" lon="4.9604">
        <ele>403</ele>
        <time>2015-01-10T18:38:03.212Z</time>
      </trkpt>
      <trkpt lat="47.31279" lon="4.96043">
        <ele>403</ele>
        <time>2015-01-10T18:38:07.201Z</time>
      </trkpt>
      <trkpt lat="47.31279" lon="4.96043">
        <ele>403</ele>
        <time>2015-01-10T18:38:08.219Z</time>
      </trkpt>
      <trkpt lat="47.31279" lon="4.96043">
        <ele>403</ele>
        <time>2015-01-10T18:38:09.226Z</time>
      </trkpt>
      <trkpt lat="47.31279" lon="4.96043">
        <ele>403</ele>
        <time>2015-01-10T18:38:10.223Z</time>
      </trkpt>
      <trkpt lat="47.31279" lon="4.96043">
        <ele>403</ele>
        <time>2015-01-10T18:38:14.222Z</time>
      </trkpt>
      <trkpt lat="47.31279" lon="4.96043">
        <ele>403</ele>
        <time>2015-01-10T18:38:15.239Z</time>
      </trkpt>
      <trkpt lat="47.31288" lon="4.96045">
        <ele>404</ele>
        <time>2015-01-10T18:38:20.230Z</time>
      </trkpt>
      <trkpt lat="47.31289" lon="4.96045">
        <ele>404</ele>
        <time>2015-01-10T18:38:21.229Z</time>
      </trkpt>
      <trkpt lat="47.31297" lon="4.96039">
        <ele>405</ele>
        <time>2015-01-10T18:38:28.232Z</time>
      </trkpt>
      <trkpt lat="47.31298" lon="4.96038">
        <ele>405</ele>
        <time>2015-01-10T18:38:29.238Z</time>
      </trkpt>
      <trkpt lat="47.31302" lon="4.96027">
        <ele>406</ele>
        <time>2015-01-10T18:38:38.225Z</time>
      </trkpt>
      <trkpt lat="47.31303" lon="4.96026">
        <ele>407</ele>
        <time>2015-01-10T18:38:39.226Z</time>
      </trkpt>
      <trkpt lat="47.31308" lon="4.96016">
        <ele>408</ele>
        <time>2015-01-10T18:38:47.237Z</time>
      </trkpt>
      <trkpt lat="47.31309" lon="4.96015">
        <ele>408</ele>
        <time>2015-01-10T18:38:48.259Z</time>
      </trkpt>
      <trkpt lat="47.31315" lon="4.96007">
        <ele>410</ele>
        <time>2015-01-10T18:38:55.253Z</time>
      </trkpt>
      <trkpt lat="47.31316" lon="4.96005">
        <ele>410</ele>
        <time>2015-01-10T18:38:56.253Z</time>
      </trkpt>
      <trkpt lat="47.31323" lon="4.95999">
        <ele>415</ele>
        <time>2015-01-10T18:39:02.220Z</time>
      </trkpt>
      <trkpt lat="47.31323" lon="4.95998">
        <ele>415</ele>
        <time>2015-01-10T18:39:03.219Z</time>
      </trkpt>
      <trkpt lat="47.31329" lon="4.9599">
        <ele>415</ele>
        <time>2015-01-10T18:39:18.237Z</time>
      </trkpt>
      <trkpt lat="47.31329" lon="4.9599">
        <ele>415</ele>
        <time>2015-01-10T18:39:19.261Z</time>
      </trkpt>
      <trkpt lat="47.31329" lon="4.9599">
        <ele>415</ele>
        <time>2015-01-10T18:39:25.237Z</time>
      </trkpt>
      <trkpt lat="47.31331" lon="4.95984">
        <ele>415</ele>
        <time>2015-01-10T18:39:26.254Z</time>
      </trkpt>
      <trkpt lat="47.31336" lon="4.95976">
        <ele>419</ele>
        <time>2015-01-10T18:39:31.224Z</time>
      </trkpt>
      <trkpt lat="47.31337" lon="4.95974">
        <ele>419</ele>
        <time>2015-01-10T18:39:32.226Z</time>
      </trkpt>
      <trkpt lat="47.31345" lon="4.95966">
        <ele>419</ele>
        <time>2015-01-10T18:39:39.197Z</time>
      </trkpt>
      <trkpt lat="47.31345" lon="4.95965">
        <ele>419</ele>
        <time>2015-01-10T18:39:40.221Z</time>
      </trkpt>
      <trkpt lat="47.3135" lon="4.95955">
        <ele>419</ele>
        <time>2015-01-10T18:39:49.243Z</time>
      </trkpt>
      <trkpt lat="47.3135" lon="4.95954">
        <ele>419</ele>
        <time>2015-01-10T18:39:50.229Z</time>
      </trkpt>
      <trkpt lat="47.3135" lon="4.95952">
        <ele>420</ele>
        <time>2015-01-10T18:39:52.235Z</time>
      </trkpt>
      <trkpt lat="47.3135" lon="4.95952">
        <ele>420</ele>
        <time>2015-01-10T18:39:53.237Z</time>
      </trkpt>
      <trkpt lat="47.3135" lon="4.95952">
        <ele>420</ele>
        <time>2015-01-10T18:39:56.230Z</time>
      </trkpt>
      <trkpt lat="47.3135" lon="4.95952">
        <ele>420</ele>
        <time>2015-01-10T18:39:57.229Z</time>
      </trkpt>
      <trkpt lat="47.31353" lon="4.9595">
        <ele>420</ele>
        <time>2015-01-10T18:40:35.213Z</time>
      </trkpt>
      <trkpt lat="47.31353" lon="4.9595">
        <ele>420</ele>
        <time>2015-01-10T18:40:36.223Z</time>
      </trkpt>
      <trkpt lat="47.31353" lon="4.9595">
        <ele>420</ele>
        <time>2015-01-10T18:40:39.229Z</time>
      </trkpt>
      <trkpt lat="47.31353" lon="4.9595">
        <ele>420</ele>
        <time>2015-01-10T18:40:40.229Z</time>
      </trkpt>
      <trkpt lat="47.31357" lon="4.95962">
        <ele>419</ele>
        <time>2015-01-10T18:40:45.242Z</time>
      </trkpt>
      <trkpt lat="47.31358" lon="4.95964">
        <ele>419</ele>
        <time>2015-01-10T18:40:46.243Z</time>
      </trkpt>
      <trkpt lat="47.31359" lon="4.95976">
        <ele>419</ele>
        <time>2015-01-10T18:40:59.249Z</time>
      </trkpt>
      <trkpt lat="47.3136" lon="4.95978">
        <ele>419</ele>
        <time>2015-01-10T18:41:00.264Z</time>
      </trkpt>
      <trkpt lat="47.31354" lon="4.95988">
        <ele>419</ele>
        <time>2015-01-10T18:41:14.225Z</time>
      </trkpt>
      <trkpt lat="47.31354" lon="4.95989">
        <ele>419</ele>
        <time>2015-01-10T18:41:15.233Z</time>
      </trkpt>
      <trkpt lat="47.31351" lon="4.96001">
        <ele>416</ele>
        <time>2015-01-10T18:41:27.231Z</time>
      </trkpt>
      <trkpt lat="47.31351" lon="4.96002">
        <ele>416</ele>
        <time>2015-01-10T18:41:28.254Z</time>
      </trkpt>
      <trkpt lat="47.31345" lon="4.96012">
        <ele>416</ele>
        <time>2015-01-10T18:41:41.222Z</time>
      </trkpt>
      <trkpt lat="47.31345" lon="4.96013">
        <ele>416</ele>
        <time>2015-01-10T18:41:42.226Z</time>
      </trkpt>
      <trkpt lat="47.31341" lon="4.9602">
        <ele>415</ele>
        <time>2015-01-10T18:41:54.248Z</time>
      </trkpt>
      <trkpt lat="47.31341" lon="4.9602">
        <ele>415</ele>
        <time>2015-01-10T18:41:55.218Z</time>
      </trkpt>
      <trkpt lat="47.31346" lon="4.96023">
        <ele>415</ele>
        <time>2015-01-10T18:42:06.225Z</time>
      </trkpt>
      <trkpt lat="47.31346" lon="4.96023">
        <ele>415</ele>
        <time>2015-01-10T18:42:07.232Z</time>
      </trkpt>
      <trkpt lat="47.31347" lon="4.96024">
        <ele>415</ele>
        <time>2015-01-10T18:42:10.224Z</time>
      </trkpt>
      <trkpt lat="47.31347" lon="4.96024">
        <ele>415</ele>
        <time>2015-01-10T18:42:11.226Z</time>
      </trkpt>
      <trkpt lat="47.31347" lon="4.96024">
        <ele>415</ele>
        <time>2015-01-10T18:42:14.228Z</time>
      </trkpt>
      <trkpt lat="47.31347" lon="4.96024">
        <ele>415</ele>
        <time>2015-01-10T18:42:15.248Z</time>
      </trkpt>
      <trkpt lat="47.31352" lon="4.96013">
        <ele>416</ele>
        <time>2015-01-10T18:42:27.241Z</time>
      </trkpt>
      <trkpt lat="47.31352" lon="4.96012">
        <ele>416</ele>
        <time>2015-01-10T18:42:28.242Z</time>
      </trkpt>
      <trkpt lat="47.31352" lon="4.96011">
        <ele>416</ele>
        <time>2015-01-10T18:42:29.240Z</time>
      </trkpt>
      <trkpt lat="47.31352" lon="4.96011">
        <ele>416</ele>
        <time>2015-01-10T18:42:37.226Z</time>
      </trkpt>
      <trkpt lat="47.31352" lon="4.96011">
        <ele>416</ele>
        <time>2015-01-10T18:42:38.227Z</time>
      </trkpt>
      <trkpt lat="47.31352" lon="4.95999">
        <ele>418</ele>
        <time>2015-01-10T18:42:44.296Z</time>
      </trkpt>
      <trkpt lat="47.31352" lon="4.95998">
        <ele>418</ele>
        <time>2015-01-10T18:42:45.243Z</time>
      </trkpt>
      <trkpt lat="47.31357" lon="4.96001">
        <ele>416</ele>
        <time>2015-01-10T18:42:54.213Z</time>
      </trkpt>
      <trkpt lat="47.31357" lon="4.96001">
        <ele>416</ele>
        <time>2015-01-10T18:42:55.248Z</time>
      </trkpt>
      <trkpt lat="47.31357" lon="4.96">
        <ele>416</ele>
        <time>2015-01-10T18:42:56.267Z</time>
      </trkpt>
      <trkpt lat="47.3136" lon="4.95989">
        <ele>419</ele>
        <time>2015-01-10T18:43:10.229Z</time>
      </trkpt>
      <trkpt lat="47.3136" lon="4.95987">
        <ele>419</ele>
        <time>2015-01-10T18:43:11.223Z</time>
      </trkpt>
      <trkpt lat="47.31364" lon="4.95976">
        <ele>419</ele>
        <time>2015-01-10T18:43:20.241Z</time>
      </trkpt>
      <trkpt lat="47.31365" lon="4.95976">
        <ele>419</ele>
        <time>2015-01-10T18:43:21.210Z</time>
      </trkpt>
      <trkpt lat="47.31366" lon="4.95974">
        <ele>419</ele>
        <time>2015-01-10T18:43:24.243Z</time>
      </trkpt>
      <trkpt lat="47.31366" lon="4.95974">
        <ele>419</ele>
        <time>2015-01-10T18:43:25.233Z</time>
      </trkpt>
      <trkpt lat="47.31366" lon="4.95974">
        <ele>419</ele>
        <time>2015-01-10T18:43:36.231Z</time>
      </trkpt>
      <trkpt lat="47.31369" lon="4.95968">
        <ele>419</ele>
        <time>2015-01-10T18:43:37.225Z</time>
      </trkpt>
      <trkpt lat="47.31372" lon="4.95957">
        <ele>420</ele>
        <time>2015-01-10T18:43:45.239Z</time>
      </trkpt>
      <trkpt lat="47.31373" lon="4.95955">
        <ele>420</ele>
        <time>2015-01-10T18:43:46.237Z</time>
      </trkpt>
      <trkpt lat="47.31377" lon="4.95946">
        <ele>420</ele>
        <time>2015-01-10T18:43:57.227Z</time>
      </trkpt>
      <trkpt lat="47.3138" lon="4.95942">
        <ele>420</ele>
        <time>2015-01-10T18:43:58.343Z</time>
      </trkpt>
      <trkpt lat="47.31382" lon="4.9594">
        <ele>420</ele>
        <time>2015-01-10T18:44:05.223Z</time>
      </trkpt>
      <trkpt lat="47.31382" lon="4.9594">
        <ele>420</ele>
        <time>2015-01-10T18:44:06.233Z</time>
      </trkpt>
      <trkpt lat="47.31382" lon="4.9594">
        <ele>420</ele>
        <time>2015-01-10T18:44:08.228Z</time>
      </trkpt>
      <trkpt lat="47.31382" lon="4.9594">
        <ele>420</ele>
        <time>2015-01-10T18:44:09.230Z</time>
      </trkpt>
      <trkpt lat="47.31385" lon="4.9593">
        <ele>420</ele>
        <time>2015-01-10T18:44:11.223Z</time>
      </trkpt>
      <trkpt lat="47.31387" lon="4.95928">
        <ele>420</ele>
        <time>2015-01-10T18:44:12.223Z</time>
      </trkpt>
      <trkpt lat="47.31394" lon="4.9592">
        <ele>420</ele>
        <time>2015-01-10T18:44:16.241Z</time>
      </trkpt>
      <trkpt lat="47.31395" lon="4.95918">
        <ele>420</ele>
        <time>2015-01-10T18:44:17.276Z</time>
      </trkpt>
      <trkpt lat="47.31398" lon="4.95907">
        <ele>421</ele>
        <time>2015-01-10T18:44:25.239Z</time>
      </trkpt>
      <trkpt lat="47.31398" lon="4.95905">
        <ele>421</ele>
        <time>2015-01-10T18:44:26.235Z</time>
      </trkpt>
      <trkpt lat="47.31401" lon="4.95893">
        <ele>421</ele>
        <time>2015-01-10T18:44:32.227Z</time>
      </trkpt>
      <trkpt lat="47.31402" lon="4.95892">
        <ele>421</ele>
        <time>2015-01-10T18:44:33.217Z</time>
      </trkpt>
      <trkpt lat="47.31405" lon="4.95879">
        <ele>421</ele>
        <time>2015-01-10T18:44:41.227Z</time>
      </trkpt>
      <trkpt lat="47.31404" lon="4.95878">
        <ele>421</ele>
        <time>2015-01-10T18:44:42.222Z</time>
      </trkpt>
      <trkpt lat="47.31408" lon="4.95866">
        <ele>422</ele>
        <time>2015-01-10T18:44:50.263Z</time>
      </trkpt>
      <trkpt lat="47.31408" lon="4.95864">
        <ele>422</ele>
        <time>2015-01-10T18:44:51.211Z</time>
      </trkpt>
      <trkpt lat="47.31408" lon="4.95851">
        <ele>422</ele>
        <time>2015-01-10T18:44:57.258Z</time>
      </trkpt>
      <trkpt lat="47.31408" lon="4.95849">
        <ele>422</ele>
        <time>2015-01-10T18:44:58.274Z</time>
      </trkpt>
      <trkpt lat="47.31409" lon="4.95836">
        <ele>422</ele>
        <time>2015-01-10T18:45:08.219Z</time>
      </trkpt>
      <trkpt lat="47.31409" lon="4.95836">
        <ele>422</ele>
        <time>2015-01-10T18:45:09.225Z</time>
      </trkpt>
      <trkpt lat="47.31414" lon="4.95826">
        <ele>422</ele>
        <time>2015-01-10T18:45:20.219Z</time>
      </trkpt>
      <trkpt lat="47.31415" lon="4.95823">
        <ele>422</ele>
        <time>2015-01-10T18:45:21.235Z</time>
      </trkpt>
      <trkpt lat="47.3142" lon="4.95813">
        <ele>422</ele>
        <time>2015-01-10T18:45:28.263Z</time>
      </trkpt>
      <trkpt lat="47.3142" lon="4.95812">
        <ele>422</ele>
        <time>2015-01-10T18:45:29.247Z</time>
      </trkpt>
      <trkpt lat="47.31423" lon="4.958">
        <ele>423</ele>
        <time>2015-01-10T18:45:38.203Z</time>
      </trkpt>
      <trkpt lat="47.31424" lon="4.95799">
        <ele>423</ele>
        <time>2015-01-10T18:45:39.227Z</time>
      </trkpt>
      <trkpt lat="47.31428" lon="4.95789">
        <ele>423</ele>
        <time>2015-01-10T18:45:45.261Z</time>
      </trkpt>
      <trkpt lat="47.3143" lon="4.95788">
        <ele>423</ele>
        <time>2015-01-10T18:45:46.227Z</time>
      </trkpt>
      <trkpt lat="47.31438" lon="4.95781">
        <ele>423</ele>
        <time>2015-01-10T18:45:50.262Z</time>
      </trkpt>
      <trkpt lat="47.3144" lon="4.95781">
        <ele>423</ele>
        <time>2015-01-10T18:45:51.272Z</time>
      </trkpt>
      <trkpt lat="47.31448" lon="4.95779">
        <ele>423</ele>
        <time>2015-01-10T18:45:54.261Z</time>
      </trkpt>
      <trkpt lat="47.3145" lon="4.95779">
        <ele>423</ele>
        <time>2015-01-10T18:45:55.245Z</time>
      </trkpt>
      <trkpt lat="47.31458" lon="4.95779">
        <ele>423</ele>
        <time>2015-01-10T18:45:58.235Z</time>
      </trkpt>
      <trkpt lat="47.3146" lon="4.95778">
        <ele>423</ele>
        <time>2015-01-10T18:45:59.223Z</time>
      </trkpt>
      <trkpt lat="47.31466" lon="4.95776">
        <ele>423</ele>
        <time>2015-01-10T18:46:02.217Z</time>
      </trkpt>
      <trkpt lat="47.31473" lon="4.95778">
        <ele>423</ele>
        <time>2015-01-10T18:46:03.251Z</time>
      </trkpt>
      <trkpt lat="47.31482" lon="4.95778">
        <ele>423</ele>
        <time>2015-01-10T18:46:06.226Z</time>
      </trkpt>
      <trkpt lat="47.31484" lon="4.95778">
        <ele>423</ele>
        <time>2015-01-10T18:46:07.234Z</time>
      </trkpt>
      <trkpt lat="47.31491" lon="4.95776">
        <ele>423</ele>
        <time>2015-01-10T18:46:10.230Z</time>
      </trkpt>
      <trkpt lat="47.31494" lon="4.95777">
        <ele>423</ele>
        <time>2015-01-10T18:46:11.199Z</time>
      </trkpt>
      <trkpt lat="47.31502" lon="4.95777">
        <ele>422</ele>
        <time>2015-01-10T18:46:14.222Z</time>
      </trkpt>
      <trkpt lat="47.31504" lon="4.95777">
        <ele>422</ele>
        <time>2015-01-10T18:46:15.239Z</time>
      </trkpt>
      <trkpt lat="47.31512" lon="4.95776">
        <ele>422</ele>
        <time>2015-01-10T18:46:18.232Z</time>
      </trkpt>
      <trkpt lat="47.31515" lon="4.95776">
        <ele>422</ele>
        <time>2015-01-10T18:46:19.281Z</time>
      </trkpt>
      <trkpt lat="47.31522" lon="4.95777">
        <ele>422</ele>
        <time>2015-01-10T18:46:22.260Z</time>
      </trkpt>
      <trkpt lat="47.31524" lon="4.95777">
        <ele>422</ele>
        <time>2015-01-10T18:46:23.242Z</time>
      </trkpt>
      <trkpt lat="47.31531" lon="4.95778">
        <ele>422</ele>
        <time>2015-01-10T18:46:26.263Z</time>
      </trkpt>
      <trkpt lat="47.31534" lon="4.95778">
        <ele>422</ele>
        <time>2015-01-10T18:46:27.146Z</time>
      </trkpt>
      <trkpt lat="47.31542" lon="4.95781">
        <ele>421</ele>
        <time>2015-01-10T18:46:31.252Z</time>
      </trkpt>
      <trkpt lat="47.31544" lon="4.95781">
        <ele>421</ele>
        <time>2015-01-10T18:46:32.232Z</time>
      </trkpt>
      <trkpt lat="47.31552" lon="4.95779">
        <ele>421</ele>
        <time>2015-01-10T18:46:36.239Z</time>
      </trkpt>
      <trkpt lat="47.31559" lon="4.95779">
        <ele>421</ele>
        <time>2015-01-10T18:46:37.271Z</time>
      </trkpt>
      <trkpt lat="47.31568" lon="4.95777">
        <ele>421</ele>
        <time>2015-01-10T18:46:40.220Z</time>
      </trkpt>
      <trkpt lat="47.31571" lon="4.95776">
        <ele>421</ele>
        <time>2015-01-10T18:46:41.238Z</time>
      </trkpt>
      <trkpt lat="47.31577" lon="4.95775">
        <ele>421</ele>
        <time>2015-01-10T18:46:43.261Z</time>
      </trkpt>
      <trkpt lat="47.31585" lon="4.95774">
        <ele>420</ele>
        <time>2015-01-10T18:46:44.248Z</time>
      </trkpt>
      <trkpt lat="47.31593" lon="4.95774">
        <ele>420</ele>
        <time>2015-01-10T18:46:47.251Z</time>
      </trkpt>
      <trkpt lat="47.31596" lon="4.95774">
        <ele>420</ele>
        <time>2015-01-10T18:46:48.263Z</time>
      </trkpt>
      <trkpt lat="47.31603" lon="4.95772">
        <ele>420</ele>
        <time>2015-01-10T18:46:49.289Z</time>
      </trkpt>
      <trkpt lat="47.31605" lon="4.95771">
        <ele>420</ele>
        <time>2015-01-10T18:46:50.270Z</time>
      </trkpt>
      <trkpt lat="47.31613" lon="4.95771">
        <ele>420</ele>
        <time>2015-01-10T18:46:52.251Z</time>
      </trkpt>
      <trkpt lat="47.31616" lon="4.95771">
        <ele>420</ele>
        <time>2015-01-10T18:46:53.261Z</time>
      </trkpt>
      <trkpt lat="47.31623" lon="4.95772">
        <ele>420</ele>
        <time>2015-01-10T18:46:55.293Z</time>
      </trkpt>
      <trkpt lat="47.31626" lon="4.95771">
        <ele>420</ele>
        <time>2015-01-10T18:46:56.258Z</time>
      </trkpt>
      <trkpt lat="47.31633" lon="4.95771">
        <ele>420</ele>
        <time>2015-01-10T18:46:58.257Z</time>
      </trkpt>
      <trkpt lat="47.31635" lon="4.95771">
        <ele>420</ele>
        <time>2015-01-10T18:46:59.291Z</time>
      </trkpt>
      <trkpt lat="47.31643" lon="4.95769">
        <ele>420</ele>
        <time>2015-01-10T18:47:02.234Z</time>
      </trkpt>
      <trkpt lat="47.31645" lon="4.95769">
        <ele>420</ele>
        <time>2015-01-10T18:47:03.250Z</time>
      </trkpt>
      <trkpt lat="47.31652" lon="4.95767">
        <ele>419</ele>
        <time>2015-01-10T18:47:06.223Z</time>
      </trkpt>
      <trkpt lat="47.31654" lon="4.95767">
        <ele>419</ele>
        <time>2015-01-10T18:47:07.265Z</time>
      </trkpt>
      <trkpt lat="47.31662" lon="4.95765">
        <ele>419</ele>
        <time>2015-01-10T18:47:11.236Z</time>
      </trkpt>
      <trkpt lat="47.31664" lon="4.95764">
        <ele>419</ele>
        <time>2015-01-10T18:47:12.232Z</time>
      </trkpt>
      <trkpt lat="47.31673" lon="4.9576">
        <ele>417</ele>
        <time>2015-01-10T18:47:16.263Z</time>
      </trkpt>
      <trkpt lat="47.31675" lon="4.95759">
        <ele>417</ele>
        <time>2015-01-10T18:47:17.253Z</time>
      </trkpt>
      <trkpt lat="47.31682" lon="4.95754">
        <ele>417</ele>
        <time>2015-01-10T18:47:21.249Z</time>
      </trkpt>
      <trkpt lat="47.31684" lon="4.95752">
        <ele>417</ele>
        <time>2015-01-10T18:47:22.246Z</time>
      </trkpt>
      <trkpt lat="47.3169" lon="4.95746">
        <ele>416</ele>
        <time>2015-01-10T18:47:26.255Z</time>
      </trkpt>
      <trkpt lat="47.31692" lon="4.95744">
        <ele>416</ele>
        <time>2015-01-10T18:47:27.244Z</time>
      </trkpt>
      <trkpt lat="47.31698" lon="4.95738">
        <ele>416</ele>
        <time>2015-01-10T18:47:31.251Z</time>
      </trkpt>
      <trkpt lat="47.31699" lon="4.95737">
        <ele>415</ele>
        <time>2015-01-10T18:47:32.241Z</time>
      </trkpt>
      <trkpt lat="47.31707" lon="4.95736">
        <ele>415</ele>
        <time>2015-01-10T18:47:38.263Z</time>
      </trkpt>
      <trkpt lat="47.31708" lon="4.95738">
        <ele>415</ele>
        <time>2015-01-10T18:47:39.213Z</time>
      </trkpt>
      <trkpt lat="47.31713" lon="4.95745">
        <ele>414</ele>
        <time>2015-01-10T18:47:44.224Z</time>
      </trkpt>
      <trkpt lat="47.31714" lon="4.95747">
        <ele>414</ele>
        <time>2015-01-10T18:47:45.253Z</time>
      </trkpt>
      <trkpt lat="47.31717" lon="4.95759">
        <ele>414</ele>
        <time>2015-01-10T18:47:50.256Z</time>
      </trkpt>
      <trkpt lat="47.31717" lon="4.95761">
        <ele>414</ele>
        <time>2015-01-10T18:47:51.250Z</time>
      </trkpt>
      <trkpt lat="47.31722" lon="4.95771">
        <ele>414</ele>
        <time>2015-01-10T18:47:56.271Z</time>
      </trkpt>
      <trkpt lat="47.31722" lon="4.95773">
        <ele>414</ele>
        <time>2015-01-10T18:47:57.243Z</time>
      </trkpt>
      <trkpt lat="47.31727" lon="4.95783">
        <ele>414</ele>
        <time>2015-01-10T18:48:03.241Z</time>
      </trkpt>
      <trkpt lat="47.31729" lon="4.95785">
        <ele>414</ele>
        <time>2015-01-10T18:48:04.234Z</time>
      </trkpt>
      <trkpt lat="47.31734" lon="4.95794">
        <ele>413</ele>
        <time>2015-01-10T18:48:09.207Z</time>
      </trkpt>
      <trkpt lat="47.31735" lon="4.95796">
        <ele>413</ele>
        <time>2015-01-10T18:48:10.230Z</time>
      </trkpt>
      <trkpt lat="47.3174" lon="4.95806">
        <ele>413</ele>
        <time>2015-01-10T18:48:15.285Z</time>
      </trkpt>
      <trkpt lat="47.3174" lon="4.95808">
        <ele>413</ele>
        <time>2015-01-10T18:48:16.272Z</time>
      </trkpt>
      <trkpt lat="47.31742" lon="4.9582">
        <ele>412</ele>
        <time>2015-01-10T18:48:21.279Z</time>
      </trkpt>
      <trkpt lat="47.31742" lon="4.95822">
        <ele>412</ele>
        <time>2015-01-10T18:48:22.261Z</time>
      </trkpt>
      <trkpt lat="47.31744" lon="4.95834">
        <ele>411</ele>
        <time>2015-01-10T18:48:27.246Z</time>
      </trkpt>
      <trkpt lat="47.31744" lon="4.95836">
        <ele>411</ele>
        <time>2015-01-10T18:48:28.265Z</time>
      </trkpt>
      <trkpt lat="47.31747" lon="4.95848">
        <ele>412</ele>
        <time>2015-01-10T18:48:33.236Z</time>
      </trkpt>
      <trkpt lat="47.31747" lon="4.9585">
        <ele>412</ele>
        <time>2015-01-10T18:48:34.233Z</time>
      </trkpt>
      <trkpt lat="47.31753" lon="4.95859">
        <ele>407</ele>
        <time>2015-01-10T18:48:40.234Z</time>
      </trkpt>
      <trkpt lat="47.31755" lon="4.9586">
        <ele>406</ele>
        <time>2015-01-10T18:48:41.259Z</time>
      </trkpt>
      <trkpt lat="47.31762" lon="4.95865">
        <ele>406</ele>
        <time>2015-01-10T18:48:45.264Z</time>
      </trkpt>
      <trkpt lat="47.31764" lon="4.95866">
        <ele>406</ele>
        <time>2015-01-10T18:48:46.248Z</time>
      </trkpt>
      <trkpt lat="47.31771" lon="4.95872">
        <ele>405</ele>
        <time>2015-01-10T18:48:50.240Z</time>
      </trkpt>
      <trkpt lat="47.31773" lon="4.95873">
        <ele>405</ele>
        <time>2015-01-10T18:48:51.252Z</time>
      </trkpt>
      <trkpt lat="47.3178" lon="4.95877">
        <ele>405</ele>
        <time>2015-01-10T18:48:55.264Z</time>
      </trkpt>
      <trkpt lat="47.31782" lon="4.95878">
        <ele>405</ele>
        <time>2015-01-10T18:48:56.268Z</time>
      </trkpt>
      <trkpt lat="47.3179" lon="4.95882">
        <ele>404</ele>
        <time>2015-01-10T18:49:00.245Z</time>
      </trkpt>
      <trkpt lat="47.31792" lon="4.95883">
        <ele>404</ele>
        <time>2015-01-10T18:49:01.249Z</time>
      </trkpt>
      <trkpt lat="47.318" lon="4.95886">
        <ele>403</ele>
        <time>2015-01-10T18:49:05.143Z</time>
      </trkpt>
      <trkpt lat="47.31803" lon="4.95887">
        <ele>403</ele>
        <time>2015-01-10T18:49:06.225Z</time>
      </trkpt>
      <trkpt lat="47.31809" lon="4.9589">
        <ele>403</ele>
        <time>2015-01-10T18:49:09.134Z</time>
      </trkpt>
      <trkpt lat="47.31811" lon="4.95891">
        <ele>402</ele>
        <time>2015-01-10T18:49:10.235Z</time>
      </trkpt>
      <trkpt lat="47.31818" lon="4.95894">
        <ele>402</ele>
        <time>2015-01-10T18:49:13.134Z</time>
      </trkpt>
      <trkpt lat="47.3182" lon="4.95895">
        <ele>402</ele>
        <time>2015-01-10T18:49:14.147Z</time>
      </trkpt>
      <trkpt lat="47.31828" lon="4.95899">
        <ele>401</ele>
        <time>2015-01-10T18:49:18.155Z</time>
      </trkpt>
      <trkpt lat="47.3183" lon="4.95899">
        <ele>401</ele>
        <time>2015-01-10T18:49:19.177Z</time>
      </trkpt>
      <trkpt lat="47.31837" lon="4.95901">
        <ele>396</ele>
        <time>2015-01-10T18:49:22.255Z</time>
      </trkpt>
      <trkpt lat="47.31839" lon="4.95902">
        <ele>396</ele>
        <time>2015-01-10T18:49:23.154Z</time>
      </trkpt>
      <trkpt lat="47.31846" lon="4.95905">
        <ele>395</ele>
        <time>2015-01-10T18:49:26.156Z</time>
      </trkpt>
      <trkpt lat="47.31849" lon="4.95906">
        <ele>395</ele>
        <time>2015-01-10T18:49:27.174Z</time>
      </trkpt>
      <trkpt lat="47.31856" lon="4.95909">
        <ele>395</ele>
        <time>2015-01-10T18:49:30.151Z</time>
      </trkpt>
      <trkpt lat="47.31858" lon="4.95909">
        <ele>394</ele>
        <time>2015-01-10T18:49:31.147Z</time>
      </trkpt>
      <trkpt lat="47.31867" lon="4.95912">
        <ele>393</ele>
        <time>2015-01-10T18:49:35.144Z</time>
      </trkpt>
      <trkpt lat="47.31869" lon="4.95913">
        <ele>393</ele>
        <time>2015-01-10T18:49:36.238Z</time>
      </trkpt>
      <trkpt lat="47.31876" lon="4.95915">
        <ele>393</ele>
        <time>2015-01-10T18:49:40.304Z</time>
      </trkpt>
      <trkpt lat="47.31878" lon="4.95916">
        <ele>392</ele>
        <time>2015-01-10T18:49:41.239Z</time>
      </trkpt>
      <trkpt lat="47.31886" lon="4.95918">
        <ele>391</ele>
        <time>2015-01-10T18:49:45.176Z</time>
      </trkpt>
      <trkpt lat="47.31888" lon="4.95918">
        <ele>391</ele>
        <time>2015-01-10T18:49:46.168Z</time>
      </trkpt>
      <trkpt lat="47.31896" lon="4.9592">
        <ele>390</ele>
        <time>2015-01-10T18:49:51.153Z</time>
      </trkpt>
      <trkpt lat="47.31897" lon="4.95921">
        <ele>390</ele>
        <time>2015-01-10T18:49:52.247Z</time>
      </trkpt>
      <trkpt lat="47.31904" lon="4.95927">
        <ele>389</ele>
        <time>2015-01-10T18:49:58.180Z</time>
      </trkpt>
      <trkpt lat="47.31904" lon="4.95929">
        <ele>389</ele>
        <time>2015-01-10T18:49:59.151Z</time>
      </trkpt>
      <trkpt lat="47.31903" lon="4.95941">
        <ele>390</ele>
        <time>2015-01-10T18:50:13.111Z</time>
      </trkpt>
      <trkpt lat="47.31902" lon="4.95942">
        <ele>390</ele>
        <time>2015-01-10T18:50:14.127Z</time>
      </trkpt>
      <trkpt lat="47.31898" lon="4.95953">
        <ele>390</ele>
        <time>2015-01-10T18:50:23.241Z</time>
      </trkpt>
      <trkpt lat="47.31898" lon="4.95955">
        <ele>390</ele>
        <time>2015-01-10T18:50:24.250Z</time>
      </trkpt>
      <trkpt lat="47.31899" lon="4.95966">
        <ele>390</ele>
        <time>2015-01-10T18:50:32.265Z</time>
      </trkpt>
      <trkpt lat="47.31899" lon="4.95969">
        <ele>390</ele>
        <time>2015-01-10T18:50:33.209Z</time>
      </trkpt>
      <trkpt lat="47.31897" lon="4.95982">
        <ele>389</ele>
        <time>2015-01-10T18:50:46.151Z</time>
      </trkpt>
      <trkpt lat="47.31897" lon="4.95983">
        <ele>389</ele>
        <time>2015-01-10T18:50:47.244Z</time>
      </trkpt>
      <trkpt lat="47.31901" lon="4.9599">
        <ele>388</ele>
        <time>2015-01-10T18:50:56.156Z</time>
      </trkpt>
      <trkpt lat="47.31904" lon="4.95994">
        <ele>387</ele>
        <time>2015-01-10T18:50:57.110Z</time>
      </trkpt>
      <trkpt lat="47.31906" lon="4.96005">
        <ele>386</ele>
        <time>2015-01-10T18:51:03.229Z</time>
      </trkpt>
      <trkpt lat="47.31907" lon="4.96007">
        <ele>386</ele>
        <time>2015-01-10T18:51:04.235Z</time>
      </trkpt>
      <trkpt lat="47.31908" lon="4.9602">
        <ele>387</ele>
        <time>2015-01-10T18:51:10.231Z</time>
      </trkpt>
      <trkpt lat="47.31908" lon="4.96022">
        <ele>387</ele>
        <time>2015-01-10T18:51:11.208Z</time>
      </trkpt>
      <trkpt lat="47.31912" lon="4.96032">
        <ele>387</ele>
        <time>2015-01-10T18:51:18.247Z</time>
      </trkpt>
      <trkpt lat="47.31913" lon="4.96033">
        <ele>387</ele>
        <time>2015-01-10T18:51:19.258Z</time>
      </trkpt>
      <trkpt lat="47.31915" lon="4.96034">
        <ele>387</ele>
        <time>2015-01-10T18:51:21.280Z</time>
      </trkpt>
      <trkpt lat="47.31915" lon="4.96035">
        <ele>387</ele>
        <time>2015-01-10T18:51:22.246Z</time>
      </trkpt>
      <trkpt lat="47.31915" lon="4.96035">
        <ele>387</ele>
        <time>2015-01-10T18:51:26.247Z</time>
      </trkpt>
      <trkpt lat="47.31915" lon="4.96035">
        <ele>387</ele>
        <time>2015-01-10T18:51:27.256Z</time>
      </trkpt>
      <trkpt lat="47.31915" lon="4.96048">
        <ele>386</ele>
        <time>2015-01-10T18:51:32.212Z</time>
      </trkpt>
      <trkpt lat="47.31915" lon="4.96049">
        <ele>386</ele>
        <time>2015-01-10T18:51:33.227Z</time>
      </trkpt>
      <trkpt lat="47.31913" lon="4.96061">
        <ele>385</ele>
        <time>2015-01-10T18:51:43.217Z</time>
      </trkpt>
      <trkpt lat="47.31913" lon="4.96062">
        <ele>385</ele>
        <time>2015-01-10T18:51:44.246Z</time>
      </trkpt>
      <trkpt lat="47.31913" lon="4.96072">
        <ele>384</ele>
        <time>2015-01-10T18:51:51.272Z</time>
      </trkpt>
      <trkpt lat="47.31913" lon="4.96072">
        <ele>384</ele>
        <time>2015-01-10T18:51:52.258Z</time>
      </trkpt>
      <trkpt lat="47.31913" lon="4.96072">
        <ele>384</ele>
        <time>2015-01-10T18:51:54.247Z</time>
      </trkpt>
      <trkpt lat="47.31913" lon="4.96072">
        <ele>384</ele>
        <time>2015-01-10T18:51:55.247Z</time>
      </trkpt>
      <trkpt lat="47.31912" lon="4.96083">
        <ele>382</ele>
        <time>2015-01-10T18:51:59.251Z</time>
      </trkpt>
      <trkpt lat="47.31911" lon="4.96085">
        <ele>382</ele>
        <time>2015-01-10T18:52:00.226Z</time>
      </trkpt>
      <trkpt lat="47.31907" lon="4.96096">
        <ele>383</ele>
        <time>2015-01-10T18:52:09.264Z</time>
      </trkpt>
      <trkpt lat="47.31906" lon="4.96098">
        <ele>383</ele>
        <time>2015-01-10T18:52:10.225Z</time>
      </trkpt>
      <trkpt lat="47.31903" lon="4.9611">
        <ele>384</ele>
        <time>2015-01-10T18:52:20.169Z</time>
      </trkpt>
      <trkpt lat="47.31903" lon="4.96111">
        <ele>384</ele>
        <time>2015-01-10T18:52:21.147Z</time>
      </trkpt>
      <trkpt lat="47.31903" lon="4.96124">
        <ele>384</ele>
        <time>2015-01-10T18:52:31.200Z</time>
      </trkpt>
      <trkpt lat="47.31903" lon="4.96125">
        <ele>384</ele>
        <time>2015-01-10T18:52:32.221Z</time>
      </trkpt>
      <trkpt lat="47.31904" lon="4.96138">
        <ele>384</ele>
        <time>2015-01-10T18:52:41.223Z</time>
      </trkpt>
      <trkpt lat="47.31905" lon="4.9614">
        <ele>383</ele>
        <time>2015-01-10T18:52:42.227Z</time>
      </trkpt>
      <trkpt lat="47.31909" lon="4.96144">
        <ele>383</ele>
        <time>2015-01-10T18:52:50.228Z</time>
      </trkpt>
      <trkpt lat="47.31909" lon="4.96144">
        <ele>383</ele>
        <time>2015-01-10T18:52:51.247Z</time>
      </trkpt>
      <trkpt lat="47.31909" lon="4.96144">
        <ele>383</ele>
        <time>2015-01-10T18:52:52.246Z</time>
      </trkpt>
      <trkpt lat="47.31909" lon="4.96144">
        <ele>383</ele>
        <time>2015-01-10T18:52:53.246Z</time>
      </trkpt>
      <trkpt lat="47.31908" lon="4.96157">
        <ele>382</ele>
        <time>2015-01-10T18:53:01.122Z</time>
      </trkpt>
      <trkpt lat="47.31908" lon="4.96158">
        <ele>381</ele>
        <time>2015-01-10T18:53:02.138Z</time>
      </trkpt>
      <trkpt lat="47.31911" lon="4.9617">
        <ele>380</ele>
        <time>2015-01-10T18:53:12.218Z</time>
      </trkpt>
      <trkpt lat="47.31911" lon="4.96172">
        <ele>380</ele>
        <time>2015-01-10T18:53:13.229Z</time>
      </trkpt>
      <trkpt lat="47.31911" lon="4.96185">
        <ele>381</ele>
        <time>2015-01-10T18:53:22.230Z</time>
      </trkpt>
      <trkpt lat="47.31911" lon="4.96186">
        <ele>381</ele>
        <time>2015-01-10T18:53:23.235Z</time>
      </trkpt>
      <trkpt lat="47.31912" lon="4.96198">
        <ele>381</ele>
        <time>2015-01-10T18:53:32.188Z</time>
      </trkpt>
      <trkpt lat="47.31913" lon="4.962">
        <ele>381</ele>
        <time>2015-01-10T18:53:33.194Z</time>
      </trkpt>
      <trkpt lat="47.31909" lon="4.9621">
        <ele>381</ele>
        <time>2015-01-10T18:53:45.235Z</time>
      </trkpt>
      <trkpt lat="47.31908" lon="4.96212">
        <ele>381</ele>
        <time>2015-01-10T18:53:46.234Z</time>
      </trkpt>
      <trkpt lat="47.31906" lon="4.96224">
        <ele>380</ele>
        <time>2015-01-10T18:53:55.245Z</time>
      </trkpt>
      <trkpt lat="47.31906" lon="4.96225">
        <ele>380</ele>
        <time>2015-01-10T18:53:56.203Z</time>
      </trkpt>
      <trkpt lat="47.31902" lon="4.96236">
        <ele>379</ele>
        <time>2015-01-10T18:54:08.218Z</time>
      </trkpt>
      <trkpt lat="47.31901" lon="4.96237">
        <ele>379</ele>
        <time>2015-01-10T18:54:09.207Z</time>
      </trkpt>
      <trkpt lat="47.31894" lon="4.96243">
        <ele>380</ele>
        <time>2015-01-10T18:54:19.234Z</time>
      </trkpt>
      <trkpt lat="47.31892" lon="4.96243">
        <ele>380</ele>
        <time>2015-01-10T18:54:20.199Z</time>
      </trkpt>
      <trkpt lat="47.31884" lon="4.96247">
        <ele>381</ele>
        <time>2015-01-10T18:54:26.245Z</time>
      </trkpt>
      <trkpt lat="47.31883" lon="4.96248">
        <ele>381</ele>
        <time>2015-01-10T18:54:27.236Z</time>
      </trkpt>
      <trkpt lat="47.31879" lon="4.96259">
        <ele>379</ele>
        <time>2015-01-10T18:54:43.212Z</time>
      </trkpt>
      <trkpt lat="47.31878" lon="4.9626">
        <ele>379</ele>
        <time>2015-01-10T18:54:44.219Z</time>
      </trkpt>
      <trkpt lat="47.31877" lon="4.96272">
        <ele>379</ele>
        <time>2015-01-10T18:54:52.222Z</time>
      </trkpt>
      <trkpt lat="47.31877" lon="4.96273">
        <ele>378</ele>
        <time>2015-01-10T18:54:53.248Z</time>
      </trkpt>
      <trkpt lat="47.31875" lon="4.96284">
        <ele>378</ele>
        <time>2015-01-10T18:54:59.236Z</time>
      </trkpt>
      <trkpt lat="47.31947" lon="4.96744">
        <ele>342</ele>
        <time>2015-01-10T18:55:40.219Z</time>
      </trkpt>
      <trkpt lat="47.3195" lon="4.96747">
        <ele>342</ele>
        <time>2015-01-10T18:55:41.238Z</time>
      </trkpt>
      <trkpt lat="47.31955" lon="4.96751">
        <ele>341</ele>
        <time>2015-01-10T18:55:42.219Z</time>
      </trkpt>
      <trkpt lat="47.31959" lon="4.96761">
        <ele>340</ele>
        <time>2015-01-10T18:55:46.219Z</time>
      </trkpt>
      <trkpt lat="47.3196" lon="4.96764">
        <ele>340</ele>
        <time>2015-01-10T18:55:47.199Z</time>
      </trkpt>
      <trkpt lat="47.3196" lon="4.96775">
        <ele>340</ele>
        <time>2015-01-10T18:55:52.215Z</time>
      </trkpt>
      <trkpt lat="47.31961" lon="4.96777">
        <ele>340</ele>
        <time>2015-01-10T18:55:53.218Z</time>
      </trkpt>
      <trkpt lat="47.31965" lon="4.96788">
        <ele>340</ele>
        <time>2015-01-10T18:56:00.235Z</time>
      </trkpt>
      <trkpt lat="47.31965" lon="4.96789">
        <ele>340</ele>
        <time>2015-01-10T18:56:01.239Z</time>
      </trkpt>
      <trkpt lat="47.31965" lon="4.96802">
        <ele>340</ele>
        <time>2015-01-10T18:56:06.217Z</time>
      </trkpt>
      <trkpt lat="47.31965" lon="4.96804">
        <ele>340</ele>
        <time>2015-01-10T18:56:07.145Z</time>
      </trkpt>
      <trkpt lat="47.31965" lon="4.96817">
        <ele>339</ele>
        <time>2015-01-10T18:56:13.215Z</time>
      </trkpt>
      <trkpt lat="47.31965" lon="4.96819">
        <ele>339</ele>
        <time>2015-01-10T18:56:14.211Z</time>
      </trkpt>
      <trkpt lat="47.31963" lon="4.96832">
        <ele>339</ele>
        <time>2015-01-10T18:56:19.226Z</time>
      </trkpt>
      <trkpt lat="47.31963" lon="4.96834">
        <ele>338</ele>
        <time>2015-01-10T18:56:20.196Z</time>
      </trkpt>
      <trkpt lat="47.31962" lon="4.96845">
        <ele>338</ele>
        <time>2015-01-10T18:56:25.117Z</time>
      </trkpt>
      <trkpt lat="47.31962" lon="4.96848">
        <ele>337</ele>
        <time>2015-01-10T18:56:26.141Z</time>
      </trkpt>
      <trkpt lat="47.31966" lon="4.9686">
        <ele>337</ele>
        <time>2015-01-10T18:56:31.230Z</time>
      </trkpt>
      <trkpt lat="47.31967" lon="4.96862">
        <ele>337</ele>
        <time>2015-01-10T18:56:32.231Z</time>
      </trkpt>
      <trkpt lat="47.31972" lon="4.96872">
        <ele>337</ele>
        <time>2015-01-10T18:56:36.212Z</time>
      </trkpt>
      <trkpt lat="47.31972" lon="4.96875">
        <ele>337</ele>
        <time>2015-01-10T18:56:37.239Z</time>
      </trkpt>
      <trkpt lat="47.31976" lon="4.96885">
        <ele>336</ele>
        <time>2015-01-10T18:56:41.140Z</time>
      </trkpt>
      <trkpt lat="47.31977" lon="4.96887">
        <ele>336</ele>
        <time>2015-01-10T18:56:42.130Z</time>
      </trkpt>
      <trkpt lat="47.3198" lon="4.96898">
        <ele>335</ele>
        <time>2015-01-10T18:56:46.237Z</time>
      </trkpt>
      <trkpt lat="47.31981" lon="4.96901">
        <ele>335</ele>
        <time>2015-01-10T18:56:47.235Z</time>
      </trkpt>
      <trkpt lat="47.31984" lon="4.96913">
        <ele>334</ele>
        <time>2015-01-10T18:56:52.141Z</time>
      </trkpt>
      <trkpt lat="47.31984" lon="4.96915">
        <ele>334</ele>
        <time>2015-01-10T18:56:53.143Z</time>
      </trkpt>
      <trkpt lat="47.31985" lon="4.96927">
        <ele>333</ele>
        <time>2015-01-10T18:56:58.136Z</time>
      </trkpt>
      <trkpt lat="47.31986" lon="4.96929">
        <ele>333</ele>
        <time>2015-01-10T18:56:59.220Z</time>
      </trkpt>
      <trkpt lat="47.3199" lon="4.9694">
        <ele>333</ele>
        <time>2015-01-10T18:57:06.126Z</time>
      </trkpt>
      <trkpt lat="47.31991" lon="4.96942">
        <ele>332</ele>
        <time>2015-01-10T18:57:07.130Z</time>
      </trkpt>
      <trkpt lat="47.31993" lon="4.96954">
        <ele>332</ele>
        <time>2015-01-10T18:57:12.123Z</time>
      </trkpt>
      <trkpt lat="47.31994" lon="4.96957">
        <ele>332</ele>
        <time>2015-01-10T18:57:13.205Z</time>
      </trkpt>
      <trkpt lat="47.31998" lon="4.96967">
        <ele>332</ele>
        <time>2015-01-10T18:57:18.209Z</time>
      </trkpt>
      <trkpt lat="47.31999" lon="4.96969">
        <ele>331</ele>
        <time>2015-01-10T18:57:19.138Z</time>
      </trkpt>
      <trkpt lat="47.32" lon="4.96982">
        <ele>332</ele>
        <time>2015-01-10T18:57:24.131Z</time>
      </trkpt>
      <trkpt lat="47.32001" lon="4.96984">
        <ele>332</ele>
        <time>2015-01-10T18:57:25.130Z</time>
      </trkpt>
      <trkpt lat="47.32" lon="4.96996">
        <ele>328</ele>
        <time>2015-01-10T18:57:30.222Z</time>
      </trkpt>
      <trkpt lat="47.32" lon="4.96998">
        <ele>327</ele>
        <time>2015-01-10T18:57:31.239Z</time>
      </trkpt>
      <trkpt lat="47.32002" lon="4.9701">
        <ele>328</ele>
        <time>2015-01-10T18:57:37.172Z</time>
      </trkpt>
      <trkpt lat="47.32003" lon="4.97012">
        <ele>329</ele>
        <time>2015-01-10T18:57:38.139Z</time>
      </trkpt>
      <trkpt lat="47.32003" lon="4.97023">
        <ele>330</ele>
        <time>2015-01-10T18:57:44.222Z</time>
      </trkpt>
      <trkpt lat="47.32003" lon="4.97025">
        <ele>330</ele>
        <time>2015-01-10T18:57:45.211Z</time>
      </trkpt>
      <trkpt lat="47.32002" lon="4.97036">
        <ele>330</ele>
        <time>2015-01-10T18:57:50.231Z</time>
      </trkpt>
      <trkpt lat="47.32001" lon="4.97038">
        <ele>330</ele>
        <time>2015-01-10T18:57:51.231Z</time>
      </trkpt>
      <trkpt lat="47.32002" lon="4.97051">
        <ele>330</ele>
        <time>2015-01-10T18:57:57.140Z</time>
      </trkpt>
      <trkpt lat="47.32003" lon="4.97053">
        <ele>330</ele>
        <time>2015-01-10T18:57:58.235Z</time>
      </trkpt>
      <trkpt lat="47.32005" lon="4.97065">
        <ele>328</ele>
        <time>2015-01-10T18:58:04.221Z</time>
      </trkpt>
      <trkpt lat="47.32005" lon="4.97067">
        <ele>328</ele>
        <time>2015-01-10T18:58:05.130Z</time>
      </trkpt>
      <trkpt lat="47.32008" lon="4.97078">
        <ele>326</ele>
        <time>2015-01-10T18:58:11.221Z</time>
      </trkpt>
      <trkpt lat="47.32007" lon="4.9708">
        <ele>325</ele>
        <time>2015-01-10T18:58:12.138Z</time>
      </trkpt>
      <trkpt lat="47.32006" lon="4.97091">
        <ele>325</ele>
        <time>2015-01-10T18:58:18.141Z</time>
      </trkpt>
      <trkpt lat="47.32005" lon="4.97093">
        <ele>325</ele>
        <time>2015-01-10T18:58:19.226Z</time>
      </trkpt>
      <trkpt lat="47.32008" lon="4.97105">
        <ele>327</ele>
        <time>2015-01-10T18:58:26.143Z</time>
      </trkpt>
      <trkpt lat="47.32009" lon="4.97106">
        <ele>327</ele>
        <time>2015-01-10T18:58:27.111Z</time>
      </trkpt>
      <trkpt lat="47.32006" lon="4.97119">
        <ele>327</ele>
        <time>2015-01-10T18:58:34.139Z</time>
      </trkpt>
      <trkpt lat="47.32006" lon="4.97121">
        <ele>327</ele>
        <time>2015-01-10T18:58:35.130Z</time>
      </trkpt>
      <trkpt lat="47.32006" lon="4.97133">
        <ele>327</ele>
        <time>2015-01-10T18:58:42.133Z</time>
      </trkpt>
      <trkpt lat="47.32006" lon="4.97135">
        <ele>327</ele>
        <time>2015-01-10T18:58:43.121Z</time>
      </trkpt>
      <trkpt lat="47.3201" lon="4.97147">
        <ele>326</ele>
        <time>2015-01-10T18:58:50.148Z</time>
      </trkpt>
      <trkpt lat="47.3201" lon="4.97149">
        <ele>326</ele>
        <time>2015-01-10T18:58:51.120Z</time>
      </trkpt>
      <trkpt lat="47.3201" lon="4.97161">
        <ele>325</ele>
        <time>2015-01-10T18:58:58.125Z</time>
      </trkpt>
      <trkpt lat="47.3201" lon="4.97163">
        <ele>325</ele>
        <time>2015-01-10T18:58:59.230Z</time>
      </trkpt>
      <trkpt lat="47.32009" lon="4.97175">
        <ele>324</ele>
        <time>2015-01-10T18:59:06.140Z</time>
      </trkpt>
      <trkpt lat="47.3201" lon="4.97177">
        <ele>325</ele>
        <time>2015-01-10T18:59:07.137Z</time>
      </trkpt>
      <trkpt lat="47.32008" lon="4.97189">
        <ele>325</ele>
        <time>2015-01-10T18:59:13.134Z</time>
      </trkpt>
      <trkpt lat="47.32007" lon="4.97192">
        <ele>325</ele>
        <time>2015-01-10T18:59:14.236Z</time>
      </trkpt>
      <trkpt lat="47.32002" lon="4.97202">
        <ele>325</ele>
        <time>2015-01-10T18:59:20.229Z</time>
      </trkpt>
      <trkpt lat="47.32001" lon="4.97204">
        <ele>325</ele>
        <time>2015-01-10T18:59:21.220Z</time>
      </trkpt>
      <trkpt lat="47.32" lon="4.97206">
        <ele>325</ele>
        <time>2015-01-10T18:59:27.219Z</time>
      </trkpt>
      <trkpt lat="47.32" lon="4.97206">
        <ele>325</ele>
        <time>2015-01-10T18:59:28.220Z</time>
      </trkpt>
      <trkpt lat="47.32" lon="4.97206">
        <ele>325</ele>
        <time>2015-01-10T18:59:32.212Z</time>
      </trkpt>
      <trkpt lat="47.32" lon="4.97206">
        <ele>325</ele>
        <time>2015-01-10T18:59:33.214Z</time>
      </trkpt>
      <trkpt lat="47.32" lon="4.97219">
        <ele>326</ele>
        <time>2015-01-10T18:59:37.234Z</time>
      </trkpt>
      <trkpt lat="47.32" lon="4.9722">
        <ele>326</ele>
        <time>2015-01-10T18:59:38.221Z</time>
      </trkpt>
      <trkpt lat="47.32006" lon="4.97229">
        <ele>325</ele>
        <time>2015-01-10T18:59:50.239Z</time>
      </trkpt>
      <trkpt lat="47.32006" lon="4.9723">
        <ele>325</ele>
        <time>2015-01-10T18:59:51.222Z</time>
      </trkpt>
      <trkpt lat="47.32006" lon="4.9723">
        <ele>325</ele>
        <time>2015-01-10T18:59:53.126Z</time>
      </trkpt>
      <trkpt lat="47.32006" lon="4.9723">
        <ele>325</ele>
        <time>2015-01-10T18:59:54.122Z</time>
      </trkpt>
      <trkpt lat="47.32006" lon="4.9723">
        <ele>325</ele>
        <time>2015-01-10T18:59:58.198Z</time>
      </trkpt>
      <trkpt lat="47.32008" lon="4.97235">
        <ele>324</ele>
        <time>2015-01-10T18:59:59.221Z</time>
      </trkpt>
      <trkpt lat="47.32009" lon="4.97234">
        <ele>324</ele>
        <time>2015-01-10T19:00:00.225Z</time>
      </trkpt>
      <trkpt lat="47.32009" lon="4.97234">
        <ele>324</ele>
        <time>2015-01-10T19:00:01.197Z</time>
      </trkpt>
      <trkpt lat="47.32009" lon="4.97234">
        <ele>324</ele>
        <time>2015-01-10T19:00:06.103Z</time>
      </trkpt>
      <trkpt lat="47.3201" lon="4.97241">
        <ele>324</ele>
        <time>2015-01-10T19:00:07.211Z</time>
      </trkpt>
      <trkpt lat="47.32011" lon="4.97253">
        <ele>323</ele>
        <time>2015-01-10T19:00:14.213Z</time>
      </trkpt>
      <trkpt lat="47.3201" lon="4.97254">
        <ele>323</ele>
        <time>2015-01-10T19:00:15.216Z</time>
      </trkpt>
      <trkpt lat="47.32007" lon="4.97266">
        <ele>323</ele>
        <time>2015-01-10T19:00:23.118Z</time>
      </trkpt>
      <trkpt lat="47.32007" lon="4.97267">
        <ele>323</ele>
        <time>2015-01-10T19:00:24.130Z</time>
      </trkpt>
      <trkpt lat="47.32008" lon="4.97274">
        <ele>324</ele>
        <time>2015-01-10T19:00:32.259Z</time>
      </trkpt>
      <trkpt lat="47.32012" lon="4.97279">
        <ele>324</ele>
        <time>2015-01-10T19:00:33.217Z</time>
      </trkpt>
      <trkpt lat="47.32016" lon="4.97287">
        <ele>324</ele>
        <time>2015-01-10T19:00:40.121Z</time>
      </trkpt>
      <trkpt lat="47.32016" lon="4.97287">
        <ele>324</ele>
        <time>2015-01-10T19:00:41.123Z</time>
      </trkpt>
      <trkpt lat="47.32021" lon="4.9729">
        <ele>324</ele>
        <time>2015-01-10T19:01:21.153Z</time>
      </trkpt>
      <trkpt lat="47.32024" lon="4.97295">
        <ele>324</ele>
        <time>2015-01-10T19:01:22.143Z</time>
      </trkpt>
      <trkpt lat="47.3203" lon="4.97302">
        <ele>325</ele>
        <time>2015-01-10T19:01:28.129Z</time>
      </trkpt>
      <trkpt lat="47.32031" lon="4.97304">
        <ele>325</ele>
        <time>2015-01-10T19:01:29.131Z</time>
      </trkpt>
      <trkpt lat="47.32032" lon="4.97305">
        <ele>325</ele>
        <time>2015-01-10T19:01:31.098Z</time>
      </trkpt>
      <trkpt lat="47.32032" lon="4.97305">
        <ele>325</ele>
        <time>2015-01-10T19:01:32.131Z</time>
      </trkpt>
      <trkpt lat="47.32032" lon="4.97305">
        <ele>325</ele>
        <time>2015-01-10T19:01:33.131Z</time>
      </trkpt>
      <trkpt lat="47.32034" lon="4.97311">
        <ele>325</ele>
        <time>2015-01-10T19:01:34.130Z</time>
      </trkpt>
      <trkpt lat="47.32035" lon="4.97316">
        <ele>325</ele>
        <time>2015-01-10T19:01:38.131Z</time>
      </trkpt>
      <trkpt lat="47.32035" lon="4.97316">
        <ele>325</ele>
        <time>2015-01-10T19:01:39.134Z</time>
      </trkpt>
      <trkpt lat="47.32035" lon="4.97316">
        <ele>325</ele>
        <time>2015-01-10T19:01:40.121Z</time>
      </trkpt>
      <trkpt lat="47.32039" lon="4.97326">
        <ele>325</ele>
        <time>2015-01-10T19:01:49.127Z</time>
      </trkpt>
      <trkpt lat="47.32039" lon="4.97326">
        <ele>325</ele>
        <time>2015-01-10T19:01:50.142Z</time>
      </trkpt>
      <trkpt lat="47.32041" lon="4.97333">
        <ele>325</ele>
        <time>2015-01-10T19:01:51.138Z</time>
      </trkpt>
      <trkpt lat="47.32042" lon="4.97339">
        <ele>324</ele>
        <time>2015-01-10T19:01:57.140Z</time>
      </trkpt>
      <trkpt lat="47.32042" lon="4.97339">
        <ele>324</ele>
        <time>2015-01-10T19:01:58.142Z</time>
      </trkpt>
      <trkpt lat="47.32042" lon="4.97339">
        <ele>324</ele>
        <time>2015-01-10T19:01:59.122Z</time>
      </trkpt>
      <trkpt lat="47.32041" lon="4.97347">
        <ele>323</ele>
        <time>2015-01-10T19:02:00.126Z</time>
      </trkpt>
      <trkpt lat="47.3204" lon="4.9735">
        <ele>323</ele>
        <time>2015-01-10T19:02:02.136Z</time>
      </trkpt>
      <trkpt lat="47.3204" lon="4.97352">
        <ele>323</ele>
        <time>2015-01-10T19:02:03.125Z</time>
      </trkpt>
      <trkpt lat="47.3204" lon="4.97352">
        <ele>323</ele>
        <time>2015-01-10T19:02:04.159Z</time>
      </trkpt>
      <trkpt lat="47.3204" lon="4.97352">
        <ele>323</ele>
        <time>2015-01-10T19:02:05.140Z</time>
      </trkpt>
      <trkpt lat="47.3204" lon="4.97352">
        <ele>323</ele>
        <time>2015-01-10T19:02:07.156Z</time>
      </trkpt>
      <trkpt lat="47.32045" lon="4.97353">
        <ele>324</ele>
        <time>2015-01-10T19:02:08.167Z</time>
      </trkpt>
      <trkpt lat="47.32046" lon="4.97353">
        <ele>324</ele>
        <time>2015-01-10T19:02:13.132Z</time>
      </trkpt>
      <trkpt lat="47.32046" lon="4.97353">
        <ele>324</ele>
        <time>2015-01-10T19:02:14.158Z</time>
      </trkpt>
      <trkpt lat="47.3205" lon="4.97364">
        <ele>324</ele>
        <time>2015-01-10T19:02:21.138Z</time>
      </trkpt>
      <trkpt lat="47.3205" lon="4.97365">
        <ele>324</ele>
        <time>2015-01-10T19:02:22.106Z</time>
      </trkpt>
      <trkpt lat="47.32052" lon="4.97378">
        <ele>324</ele>
        <time>2015-01-10T19:02:30.117Z</time>
      </trkpt>
      <trkpt lat="47.32052" lon="4.97379">
        <ele>324</ele>
        <time>2015-01-10T19:02:31.120Z</time>
      </trkpt>
      <trkpt lat="47.32052" lon="4.97391">
        <ele>324</ele>
        <time>2015-01-10T19:02:39.118Z</time>
      </trkpt>
      <trkpt lat="47.32053" lon="4.97393">
        <ele>324</ele>
        <time>2015-01-10T19:02:40.121Z</time>
      </trkpt>
      <trkpt lat="47.32055" lon="4.97402">
        <ele>324</ele>
        <time>2015-01-10T19:02:47.121Z</time>
      </trkpt>
      <trkpt lat="47.32055" lon="4.97402">
        <ele>324</ele>
        <time>2015-01-10T19:02:48.107Z</time>
      </trkpt>
      <trkpt lat="47.32055" lon="4.97402">
        <ele>324</ele>
        <time>2015-01-10T19:02:49.105Z</time>
      </trkpt>
      <trkpt lat="47.32055" lon="4.97402">
        <ele>324</ele>
        <time>2015-01-10T19:02:50.129Z</time>
      </trkpt>
      <trkpt lat="47.32055" lon="4.97412">
        <ele>325</ele>
        <time>2015-01-10T19:02:55.132Z</time>
      </trkpt>
      <trkpt lat="47.32055" lon="4.97416">
        <ele>325</ele>
        <time>2015-01-10T19:02:56.131Z</time>
      </trkpt>
      <trkpt lat="47.32061" lon="4.97425">
        <ele>326</ele>
        <time>2015-01-10T19:03:04.124Z</time>
      </trkpt>
      <trkpt lat="47.32063" lon="4.97427">
        <ele>326</ele>
        <time>2015-01-10T19:03:05.124Z</time>
      </trkpt>
      <trkpt lat="47.32064" lon="4.97439">
        <ele>326</ele>
        <time>2015-01-10T19:03:12.125Z</time>
      </trkpt>
      <trkpt lat="47.32064" lon="4.97441">
        <ele>326</ele>
        <time>2015-01-10T19:03:13.131Z</time>
      </trkpt>
      <trkpt lat="47.32066" lon="4.97452">
        <ele>326</ele>
        <time>2015-01-10T19:03:18.141Z</time>
      </trkpt>
      <trkpt lat="47.32067" lon="4.97454">
        <ele>326</ele>
        <time>2015-01-10T19:03:19.149Z</time>
      </trkpt>
      <trkpt lat="47.3207" lon="4.97463">
        <ele>327</ele>
        <time>2015-01-10T19:03:24.137Z</time>
      </trkpt>
      <trkpt lat="47.32071" lon="4.97466">
        <ele>328</ele>
        <time>2015-01-10T19:03:25.133Z</time>
      </trkpt>
      <trkpt lat="47.32074" lon="4.97476">
        <ele>329</ele>
        <time>2015-01-10T19:03:31.125Z</time>
      </trkpt>
      <trkpt lat="47.32075" lon="4.97478">
        <ele>330</ele>
        <time>2015-01-10T19:03:32.132Z</time>
      </trkpt>
      <trkpt lat="47.3208" lon="4.97488">
        <ele>333</ele>
        <time>2015-01-10T19:03:37.124Z</time>
      </trkpt>
      <trkpt lat="47.32081" lon="4.97489">
        <ele>333</ele>
        <time>2015-01-10T19:03:38.132Z</time>
      </trkpt>
      <trkpt lat="47.32081" lon="4.97501">
        <ele>337</ele>
        <time>2015-01-10T19:03:44.138Z</time>
      </trkpt>
      <trkpt lat="47.3208" lon="4.97504">
        <ele>336</ele>
        <time>2015-01-10T19:03:45.133Z</time>
      </trkpt>
      <trkpt lat="47.32081" lon="4.97516">
        <ele>333</ele>
        <time>2015-01-10T19:03:53.135Z</time>
      </trkpt>
      <trkpt lat="47.32081" lon="4.97518">
        <ele>333</ele>
        <time>2015-01-10T19:03:54.133Z</time>
      </trkpt>
      <trkpt lat="47.32085" lon="4.97529">
        <ele>345</ele>
        <time>2015-01-10T19:04:01.133Z</time>
      </trkpt>
      <trkpt lat="47.32086" lon="4.97531">
        <ele>345</ele>
        <time>2015-01-10T19:04:02.137Z</time>
      </trkpt>
      <trkpt lat="47.32089" lon="4.97543">
        <ele>346</ele>
        <time>2015-01-10T19:04:11.123Z</time>
      </trkpt>
      <trkpt lat="47.3209" lon="4.97544">
        <ele>346</ele>
        <time>2015-01-10T19:04:12.125Z</time>
      </trkpt>
      <trkpt lat="47.32092" lon="4.97549">
        <ele>346</ele>
        <time>2015-01-10T19:04:16.131Z</time>
      </trkpt>
      <trkpt lat="47.32092" lon="4.97549">
        <ele>346</ele>
        <time>2015-01-10T19:04:17.129Z</time>
      </trkpt>
      <trkpt lat="47.32092" lon="4.97549">
        <ele>346</ele>
        <time>2015-01-10T19:04:24.131Z</time>
      </trkpt>
      <trkpt lat="47.32095" lon="4.97555">
        <ele>346</ele>
        <time>2015-01-10T19:04:25.132Z</time>
      </trkpt>
      <trkpt lat="47.321" lon="4.97565">
        <ele>346</ele>
        <time>2015-01-10T19:04:31.120Z</time>
      </trkpt>
      <trkpt lat="47.321" lon="4.97566">
        <ele>346</ele>
        <time>2015-01-10T19:04:32.132Z</time>
      </trkpt>
      <trkpt lat="47.321" lon="4.97566">
        <ele>346</ele>
        <time>2015-01-10T19:04:33.122Z</time>
      </trkpt>
      <trkpt lat="47.321" lon="4.97566">
        <ele>346</ele>
        <time>2015-01-10T19:04:34.121Z</time>
      </trkpt>
      <trkpt lat="47.321" lon="4.97566">
        <ele>346</ele>
        <time>2015-01-10T19:04:36.131Z</time>
      </trkpt>
      <trkpt lat="47.32103" lon="4.97573">
        <ele>346</ele>
        <time>2015-01-10T19:04:37.131Z</time>
      </trkpt>
      <trkpt lat="47.32108" lon="4.97584">
        <ele>344</ele>
        <time>2015-01-10T19:04:44.126Z</time>
      </trkpt>
      <trkpt lat="47.32109" lon="4.97585">
        <ele>345</ele>
        <time>2015-01-10T19:04:45.123Z</time>
      </trkpt>
      <trkpt lat="47.32111" lon="4.97591">
        <ele>345</ele>
        <time>2015-01-10T19:04:51.125Z</time>
      </trkpt>
      <trkpt lat="47.32115" lon="4.97596">
        <ele>345</ele>
        <time>2015-01-10T19:04:52.129Z</time>
      </trkpt>
      <trkpt lat="47.32119" lon="4.97607">
        <ele>346</ele>
        <time>2015-01-10T19:04:59.134Z</time>
      </trkpt>
      <trkpt lat="47.32119" lon="4.97609">
        <ele>346</ele>
        <time>2015-01-10T19:05:00.125Z</time>
      </trkpt>
      <trkpt lat="47.32119" lon="4.9761">
        <ele>346</ele>
        <time>2015-01-10T19:05:02.120Z</time>
      </trkpt>
      <trkpt lat="47.32119" lon="4.9761">
        <ele>346</ele>
        <time>2015-01-10T19:05:03.110Z</time>
      </trkpt>
      <trkpt lat="47.32119" lon="4.9761">
        <ele>346</ele>
        <time>2015-01-10T19:05:04.118Z</time>
      </trkpt>
      <trkpt lat="47.32121" lon="4.97616">
        <ele>346</ele>
        <time>2015-01-10T19:05:05.118Z</time>
      </trkpt>
      <trkpt lat="47.32125" lon="4.97628">
        <ele>346</ele>
        <time>2015-01-10T19:05:12.120Z</time>
      </trkpt>
      <trkpt lat="47.32126" lon="4.97629">
        <ele>346</ele>
        <time>2015-01-10T19:05:13.116Z</time>
      </trkpt>
      <trkpt lat="47.32128" lon="4.97635">
        <ele>346</ele>
        <time>2015-01-10T19:05:17.134Z</time>
      </trkpt>
      <trkpt lat="47.32128" lon="4.97635">
        <ele>346</ele>
        <time>2015-01-10T19:05:18.141Z</time>
      </trkpt>
      <trkpt lat="47.32128" lon="4.97635">
        <ele>346</ele>
        <time>2015-01-10T19:05:19.135Z</time>
      </trkpt>
      <trkpt lat="47.32128" lon="4.97635">
        <ele>346</ele>
        <time>2015-01-10T19:05:20.130Z</time>
      </trkpt>
      <trkpt lat="47.32134" lon="4.97645">
        <ele>346</ele>
        <time>2015-01-10T19:05:24.120Z</time>
      </trkpt>
      <trkpt lat="47.32135" lon="4.97647">
        <ele>346</ele>
        <time>2015-01-10T19:05:25.125Z</time>
      </trkpt>
      <trkpt lat="47.32139" lon="4.97657">
        <ele>347</ele>
        <time>2015-01-10T19:05:31.113Z</time>
      </trkpt>
      <trkpt lat="47.32141" lon="4.97659">
        <ele>347</ele>
        <time>2015-01-10T19:05:32.122Z</time>
      </trkpt>
      <trkpt lat="47.32146" lon="4.97668">
        <ele>344</ele>
        <time>2015-01-10T19:05:37.122Z</time>
      </trkpt>
      <trkpt lat="47.32147" lon="4.9767">
        <ele>345</ele>
        <time>2015-01-10T19:05:38.125Z</time>
      </trkpt>
      <trkpt lat="47.32152" lon="4.97679">
        <ele>345</ele>
        <time>2015-01-10T19:05:43.664Z</time>
      </trkpt>
      <trkpt lat="47.32153" lon="4.9768">
        <ele>345</ele>
        <time>2015-01-10T19:05:44.690Z</time>
      </trkpt>
      <trkpt lat="47.32153" lon="4.97681">
        <ele>345</ele>
        <time>2015-01-10T19:05:45.695Z</time>
      </trkpt>
      <trkpt lat="47.32157" lon="4.97686">
        <ele>344</ele>
        <time>2015-01-10T19:05:49.686Z</time>
      </trkpt>
      <trkpt lat="47.32158" lon="4.97687">
        <ele>344</ele>
        <time>2015-01-10T19:05:50.382Z</time>
      </trkpt>
      <trkpt lat="47.32165" lon="4.97694">
        <ele>344</ele>
        <time>2015-01-10T19:05:56.389Z</time>
      </trkpt>
      <trkpt lat="47.32166" lon="4.97695">
        <ele>344</ele>
        <time>2015-01-10T19:05:57.683Z</time>
      </trkpt>
      <trkpt lat="47.32172" lon="4.97702">
        <ele>354</ele>
        <time>2015-01-10T19:06:01.118Z</time>
      </trkpt>
      <trkpt lat="47.32173" lon="4.97703">
        <ele>354</ele>
        <time>2015-01-10T19:06:02.138Z</time>
      </trkpt>
      <trkpt lat="47.32179" lon="4.97712">
        <ele>354</ele>
        <time>2015-01-10T19:06:06.123Z</time>
      </trkpt>
      <trkpt lat="47.32179" lon="4.97714">
        <ele>354</ele>
        <time>2015-01-10T19:06:07.118Z</time>
      </trkpt>
      <trkpt lat="47.32183" lon="4.97726">
        <ele>353</ele>
        <time>2015-01-10T19:06:13.131Z</time>
      </trkpt>
      <trkpt lat="47.32183" lon="4.97728">
        <ele>353</ele>
        <time>2015-01-10T19:06:14.146Z</time>
      </trkpt>
      <trkpt lat="47.32188" lon="4.97739">
        <ele>352</ele>
        <time>2015-01-10T19:06:20.148Z</time>
      </trkpt>
      <trkpt lat="47.32189" lon="4.9774">
        <ele>352</ele>
        <time>2015-01-10T19:06:21.141Z</time>
      </trkpt>
      <trkpt lat="47.32197" lon="4.97744">
        <ele>353</ele>
        <time>2015-01-10T19:06:27.112Z</time>
      </trkpt>
      <trkpt lat="47.32199" lon="4.97745">
        <ele>354</ele>
        <time>2015-01-10T19:06:28.175Z</time>
      </trkpt>
      <trkpt lat="47.32207" lon="4.97746">
        <ele>355</ele>
        <time>2015-01-10T19:06:32.139Z</time>
      </trkpt>
      <trkpt lat="47.32209" lon="4.97746">
        <ele>355</ele>
        <time>2015-01-10T19:06:33.130Z</time>
      </trkpt>
      <trkpt lat="47.32217" lon="4.97751">
        <ele>351</ele>
        <time>2015-01-10T19:06:38.145Z</time>
      </trkpt>
      <trkpt lat="47.32218" lon="4.97752">
        <ele>351</ele>
        <time>2015-01-10T19:06:39.132Z</time>
      </trkpt>
      <trkpt lat="47.32226" lon="4.97759">
        <ele>352</ele>
        <time>2015-01-10T19:06:48.106Z</time>
      </trkpt>
      <trkpt lat="47.32229" lon="4.97761">
        <ele>352</ele>
        <time>2015-01-10T19:06:49.098Z</time>
      </trkpt>
      <trkpt lat="47.32235" lon="4.97765">
        <ele>353</ele>
        <time>2015-01-10T19:06:54.124Z</time>
      </trkpt>
      <trkpt lat="47.32237" lon="4.97766">
        <ele>353</ele>
        <time>2015-01-10T19:06:55.127Z</time>
      </trkpt>
      <trkpt lat="47.32244" lon="4.97772">
        <ele>353</ele>
        <time>2015-01-10T19:07:01.104Z</time>
      </trkpt>
      <trkpt lat="47.32245" lon="4.97773">
        <ele>353</ele>
        <time>2015-01-10T19:07:02.114Z</time>
      </trkpt>
      <trkpt lat="47.32248" lon="4.9778">
        <ele>352</ele>
        <time>2015-01-10T19:07:08.124Z</time>
      </trkpt>
      <trkpt lat="47.32248" lon="4.9778">
        <ele>352</ele>
        <time>2015-01-10T19:07:09.111Z</time>
      </trkpt>
      <trkpt lat="47.32248" lon="4.9778">
        <ele>352</ele>
        <time>2015-01-10T19:07:10.109Z</time>
      </trkpt>
      <trkpt lat="47.32248" lon="4.97787">
        <ele>351</ele>
        <time>2015-01-10T19:07:11.110Z</time>
      </trkpt>
      <trkpt lat="47.32248" lon="4.9779">
        <ele>351</ele>
        <time>2015-01-10T19:07:13.111Z</time>
      </trkpt>
      <trkpt lat="47.32249" lon="4.97791">
        <ele>351</ele>
        <time>2015-01-10T19:07:14.096Z</time>
      </trkpt>
      <trkpt lat="47.32249" lon="4.97791">
        <ele>351</ele>
        <time>2015-01-10T19:07:15.116Z</time>
      </trkpt>
      <trkpt lat="47.32252" lon="4.97802">
        <ele>358</ele>
        <time>2015-01-10T19:07:21.112Z</time>
      </trkpt>
      <trkpt lat="47.32254" lon="4.97803">
        <ele>358</ele>
        <time>2015-01-10T19:07:22.115Z</time>
      </trkpt>
      <trkpt lat="47.32256" lon="4.97813">
        <ele>357</ele>
        <time>2015-01-10T19:07:29.123Z</time>
      </trkpt>
      <trkpt lat="47.32257" lon="4.9782">
        <ele>356</ele>
        <time>2015-01-10T19:07:30.107Z</time>
      </trkpt>
      <trkpt lat="47.32257" lon="4.97832">
        <ele>354</ele>
        <time>2015-01-10T19:07:36.113Z</time>
      </trkpt>
      <trkpt lat="47.32257" lon="4.97834">
        <ele>352</ele>
        <time>2015-01-10T19:07:37.113Z</time>
      </trkpt>
      <trkpt lat="47.32258" lon="4.97847">
        <ele>352</ele>
        <time>2015-01-10T19:07:45.142Z</time>
      </trkpt>
      <trkpt lat="47.32257" lon="4.9785">
        <ele>352</ele>
        <time>2015-01-10T19:07:46.114Z</time>
      </trkpt>
      <trkpt lat="47.32255" lon="4.97861">
        <ele>351</ele>
        <time>2015-01-10T19:07:51.122Z</time>
      </trkpt>
      <trkpt lat="47.32255" lon="4.97863">
        <ele>351</ele>
        <time>2015-01-10T19:07:52.114Z</time>
      </trkpt>
      <trkpt lat="47.32257" lon="4.97875">
        <ele>350</ele>
        <time>2015-01-10T19:07:57.116Z</time>
      </trkpt>
      <trkpt lat="47.32257" lon="4.97877">
        <ele>349</ele>
        <time>2015-01-10T19:07:58.119Z</time>
      </trkpt>
      <trkpt lat="47.32256" lon="4.97889">
        <ele>347</ele>
        <time>2015-01-10T19:08:06.103Z</time>
      </trkpt>
      <trkpt lat="47.32256" lon="4.97891">
        <ele>347</ele>
        <time>2015-01-10T19:08:07.119Z</time>
      </trkpt>
      <trkpt lat="47.32256" lon="4.97902">
        <ele>345</ele>
        <time>2015-01-10T19:08:13.120Z</time>
      </trkpt>
      <trkpt lat="47.32256" lon="4.97904">
        <ele>344</ele>
        <time>2015-01-10T19:08:14.122Z</time>
      </trkpt>
      <trkpt lat="47.32258" lon="4.97915">
        <ele>342</ele>
        <time>2015-01-10T19:08:20.148Z</time>
      </trkpt>
      <trkpt lat="47.32258" lon="4.97917">
        <ele>339</ele>
        <time>2015-01-10T19:08:21.124Z</time>
      </trkpt>
      <trkpt lat="47.3226" lon="4.97929">
        <ele>340</ele>
        <time>2015-01-10T19:08:26.137Z</time>
      </trkpt>
      <trkpt lat="47.3226" lon="4.97931">
        <ele>340</ele>
        <time>2015-01-10T19:08:27.124Z</time>
      </trkpt>
      <trkpt lat="47.32263" lon="4.97943">
        <ele>340</ele>
        <time>2015-01-10T19:08:34.123Z</time>
      </trkpt>
      <trkpt lat="47.32264" lon="4.97944">
        <ele>341</ele>
        <time>2015-01-10T19:08:35.116Z</time>
      </trkpt>
      <trkpt lat="47.32268" lon="4.97955">
        <ele>340</ele>
        <time>2015-01-10T19:08:40.135Z</time>
      </trkpt>
      <trkpt lat="47.32268" lon="4.97957">
        <ele>340</ele>
        <time>2015-01-10T19:08:41.135Z</time>
      </trkpt>
      <trkpt lat="47.32271" lon="4.97969">
        <ele>340</ele>
        <time>2015-01-10T19:08:46.148Z</time>
      </trkpt>
      <trkpt lat="47.32272" lon="4.97972">
        <ele>339</ele>
        <time>2015-01-10T19:08:47.143Z</time>
      </trkpt>
      <trkpt lat="47.32275" lon="4.97984">
        <ele>339</ele>
        <time>2015-01-10T19:08:53.119Z</time>
      </trkpt>
      <trkpt lat="47.32275" lon="4.97985">
        <ele>339</ele>
        <time>2015-01-10T19:08:54.120Z</time>
      </trkpt>
      <trkpt lat="47.32276" lon="4.97985">
        <ele>339</ele>
        <time>2015-01-10T19:08:55.134Z</time>
      </trkpt>
      <trkpt lat="47.32275" lon="4.97985">
        <ele>339</ele>
        <time>2015-01-10T19:08:56.167Z</time>
      </trkpt>
      <trkpt lat="47.32277" lon="4.97988">
        <ele>339</ele>
        <time>2015-01-10T19:08:58.146Z</time>
      </trkpt>
      <trkpt lat="47.32277" lon="4.97988">
        <ele>339</ele>
        <time>2015-01-10T19:08:59.149Z</time>
      </trkpt>
      <trkpt lat="47.32274" lon="4.98">
        <ele>338</ele>
        <time>2015-01-10T19:09:04.134Z</time>
      </trkpt>
      <trkpt lat="47.32274" lon="4.98001">
        <ele>335</ele>
        <time>2015-01-10T19:09:05.186Z</time>
      </trkpt>
      <trkpt lat="47.32274" lon="4.98012">
        <ele>335</ele>
        <time>2015-01-10T19:09:11.134Z</time>
      </trkpt>
      <trkpt lat="47.32275" lon="4.98014">
        <ele>335</ele>
        <time>2015-01-10T19:09:12.112Z</time>
      </trkpt>
      <trkpt lat="47.32277" lon="4.98026">
        <ele>336</ele>
        <time>2015-01-10T19:09:17.141Z</time>
      </trkpt>
      <trkpt lat="47.32277" lon="4.9803">
        <ele>336</ele>
        <time>2015-01-10T19:09:18.144Z</time>
      </trkpt>
      <trkpt lat="47.32279" lon="4.9804">
        <ele>336</ele>
        <time>2015-01-10T19:09:23.118Z</time>
      </trkpt>
      <trkpt lat="47.32278" lon="4.98046">
        <ele>336</ele>
        <time>2015-01-10T19:09:24.142Z</time>
      </trkpt>
      <trkpt lat="47.32279" lon="4.98057">
        <ele>335</ele>
        <time>2015-01-10T19:09:28.155Z</time>
      </trkpt>
      <trkpt lat="47.32279" lon="4.9806">
        <ele>335</ele>
        <time>2015-01-10T19:09:29.159Z</time>
      </trkpt>
      <trkpt lat="47.32278" lon="4.98073">
        <ele>334</ele>
        <time>2015-01-10T19:09:35.128Z</time>
      </trkpt>
      <trkpt lat="47.32278" lon="4.98075">
        <ele>334</ele>
        <time>2015-01-10T19:09:36.125Z</time>
      </trkpt>
      <trkpt lat="47.32276" lon="4.98086">
        <ele>331</ele>
        <time>2015-01-10T19:09:41.267Z</time>
      </trkpt>
      <trkpt lat="47.32276" lon="4.98088">
        <ele>331</ele>
        <time>2015-01-10T19:09:42.122Z</time>
      </trkpt>
      <trkpt lat="47.32273" lon="4.981">
        <ele>330</ele>
        <time>2015-01-10T19:09:45.131Z</time>
      </trkpt>
      <trkpt lat="47.32273" lon="4.98102">
        <ele>330</ele>
        <time>2015-01-10T19:09:46.138Z</time>
      </trkpt>
      <trkpt lat="47.32273" lon="4.98115">
        <ele>330</ele>
        <time>2015-01-10T19:09:51.147Z</time>
      </trkpt>
      <trkpt lat="47.32273" lon="4.98117">
        <ele>330</ele>
        <time>2015-01-10T19:09:52.127Z</time>
      </trkpt>
      <trkpt lat="47.32273" lon="4.9813">
        <ele>330</ele>
        <time>2015-01-10T19:09:57.148Z</time>
      </trkpt>
      <trkpt lat="47.32273" lon="4.98132">
        <ele>330</ele>
        <time>2015-01-10T19:09:58.138Z</time>
      </trkpt>
      <trkpt lat="47.32273" lon="4.98144">
        <ele>328</ele>
        <time>2015-01-10T19:10:03.121Z</time>
      </trkpt>
      <trkpt lat="47.32273" lon="4.98146">
        <ele>328</ele>
        <time>2015-01-10T19:10:04.131Z</time>
      </trkpt>
      <trkpt lat="47.32272" lon="4.98157">
        <ele>327</ele>
        <time>2015-01-10T19:10:08.127Z</time>
      </trkpt>
      <trkpt lat="47.32272" lon="4.98159">
        <ele>326</ele>
        <time>2015-01-10T19:10:09.137Z</time>
      </trkpt>
      <trkpt lat="47.32269" lon="4.98172">
        <ele>323</ele>
        <time>2015-01-10T19:10:14.154Z</time>
      </trkpt>
      <trkpt lat="47.32269" lon="4.98175">
        <ele>323</ele>
        <time>2015-01-10T19:10:15.144Z</time>
      </trkpt>
      <trkpt lat="47.32267" lon="4.98186">
        <ele>323</ele>
        <time>2015-01-10T19:10:20.149Z</time>
      </trkpt>
      <trkpt lat="47.32267" lon="4.98188">
        <ele>323</ele>
        <time>2015-01-10T19:10:21.148Z</time>
      </trkpt>
      <trkpt lat="47.32265" lon="4.98199">
        <ele>323</ele>
        <time>2015-01-10T19:10:25.143Z</time>
      </trkpt>
      <trkpt lat="47.32264" lon="4.98202">
        <ele>323</ele>
        <time>2015-01-10T19:10:26.148Z</time>
      </trkpt>
      <trkpt lat="47.32261" lon="4.98213">
        <ele>323</ele>
        <time>2015-01-10T19:10:31.134Z</time>
      </trkpt>
      <trkpt lat="47.3226" lon="4.98216">
        <ele>322</ele>
        <time>2015-01-10T19:10:32.140Z</time>
      </trkpt>
      <trkpt lat="47.32259" lon="4.98228">
        <ele>320</ele>
        <time>2015-01-10T19:10:37.147Z</time>
      </trkpt>
      <trkpt lat="47.32258" lon="4.98231">
        <ele>320</ele>
        <time>2015-01-10T19:10:38.153Z</time>
      </trkpt>
      <trkpt lat="47.32257" lon="4.98242">
        <ele>316</ele>
        <time>2015-01-10T19:10:42.129Z</time>
      </trkpt>
      <trkpt lat="47.32257" lon="4.98244">
        <ele>315</ele>
        <time>2015-01-10T19:10:43.119Z</time>
      </trkpt>
      <trkpt lat="47.32255" lon="4.98255">
        <ele>314</ele>
        <time>2015-01-10T19:10:48.142Z</time>
      </trkpt>
      <trkpt lat="47.32255" lon="4.98258">
        <ele>314</ele>
        <time>2015-01-10T19:10:49.144Z</time>
      </trkpt>
      <trkpt lat="47.32253" lon="4.98268">
        <ele>317</ele>
        <time>2015-01-10T19:10:53.139Z</time>
      </trkpt>
      <trkpt lat="47.32253" lon="4.98271">
        <ele>317</ele>
        <time>2015-01-10T19:10:54.142Z</time>
      </trkpt>
      <trkpt lat="47.32251" lon="4.98282">
        <ele>318</ele>
        <time>2015-01-10T19:10:58.140Z</time>
      </trkpt>
      <trkpt lat="47.32251" lon="4.98284">
        <ele>318</ele>
        <time>2015-01-10T19:10:59.144Z</time>
      </trkpt>
      <trkpt lat="47.32249" lon="4.98297">
        <ele>301</ele>
        <time>2015-01-10T19:11:04.130Z</time>
      </trkpt>
      <trkpt lat="47.32249" lon="4.98299">
        <ele>301</ele>
        <time>2015-01-10T19:11:05.136Z</time>
      </trkpt>
      <trkpt lat="47.32248" lon="4.98312">
        <ele>302</ele>
        <time>2015-01-10T19:11:10.150Z</time>
      </trkpt>
      <trkpt lat="47.32247" lon="4.98314">
        <ele>302</ele>
        <time>2015-01-10T19:11:11.137Z</time>
      </trkpt>
      <trkpt lat="47.32244" lon="4.98326">
        <ele>304</ele>
        <time>2015-01-10T19:11:16.144Z</time>
      </trkpt>
      <trkpt lat="47.32244" lon="4.98328">
        <ele>305</ele>
        <time>2015-01-10T19:11:17.129Z</time>
      </trkpt>
      <trkpt lat="47.32242" lon="4.9834">
        <ele>304</ele>
        <time>2015-01-10T19:11:22.146Z</time>
      </trkpt>
      <trkpt lat="47.32242" lon="4.98343">
        <ele>303</ele>
        <time>2015-01-10T19:11:23.138Z</time>
      </trkpt>
      <trkpt lat="47.32245" lon="4.98354">
        <ele>301</ele>
        <time>2015-01-10T19:11:27.144Z</time>
      </trkpt>
      <trkpt lat="47.32246" lon="4.98357">
        <ele>301</ele>
        <time>2015-01-10T19:11:28.136Z</time>
      </trkpt>
      <trkpt lat="47.32251" lon="4.98368">
        <ele>317</ele>
        <time>2015-01-10T19:11:32.148Z</time>
      </trkpt>
      <trkpt lat="47.32252" lon="4.9837">
        <ele>317</ele>
        <time>2015-01-10T19:11:33.140Z</time>
      </trkpt>
      <trkpt lat="47.32256" lon="4.98381">
        <ele>318</ele>
        <time>2015-01-10T19:11:38.168Z</time>
      </trkpt>
      <trkpt lat="47.32256" lon="4.98383">
        <ele>318</ele>
        <time>2015-01-10T19:11:39.138Z</time>
      </trkpt>
      <trkpt lat="47.32258" lon="4.98394">
        <ele>317</ele>
        <time>2015-01-10T19:11:43.141Z</time>
      </trkpt>
      <trkpt lat="47.32258" lon="4.98396">
        <ele>317</ele>
        <time>2015-01-10T19:11:44.150Z</time>
      </trkpt>
      <trkpt lat="47.32261" lon="4.98408">
        <ele>315</ele>
        <time>2015-01-10T19:11:49.152Z</time>
      </trkpt>
      <trkpt lat="47.32261" lon="4.9841">
        <ele>315</ele>
        <time>2015-01-10T19:11:50.151Z</time>
      </trkpt>
      <trkpt lat="47.32264" lon="4.98422">
        <ele>316</ele>
        <time>2015-01-10T19:11:56.148Z</time>
      </trkpt>
      <trkpt lat="47.32265" lon="4.98424">
        <ele>316</ele>
        <time>2015-01-10T19:11:57.144Z</time>
      </trkpt>
      <trkpt lat="47.32269" lon="4.98433">
        <ele>319</ele>
        <time>2015-01-10T19:12:01.122Z</time>
      </trkpt>
      <trkpt lat="47.32269" lon="4.98435">
        <ele>319</ele>
        <time>2015-01-10T19:12:02.142Z</time>
      </trkpt>
      <trkpt lat="47.32273" lon="4.98446">
        <ele>321</ele>
        <time>2015-01-10T19:12:07.133Z</time>
      </trkpt>
      <trkpt lat="47.32273" lon="4.98447">
        <ele>321</ele>
        <time>2015-01-10T19:12:08.144Z</time>
      </trkpt>
      <trkpt lat="47.32275" lon="4.98459">
        <ele>321</ele>
        <time>2015-01-10T19:12:13.138Z</time>
      </trkpt>
      <trkpt lat="47.32276" lon="4.98461">
        <ele>322</ele>
        <time>2015-01-10T19:12:14.150Z</time>
      </trkpt>
      <trkpt lat="47.3228" lon="4.98472">
        <ele>322</ele>
        <time>2015-01-10T19:12:18.139Z</time>
      </trkpt>
      <trkpt lat="47.32281" lon="4.98474">
        <ele>322</ele>
        <time>2015-01-10T19:12:19.144Z</time>
      </trkpt>
      <trkpt lat="47.32284" lon="4.98485">
        <ele>323</ele>
        <time>2015-01-10T19:12:23.147Z</time>
      </trkpt>
      <trkpt lat="47.32285" lon="4.98488">
        <ele>323</ele>
        <time>2015-01-10T19:12:24.140Z</time>
      </trkpt>
      <trkpt lat="47.32288" lon="4.98497">
        <ele>324</ele>
        <time>2015-01-10T19:12:28.141Z</time>
      </trkpt>
      <trkpt lat="47.32289" lon="4.98499">
        <ele>324</ele>
        <time>2015-01-10T19:12:29.146Z</time>
      </trkpt>
      <trkpt lat="47.32292" lon="4.98512">
        <ele>324</ele>
        <time>2015-01-10T19:12:35.134Z</time>
      </trkpt>
      <trkpt lat="47.32292" lon="4.98514">
        <ele>324</ele>
        <time>2015-01-10T19:12:36.132Z</time>
      </trkpt>
      <trkpt lat="47.32289" lon="4.98525">
        <ele>324</ele>
        <time>2015-01-10T19:12:45.138Z</time>
      </trkpt>
      <trkpt lat="47.32289" lon="4.98527">
        <ele>324</ele>
        <time>2015-01-10T19:12:46.153Z</time>
      </trkpt>
      <trkpt lat="47.32285" lon="4.98538">
        <ele>323</ele>
        <time>2015-01-10T19:12:51.135Z</time>
      </trkpt>
      <trkpt lat="47.32285" lon="4.98539">
        <ele>323</ele>
        <time>2015-01-10T19:12:52.140Z</time>
      </trkpt>
      <trkpt lat="47.32284" lon="4.98551">
        <ele>323</ele>
        <time>2015-01-10T19:12:57.131Z</time>
      </trkpt>
      <trkpt lat="47.32284" lon="4.98553">
        <ele>323</ele>
        <time>2015-01-10T19:12:58.123Z</time>
      </trkpt>
      <trkpt lat="47.32283" lon="4.98566">
        <ele>322</ele>
        <time>2015-01-10T19:13:03.109Z</time>
      </trkpt>
      <trkpt lat="47.32282" lon="4.98568">
        <ele>322</ele>
        <time>2015-01-10T19:13:04.108Z</time>
      </trkpt>
      <trkpt lat="47.32278" lon="4.9858">
        <ele>321</ele>
        <time>2015-01-10T19:13:10.140Z</time>
      </trkpt>
      <trkpt lat="47.32279" lon="4.9858">
        <ele>321</ele>
        <time>2015-01-10T19:13:11.155Z</time>
      </trkpt>
      <trkpt lat="47.3227" lon="4.98575">
        <ele>319</ele>
        <time>2015-01-10T19:13:19.136Z</time>
      </trkpt>
      <trkpt lat="47.32269" lon="4.98575">
        <ele>319</ele>
        <time>2015-01-10T19:13:20.148Z</time>
      </trkpt>
      <trkpt lat="47.32262" lon="4.98569">
        <ele>318</ele>
        <time>2015-01-10T19:13:25.133Z</time>
      </trkpt>
      <trkpt lat="47.32261" lon="4.98568">
        <ele>318</ele>
        <time>2015-01-10T19:13:26.142Z</time>
      </trkpt>
      <trkpt lat="47.32253" lon="4.98562">
        <ele>318</ele>
        <time>2015-01-10T19:13:32.136Z</time>
      </trkpt>
      <trkpt lat="47.32251" lon="4.98561">
        <ele>318</ele>
        <time>2015-01-10T19:13:33.128Z</time>
      </trkpt>
      <trkpt lat="47.32244" lon="4.98556">
        <ele>302</ele>
        <time>2015-01-10T19:13:39.155Z</time>
      </trkpt>
      <trkpt lat="47.32243" lon="4.98556">
        <ele>302</ele>
        <time>2015-01-10T19:13:40.115Z</time>
      </trkpt>
      <trkpt lat="47.32235" lon="4.9855">
        <ele>300</ele>
        <time>2015-01-10T19:13:46.133Z</time>
      </trkpt>
      <trkpt lat="47.32234" lon="4.98549">
        <ele>300</ele>
        <time>2015-01-10T19:13:47.111Z</time>
      </trkpt>
      <trkpt lat="47.32227" lon="4.98541">
        <ele>299</ele>
        <time>2015-01-10T19:13:52.122Z</time>
      </trkpt>
      <trkpt lat="47.32226" lon="4.9854">
        <ele>299</ele>
        <time>2015-01-10T19:13:53.138Z</time>
      </trkpt>
      <trkpt lat="47.32219" lon="4.98533">
        <ele>298</ele>
        <time>2015-01-10T19:13:58.128Z</time>
      </trkpt>
      <trkpt lat="47.32218" lon="4.98532">
        <ele>298</ele>
        <time>2015-01-10T19:13:59.131Z</time>
      </trkpt>
      <trkpt lat="47.32212" lon="4.98523">
        <ele>297</ele>
        <time>2015-01-10T19:14:05.120Z</time>
      </trkpt>
      <trkpt lat="47.32211" lon="4.98521">
        <ele>297</ele>
        <time>2015-01-10T19:14:06.124Z</time>
      </trkpt>
      <trkpt lat="47.32206" lon="4.98512">
        <ele>295</ele>
        <time>2015-01-10T19:14:12.126Z</time>
      </trkpt>
      <trkpt lat="47.32205" lon="4.98511">
        <ele>295</ele>
        <time>2015-01-10T19:14:13.134Z</time>
      </trkpt>
      <trkpt lat="47.32198" lon="4.98502">
        <ele>293</ele>
        <time>2015-01-10T19:14:19.140Z</time>
      </trkpt>
      <trkpt lat="47.32197" lon="4.985">
        <ele>293</ele>
        <time>2015-01-10T19:14:20.144Z</time>
      </trkpt>
      <trkpt lat="47.32192" lon="4.98491">
        <ele>292</ele>
        <time>2015-01-10T19:14:26.140Z</time>
      </trkpt>
      <trkpt lat="47.32191" lon="4.9849">
        <ele>292</ele>
        <time>2015-01-10T19:14:27.130Z</time>
      </trkpt>
      <trkpt lat="47.32186" lon="4.98481">
        <ele>291</ele>
        <time>2015-01-10T19:14:33.145Z</time>
      </trkpt>
      <trkpt lat="47.32185" lon="4.9848">
        <ele>291</ele>
        <time>2015-01-10T19:14:34.124Z</time>
      </trkpt>
      <trkpt lat="47.32181" lon="4.98468">
        <ele>292</ele>
        <time>2015-01-10T19:14:41.108Z</time>
      </trkpt>
      <trkpt lat="47.32181" lon="4.98467">
        <ele>292</ele>
        <time>2015-01-10T19:14:42.147Z</time>
      </trkpt>
      <trkpt lat="47.3218" lon="4.98453">
        <ele>292</ele>
        <time>2015-01-10T19:14:49.140Z</time>
      </trkpt>
      <trkpt lat="47.3218" lon="4.98451">
        <ele>292</ele>
        <time>2015-01-10T19:14:50.146Z</time>
      </trkpt>
      <trkpt lat="47.32181" lon="4.98438">
        <ele>291</ele>
        <time>2015-01-10T19:14:57.139Z</time>
      </trkpt>
      <trkpt lat="47.32181" lon="4.98437">
        <ele>291</ele>
        <time>2015-01-10T19:14:58.131Z</time>
      </trkpt>
      <trkpt lat="47.32184" lon="4.98425">
        <ele>290</ele>
        <time>2015-01-10T19:15:05.136Z</time>
      </trkpt>
      <trkpt lat="47.32184" lon="4.98424">
        <ele>290</ele>
        <time>2015-01-10T19:15:06.123Z</time>
      </trkpt>
      <trkpt lat="47.32186" lon="4.98411">
        <ele>290</ele>
        <time>2015-01-10T19:15:15.136Z</time>
      </trkpt>
      <trkpt lat="47.32186" lon="4.9841">
        <ele>290</ele>
        <time>2015-01-10T19:15:16.138Z</time>
      </trkpt>
      <trkpt lat="47.32186" lon="4.9841">
        <ele>290</ele>
        <time>2015-01-10T19:15:17.141Z</time>
      </trkpt>
      <trkpt lat="47.32186" lon="4.98409">
        <ele>290</ele>
        <time>2015-01-10T19:15:18.120Z</time>
      </trkpt>
      <trkpt lat="47.32186" lon="4.98409">
        <ele>290</ele>
        <time>2015-01-10T19:15:23.137Z</time>
      </trkpt>
      <trkpt lat="47.32186" lon="4.98409">
        <ele>290</ele>
        <time>2015-01-10T19:15:24.142Z</time>
      </trkpt>
      <trkpt lat="47.32186" lon="4.98409">
        <ele>290</ele>
        <time>2015-01-10T19:15:26.146Z</time>
      </trkpt>
      <trkpt lat="47.32186" lon="4.98409">
        <ele>290</ele>
        <time>2015-01-10T19:15:27.139Z</time>
      </trkpt>
      <trkpt lat="47.32187" lon="4.984">
        <ele>291</ele>
        <time>2015-01-10T19:15:31.129Z</time>
      </trkpt>
      <trkpt lat="47.32187" lon="4.984">
        <ele>291</ele>
        <time>2015-01-10T19:15:32.110Z</time>
      </trkpt>
      <trkpt lat="47.32187" lon="4.984">
        <ele>291</ele>
        <time>2015-01-10T19:15:38.140Z</time>
      </trkpt>
      <trkpt lat="47.32187" lon="4.984">
        <ele>291</ele>
        <time>2015-01-10T19:15:39.127Z</time>
      </trkpt>
      <trkpt lat="47.32187" lon="4.984">
        <ele>291</ele>
        <time>2015-01-10T19:15:40.135Z</time>
      </trkpt>
      <trkpt lat="47.32189" lon="4.98393">
        <ele>292</ele>
        <time>2015-01-10T19:15:41.124Z</time>
      </trkpt>
      <trkpt lat="47.32189" lon="4.98393">
        <ele>292</ele>
        <time>2015-01-10T19:15:42.123Z</time>
      </trkpt>
      <trkpt lat="47.32189" lon="4.98392">
        <ele>292</ele>
        <time>2015-01-10T19:15:43.126Z</time>
      </trkpt>
      <trkpt lat="47.3219" lon="4.98392">
        <ele>292</ele>
        <time>2015-01-10T19:15:44.133Z</time>
      </trkpt>
      <trkpt lat="47.3219" lon="4.98392">
        <ele>292</ele>
        <time>2015-01-10T19:15:45.138Z</time>
      </trkpt>
      <trkpt lat="47.3219" lon="4.98392">
        <ele>292</ele>
        <time>2015-01-10T19:15:48.138Z</time>
      </trkpt>
      <trkpt lat="47.3219" lon="4.98392">
        <ele>292</ele>
        <time>2015-01-10T19:15:49.136Z</time>
      </trkpt>
      <trkpt lat="47.32186" lon="4.9838">
        <ele>292</ele>
        <time>2015-01-10T19:15:56.143Z</time>
      </trkpt>
      <trkpt lat="47.32185" lon="4.98379">
        <ele>292</ele>
        <time>2015-01-10T19:15:57.137Z</time>
      </trkpt>
      <trkpt lat="47.3218" lon="4.98369">
        <ele>291</ele>
        <time>2015-01-10T19:16:04.128Z</time>
      </trkpt>
      <trkpt lat="47.32179" lon="4.98368">
        <ele>291</ele>
        <time>2015-01-10T19:16:05.129Z</time>
      </trkpt>
      <trkpt lat="47.32175" lon="4.98358">
        <ele>290</ele>
        <time>2015-01-10T19:16:11.130Z</time>
      </trkpt>
      <trkpt lat="47.32175" lon="4.98356">
        <ele>289</ele>
        <time>2015-01-10T19:16:12.128Z</time>
      </trkpt>
      <trkpt lat="47.32169" lon="4.98346">
        <ele>287</ele>
        <time>2015-01-10T19:16:18.142Z</time>
      </trkpt>
      <trkpt lat="47.32168" lon="4.98345">
        <ele>286</ele>
        <time>2015-01-10T19:16:19.148Z</time>
      </trkpt>
      <trkpt lat="47.32163" lon="4.98335">
        <ele>281</ele>
        <time>2015-01-10T19:16:27.137Z</time>
      </trkpt>
      <trkpt lat="47.32161" lon="4.98334">
        <ele>281</ele>
        <time>2015-01-10T19:16:28.133Z</time>
      </trkpt>
      <trkpt lat="47.32156" lon="4.98325">
        <ele>282</ele>
        <time>2015-01-10T19:16:36.118Z</time>
      </trkpt>
      <trkpt lat="47.32155" lon="4.98324">
        <ele>282</ele>
        <time>2015-01-10T19:16:37.126Z</time>
      </trkpt>
      <trkpt lat="47.3215" lon="4.98313">
        <ele>283</ele>
        <time>2015-01-10T19:16:47.135Z</time>
      </trkpt>
      <trkpt lat="47.3215" lon="4.98311">
        <ele>283</ele>
        <time>2015-01-10T19:16:48.117Z</time>
      </trkpt>
      <trkpt lat="47.32148" lon="4.98303">
        <ele>283</ele>
        <time>2015-01-10T19:16:58.108Z</time>
      </trkpt>
      <trkpt lat="47.32148" lon="4.98302">
        <ele>283</ele>
        <time>2015-01-10T19:16:59.141Z</time>
      </trkpt>
      <trkpt lat="47.32144" lon="4.98301">
        <ele>283</ele>
        <time>2015-01-10T19:18:03.974Z</time>
      </trkpt>
    </trkseg>
  </trk>
</gpx>